<?xml version="1.0" encoding="UTF-8" standalone="no" ?>
<gpx xmlns="http://www.topografix.com/GPX/1/1" xmlns:xsi="http://www.w3.org/2001/XMLSchema-instance" xsi:schemaLocation="http://www.topografix.com/GPX/1/1 http://www.topografix.com/GPX/1/1/gpx.xsd" version="1.1" creator="VisuGPX - https://www.visugpx.com">
  <metadata>
    <name>La haute loge et les hautes chaumes - Gravel bike</name>
  </metadata>
  <trk>
    <name><![CDATA[La haute loge et les hautes chaumes - Gravel bike_1]]></name>
    <trkseg>
      <trkpt lat="48.41093" lon="7.15861">
        <ele>429.8</ele>
        <time>2022-12-27T08:03:07Z</time>
      </trkpt>
      <trkpt lat="48.41101" lon="7.15841">
        <ele>441.8</ele>
        <time>2022-12-27T08:03:11Z</time>
      </trkpt>
      <trkpt lat="48.4111" lon="7.15824">
        <ele>442</ele>
        <time>2022-12-27T08:03:15Z</time>
      </trkpt>
      <trkpt lat="48.41134" lon="7.15786">
        <ele>442.2</ele>
        <time>2022-12-27T08:03:25Z</time>
      </trkpt>
      <trkpt lat="48.41136" lon="7.15783">
        <ele>442.6</ele>
        <time>2022-12-27T08:03:26Z</time>
      </trkpt>
      <trkpt lat="48.41138" lon="7.15779">
        <ele>442.8</ele>
        <time>2022-12-27T08:03:27Z</time>
      </trkpt>
      <trkpt lat="48.41146" lon="7.15766">
        <ele>444</ele>
        <time>2022-12-27T08:03:31Z</time>
      </trkpt>
      <trkpt lat="48.41151" lon="7.15758">
        <ele>444.2</ele>
        <time>2022-12-27T08:03:33Z</time>
      </trkpt>
      <trkpt lat="48.4116" lon="7.15741">
        <ele>444.8</ele>
        <time>2022-12-27T08:03:38Z</time>
      </trkpt>
      <trkpt lat="48.41164" lon="7.15734">
        <ele>445</ele>
        <time>2022-12-27T08:03:40Z</time>
      </trkpt>
      <trkpt lat="48.41174" lon="7.15715">
        <ele>445.4</ele>
        <time>2022-12-27T08:03:45Z</time>
      </trkpt>
      <trkpt lat="48.41177" lon="7.15712">
        <ele>445.4</ele>
        <time>2022-12-27T08:03:46Z</time>
      </trkpt>
      <trkpt lat="48.41182" lon="7.15705">
        <ele>445.6</ele>
        <time>2022-12-27T08:03:48Z</time>
      </trkpt>
      <trkpt lat="48.41186" lon="7.15698">
        <ele>445.6</ele>
        <time>2022-12-27T08:03:50Z</time>
      </trkpt>
      <trkpt lat="48.41196" lon="7.15686">
        <ele>445.8</ele>
        <time>2022-12-27T08:03:54Z</time>
      </trkpt>
      <trkpt lat="48.41208" lon="7.15668">
        <ele>446</ele>
        <time>2022-12-27T08:03:59Z</time>
      </trkpt>
      <trkpt lat="48.41216" lon="7.15658">
        <ele>446</ele>
        <time>2022-12-27T08:04:02Z</time>
      </trkpt>
      <trkpt lat="48.41218" lon="7.15655">
        <ele>446</ele>
        <time>2022-12-27T08:04:03Z</time>
      </trkpt>
      <trkpt lat="48.41227" lon="7.15645">
        <ele>446.2</ele>
        <time>2022-12-27T08:04:06Z</time>
      </trkpt>
      <trkpt lat="48.41243" lon="7.15629">
        <ele>446.8</ele>
        <time>2022-12-27T08:04:12Z</time>
      </trkpt>
      <trkpt lat="48.41246" lon="7.15626">
        <ele>446.8</ele>
        <time>2022-12-27T08:04:13Z</time>
      </trkpt>
      <trkpt lat="48.41249" lon="7.15623">
        <ele>447</ele>
        <time>2022-12-27T08:04:14Z</time>
      </trkpt>
      <trkpt lat="48.41255" lon="7.15618">
        <ele>447.2</ele>
        <time>2022-12-27T08:04:16Z</time>
      </trkpt>
      <trkpt lat="48.41272" lon="7.15603">
        <ele>447.8</ele>
        <time>2022-12-27T08:04:22Z</time>
      </trkpt>
      <trkpt lat="48.41275" lon="7.15601">
        <ele>448</ele>
        <time>2022-12-27T08:04:23Z</time>
      </trkpt>
      <trkpt lat="48.41284" lon="7.15595">
        <ele>448.2</ele>
        <time>2022-12-27T08:04:26Z</time>
      </trkpt>
      <trkpt lat="48.41287" lon="7.15593">
        <ele>448.4</ele>
        <time>2022-12-27T08:04:27Z</time>
      </trkpt>
      <trkpt lat="48.41299" lon="7.15585">
        <ele>448.6</ele>
        <time>2022-12-27T08:04:31Z</time>
      </trkpt>
      <trkpt lat="48.41312" lon="7.15576">
        <ele>449.2</ele>
        <time>2022-12-27T08:04:36Z</time>
      </trkpt>
      <trkpt lat="48.41321" lon="7.15567">
        <ele>450</ele>
        <time>2022-12-27T08:04:40Z</time>
      </trkpt>
      <trkpt lat="48.41325" lon="7.15563">
        <ele>450.2</ele>
        <time>2022-12-27T08:04:42Z</time>
      </trkpt>
      <trkpt lat="48.41331" lon="7.1556">
        <ele>450.4</ele>
        <time>2022-12-27T08:04:44Z</time>
      </trkpt>
      <trkpt lat="48.41341" lon="7.15554">
        <ele>451</ele>
        <time>2022-12-27T08:04:48Z</time>
      </trkpt>
      <trkpt lat="48.41347" lon="7.15549">
        <ele>451.4</ele>
        <time>2022-12-27T08:04:51Z</time>
      </trkpt>
      <trkpt lat="48.41353" lon="7.15545">
        <ele>451.8</ele>
        <time>2022-12-27T08:04:54Z</time>
      </trkpt>
      <trkpt lat="48.41358" lon="7.15539">
        <ele>452.6</ele>
        <time>2022-12-27T08:04:57Z</time>
      </trkpt>
      <trkpt lat="48.41362" lon="7.15536">
        <ele>453</ele>
        <time>2022-12-27T08:04:59Z</time>
      </trkpt>
      <trkpt lat="48.41369" lon="7.15533">
        <ele>453.2</ele>
        <time>2022-12-27T08:05:02Z</time>
      </trkpt>
      <trkpt lat="48.41373" lon="7.15531">
        <ele>453.4</ele>
        <time>2022-12-27T08:05:04Z</time>
      </trkpt>
      <trkpt lat="48.41375" lon="7.1553">
        <ele>453.6</ele>
        <time>2022-12-27T08:05:05Z</time>
      </trkpt>
      <trkpt lat="48.41377" lon="7.15529">
        <ele>453.8</ele>
        <time>2022-12-27T08:05:06Z</time>
      </trkpt>
      <trkpt lat="48.41382" lon="7.15525">
        <ele>454.2</ele>
        <time>2022-12-27T08:05:09Z</time>
      </trkpt>
      <trkpt lat="48.41385" lon="7.15524">
        <ele>454.6</ele>
        <time>2022-12-27T08:05:10Z</time>
      </trkpt>
      <trkpt lat="48.41387" lon="7.15524">
        <ele>454.6</ele>
        <time>2022-12-27T08:05:11Z</time>
      </trkpt>
      <trkpt lat="48.41391" lon="7.15522">
        <ele>454.8</ele>
        <time>2022-12-27T08:05:12Z</time>
      </trkpt>
      <trkpt lat="48.41396" lon="7.15521">
        <ele>455.2</ele>
        <time>2022-12-27T08:05:14Z</time>
      </trkpt>
      <trkpt lat="48.41402" lon="7.15519">
        <ele>455.4</ele>
        <time>2022-12-27T08:05:16Z</time>
      </trkpt>
      <trkpt lat="48.41416" lon="7.15515">
        <ele>456</ele>
        <time>2022-12-27T08:05:20Z</time>
      </trkpt>
      <trkpt lat="48.41419" lon="7.15514">
        <ele>456</ele>
        <time>2022-12-27T08:05:21Z</time>
      </trkpt>
      <trkpt lat="48.41429" lon="7.15509">
        <ele>456.6</ele>
        <time>2022-12-27T08:05:25Z</time>
      </trkpt>
      <trkpt lat="48.41437" lon="7.1551">
        <ele>456.8</ele>
        <time>2022-12-27T08:05:27Z</time>
      </trkpt>
      <trkpt lat="48.41447" lon="7.15499">
        <ele>457.4</ele>
        <time>2022-12-27T08:05:33Z</time>
      </trkpt>
      <trkpt lat="48.41452" lon="7.15495">
        <ele>457.6</ele>
        <time>2022-12-27T08:05:35Z</time>
      </trkpt>
      <trkpt lat="48.4146" lon="7.15491">
        <ele>457.8</ele>
        <time>2022-12-27T08:05:38Z</time>
      </trkpt>
      <trkpt lat="48.41465" lon="7.15488">
        <ele>458.2</ele>
        <time>2022-12-27T08:05:40Z</time>
      </trkpt>
      <trkpt lat="48.41481" lon="7.15475">
        <ele>458.8</ele>
        <time>2022-12-27T08:05:46Z</time>
      </trkpt>
      <trkpt lat="48.41494" lon="7.15465">
        <ele>458.8</ele>
        <time>2022-12-27T08:05:51Z</time>
      </trkpt>
      <trkpt lat="48.41501" lon="7.15456">
        <ele>459.2</ele>
        <time>2022-12-27T08:05:54Z</time>
      </trkpt>
      <trkpt lat="48.41504" lon="7.15454">
        <ele>459.2</ele>
        <time>2022-12-27T08:05:55Z</time>
      </trkpt>
      <trkpt lat="48.41515" lon="7.15444">
        <ele>459.4</ele>
        <time>2022-12-27T08:05:59Z</time>
      </trkpt>
      <trkpt lat="48.41531" lon="7.15428">
        <ele>460</ele>
        <time>2022-12-27T08:06:05Z</time>
      </trkpt>
      <trkpt lat="48.41536" lon="7.15422">
        <ele>460.2</ele>
        <time>2022-12-27T08:06:07Z</time>
      </trkpt>
      <trkpt lat="48.41545" lon="7.1541">
        <ele>460.4</ele>
        <time>2022-12-27T08:06:11Z</time>
      </trkpt>
      <trkpt lat="48.41556" lon="7.15396">
        <ele>460.8</ele>
        <time>2022-12-27T08:06:16Z</time>
      </trkpt>
      <trkpt lat="48.4156" lon="7.1539">
        <ele>461</ele>
        <time>2022-12-27T08:06:18Z</time>
      </trkpt>
      <trkpt lat="48.41568" lon="7.1538">
        <ele>461.2</ele>
        <time>2022-12-27T08:06:22Z</time>
      </trkpt>
      <trkpt lat="48.4157" lon="7.15377">
        <ele>461.4</ele>
        <time>2022-12-27T08:06:23Z</time>
      </trkpt>
      <trkpt lat="48.41577" lon="7.15371">
        <ele>461.6</ele>
        <time>2022-12-27T08:06:26Z</time>
      </trkpt>
      <trkpt lat="48.41582" lon="7.15367">
        <ele>461.8</ele>
        <time>2022-12-27T08:06:28Z</time>
      </trkpt>
      <trkpt lat="48.41587" lon="7.15363">
        <ele>462.2</ele>
        <time>2022-12-27T08:06:30Z</time>
      </trkpt>
      <trkpt lat="48.41589" lon="7.15361">
        <ele>462.4</ele>
        <time>2022-12-27T08:06:31Z</time>
      </trkpt>
      <trkpt lat="48.41597" lon="7.15354">
        <ele>462.8</ele>
        <time>2022-12-27T08:06:35Z</time>
      </trkpt>
      <trkpt lat="48.41599" lon="7.15353">
        <ele>463</ele>
        <time>2022-12-27T08:06:36Z</time>
      </trkpt>
      <trkpt lat="48.41601" lon="7.15352">
        <ele>463.2</ele>
        <time>2022-12-27T08:06:37Z</time>
      </trkpt>
      <trkpt lat="48.41607" lon="7.15349">
        <ele>463.4</ele>
        <time>2022-12-27T08:06:40Z</time>
      </trkpt>
      <trkpt lat="48.41615" lon="7.15345">
        <ele>464</ele>
        <time>2022-12-27T08:06:44Z</time>
      </trkpt>
      <trkpt lat="48.41619" lon="7.15343">
        <ele>464.4</ele>
        <time>2022-12-27T08:06:46Z</time>
      </trkpt>
      <trkpt lat="48.41626" lon="7.15337">
        <ele>465.2</ele>
        <time>2022-12-27T08:06:50Z</time>
      </trkpt>
      <trkpt lat="48.41628" lon="7.15335">
        <ele>465.6</ele>
        <time>2022-12-27T08:06:51Z</time>
      </trkpt>
      <trkpt lat="48.41634" lon="7.15329">
        <ele>466.2</ele>
        <time>2022-12-27T08:06:54Z</time>
      </trkpt>
      <trkpt lat="48.4164" lon="7.15325">
        <ele>466.8</ele>
        <time>2022-12-27T08:06:57Z</time>
      </trkpt>
      <trkpt lat="48.41648" lon="7.15316">
        <ele>467.2</ele>
        <time>2022-12-27T08:07:01Z</time>
      </trkpt>
      <trkpt lat="48.41651" lon="7.15313">
        <ele>467.4</ele>
        <time>2022-12-27T08:07:02Z</time>
      </trkpt>
      <trkpt lat="48.41659" lon="7.15305">
        <ele>468</ele>
        <time>2022-12-27T08:07:05Z</time>
      </trkpt>
      <trkpt lat="48.41664" lon="7.153">
        <ele>468.4</ele>
        <time>2022-12-27T08:07:08Z</time>
      </trkpt>
      <trkpt lat="48.41671" lon="7.15291">
        <ele>469</ele>
        <time>2022-12-27T08:07:11Z</time>
      </trkpt>
      <trkpt lat="48.41679" lon="7.15279">
        <ele>469.6</ele>
        <time>2022-12-27T08:07:15Z</time>
      </trkpt>
      <trkpt lat="48.41682" lon="7.15273">
        <ele>470</ele>
        <time>2022-12-27T08:07:18Z</time>
      </trkpt>
      <trkpt lat="48.41687" lon="7.15265">
        <ele>470.6</ele>
        <time>2022-12-27T08:07:21Z</time>
      </trkpt>
      <trkpt lat="48.41692" lon="7.15257">
        <ele>471.2</ele>
        <time>2022-12-27T08:07:24Z</time>
      </trkpt>
      <trkpt lat="48.41697" lon="7.1525">
        <ele>471.8</ele>
        <time>2022-12-27T08:07:27Z</time>
      </trkpt>
      <trkpt lat="48.417" lon="7.15235">
        <ele>472.2</ele>
        <time>2022-12-27T08:07:31Z</time>
      </trkpt>
      <trkpt lat="48.417" lon="7.15232">
        <ele>472.4</ele>
        <time>2022-12-27T08:07:32Z</time>
      </trkpt>
      <trkpt lat="48.41701" lon="7.1522">
        <ele>472.8</ele>
        <time>2022-12-27T08:07:35Z</time>
      </trkpt>
      <trkpt lat="48.41703" lon="7.15211">
        <ele>473.2</ele>
        <time>2022-12-27T08:07:38Z</time>
      </trkpt>
      <trkpt lat="48.41704" lon="7.15209">
        <ele>473.4</ele>
        <time>2022-12-27T08:07:39Z</time>
      </trkpt>
      <trkpt lat="48.41706" lon="7.15201">
        <ele>473.8</ele>
        <time>2022-12-27T08:07:41Z</time>
      </trkpt>
      <trkpt lat="48.4171" lon="7.15172">
        <ele>474.6</ele>
        <time>2022-12-27T08:07:48Z</time>
      </trkpt>
      <trkpt lat="48.41707" lon="7.15149">
        <ele>475.6</ele>
        <time>2022-12-27T08:07:54Z</time>
      </trkpt>
      <trkpt lat="48.41707" lon="7.15147">
        <ele>476</ele>
        <time>2022-12-27T08:07:55Z</time>
      </trkpt>
      <trkpt lat="48.41708" lon="7.15136">
        <ele>476.8</ele>
        <time>2022-12-27T08:07:59Z</time>
      </trkpt>
      <trkpt lat="48.41708" lon="7.15132">
        <ele>476.8</ele>
        <time>2022-12-27T08:08:00Z</time>
      </trkpt>
      <trkpt lat="48.41708" lon="7.15117">
        <ele>477.6</ele>
        <time>2022-12-27T08:08:04Z</time>
      </trkpt>
      <trkpt lat="48.41708" lon="7.15112">
        <ele>477.8</ele>
        <time>2022-12-27T08:08:05Z</time>
      </trkpt>
      <trkpt lat="48.41711" lon="7.15095">
        <ele>478.8</ele>
        <time>2022-12-27T08:08:11Z</time>
      </trkpt>
      <trkpt lat="48.41711" lon="7.15092">
        <ele>479</ele>
        <time>2022-12-27T08:08:12Z</time>
      </trkpt>
      <trkpt lat="48.41715" lon="7.15079">
        <ele>479.6</ele>
        <time>2022-12-27T08:08:15Z</time>
      </trkpt>
      <trkpt lat="48.41715" lon="7.15075">
        <ele>479.8</ele>
        <time>2022-12-27T08:08:16Z</time>
      </trkpt>
      <trkpt lat="48.41714" lon="7.1507">
        <ele>480</ele>
        <time>2022-12-27T08:08:17Z</time>
      </trkpt>
      <trkpt lat="48.41715" lon="7.15054">
        <ele>481</ele>
        <time>2022-12-27T08:08:21Z</time>
      </trkpt>
      <trkpt lat="48.41714" lon="7.15049">
        <ele>481</ele>
        <time>2022-12-27T08:08:22Z</time>
      </trkpt>
      <trkpt lat="48.41714" lon="7.15044">
        <ele>481.4</ele>
        <time>2022-12-27T08:08:23Z</time>
      </trkpt>
      <trkpt lat="48.41713" lon="7.15031">
        <ele>481.8</ele>
        <time>2022-12-27T08:08:26Z</time>
      </trkpt>
      <trkpt lat="48.41714" lon="7.15023">
        <ele>482.2</ele>
        <time>2022-12-27T08:08:28Z</time>
      </trkpt>
      <trkpt lat="48.41715" lon="7.1502">
        <ele>482.4</ele>
        <time>2022-12-27T08:08:29Z</time>
      </trkpt>
      <trkpt lat="48.41718" lon="7.15012">
        <ele>483</ele>
        <time>2022-12-27T08:08:32Z</time>
      </trkpt>
      <trkpt lat="48.41719" lon="7.15008">
        <ele>483</ele>
        <time>2022-12-27T08:08:33Z</time>
      </trkpt>
      <trkpt lat="48.41721" lon="7.15002">
        <ele>483.4</ele>
        <time>2022-12-27T08:08:35Z</time>
      </trkpt>
      <trkpt lat="48.41723" lon="7.14991">
        <ele>484</ele>
        <time>2022-12-27T08:08:39Z</time>
      </trkpt>
      <trkpt lat="48.41727" lon="7.14976">
        <ele>484.6</ele>
        <time>2022-12-27T08:08:44Z</time>
      </trkpt>
      <trkpt lat="48.4173" lon="7.14971">
        <ele>485.2</ele>
        <time>2022-12-27T08:08:46Z</time>
      </trkpt>
      <trkpt lat="48.4173" lon="7.14967">
        <ele>485.2</ele>
        <time>2022-12-27T08:08:47Z</time>
      </trkpt>
      <trkpt lat="48.4173" lon="7.1496">
        <ele>485.4</ele>
        <time>2022-12-27T08:08:49Z</time>
      </trkpt>
      <trkpt lat="48.4173" lon="7.14954">
        <ele>485.4</ele>
        <time>2022-12-27T08:08:51Z</time>
      </trkpt>
      <trkpt lat="48.41731" lon="7.14949">
        <ele>485.8</ele>
        <time>2022-12-27T08:08:53Z</time>
      </trkpt>
      <trkpt lat="48.41731" lon="7.1493">
        <ele>486</ele>
        <time>2022-12-27T08:08:57Z</time>
      </trkpt>
      <trkpt lat="48.4173" lon="7.149">
        <ele>486.4</ele>
        <time>2022-12-27T08:09:02Z</time>
      </trkpt>
      <trkpt lat="48.41731" lon="7.14883">
        <ele>486.6</ele>
        <time>2022-12-27T08:09:06Z</time>
      </trkpt>
      <trkpt lat="48.41731" lon="7.14877">
        <ele>486.8</ele>
        <time>2022-12-27T08:09:08Z</time>
      </trkpt>
      <trkpt lat="48.41732" lon="7.14874">
        <ele>486.8</ele>
        <time>2022-12-27T08:09:09Z</time>
      </trkpt>
      <trkpt lat="48.41732" lon="7.14851">
        <ele>487.2</ele>
        <time>2022-12-27T08:09:14Z</time>
      </trkpt>
      <trkpt lat="48.41733" lon="7.14838">
        <ele>487.2</ele>
        <time>2022-12-27T08:09:17Z</time>
      </trkpt>
      <trkpt lat="48.41735" lon="7.14816">
        <ele>487.6</ele>
        <time>2022-12-27T08:09:23Z</time>
      </trkpt>
      <trkpt lat="48.41737" lon="7.14808">
        <ele>488</ele>
        <time>2022-12-27T08:09:25Z</time>
      </trkpt>
      <trkpt lat="48.41739" lon="7.1479">
        <ele>488.2</ele>
        <time>2022-12-27T08:09:29Z</time>
      </trkpt>
      <trkpt lat="48.41744" lon="7.14772">
        <ele>488.6</ele>
        <time>2022-12-27T08:09:34Z</time>
      </trkpt>
      <trkpt lat="48.41745" lon="7.14768">
        <ele>488.6</ele>
        <time>2022-12-27T08:09:35Z</time>
      </trkpt>
      <trkpt lat="48.41749" lon="7.14757">
        <ele>489</ele>
        <time>2022-12-27T08:09:38Z</time>
      </trkpt>
      <trkpt lat="48.41754" lon="7.14746">
        <ele>489.8</ele>
        <time>2022-12-27T08:09:42Z</time>
      </trkpt>
      <trkpt lat="48.4176" lon="7.14737">
        <ele>490</ele>
        <time>2022-12-27T08:09:45Z</time>
      </trkpt>
      <trkpt lat="48.41764" lon="7.1473">
        <ele>490.2</ele>
        <time>2022-12-27T08:09:47Z</time>
      </trkpt>
      <trkpt lat="48.41774" lon="7.14717">
        <ele>490.6</ele>
        <time>2022-12-27T08:09:52Z</time>
      </trkpt>
      <trkpt lat="48.41783" lon="7.14707">
        <ele>490.8</ele>
        <time>2022-12-27T08:09:57Z</time>
      </trkpt>
      <trkpt lat="48.41797" lon="7.14691">
        <ele>491.4</ele>
        <time>2022-12-27T08:10:03Z</time>
      </trkpt>
      <trkpt lat="48.41801" lon="7.14685">
        <ele>491.6</ele>
        <time>2022-12-27T08:10:05Z</time>
      </trkpt>
      <trkpt lat="48.41814" lon="7.14669">
        <ele>492.4</ele>
        <time>2022-12-27T08:10:12Z</time>
      </trkpt>
      <trkpt lat="48.41816" lon="7.14664">
        <ele>492.6</ele>
        <time>2022-12-27T08:10:14Z</time>
      </trkpt>
      <trkpt lat="48.41822" lon="7.14648">
        <ele>493</ele>
        <time>2022-12-27T08:10:19Z</time>
      </trkpt>
      <trkpt lat="48.41827" lon="7.14626">
        <ele>493.6</ele>
        <time>2022-12-27T08:10:25Z</time>
      </trkpt>
      <trkpt lat="48.41827" lon="7.14624">
        <ele>493.6</ele>
        <time>2022-12-27T08:10:26Z</time>
      </trkpt>
      <trkpt lat="48.41827" lon="7.14611">
        <ele>494.2</ele>
        <time>2022-12-27T08:10:29Z</time>
      </trkpt>
      <trkpt lat="48.41825" lon="7.14598">
        <ele>494.8</ele>
        <time>2022-12-27T08:10:32Z</time>
      </trkpt>
      <trkpt lat="48.41818" lon="7.14578">
        <ele>495.6</ele>
        <time>2022-12-27T08:10:37Z</time>
      </trkpt>
      <trkpt lat="48.41817" lon="7.14575">
        <ele>495.8</ele>
        <time>2022-12-27T08:10:38Z</time>
      </trkpt>
      <trkpt lat="48.4181" lon="7.14553">
        <ele>496.6</ele>
        <time>2022-12-27T08:10:45Z</time>
      </trkpt>
      <trkpt lat="48.41807" lon="7.14546">
        <ele>497</ele>
        <time>2022-12-27T08:10:48Z</time>
      </trkpt>
      <trkpt lat="48.41804" lon="7.1453">
        <ele>497.8</ele>
        <time>2022-12-27T08:10:54Z</time>
      </trkpt>
      <trkpt lat="48.41802" lon="7.14525">
        <ele>498</ele>
        <time>2022-12-27T08:10:56Z</time>
      </trkpt>
      <trkpt lat="48.41799" lon="7.14519">
        <ele>498.6</ele>
        <time>2022-12-27T08:10:59Z</time>
      </trkpt>
      <trkpt lat="48.41798" lon="7.14514">
        <ele>499</ele>
        <time>2022-12-27T08:11:01Z</time>
      </trkpt>
      <trkpt lat="48.41797" lon="7.14512">
        <ele>499.2</ele>
        <time>2022-12-27T08:11:02Z</time>
      </trkpt>
      <trkpt lat="48.41794" lon="7.14501">
        <ele>500.2</ele>
        <time>2022-12-27T08:11:06Z</time>
      </trkpt>
      <trkpt lat="48.41793" lon="7.14493">
        <ele>500.6</ele>
        <time>2022-12-27T08:11:09Z</time>
      </trkpt>
      <trkpt lat="48.41792" lon="7.14486">
        <ele>501</ele>
        <time>2022-12-27T08:11:11Z</time>
      </trkpt>
      <trkpt lat="48.41791" lon="7.14481">
        <ele>501.2</ele>
        <time>2022-12-27T08:11:13Z</time>
      </trkpt>
      <trkpt lat="48.41788" lon="7.1447">
        <ele>502</ele>
        <time>2022-12-27T08:11:17Z</time>
      </trkpt>
      <trkpt lat="48.41788" lon="7.14468">
        <ele>502.4</ele>
        <time>2022-12-27T08:11:18Z</time>
      </trkpt>
      <trkpt lat="48.41788" lon="7.14453">
        <ele>503.4</ele>
        <time>2022-12-27T08:11:23Z</time>
      </trkpt>
      <trkpt lat="48.41787" lon="7.1445">
        <ele>503.6</ele>
        <time>2022-12-27T08:11:24Z</time>
      </trkpt>
      <trkpt lat="48.41787" lon="7.14447">
        <ele>503.8</ele>
        <time>2022-12-27T08:11:25Z</time>
      </trkpt>
      <trkpt lat="48.41787" lon="7.14441">
        <ele>504</ele>
        <time>2022-12-27T08:11:27Z</time>
      </trkpt>
      <trkpt lat="48.41787" lon="7.14438">
        <ele>504.2</ele>
        <time>2022-12-27T08:11:28Z</time>
      </trkpt>
      <trkpt lat="48.41787" lon="7.14436">
        <ele>504.4</ele>
        <time>2022-12-27T08:11:29Z</time>
      </trkpt>
      <trkpt lat="48.41787" lon="7.1443">
        <ele>504.6</ele>
        <time>2022-12-27T08:11:31Z</time>
      </trkpt>
      <trkpt lat="48.41787" lon="7.14424">
        <ele>504.8</ele>
        <time>2022-12-27T08:11:33Z</time>
      </trkpt>
      <trkpt lat="48.41786" lon="7.1441">
        <ele>505.8</ele>
        <time>2022-12-27T08:11:38Z</time>
      </trkpt>
      <trkpt lat="48.41786" lon="7.14397">
        <ele>506.6</ele>
        <time>2022-12-27T08:11:43Z</time>
      </trkpt>
      <trkpt lat="48.41787" lon="7.14392">
        <ele>507</ele>
        <time>2022-12-27T08:11:45Z</time>
      </trkpt>
      <trkpt lat="48.41788" lon="7.14372">
        <ele>507.8</ele>
        <time>2022-12-27T08:11:52Z</time>
      </trkpt>
      <trkpt lat="48.41788" lon="7.14367">
        <ele>508.2</ele>
        <time>2022-12-27T08:11:54Z</time>
      </trkpt>
      <trkpt lat="48.41788" lon="7.14364">
        <ele>508.2</ele>
        <time>2022-12-27T08:11:55Z</time>
      </trkpt>
      <trkpt lat="48.41789" lon="7.14355">
        <ele>508.8</ele>
        <time>2022-12-27T08:11:58Z</time>
      </trkpt>
      <trkpt lat="48.41789" lon="7.14343">
        <ele>509.4</ele>
        <time>2022-12-27T08:12:02Z</time>
      </trkpt>
      <trkpt lat="48.41789" lon="7.14321">
        <ele>509.8</ele>
        <time>2022-12-27T08:12:09Z</time>
      </trkpt>
      <trkpt lat="48.4179" lon="7.14304">
        <ele>510.4</ele>
        <time>2022-12-27T08:12:14Z</time>
      </trkpt>
      <trkpt lat="48.4179" lon="7.14297">
        <ele>510.6</ele>
        <time>2022-12-27T08:12:16Z</time>
      </trkpt>
      <trkpt lat="48.41789" lon="7.14268">
        <ele>511.8</ele>
        <time>2022-12-27T08:12:24Z</time>
      </trkpt>
      <trkpt lat="48.41789" lon="7.14268">
        <ele>511.8</ele>
        <time>2022-12-27T08:12:25Z</time>
      </trkpt>
      <trkpt lat="48.41787" lon="7.14243">
        <ele>512.2</ele>
        <time>2022-12-27T08:12:31Z</time>
      </trkpt>
      <trkpt lat="48.41784" lon="7.14222">
        <ele>512.8</ele>
        <time>2022-12-27T08:12:37Z</time>
      </trkpt>
      <trkpt lat="48.4178" lon="7.14189">
        <ele>513.6</ele>
        <time>2022-12-27T08:12:48Z</time>
      </trkpt>
      <trkpt lat="48.4178" lon="7.14182">
        <ele>513.8</ele>
        <time>2022-12-27T08:12:49Z</time>
      </trkpt>
      <trkpt lat="48.41777" lon="7.14154">
        <ele>514.6</ele>
        <time>2022-12-27T08:12:57Z</time>
      </trkpt>
      <trkpt lat="48.41777" lon="7.14148">
        <ele>514.8</ele>
        <time>2022-12-27T08:12:59Z</time>
      </trkpt>
      <trkpt lat="48.41777" lon="7.14145">
        <ele>515</ele>
        <time>2022-12-27T08:13:00Z</time>
      </trkpt>
      <trkpt lat="48.41776" lon="7.14137">
        <ele>515.6</ele>
        <time>2022-12-27T08:13:02Z</time>
      </trkpt>
      <trkpt lat="48.41775" lon="7.1413">
        <ele>515.8</ele>
        <time>2022-12-27T08:13:04Z</time>
      </trkpt>
      <trkpt lat="48.41776" lon="7.14119">
        <ele>516.2</ele>
        <time>2022-12-27T08:13:07Z</time>
      </trkpt>
      <trkpt lat="48.41775" lon="7.14116">
        <ele>516.6</ele>
        <time>2022-12-27T08:13:09Z</time>
      </trkpt>
      <trkpt lat="48.41775" lon="7.14105">
        <ele>516.8</ele>
        <time>2022-12-27T08:13:11Z</time>
      </trkpt>
      <trkpt lat="48.41775" lon="7.14094">
        <ele>517.4</ele>
        <time>2022-12-27T08:13:14Z</time>
      </trkpt>
      <trkpt lat="48.41775" lon="7.14087">
        <ele>517.8</ele>
        <time>2022-12-27T08:13:16Z</time>
      </trkpt>
      <trkpt lat="48.41776" lon="7.14072">
        <ele>518.2</ele>
        <time>2022-12-27T08:13:20Z</time>
      </trkpt>
      <trkpt lat="48.41776" lon="7.14052">
        <ele>518.2</ele>
        <time>2022-12-27T08:13:24Z</time>
      </trkpt>
      <trkpt lat="48.41776" lon="7.14046">
        <ele>518.2</ele>
        <time>2022-12-27T08:13:25Z</time>
      </trkpt>
      <trkpt lat="48.41777" lon="7.14027">
        <ele>518.2</ele>
        <time>2022-12-27T08:13:28Z</time>
      </trkpt>
      <trkpt lat="48.41777" lon="7.14021">
        <ele>518.2</ele>
        <time>2022-12-27T08:13:29Z</time>
      </trkpt>
      <trkpt lat="48.41775" lon="7.14009">
        <ele>518.2</ele>
        <time>2022-12-27T08:13:31Z</time>
      </trkpt>
      <trkpt lat="48.4177" lon="7.13981">
        <ele>517.8</ele>
        <time>2022-12-27T08:13:35Z</time>
      </trkpt>
      <trkpt lat="48.41749" lon="7.13931">
        <ele>517.4</ele>
        <time>2022-12-27T08:13:43Z</time>
      </trkpt>
      <trkpt lat="48.41736" lon="7.13898">
        <ele>517.4</ele>
        <time>2022-12-27T08:13:49Z</time>
      </trkpt>
      <trkpt lat="48.41722" lon="7.13864">
        <ele>518</ele>
        <time>2022-12-27T08:13:56Z</time>
      </trkpt>
      <trkpt lat="48.41709" lon="7.13826">
        <ele>518</ele>
        <time>2022-12-27T08:14:02Z</time>
      </trkpt>
      <trkpt lat="48.41703" lon="7.13805">
        <ele>517.8</ele>
        <time>2022-12-27T08:14:05Z</time>
      </trkpt>
      <trkpt lat="48.417" lon="7.13781">
        <ele>517.8</ele>
        <time>2022-12-27T08:14:08Z</time>
      </trkpt>
      <trkpt lat="48.41699" lon="7.13773">
        <ele>517.6</ele>
        <time>2022-12-27T08:14:09Z</time>
      </trkpt>
      <trkpt lat="48.417" lon="7.13731">
        <ele>517.2</ele>
        <time>2022-12-27T08:14:13Z</time>
      </trkpt>
      <trkpt lat="48.417" lon="7.13709">
        <ele>516</ele>
        <time>2022-12-27T08:14:16Z</time>
      </trkpt>
      <trkpt lat="48.417" lon="7.13666">
        <ele>515.4</ele>
        <time>2022-12-27T08:14:19Z</time>
      </trkpt>
      <trkpt lat="48.41698" lon="7.13655">
        <ele>515</ele>
        <time>2022-12-27T08:14:20Z</time>
      </trkpt>
      <trkpt lat="48.41696" lon="7.13646">
        <ele>514.8</ele>
        <time>2022-12-27T08:14:21Z</time>
      </trkpt>
      <trkpt lat="48.41686" lon="7.1361">
        <ele>514.4</ele>
        <time>2022-12-27T08:14:25Z</time>
      </trkpt>
      <trkpt lat="48.41677" lon="7.13579">
        <ele>514.2</ele>
        <time>2022-12-27T08:14:29Z</time>
      </trkpt>
      <trkpt lat="48.41673" lon="7.13566">
        <ele>514.2</ele>
        <time>2022-12-27T08:14:31Z</time>
      </trkpt>
      <trkpt lat="48.41664" lon="7.13523">
        <ele>514.6</ele>
        <time>2022-12-27T08:14:38Z</time>
      </trkpt>
      <trkpt lat="48.4166" lon="7.13473">
        <ele>515.8</ele>
        <time>2022-12-27T08:14:46Z</time>
      </trkpt>
      <trkpt lat="48.41659" lon="7.13448">
        <ele>516</ele>
        <time>2022-12-27T08:14:50Z</time>
      </trkpt>
      <trkpt lat="48.41658" lon="7.13437">
        <ele>516.2</ele>
        <time>2022-12-27T08:14:52Z</time>
      </trkpt>
      <trkpt lat="48.41656" lon="7.13427">
        <ele>516.2</ele>
        <time>2022-12-27T08:14:54Z</time>
      </trkpt>
      <trkpt lat="48.41655" lon="7.13403">
        <ele>516.4</ele>
        <time>2022-12-27T08:14:59Z</time>
      </trkpt>
      <trkpt lat="48.41656" lon="7.13399">
        <ele>516.6</ele>
        <time>2022-12-27T08:15:00Z</time>
      </trkpt>
      <trkpt lat="48.41656" lon="7.13391">
        <ele>517</ele>
        <time>2022-12-27T08:15:02Z</time>
      </trkpt>
      <trkpt lat="48.41656" lon="7.13382">
        <ele>517.2</ele>
        <time>2022-12-27T08:15:04Z</time>
      </trkpt>
      <trkpt lat="48.41656" lon="7.13368">
        <ele>517.6</ele>
        <time>2022-12-27T08:15:07Z</time>
      </trkpt>
      <trkpt lat="48.41657" lon="7.13343">
        <ele>518.4</ele>
        <time>2022-12-27T08:15:13Z</time>
      </trkpt>
      <trkpt lat="48.41657" lon="7.13338">
        <ele>518.6</ele>
        <time>2022-12-27T08:15:14Z</time>
      </trkpt>
      <trkpt lat="48.41657" lon="7.13329">
        <ele>518.8</ele>
        <time>2022-12-27T08:15:16Z</time>
      </trkpt>
      <trkpt lat="48.41657" lon="7.13325">
        <ele>518.8</ele>
        <time>2022-12-27T08:15:17Z</time>
      </trkpt>
      <trkpt lat="48.41658" lon="7.1332">
        <ele>519</ele>
        <time>2022-12-27T08:15:18Z</time>
      </trkpt>
      <trkpt lat="48.41658" lon="7.13316">
        <ele>519</ele>
        <time>2022-12-27T08:15:19Z</time>
      </trkpt>
      <trkpt lat="48.41659" lon="7.13312">
        <ele>519</ele>
        <time>2022-12-27T08:15:20Z</time>
      </trkpt>
      <trkpt lat="48.41659" lon="7.13303">
        <ele>519.2</ele>
        <time>2022-12-27T08:15:22Z</time>
      </trkpt>
      <trkpt lat="48.4166" lon="7.13295">
        <ele>519.4</ele>
        <time>2022-12-27T08:15:24Z</time>
      </trkpt>
      <trkpt lat="48.41663" lon="7.13269">
        <ele>520</ele>
        <time>2022-12-27T08:15:30Z</time>
      </trkpt>
      <trkpt lat="48.41666" lon="7.13248">
        <ele>520.6</ele>
        <time>2022-12-27T08:15:35Z</time>
      </trkpt>
      <trkpt lat="48.41669" lon="7.13237">
        <ele>520.8</ele>
        <time>2022-12-27T08:15:38Z</time>
      </trkpt>
      <trkpt lat="48.41673" lon="7.13218">
        <ele>521.4</ele>
        <time>2022-12-27T08:15:45Z</time>
      </trkpt>
      <trkpt lat="48.41676" lon="7.13212">
        <ele>521.6</ele>
        <time>2022-12-27T08:15:47Z</time>
      </trkpt>
      <trkpt lat="48.41679" lon="7.13211">
        <ele>521.6</ele>
        <time>2022-12-27T08:15:49Z</time>
      </trkpt>
      <trkpt lat="48.41681" lon="7.13215">
        <ele>521.8</ele>
        <time>2022-12-27T08:15:52Z</time>
      </trkpt>
      <trkpt lat="48.41682" lon="7.13218">
        <ele>521.8</ele>
        <time>2022-12-27T08:15:54Z</time>
      </trkpt>
      <trkpt lat="48.41681" lon="7.13213">
        <ele>522</ele>
        <time>2022-12-27T08:15:57Z</time>
      </trkpt>
      <trkpt lat="48.41679" lon="7.13201">
        <ele>521.8</ele>
        <time>2022-12-27T08:16:00Z</time>
      </trkpt>
      <trkpt lat="48.41679" lon="7.13195">
        <ele>521.8</ele>
        <time>2022-12-27T08:16:01Z</time>
      </trkpt>
      <trkpt lat="48.4168" lon="7.13189">
        <ele>521.8</ele>
        <time>2022-12-27T08:16:02Z</time>
      </trkpt>
      <trkpt lat="48.41682" lon="7.13174">
        <ele>521.6</ele>
        <time>2022-12-27T08:16:04Z</time>
      </trkpt>
      <trkpt lat="48.41681" lon="7.13164">
        <ele>521.4</ele>
        <time>2022-12-27T08:16:05Z</time>
      </trkpt>
      <trkpt lat="48.41681" lon="7.13118">
        <ele>520.6</ele>
        <time>2022-12-27T08:16:09Z</time>
      </trkpt>
      <trkpt lat="48.41679" lon="7.13076">
        <ele>519.2</ele>
        <time>2022-12-27T08:16:12Z</time>
      </trkpt>
      <trkpt lat="48.41677" lon="7.1306">
        <ele>518.8</ele>
        <time>2022-12-27T08:16:13Z</time>
      </trkpt>
      <trkpt lat="48.41674" lon="7.13026">
        <ele>517.4</ele>
        <time>2022-12-27T08:16:15Z</time>
      </trkpt>
      <trkpt lat="48.41672" lon="7.12988">
        <ele>515.6</ele>
        <time>2022-12-27T08:16:17Z</time>
      </trkpt>
      <trkpt lat="48.41672" lon="7.12945">
        <ele>514</ele>
        <time>2022-12-27T08:16:19Z</time>
      </trkpt>
      <trkpt lat="48.41673" lon="7.12902">
        <ele>511.6</ele>
        <time>2022-12-27T08:16:21Z</time>
      </trkpt>
      <trkpt lat="48.41675" lon="7.12859">
        <ele>509</ele>
        <time>2022-12-27T08:16:23Z</time>
      </trkpt>
      <trkpt lat="48.41677" lon="7.12815">
        <ele>506.4</ele>
        <time>2022-12-27T08:16:25Z</time>
      </trkpt>
      <trkpt lat="48.41677" lon="7.12794">
        <ele>505.2</ele>
        <time>2022-12-27T08:16:26Z</time>
      </trkpt>
      <trkpt lat="48.41677" lon="7.12773">
        <ele>503.4</ele>
        <time>2022-12-27T08:16:27Z</time>
      </trkpt>
      <trkpt lat="48.41675" lon="7.12731">
        <ele>500.2</ele>
        <time>2022-12-27T08:16:29Z</time>
      </trkpt>
      <trkpt lat="48.4167" lon="7.12689">
        <ele>497.6</ele>
        <time>2022-12-27T08:16:31Z</time>
      </trkpt>
      <trkpt lat="48.41667" lon="7.12669">
        <ele>496.8</ele>
        <time>2022-12-27T08:16:32Z</time>
      </trkpt>
      <trkpt lat="48.41664" lon="7.12649">
        <ele>494.4</ele>
        <time>2022-12-27T08:16:33Z</time>
      </trkpt>
      <trkpt lat="48.4166" lon="7.12629">
        <ele>493.8</ele>
        <time>2022-12-27T08:16:34Z</time>
      </trkpt>
      <trkpt lat="48.41656" lon="7.12611">
        <ele>491.6</ele>
        <time>2022-12-27T08:16:35Z</time>
      </trkpt>
      <trkpt lat="48.41652" lon="7.12597">
        <ele>490.6</ele>
        <time>2022-12-27T08:16:36Z</time>
      </trkpt>
      <trkpt lat="48.41646" lon="7.12578">
        <ele>488.6</ele>
        <time>2022-12-27T08:16:37Z</time>
      </trkpt>
      <trkpt lat="48.41636" lon="7.12548">
        <ele>486</ele>
        <time>2022-12-27T08:16:39Z</time>
      </trkpt>
      <trkpt lat="48.41632" lon="7.12539">
        <ele>485.2</ele>
        <time>2022-12-27T08:16:40Z</time>
      </trkpt>
      <trkpt lat="48.41629" lon="7.1253">
        <ele>483.8</ele>
        <time>2022-12-27T08:16:41Z</time>
      </trkpt>
      <trkpt lat="48.41622" lon="7.1251">
        <ele>482.8</ele>
        <time>2022-12-27T08:16:43Z</time>
      </trkpt>
      <trkpt lat="48.41621" lon="7.12503">
        <ele>482.4</ele>
        <time>2022-12-27T08:16:44Z</time>
      </trkpt>
      <trkpt lat="48.41621" lon="7.12496">
        <ele>481.6</ele>
        <time>2022-12-27T08:16:45Z</time>
      </trkpt>
      <trkpt lat="48.41624" lon="7.1249">
        <ele>481.4</ele>
        <time>2022-12-27T08:16:46Z</time>
      </trkpt>
      <trkpt lat="48.41632" lon="7.12485">
        <ele>480.4</ele>
        <time>2022-12-27T08:16:48Z</time>
      </trkpt>
      <trkpt lat="48.41636" lon="7.12483">
        <ele>480</ele>
        <time>2022-12-27T08:16:49Z</time>
      </trkpt>
      <trkpt lat="48.41652" lon="7.12477">
        <ele>479.4</ele>
        <time>2022-12-27T08:16:53Z</time>
      </trkpt>
      <trkpt lat="48.41658" lon="7.12476">
        <ele>479.2</ele>
        <time>2022-12-27T08:16:55Z</time>
      </trkpt>
      <trkpt lat="48.41667" lon="7.12483">
        <ele>479.4</ele>
        <time>2022-12-27T08:17:00Z</time>
      </trkpt>
      <trkpt lat="48.41676" lon="7.1249">
        <ele>480.2</ele>
        <time>2022-12-27T08:17:05Z</time>
      </trkpt>
      <trkpt lat="48.41679" lon="7.12491">
        <ele>480.6</ele>
        <time>2022-12-27T08:17:07Z</time>
      </trkpt>
      <trkpt lat="48.4169" lon="7.12489">
        <ele>481.6</ele>
        <time>2022-12-27T08:17:13Z</time>
      </trkpt>
      <trkpt lat="48.41695" lon="7.12488">
        <ele>482</ele>
        <time>2022-12-27T08:17:15Z</time>
      </trkpt>
      <trkpt lat="48.41702" lon="7.12486">
        <ele>483</ele>
        <time>2022-12-27T08:17:19Z</time>
      </trkpt>
      <trkpt lat="48.41706" lon="7.12484">
        <ele>483.4</ele>
        <time>2022-12-27T08:17:21Z</time>
      </trkpt>
      <trkpt lat="48.41714" lon="7.12482">
        <ele>484</ele>
        <time>2022-12-27T08:17:26Z</time>
      </trkpt>
      <trkpt lat="48.41718" lon="7.12481">
        <ele>484.6</ele>
        <time>2022-12-27T08:17:28Z</time>
      </trkpt>
      <trkpt lat="48.41724" lon="7.12481">
        <ele>485.4</ele>
        <time>2022-12-27T08:17:31Z</time>
      </trkpt>
      <trkpt lat="48.41732" lon="7.12481">
        <ele>485.8</ele>
        <time>2022-12-27T08:17:35Z</time>
      </trkpt>
      <trkpt lat="48.41736" lon="7.1248">
        <ele>486</ele>
        <time>2022-12-27T08:17:37Z</time>
      </trkpt>
      <trkpt lat="48.41741" lon="7.12481">
        <ele>486.4</ele>
        <time>2022-12-27T08:17:40Z</time>
      </trkpt>
      <trkpt lat="48.41749" lon="7.1248">
        <ele>487</ele>
        <time>2022-12-27T08:17:44Z</time>
      </trkpt>
      <trkpt lat="48.41754" lon="7.1248">
        <ele>487.4</ele>
        <time>2022-12-27T08:17:47Z</time>
      </trkpt>
      <trkpt lat="48.41763" lon="7.12478">
        <ele>488</ele>
        <time>2022-12-27T08:17:52Z</time>
      </trkpt>
      <trkpt lat="48.41771" lon="7.12476">
        <ele>488.6</ele>
        <time>2022-12-27T08:17:56Z</time>
      </trkpt>
      <trkpt lat="48.41779" lon="7.12475">
        <ele>489.2</ele>
        <time>2022-12-27T08:18:00Z</time>
      </trkpt>
      <trkpt lat="48.41785" lon="7.12473">
        <ele>489.6</ele>
        <time>2022-12-27T08:18:03Z</time>
      </trkpt>
      <trkpt lat="48.41795" lon="7.1247">
        <ele>490.2</ele>
        <time>2022-12-27T08:18:08Z</time>
      </trkpt>
      <trkpt lat="48.41798" lon="7.12469">
        <ele>490.8</ele>
        <time>2022-12-27T08:18:10Z</time>
      </trkpt>
      <trkpt lat="48.41813" lon="7.12465">
        <ele>491.4</ele>
        <time>2022-12-27T08:18:17Z</time>
      </trkpt>
      <trkpt lat="48.41819" lon="7.12464">
        <ele>492</ele>
        <time>2022-12-27T08:18:20Z</time>
      </trkpt>
      <trkpt lat="48.4183" lon="7.12459">
        <ele>492.6</ele>
        <time>2022-12-27T08:18:25Z</time>
      </trkpt>
      <trkpt lat="48.41841" lon="7.12452">
        <ele>493</ele>
        <time>2022-12-27T08:18:30Z</time>
      </trkpt>
      <trkpt lat="48.41846" lon="7.1245">
        <ele>493</ele>
        <time>2022-12-27T08:18:32Z</time>
      </trkpt>
      <trkpt lat="48.41867" lon="7.12441">
        <ele>493.8</ele>
        <time>2022-12-27T08:18:41Z</time>
      </trkpt>
      <trkpt lat="48.4188" lon="7.12427">
        <ele>494</ele>
        <time>2022-12-27T08:18:46Z</time>
      </trkpt>
      <trkpt lat="48.41886" lon="7.12419">
        <ele>494</ele>
        <time>2022-12-27T08:18:48Z</time>
      </trkpt>
      <trkpt lat="48.41895" lon="7.12401">
        <ele>494</ele>
        <time>2022-12-27T08:18:51Z</time>
      </trkpt>
      <trkpt lat="48.41901" lon="7.1239">
        <ele>493.6</ele>
        <time>2022-12-27T08:18:53Z</time>
      </trkpt>
      <trkpt lat="48.41914" lon="7.12369">
        <ele>493.4</ele>
        <time>2022-12-27T08:18:56Z</time>
      </trkpt>
      <trkpt lat="48.41926" lon="7.12348">
        <ele>492.8</ele>
        <time>2022-12-27T08:18:59Z</time>
      </trkpt>
      <trkpt lat="48.4193" lon="7.12341">
        <ele>492.6</ele>
        <time>2022-12-27T08:19:00Z</time>
      </trkpt>
      <trkpt lat="48.41936" lon="7.12325">
        <ele>492</ele>
        <time>2022-12-27T08:19:02Z</time>
      </trkpt>
      <trkpt lat="48.41942" lon="7.12309">
        <ele>491.8</ele>
        <time>2022-12-27T08:19:04Z</time>
      </trkpt>
      <trkpt lat="48.4196" lon="7.12253">
        <ele>491</ele>
        <time>2022-12-27T08:19:12Z</time>
      </trkpt>
      <trkpt lat="48.41982" lon="7.12198">
        <ele>491.2</ele>
        <time>2022-12-27T08:19:21Z</time>
      </trkpt>
      <trkpt lat="48.41991" lon="7.12183">
        <ele>491.4</ele>
        <time>2022-12-27T08:19:24Z</time>
      </trkpt>
      <trkpt lat="48.42001" lon="7.12175">
        <ele>491.4</ele>
        <time>2022-12-27T08:19:27Z</time>
      </trkpt>
      <trkpt lat="48.42021" lon="7.12172">
        <ele>491.8</ele>
        <time>2022-12-27T08:19:32Z</time>
      </trkpt>
      <trkpt lat="48.42038" lon="7.12174">
        <ele>492.2</ele>
        <time>2022-12-27T08:19:38Z</time>
      </trkpt>
      <trkpt lat="48.42055" lon="7.12175">
        <ele>492.6</ele>
        <time>2022-12-27T08:19:45Z</time>
      </trkpt>
      <trkpt lat="48.42065" lon="7.12175">
        <ele>493</ele>
        <time>2022-12-27T08:19:49Z</time>
      </trkpt>
      <trkpt lat="48.42076" lon="7.12174">
        <ele>494</ele>
        <time>2022-12-27T08:19:55Z</time>
      </trkpt>
      <trkpt lat="48.42078" lon="7.12173">
        <ele>494</ele>
        <time>2022-12-27T08:19:56Z</time>
      </trkpt>
      <trkpt lat="48.4209" lon="7.12169">
        <ele>495.2</ele>
        <time>2022-12-27T08:20:03Z</time>
      </trkpt>
      <trkpt lat="48.42092" lon="7.12168">
        <ele>495.4</ele>
        <time>2022-12-27T08:20:04Z</time>
      </trkpt>
      <trkpt lat="48.421" lon="7.12161">
        <ele>496.2</ele>
        <time>2022-12-27T08:20:10Z</time>
      </trkpt>
      <trkpt lat="48.42101" lon="7.12159">
        <ele>496.4</ele>
        <time>2022-12-27T08:20:11Z</time>
      </trkpt>
      <trkpt lat="48.42108" lon="7.1215">
        <ele>497.2</ele>
        <time>2022-12-27T08:20:17Z</time>
      </trkpt>
      <trkpt lat="48.42109" lon="7.12148">
        <ele>497.4</ele>
        <time>2022-12-27T08:20:18Z</time>
      </trkpt>
      <trkpt lat="48.42114" lon="7.12142">
        <ele>498.2</ele>
        <time>2022-12-27T08:20:22Z</time>
      </trkpt>
      <trkpt lat="48.42116" lon="7.12139">
        <ele>498.4</ele>
        <time>2022-12-27T08:20:23Z</time>
      </trkpt>
      <trkpt lat="48.42117" lon="7.12136">
        <ele>498.6</ele>
        <time>2022-12-27T08:20:24Z</time>
      </trkpt>
      <trkpt lat="48.42126" lon="7.12124">
        <ele>499.6</ele>
        <time>2022-12-27T08:20:29Z</time>
      </trkpt>
      <trkpt lat="48.42133" lon="7.12117">
        <ele>500.2</ele>
        <time>2022-12-27T08:20:32Z</time>
      </trkpt>
      <trkpt lat="48.42138" lon="7.12108">
        <ele>500.6</ele>
        <time>2022-12-27T08:20:35Z</time>
      </trkpt>
      <trkpt lat="48.42147" lon="7.12097">
        <ele>501</ele>
        <time>2022-12-27T08:20:39Z</time>
      </trkpt>
      <trkpt lat="48.42157" lon="7.12081">
        <ele>501.2</ele>
        <time>2022-12-27T08:20:43Z</time>
      </trkpt>
      <trkpt lat="48.42161" lon="7.12077">
        <ele>501</ele>
        <time>2022-12-27T08:20:44Z</time>
      </trkpt>
      <trkpt lat="48.42173" lon="7.12066">
        <ele>501</ele>
        <time>2022-12-27T08:20:47Z</time>
      </trkpt>
      <trkpt lat="48.42181" lon="7.12061">
        <ele>500.6</ele>
        <time>2022-12-27T08:20:49Z</time>
      </trkpt>
      <trkpt lat="48.42188" lon="7.12059">
        <ele>500.4</ele>
        <time>2022-12-27T08:20:51Z</time>
      </trkpt>
      <trkpt lat="48.42195" lon="7.12062">
        <ele>500.2</ele>
        <time>2022-12-27T08:20:53Z</time>
      </trkpt>
      <trkpt lat="48.42203" lon="7.12068">
        <ele>499.8</ele>
        <time>2022-12-27T08:20:56Z</time>
      </trkpt>
      <trkpt lat="48.42207" lon="7.12069">
        <ele>499.6</ele>
        <time>2022-12-27T08:20:58Z</time>
      </trkpt>
      <trkpt lat="48.42211" lon="7.1207">
        <ele>499.4</ele>
        <time>2022-12-27T08:21:00Z</time>
      </trkpt>
      <trkpt lat="48.42217" lon="7.12072">
        <ele>499.4</ele>
        <time>2022-12-27T08:21:02Z</time>
      </trkpt>
      <trkpt lat="48.42219" lon="7.12074">
        <ele>499.4</ele>
        <time>2022-12-27T08:21:03Z</time>
      </trkpt>
      <trkpt lat="48.42221" lon="7.12075">
        <ele>499.4</ele>
        <time>2022-12-27T08:21:04Z</time>
      </trkpt>
      <trkpt lat="48.42229" lon="7.12079">
        <ele>499.2</ele>
        <time>2022-12-27T08:21:08Z</time>
      </trkpt>
      <trkpt lat="48.42248" lon="7.1208">
        <ele>499.8</ele>
        <time>2022-12-27T08:21:13Z</time>
      </trkpt>
      <trkpt lat="48.42252" lon="7.1208">
        <ele>499.8</ele>
        <time>2022-12-27T08:21:14Z</time>
      </trkpt>
      <trkpt lat="48.42269" lon="7.12078">
        <ele>500.2</ele>
        <time>2022-12-27T08:21:19Z</time>
      </trkpt>
      <trkpt lat="48.42291" lon="7.12067">
        <ele>501</ele>
        <time>2022-12-27T08:21:23Z</time>
      </trkpt>
      <trkpt lat="48.42299" lon="7.12063">
        <ele>501.4</ele>
        <time>2022-12-27T08:21:25Z</time>
      </trkpt>
      <trkpt lat="48.42315" lon="7.12052">
        <ele>502</ele>
        <time>2022-12-27T08:21:29Z</time>
      </trkpt>
      <trkpt lat="48.42319" lon="7.12049">
        <ele>502.2</ele>
        <time>2022-12-27T08:21:30Z</time>
      </trkpt>
      <trkpt lat="48.42339" lon="7.1203">
        <ele>503</ele>
        <time>2022-12-27T08:21:36Z</time>
      </trkpt>
      <trkpt lat="48.42343" lon="7.12027">
        <ele>503</ele>
        <time>2022-12-27T08:21:37Z</time>
      </trkpt>
      <trkpt lat="48.42346" lon="7.12025">
        <ele>503.2</ele>
        <time>2022-12-27T08:21:38Z</time>
      </trkpt>
      <trkpt lat="48.42358" lon="7.12018">
        <ele>503.6</ele>
        <time>2022-12-27T08:21:42Z</time>
      </trkpt>
      <trkpt lat="48.42367" lon="7.12013">
        <ele>503.8</ele>
        <time>2022-12-27T08:21:46Z</time>
      </trkpt>
      <trkpt lat="48.42375" lon="7.12009">
        <ele>504.2</ele>
        <time>2022-12-27T08:21:50Z</time>
      </trkpt>
      <trkpt lat="48.42377" lon="7.12007">
        <ele>504.2</ele>
        <time>2022-12-27T08:21:51Z</time>
      </trkpt>
      <trkpt lat="48.42391" lon="7.12">
        <ele>504.6</ele>
        <time>2022-12-27T08:21:56Z</time>
      </trkpt>
      <trkpt lat="48.42395" lon="7.11997">
        <ele>504.6</ele>
        <time>2022-12-27T08:21:58Z</time>
      </trkpt>
      <trkpt lat="48.42408" lon="7.11995">
        <ele>505.4</ele>
        <time>2022-12-27T08:22:04Z</time>
      </trkpt>
      <trkpt lat="48.4241" lon="7.11995">
        <ele>505.4</ele>
        <time>2022-12-27T08:22:05Z</time>
      </trkpt>
      <trkpt lat="48.42414" lon="7.11995">
        <ele>505.6</ele>
        <time>2022-12-27T08:22:07Z</time>
      </trkpt>
      <trkpt lat="48.42418" lon="7.11997">
        <ele>506</ele>
        <time>2022-12-27T08:22:10Z</time>
      </trkpt>
      <trkpt lat="48.42419" lon="7.11998">
        <ele>506</ele>
        <time>2022-12-27T08:22:11Z</time>
      </trkpt>
      <trkpt lat="48.4242" lon="7.11998">
        <ele>506.2</ele>
        <time>2022-12-27T08:22:13Z</time>
      </trkpt>
      <trkpt lat="48.4242" lon="7.11998">
        <ele>506.2</ele>
        <time>2022-12-27T08:22:14Z</time>
      </trkpt>
      <trkpt lat="48.4242" lon="7.11998">
        <ele>506.4</ele>
        <time>2022-12-27T08:22:16Z</time>
      </trkpt>
      <trkpt lat="48.4242" lon="7.11998">
        <ele>506.6</ele>
        <time>2022-12-27T08:22:18Z</time>
      </trkpt>
      <trkpt lat="48.42422" lon="7.11997">
        <ele>506.4</ele>
        <time>2022-12-27T08:23:11Z</time>
      </trkpt>
      <trkpt lat="48.42422" lon="7.11997">
        <ele>506.4</ele>
        <time>2022-12-27T08:23:13Z</time>
      </trkpt>
      <trkpt lat="48.42422" lon="7.11997">
        <ele>506.2</ele>
        <time>2022-12-27T08:23:15Z</time>
      </trkpt>
      <trkpt lat="48.42417" lon="7.1199">
        <ele>506</ele>
        <time>2022-12-27T08:23:18Z</time>
      </trkpt>
      <trkpt lat="48.42406" lon="7.11983">
        <ele>506</ele>
        <time>2022-12-27T08:23:23Z</time>
      </trkpt>
      <trkpt lat="48.42394" lon="7.11982">
        <ele>506.2</ele>
        <time>2022-12-27T08:23:29Z</time>
      </trkpt>
      <trkpt lat="48.42379" lon="7.11989">
        <ele>506.4</ele>
        <time>2022-12-27T08:23:36Z</time>
      </trkpt>
      <trkpt lat="48.42366" lon="7.11995">
        <ele>506.6</ele>
        <time>2022-12-27T08:23:42Z</time>
      </trkpt>
      <trkpt lat="48.42353" lon="7.11996">
        <ele>506.8</ele>
        <time>2022-12-27T08:23:48Z</time>
      </trkpt>
      <trkpt lat="48.42341" lon="7.11998">
        <ele>507.4</ele>
        <time>2022-12-27T08:23:54Z</time>
      </trkpt>
      <trkpt lat="48.42335" lon="7.12">
        <ele>507.4</ele>
        <time>2022-12-27T08:23:57Z</time>
      </trkpt>
      <trkpt lat="48.42331" lon="7.12002">
        <ele>507.6</ele>
        <time>2022-12-27T08:24:03Z</time>
      </trkpt>
      <trkpt lat="48.4233" lon="7.12003">
        <ele>508</ele>
        <time>2022-12-27T08:24:23Z</time>
      </trkpt>
      <trkpt lat="48.42321" lon="7.12005">
        <ele>508</ele>
        <time>2022-12-27T08:24:27Z</time>
      </trkpt>
      <trkpt lat="48.42319" lon="7.12005">
        <ele>508.2</ele>
        <time>2022-12-27T08:24:28Z</time>
      </trkpt>
      <trkpt lat="48.42304" lon="7.12006">
        <ele>508.6</ele>
        <time>2022-12-27T08:24:34Z</time>
      </trkpt>
      <trkpt lat="48.42302" lon="7.12005">
        <ele>508.6</ele>
        <time>2022-12-27T08:24:35Z</time>
      </trkpt>
      <trkpt lat="48.42298" lon="7.12004">
        <ele>509</ele>
        <time>2022-12-27T08:24:37Z</time>
      </trkpt>
      <trkpt lat="48.4229" lon="7.11998">
        <ele>509.4</ele>
        <time>2022-12-27T08:24:41Z</time>
      </trkpt>
      <trkpt lat="48.42286" lon="7.11997">
        <ele>509.8</ele>
        <time>2022-12-27T08:24:43Z</time>
      </trkpt>
      <trkpt lat="48.42277" lon="7.11991">
        <ele>510.2</ele>
        <time>2022-12-27T08:24:48Z</time>
      </trkpt>
      <trkpt lat="48.42266" lon="7.11983">
        <ele>510.8</ele>
        <time>2022-12-27T08:24:54Z</time>
      </trkpt>
      <trkpt lat="48.42262" lon="7.1198">
        <ele>510.8</ele>
        <time>2022-12-27T08:24:56Z</time>
      </trkpt>
      <trkpt lat="48.42258" lon="7.11975">
        <ele>511.4</ele>
        <time>2022-12-27T08:25:00Z</time>
      </trkpt>
      <trkpt lat="48.42257" lon="7.11973">
        <ele>511.6</ele>
        <time>2022-12-27T08:25:01Z</time>
      </trkpt>
      <trkpt lat="48.42256" lon="7.11971">
        <ele>511.6</ele>
        <time>2022-12-27T08:25:02Z</time>
      </trkpt>
      <trkpt lat="48.42254" lon="7.1197">
        <ele>511.8</ele>
        <time>2022-12-27T08:25:03Z</time>
      </trkpt>
      <trkpt lat="48.42247" lon="7.11962">
        <ele>512.4</ele>
        <time>2022-12-27T08:25:08Z</time>
      </trkpt>
      <trkpt lat="48.42244" lon="7.1196">
        <ele>512.8</ele>
        <time>2022-12-27T08:25:10Z</time>
      </trkpt>
      <trkpt lat="48.42236" lon="7.11957">
        <ele>513.8</ele>
        <time>2022-12-27T08:25:14Z</time>
      </trkpt>
      <trkpt lat="48.42234" lon="7.11956">
        <ele>513.8</ele>
        <time>2022-12-27T08:25:15Z</time>
      </trkpt>
      <trkpt lat="48.42231" lon="7.11954">
        <ele>514.2</ele>
        <time>2022-12-27T08:25:17Z</time>
      </trkpt>
      <trkpt lat="48.42228" lon="7.1195">
        <ele>514.6</ele>
        <time>2022-12-27T08:25:19Z</time>
      </trkpt>
      <trkpt lat="48.42224" lon="7.11944">
        <ele>515.2</ele>
        <time>2022-12-27T08:25:23Z</time>
      </trkpt>
      <trkpt lat="48.42223" lon="7.11943">
        <ele>515.4</ele>
        <time>2022-12-27T08:25:24Z</time>
      </trkpt>
      <trkpt lat="48.42222" lon="7.1194">
        <ele>515.6</ele>
        <time>2022-12-27T08:25:25Z</time>
      </trkpt>
      <trkpt lat="48.42219" lon="7.11937">
        <ele>515.8</ele>
        <time>2022-12-27T08:25:27Z</time>
      </trkpt>
      <trkpt lat="48.42217" lon="7.11933">
        <ele>516</ele>
        <time>2022-12-27T08:25:29Z</time>
      </trkpt>
      <trkpt lat="48.42216" lon="7.11932">
        <ele>516.2</ele>
        <time>2022-12-27T08:25:30Z</time>
      </trkpt>
      <trkpt lat="48.42214" lon="7.1193">
        <ele>516.4</ele>
        <time>2022-12-27T08:25:31Z</time>
      </trkpt>
      <trkpt lat="48.42213" lon="7.11929">
        <ele>516.4</ele>
        <time>2022-12-27T08:25:32Z</time>
      </trkpt>
      <trkpt lat="48.42211" lon="7.11926">
        <ele>516.8</ele>
        <time>2022-12-27T08:25:34Z</time>
      </trkpt>
      <trkpt lat="48.42211" lon="7.11923">
        <ele>517.2</ele>
        <time>2022-12-27T08:25:36Z</time>
      </trkpt>
      <trkpt lat="48.42211" lon="7.11921">
        <ele>517.4</ele>
        <time>2022-12-27T08:25:37Z</time>
      </trkpt>
      <trkpt lat="48.42211" lon="7.11917">
        <ele>517.8</ele>
        <time>2022-12-27T08:25:39Z</time>
      </trkpt>
      <trkpt lat="48.42212" lon="7.11914">
        <ele>518</ele>
        <time>2022-12-27T08:25:40Z</time>
      </trkpt>
      <trkpt lat="48.42213" lon="7.11908">
        <ele>518.4</ele>
        <time>2022-12-27T08:25:43Z</time>
      </trkpt>
      <trkpt lat="48.42214" lon="7.11904">
        <ele>518.6</ele>
        <time>2022-12-27T08:25:45Z</time>
      </trkpt>
      <trkpt lat="48.42215" lon="7.11901">
        <ele>518.6</ele>
        <time>2022-12-27T08:25:46Z</time>
      </trkpt>
      <trkpt lat="48.42216" lon="7.11899">
        <ele>518.8</ele>
        <time>2022-12-27T08:25:47Z</time>
      </trkpt>
      <trkpt lat="48.42217" lon="7.11896">
        <ele>519.2</ele>
        <time>2022-12-27T08:25:49Z</time>
      </trkpt>
      <trkpt lat="48.42218" lon="7.11892">
        <ele>519.8</ele>
        <time>2022-12-27T08:25:51Z</time>
      </trkpt>
      <trkpt lat="48.42219" lon="7.11889">
        <ele>520</ele>
        <time>2022-12-27T08:25:53Z</time>
      </trkpt>
      <trkpt lat="48.42221" lon="7.11874">
        <ele>520.8</ele>
        <time>2022-12-27T08:26:00Z</time>
      </trkpt>
      <trkpt lat="48.42222" lon="7.1187">
        <ele>521.2</ele>
        <time>2022-12-27T08:26:02Z</time>
      </trkpt>
      <trkpt lat="48.42224" lon="7.11862">
        <ele>521.6</ele>
        <time>2022-12-27T08:26:05Z</time>
      </trkpt>
      <trkpt lat="48.42224" lon="7.11855">
        <ele>521.8</ele>
        <time>2022-12-27T08:26:08Z</time>
      </trkpt>
      <trkpt lat="48.42225" lon="7.11852">
        <ele>522</ele>
        <time>2022-12-27T08:26:09Z</time>
      </trkpt>
      <trkpt lat="48.42226" lon="7.11837">
        <ele>522.6</ele>
        <time>2022-12-27T08:26:14Z</time>
      </trkpt>
      <trkpt lat="48.42227" lon="7.11832">
        <ele>522.8</ele>
        <time>2022-12-27T08:26:16Z</time>
      </trkpt>
      <trkpt lat="48.42227" lon="7.1183">
        <ele>523</ele>
        <time>2022-12-27T08:26:17Z</time>
      </trkpt>
      <trkpt lat="48.42227" lon="7.11821">
        <ele>523.8</ele>
        <time>2022-12-27T08:26:21Z</time>
      </trkpt>
      <trkpt lat="48.42229" lon="7.11819">
        <ele>524</ele>
        <time>2022-12-27T08:26:23Z</time>
      </trkpt>
      <trkpt lat="48.42228" lon="7.11817">
        <ele>524.2</ele>
        <time>2022-12-27T08:26:24Z</time>
      </trkpt>
      <trkpt lat="48.42232" lon="7.11804">
        <ele>525</ele>
        <time>2022-12-27T08:26:31Z</time>
      </trkpt>
      <trkpt lat="48.42232" lon="7.11803">
        <ele>525.2</ele>
        <time>2022-12-27T08:26:32Z</time>
      </trkpt>
      <trkpt lat="48.42233" lon="7.11788">
        <ele>526</ele>
        <time>2022-12-27T08:26:39Z</time>
      </trkpt>
      <trkpt lat="48.42235" lon="7.11784">
        <ele>526.6</ele>
        <time>2022-12-27T08:26:41Z</time>
      </trkpt>
      <trkpt lat="48.42234" lon="7.11769">
        <ele>527.4</ele>
        <time>2022-12-27T08:26:47Z</time>
      </trkpt>
      <trkpt lat="48.42238" lon="7.11749">
        <ele>528.2</ele>
        <time>2022-12-27T08:26:56Z</time>
      </trkpt>
      <trkpt lat="48.42239" lon="7.11748">
        <ele>528.4</ele>
        <time>2022-12-27T08:26:57Z</time>
      </trkpt>
      <trkpt lat="48.42241" lon="7.11734">
        <ele>529.4</ele>
        <time>2022-12-27T08:27:03Z</time>
      </trkpt>
      <trkpt lat="48.42242" lon="7.11712">
        <ele>530.2</ele>
        <time>2022-12-27T08:27:11Z</time>
      </trkpt>
      <trkpt lat="48.42242" lon="7.11703">
        <ele>530.4</ele>
        <time>2022-12-27T08:27:14Z</time>
      </trkpt>
      <trkpt lat="48.4224" lon="7.11694">
        <ele>531.2</ele>
        <time>2022-12-27T08:27:17Z</time>
      </trkpt>
      <trkpt lat="48.4224" lon="7.11675">
        <ele>531.8</ele>
        <time>2022-12-27T08:27:23Z</time>
      </trkpt>
      <trkpt lat="48.4224" lon="7.11672">
        <ele>531.8</ele>
        <time>2022-12-27T08:27:24Z</time>
      </trkpt>
      <trkpt lat="48.42239" lon="7.11648">
        <ele>532.4</ele>
        <time>2022-12-27T08:27:32Z</time>
      </trkpt>
      <trkpt lat="48.42239" lon="7.1164">
        <ele>532.8</ele>
        <time>2022-12-27T08:27:35Z</time>
      </trkpt>
      <trkpt lat="48.42239" lon="7.11624">
        <ele>533.2</ele>
        <time>2022-12-27T08:27:40Z</time>
      </trkpt>
      <trkpt lat="48.42236" lon="7.11602">
        <ele>533.6</ele>
        <time>2022-12-27T08:27:47Z</time>
      </trkpt>
      <trkpt lat="48.42233" lon="7.11597">
        <ele>533.6</ele>
        <time>2022-12-27T08:27:49Z</time>
      </trkpt>
      <trkpt lat="48.4223" lon="7.11593">
        <ele>533.8</ele>
        <time>2022-12-27T08:27:51Z</time>
      </trkpt>
      <trkpt lat="48.42228" lon="7.11592">
        <ele>533.8</ele>
        <time>2022-12-27T08:27:52Z</time>
      </trkpt>
      <trkpt lat="48.42216" lon="7.11594">
        <ele>534.2</ele>
        <time>2022-12-27T08:27:58Z</time>
      </trkpt>
      <trkpt lat="48.42205" lon="7.11606">
        <ele>534.8</ele>
        <time>2022-12-27T08:28:04Z</time>
      </trkpt>
      <trkpt lat="48.42202" lon="7.1161">
        <ele>535</ele>
        <time>2022-12-27T08:28:06Z</time>
      </trkpt>
      <trkpt lat="48.42197" lon="7.11617">
        <ele>535.2</ele>
        <time>2022-12-27T08:28:10Z</time>
      </trkpt>
      <trkpt lat="48.42194" lon="7.11621">
        <ele>535.4</ele>
        <time>2022-12-27T08:28:13Z</time>
      </trkpt>
      <trkpt lat="48.42191" lon="7.11628">
        <ele>535.8</ele>
        <time>2022-12-27T08:28:16Z</time>
      </trkpt>
      <trkpt lat="48.42184" lon="7.11636">
        <ele>536.6</ele>
        <time>2022-12-27T08:28:21Z</time>
      </trkpt>
      <trkpt lat="48.42178" lon="7.11645">
        <ele>537</ele>
        <time>2022-12-27T08:28:25Z</time>
      </trkpt>
      <trkpt lat="48.42177" lon="7.11647">
        <ele>537.4</ele>
        <time>2022-12-27T08:28:26Z</time>
      </trkpt>
      <trkpt lat="48.42177" lon="7.11649">
        <ele>537.2</ele>
        <time>2022-12-27T08:28:27Z</time>
      </trkpt>
      <trkpt lat="48.42169" lon="7.11659">
        <ele>538.2</ele>
        <time>2022-12-27T08:28:32Z</time>
      </trkpt>
      <trkpt lat="48.42166" lon="7.11662">
        <ele>538.6</ele>
        <time>2022-12-27T08:28:34Z</time>
      </trkpt>
      <trkpt lat="48.42165" lon="7.11664">
        <ele>538.6</ele>
        <time>2022-12-27T08:28:35Z</time>
      </trkpt>
      <trkpt lat="48.42162" lon="7.11668">
        <ele>538.6</ele>
        <time>2022-12-27T08:28:37Z</time>
      </trkpt>
      <trkpt lat="48.4216" lon="7.1167">
        <ele>538.8</ele>
        <time>2022-12-27T08:28:38Z</time>
      </trkpt>
      <trkpt lat="48.42155" lon="7.11674">
        <ele>539.2</ele>
        <time>2022-12-27T08:28:41Z</time>
      </trkpt>
      <trkpt lat="48.42152" lon="7.11678">
        <ele>539.4</ele>
        <time>2022-12-27T08:28:43Z</time>
      </trkpt>
      <trkpt lat="48.42149" lon="7.11682">
        <ele>539.6</ele>
        <time>2022-12-27T08:28:45Z</time>
      </trkpt>
      <trkpt lat="48.42148" lon="7.11684">
        <ele>539.8</ele>
        <time>2022-12-27T08:28:46Z</time>
      </trkpt>
      <trkpt lat="48.42143" lon="7.11689">
        <ele>540</ele>
        <time>2022-12-27T08:28:49Z</time>
      </trkpt>
      <trkpt lat="48.42142" lon="7.11689">
        <ele>540.2</ele>
        <time>2022-12-27T08:28:50Z</time>
      </trkpt>
      <trkpt lat="48.4213" lon="7.11697">
        <ele>541</ele>
        <time>2022-12-27T08:28:56Z</time>
      </trkpt>
      <trkpt lat="48.42127" lon="7.11698">
        <ele>541.4</ele>
        <time>2022-12-27T08:28:58Z</time>
      </trkpt>
      <trkpt lat="48.42122" lon="7.11694">
        <ele>541.8</ele>
        <time>2022-12-27T08:29:02Z</time>
      </trkpt>
      <trkpt lat="48.42115" lon="7.11688">
        <ele>542.4</ele>
        <time>2022-12-27T08:29:07Z</time>
      </trkpt>
      <trkpt lat="48.42114" lon="7.11686">
        <ele>542.6</ele>
        <time>2022-12-27T08:29:08Z</time>
      </trkpt>
      <trkpt lat="48.42104" lon="7.11673">
        <ele>543.4</ele>
        <time>2022-12-27T08:29:15Z</time>
      </trkpt>
      <trkpt lat="48.42103" lon="7.11671">
        <ele>543.6</ele>
        <time>2022-12-27T08:29:16Z</time>
      </trkpt>
      <trkpt lat="48.42093" lon="7.11655">
        <ele>544.6</ele>
        <time>2022-12-27T08:29:22Z</time>
      </trkpt>
      <trkpt lat="48.4209" lon="7.1165">
        <ele>544.8</ele>
        <time>2022-12-27T08:29:24Z</time>
      </trkpt>
      <trkpt lat="48.42084" lon="7.11641">
        <ele>545.4</ele>
        <time>2022-12-27T08:29:28Z</time>
      </trkpt>
      <trkpt lat="48.42079" lon="7.11634">
        <ele>545.8</ele>
        <time>2022-12-27T08:29:32Z</time>
      </trkpt>
      <trkpt lat="48.42074" lon="7.11628">
        <ele>546</ele>
        <time>2022-12-27T08:29:35Z</time>
      </trkpt>
      <trkpt lat="48.42064" lon="7.11614">
        <ele>546.8</ele>
        <time>2022-12-27T08:29:42Z</time>
      </trkpt>
      <trkpt lat="48.42063" lon="7.11612">
        <ele>546.8</ele>
        <time>2022-12-27T08:29:43Z</time>
      </trkpt>
      <trkpt lat="48.42055" lon="7.11598">
        <ele>547.2</ele>
        <time>2022-12-27T08:29:49Z</time>
      </trkpt>
      <trkpt lat="48.42055" lon="7.11596">
        <ele>547.2</ele>
        <time>2022-12-27T08:29:50Z</time>
      </trkpt>
      <trkpt lat="48.42053" lon="7.11594">
        <ele>547.4</ele>
        <time>2022-12-27T08:29:51Z</time>
      </trkpt>
      <trkpt lat="48.42051" lon="7.11593">
        <ele>548</ele>
        <time>2022-12-27T08:29:52Z</time>
      </trkpt>
      <trkpt lat="48.42047" lon="7.11589">
        <ele>548.4</ele>
        <time>2022-12-27T08:29:54Z</time>
      </trkpt>
      <trkpt lat="48.42045" lon="7.11584">
        <ele>548.6</ele>
        <time>2022-12-27T08:29:56Z</time>
      </trkpt>
      <trkpt lat="48.42042" lon="7.1158">
        <ele>548.8</ele>
        <time>2022-12-27T08:29:58Z</time>
      </trkpt>
      <trkpt lat="48.42041" lon="7.11577">
        <ele>549</ele>
        <time>2022-12-27T08:29:59Z</time>
      </trkpt>
      <trkpt lat="48.42034" lon="7.11569">
        <ele>549</ele>
        <time>2022-12-27T08:30:02Z</time>
      </trkpt>
      <trkpt lat="48.42027" lon="7.11553">
        <ele>549.8</ele>
        <time>2022-12-27T08:30:08Z</time>
      </trkpt>
      <trkpt lat="48.42028" lon="7.11547">
        <ele>550</ele>
        <time>2022-12-27T08:30:10Z</time>
      </trkpt>
      <trkpt lat="48.42028" lon="7.11541">
        <ele>550</ele>
        <time>2022-12-27T08:30:13Z</time>
      </trkpt>
      <trkpt lat="48.42028" lon="7.11535">
        <ele>550</ele>
        <time>2022-12-27T08:30:15Z</time>
      </trkpt>
      <trkpt lat="48.42029" lon="7.11531">
        <ele>550</ele>
        <time>2022-12-27T08:30:17Z</time>
      </trkpt>
      <trkpt lat="48.4203" lon="7.11526">
        <ele>550.4</ele>
        <time>2022-12-27T08:30:20Z</time>
      </trkpt>
      <trkpt lat="48.42029" lon="7.11524">
        <ele>550.4</ele>
        <time>2022-12-27T08:30:21Z</time>
      </trkpt>
      <trkpt lat="48.42028" lon="7.1152">
        <ele>550.6</ele>
        <time>2022-12-27T08:30:23Z</time>
      </trkpt>
      <trkpt lat="48.42028" lon="7.11513">
        <ele>550.8</ele>
        <time>2022-12-27T08:30:26Z</time>
      </trkpt>
      <trkpt lat="48.42027" lon="7.11501">
        <ele>551.4</ele>
        <time>2022-12-27T08:30:31Z</time>
      </trkpt>
      <trkpt lat="48.42028" lon="7.11499">
        <ele>551.6</ele>
        <time>2022-12-27T08:30:32Z</time>
      </trkpt>
      <trkpt lat="48.42028" lon="7.11494">
        <ele>551.8</ele>
        <time>2022-12-27T08:30:34Z</time>
      </trkpt>
      <trkpt lat="48.42026" lon="7.11488">
        <ele>552</ele>
        <time>2022-12-27T08:30:36Z</time>
      </trkpt>
      <trkpt lat="48.42025" lon="7.11479">
        <ele>552.6</ele>
        <time>2022-12-27T08:30:41Z</time>
      </trkpt>
      <trkpt lat="48.42017" lon="7.11458">
        <ele>553.4</ele>
        <time>2022-12-27T08:30:49Z</time>
      </trkpt>
      <trkpt lat="48.42012" lon="7.11448">
        <ele>553.6</ele>
        <time>2022-12-27T08:30:52Z</time>
      </trkpt>
      <trkpt lat="48.42014" lon="7.11442">
        <ele>553.8</ele>
        <time>2022-12-27T08:30:54Z</time>
      </trkpt>
      <trkpt lat="48.42015" lon="7.11436">
        <ele>554.2</ele>
        <time>2022-12-27T08:30:57Z</time>
      </trkpt>
      <trkpt lat="48.42013" lon="7.11432">
        <ele>554.4</ele>
        <time>2022-12-27T08:30:59Z</time>
      </trkpt>
      <trkpt lat="48.42009" lon="7.11426">
        <ele>554.6</ele>
        <time>2022-12-27T08:31:01Z</time>
      </trkpt>
      <trkpt lat="48.42009" lon="7.11421">
        <ele>554.8</ele>
        <time>2022-12-27T08:31:03Z</time>
      </trkpt>
      <trkpt lat="48.4201" lon="7.11414">
        <ele>555.4</ele>
        <time>2022-12-27T08:31:07Z</time>
      </trkpt>
      <trkpt lat="48.42009" lon="7.11411">
        <ele>555.8</ele>
        <time>2022-12-27T08:31:09Z</time>
      </trkpt>
      <trkpt lat="48.4201" lon="7.11407">
        <ele>556</ele>
        <time>2022-12-27T08:31:11Z</time>
      </trkpt>
      <trkpt lat="48.4201" lon="7.11399">
        <ele>556.4</ele>
        <time>2022-12-27T08:31:16Z</time>
      </trkpt>
      <trkpt lat="48.42009" lon="7.11397">
        <ele>556.6</ele>
        <time>2022-12-27T08:31:17Z</time>
      </trkpt>
      <trkpt lat="48.42008" lon="7.11392">
        <ele>556.8</ele>
        <time>2022-12-27T08:31:19Z</time>
      </trkpt>
      <trkpt lat="48.42008" lon="7.1139">
        <ele>556.8</ele>
        <time>2022-12-27T08:31:20Z</time>
      </trkpt>
      <trkpt lat="48.42007" lon="7.11388">
        <ele>557.2</ele>
        <time>2022-12-27T08:31:21Z</time>
      </trkpt>
      <trkpt lat="48.42008" lon="7.11384">
        <ele>557.6</ele>
        <time>2022-12-27T08:31:23Z</time>
      </trkpt>
      <trkpt lat="48.42003" lon="7.11378">
        <ele>557.6</ele>
        <time>2022-12-27T08:31:25Z</time>
      </trkpt>
      <trkpt lat="48.42002" lon="7.11375">
        <ele>557.8</ele>
        <time>2022-12-27T08:31:26Z</time>
      </trkpt>
      <trkpt lat="48.42001" lon="7.11371">
        <ele>558</ele>
        <time>2022-12-27T08:31:27Z</time>
      </trkpt>
      <trkpt lat="48.41999" lon="7.11363">
        <ele>558.6</ele>
        <time>2022-12-27T08:31:30Z</time>
      </trkpt>
      <trkpt lat="48.41995" lon="7.11359">
        <ele>558.8</ele>
        <time>2022-12-27T08:31:32Z</time>
      </trkpt>
      <trkpt lat="48.41994" lon="7.11357">
        <ele>559</ele>
        <time>2022-12-27T08:31:33Z</time>
      </trkpt>
      <trkpt lat="48.41992" lon="7.1135">
        <ele>559.6</ele>
        <time>2022-12-27T08:31:37Z</time>
      </trkpt>
      <trkpt lat="48.41987" lon="7.11343">
        <ele>560</ele>
        <time>2022-12-27T08:31:41Z</time>
      </trkpt>
      <trkpt lat="48.41981" lon="7.11334">
        <ele>560.2</ele>
        <time>2022-12-27T08:31:44Z</time>
      </trkpt>
      <trkpt lat="48.4198" lon="7.11333">
        <ele>560.4</ele>
        <time>2022-12-27T08:31:45Z</time>
      </trkpt>
      <trkpt lat="48.4197" lon="7.11327">
        <ele>561.2</ele>
        <time>2022-12-27T08:31:49Z</time>
      </trkpt>
      <trkpt lat="48.41971" lon="7.11326">
        <ele>561.2</ele>
        <time>2022-12-27T08:31:50Z</time>
      </trkpt>
      <trkpt lat="48.41966" lon="7.1132">
        <ele>561.8</ele>
        <time>2022-12-27T08:31:54Z</time>
      </trkpt>
      <trkpt lat="48.41965" lon="7.11318">
        <ele>561.8</ele>
        <time>2022-12-27T08:31:55Z</time>
      </trkpt>
      <trkpt lat="48.41964" lon="7.11314">
        <ele>562</ele>
        <time>2022-12-27T08:31:57Z</time>
      </trkpt>
      <trkpt lat="48.41964" lon="7.11309">
        <ele>562.2</ele>
        <time>2022-12-27T08:32:00Z</time>
      </trkpt>
      <trkpt lat="48.41961" lon="7.11299">
        <ele>563</ele>
        <time>2022-12-27T08:32:06Z</time>
      </trkpt>
      <trkpt lat="48.4196" lon="7.11296">
        <ele>563.2</ele>
        <time>2022-12-27T08:32:08Z</time>
      </trkpt>
      <trkpt lat="48.4196" lon="7.11295">
        <ele>563.4</ele>
        <time>2022-12-27T08:32:09Z</time>
      </trkpt>
      <trkpt lat="48.4196" lon="7.11293">
        <ele>563.8</ele>
        <time>2022-12-27T08:32:11Z</time>
      </trkpt>
      <trkpt lat="48.4196" lon="7.11291">
        <ele>564</ele>
        <time>2022-12-27T08:32:12Z</time>
      </trkpt>
      <trkpt lat="48.41959" lon="7.11288">
        <ele>564.2</ele>
        <time>2022-12-27T08:32:14Z</time>
      </trkpt>
      <trkpt lat="48.41959" lon="7.11283">
        <ele>564.4</ele>
        <time>2022-12-27T08:32:16Z</time>
      </trkpt>
      <trkpt lat="48.41958" lon="7.1128">
        <ele>564.8</ele>
        <time>2022-12-27T08:32:18Z</time>
      </trkpt>
      <trkpt lat="48.41958" lon="7.11278">
        <ele>564.8</ele>
        <time>2022-12-27T08:32:19Z</time>
      </trkpt>
      <trkpt lat="48.41957" lon="7.11271">
        <ele>565.2</ele>
        <time>2022-12-27T08:32:22Z</time>
      </trkpt>
      <trkpt lat="48.41957" lon="7.11265">
        <ele>565.4</ele>
        <time>2022-12-27T08:32:24Z</time>
      </trkpt>
      <trkpt lat="48.41956" lon="7.1126">
        <ele>565.6</ele>
        <time>2022-12-27T08:32:25Z</time>
      </trkpt>
      <trkpt lat="48.41954" lon="7.11236">
        <ele>566.2</ele>
        <time>2022-12-27T08:32:32Z</time>
      </trkpt>
      <trkpt lat="48.41953" lon="7.11213">
        <ele>566.8</ele>
        <time>2022-12-27T08:32:39Z</time>
      </trkpt>
      <trkpt lat="48.41951" lon="7.11194">
        <ele>567</ele>
        <time>2022-12-27T08:32:46Z</time>
      </trkpt>
      <trkpt lat="48.41947" lon="7.11188">
        <ele>567.2</ele>
        <time>2022-12-27T08:32:48Z</time>
      </trkpt>
      <trkpt lat="48.41943" lon="7.11178">
        <ele>567.4</ele>
        <time>2022-12-27T08:32:51Z</time>
      </trkpt>
      <trkpt lat="48.41945" lon="7.11169">
        <ele>567.6</ele>
        <time>2022-12-27T08:32:55Z</time>
      </trkpt>
      <trkpt lat="48.41944" lon="7.11162">
        <ele>568.2</ele>
        <time>2022-12-27T08:32:58Z</time>
      </trkpt>
      <trkpt lat="48.41943" lon="7.11143">
        <ele>569.2</ele>
        <time>2022-12-27T08:33:07Z</time>
      </trkpt>
      <trkpt lat="48.41943" lon="7.11142">
        <ele>569.4</ele>
        <time>2022-12-27T08:33:08Z</time>
      </trkpt>
      <trkpt lat="48.41943" lon="7.1114">
        <ele>569.4</ele>
        <time>2022-12-27T08:33:09Z</time>
      </trkpt>
      <trkpt lat="48.41942" lon="7.11136">
        <ele>569.6</ele>
        <time>2022-12-27T08:33:11Z</time>
      </trkpt>
      <trkpt lat="48.41942" lon="7.11133">
        <ele>569.8</ele>
        <time>2022-12-27T08:33:12Z</time>
      </trkpt>
      <trkpt lat="48.41942" lon="7.11131">
        <ele>570</ele>
        <time>2022-12-27T08:33:13Z</time>
      </trkpt>
      <trkpt lat="48.41942" lon="7.11128">
        <ele>570.2</ele>
        <time>2022-12-27T08:33:14Z</time>
      </trkpt>
      <trkpt lat="48.41942" lon="7.11124">
        <ele>570.4</ele>
        <time>2022-12-27T08:33:16Z</time>
      </trkpt>
      <trkpt lat="48.41941" lon="7.11119">
        <ele>570.6</ele>
        <time>2022-12-27T08:33:18Z</time>
      </trkpt>
      <trkpt lat="48.4194" lon="7.11113">
        <ele>571</ele>
        <time>2022-12-27T08:33:20Z</time>
      </trkpt>
      <trkpt lat="48.41938" lon="7.11107">
        <ele>571.4</ele>
        <time>2022-12-27T08:33:22Z</time>
      </trkpt>
      <trkpt lat="48.41937" lon="7.11103">
        <ele>571.6</ele>
        <time>2022-12-27T08:33:24Z</time>
      </trkpt>
      <trkpt lat="48.41935" lon="7.11096">
        <ele>571.8</ele>
        <time>2022-12-27T08:33:27Z</time>
      </trkpt>
      <trkpt lat="48.41935" lon="7.11091">
        <ele>572</ele>
        <time>2022-12-27T08:33:29Z</time>
      </trkpt>
      <trkpt lat="48.41932" lon="7.11082">
        <ele>572.4</ele>
        <time>2022-12-27T08:33:32Z</time>
      </trkpt>
      <trkpt lat="48.41933" lon="7.11077">
        <ele>572.6</ele>
        <time>2022-12-27T08:33:34Z</time>
      </trkpt>
      <trkpt lat="48.41929" lon="7.11056">
        <ele>573.6</ele>
        <time>2022-12-27T08:33:40Z</time>
      </trkpt>
      <trkpt lat="48.41928" lon="7.11048">
        <ele>574</ele>
        <time>2022-12-27T08:33:43Z</time>
      </trkpt>
      <trkpt lat="48.41927" lon="7.11043">
        <ele>574</ele>
        <time>2022-12-27T08:33:45Z</time>
      </trkpt>
      <trkpt lat="48.41928" lon="7.11039">
        <ele>574.2</ele>
        <time>2022-12-27T08:33:47Z</time>
      </trkpt>
      <trkpt lat="48.41928" lon="7.11036">
        <ele>574.6</ele>
        <time>2022-12-27T08:33:48Z</time>
      </trkpt>
      <trkpt lat="48.41929" lon="7.1103">
        <ele>574.8</ele>
        <time>2022-12-27T08:33:50Z</time>
      </trkpt>
      <trkpt lat="48.41928" lon="7.11016">
        <ele>575</ele>
        <time>2022-12-27T08:33:56Z</time>
      </trkpt>
      <trkpt lat="48.41929" lon="7.11004">
        <ele>575.8</ele>
        <time>2022-12-27T08:34:02Z</time>
      </trkpt>
      <trkpt lat="48.41928" lon="7.11001">
        <ele>576</ele>
        <time>2022-12-27T08:34:03Z</time>
      </trkpt>
      <trkpt lat="48.41928" lon="7.10996">
        <ele>576.2</ele>
        <time>2022-12-27T08:34:05Z</time>
      </trkpt>
      <trkpt lat="48.41926" lon="7.10991">
        <ele>576.6</ele>
        <time>2022-12-27T08:34:08Z</time>
      </trkpt>
      <trkpt lat="48.41925" lon="7.10987">
        <ele>576.8</ele>
        <time>2022-12-27T08:34:10Z</time>
      </trkpt>
      <trkpt lat="48.41924" lon="7.10983">
        <ele>576.8</ele>
        <time>2022-12-27T08:34:12Z</time>
      </trkpt>
      <trkpt lat="48.41921" lon="7.10981">
        <ele>577.2</ele>
        <time>2022-12-27T08:34:13Z</time>
      </trkpt>
      <trkpt lat="48.41916" lon="7.10974">
        <ele>577.8</ele>
        <time>2022-12-27T08:34:17Z</time>
      </trkpt>
      <trkpt lat="48.41911" lon="7.10967">
        <ele>578.2</ele>
        <time>2022-12-27T08:34:21Z</time>
      </trkpt>
      <trkpt lat="48.41908" lon="7.10963">
        <ele>578.6</ele>
        <time>2022-12-27T08:34:23Z</time>
      </trkpt>
      <trkpt lat="48.41893" lon="7.1095">
        <ele>579.2</ele>
        <time>2022-12-27T08:34:32Z</time>
      </trkpt>
      <trkpt lat="48.41891" lon="7.10949">
        <ele>579.2</ele>
        <time>2022-12-27T08:34:34Z</time>
      </trkpt>
      <trkpt lat="48.41885" lon="7.10948">
        <ele>579.6</ele>
        <time>2022-12-27T08:34:38Z</time>
      </trkpt>
      <trkpt lat="48.41876" lon="7.10946">
        <ele>580.2</ele>
        <time>2022-12-27T08:34:44Z</time>
      </trkpt>
      <trkpt lat="48.41874" lon="7.10945">
        <ele>580.4</ele>
        <time>2022-12-27T08:34:45Z</time>
      </trkpt>
      <trkpt lat="48.41861" lon="7.1094">
        <ele>581</ele>
        <time>2022-12-27T08:34:52Z</time>
      </trkpt>
      <trkpt lat="48.4186" lon="7.10939">
        <ele>581</ele>
        <time>2022-12-27T08:34:53Z</time>
      </trkpt>
      <trkpt lat="48.41857" lon="7.10937">
        <ele>581.2</ele>
        <time>2022-12-27T08:34:55Z</time>
      </trkpt>
      <trkpt lat="48.41851" lon="7.10935">
        <ele>581.4</ele>
        <time>2022-12-27T08:34:58Z</time>
      </trkpt>
      <trkpt lat="48.41836" lon="7.10929">
        <ele>582.4</ele>
        <time>2022-12-27T08:35:05Z</time>
      </trkpt>
      <trkpt lat="48.41833" lon="7.10929">
        <ele>582.6</ele>
        <time>2022-12-27T08:35:07Z</time>
      </trkpt>
      <trkpt lat="48.4182" lon="7.10924">
        <ele>583.2</ele>
        <time>2022-12-27T08:35:14Z</time>
      </trkpt>
      <trkpt lat="48.41815" lon="7.10925">
        <ele>583.6</ele>
        <time>2022-12-27T08:35:16Z</time>
      </trkpt>
      <trkpt lat="48.41812" lon="7.10921">
        <ele>584</ele>
        <time>2022-12-27T08:35:20Z</time>
      </trkpt>
      <trkpt lat="48.41806" lon="7.10917">
        <ele>584.6</ele>
        <time>2022-12-27T08:35:25Z</time>
      </trkpt>
      <trkpt lat="48.41804" lon="7.10916">
        <ele>584.8</ele>
        <time>2022-12-27T08:35:27Z</time>
      </trkpt>
      <trkpt lat="48.41796" lon="7.1091">
        <ele>585.4</ele>
        <time>2022-12-27T08:35:33Z</time>
      </trkpt>
      <trkpt lat="48.41794" lon="7.10907">
        <ele>585.6</ele>
        <time>2022-12-27T08:35:35Z</time>
      </trkpt>
      <trkpt lat="48.41786" lon="7.10893">
        <ele>586.8</ele>
        <time>2022-12-27T08:35:43Z</time>
      </trkpt>
      <trkpt lat="48.41781" lon="7.10878">
        <ele>587.4</ele>
        <time>2022-12-27T08:35:50Z</time>
      </trkpt>
      <trkpt lat="48.41777" lon="7.10862">
        <ele>588.2</ele>
        <time>2022-12-27T08:35:57Z</time>
      </trkpt>
      <trkpt lat="48.41775" lon="7.10854">
        <ele>588.4</ele>
        <time>2022-12-27T08:36:00Z</time>
      </trkpt>
      <trkpt lat="48.41773" lon="7.10839">
        <ele>589.2</ele>
        <time>2022-12-27T08:36:05Z</time>
      </trkpt>
      <trkpt lat="48.41773" lon="7.10831">
        <ele>589.4</ele>
        <time>2022-12-27T08:36:08Z</time>
      </trkpt>
      <trkpt lat="48.41774" lon="7.10808">
        <ele>590</ele>
        <time>2022-12-27T08:36:16Z</time>
      </trkpt>
      <trkpt lat="48.41774" lon="7.10799">
        <ele>590.4</ele>
        <time>2022-12-27T08:36:19Z</time>
      </trkpt>
      <trkpt lat="48.41776" lon="7.10786">
        <ele>590.6</ele>
        <time>2022-12-27T08:36:23Z</time>
      </trkpt>
      <trkpt lat="48.41778" lon="7.10762">
        <ele>590.8</ele>
        <time>2022-12-27T08:36:30Z</time>
      </trkpt>
      <trkpt lat="48.4178" lon="7.10737">
        <ele>591.2</ele>
        <time>2022-12-27T08:36:38Z</time>
      </trkpt>
      <trkpt lat="48.4178" lon="7.10721">
        <ele>591.4</ele>
        <time>2022-12-27T08:36:43Z</time>
      </trkpt>
      <trkpt lat="48.4178" lon="7.10714">
        <ele>591.4</ele>
        <time>2022-12-27T08:36:45Z</time>
      </trkpt>
      <trkpt lat="48.41774" lon="7.10701">
        <ele>591.6</ele>
        <time>2022-12-27T08:36:49Z</time>
      </trkpt>
      <trkpt lat="48.4177" lon="7.10689">
        <ele>591.6</ele>
        <time>2022-12-27T08:36:54Z</time>
      </trkpt>
      <trkpt lat="48.41772" lon="7.10693">
        <ele>591.2</ele>
        <time>2022-12-27T08:39:25Z</time>
      </trkpt>
      <trkpt lat="48.41772" lon="7.10693">
        <ele>591.2</ele>
        <time>2022-12-27T08:39:26Z</time>
      </trkpt>
      <trkpt lat="48.41772" lon="7.10693">
        <ele>591.2</ele>
        <time>2022-12-27T08:39:29Z</time>
      </trkpt>
      <trkpt lat="48.41769" lon="7.10688">
        <ele>591.4</ele>
        <time>2022-12-27T08:39:32Z</time>
      </trkpt>
      <trkpt lat="48.41767" lon="7.10684">
        <ele>591.6</ele>
        <time>2022-12-27T08:39:34Z</time>
      </trkpt>
      <trkpt lat="48.41763" lon="7.10678">
        <ele>591.8</ele>
        <time>2022-12-27T08:39:37Z</time>
      </trkpt>
      <trkpt lat="48.4176" lon="7.10673">
        <ele>592</ele>
        <time>2022-12-27T08:39:40Z</time>
      </trkpt>
      <trkpt lat="48.41754" lon="7.10669">
        <ele>592.2</ele>
        <time>2022-12-27T08:39:43Z</time>
      </trkpt>
      <trkpt lat="48.41752" lon="7.10669">
        <ele>592.4</ele>
        <time>2022-12-27T08:39:44Z</time>
      </trkpt>
      <trkpt lat="48.41748" lon="7.10668">
        <ele>592.6</ele>
        <time>2022-12-27T08:39:46Z</time>
      </trkpt>
      <trkpt lat="48.41738" lon="7.10665">
        <ele>593.4</ele>
        <time>2022-12-27T08:39:51Z</time>
      </trkpt>
      <trkpt lat="48.41733" lon="7.10665">
        <ele>593.4</ele>
        <time>2022-12-27T08:39:53Z</time>
      </trkpt>
      <trkpt lat="48.41726" lon="7.10667">
        <ele>593.6</ele>
        <time>2022-12-27T08:39:56Z</time>
      </trkpt>
      <trkpt lat="48.41708" lon="7.10666">
        <ele>594</ele>
        <time>2022-12-27T08:40:01Z</time>
      </trkpt>
      <trkpt lat="48.41697" lon="7.10664">
        <ele>594.4</ele>
        <time>2022-12-27T08:40:05Z</time>
      </trkpt>
      <trkpt lat="48.41691" lon="7.10664">
        <ele>594.6</ele>
        <time>2022-12-27T08:40:09Z</time>
      </trkpt>
      <trkpt lat="48.41691" lon="7.10664">
        <ele>595.2</ele>
        <time>2022-12-27T08:40:15Z</time>
      </trkpt>
      <trkpt lat="48.41691" lon="7.10664">
        <ele>595.2</ele>
        <time>2022-12-27T08:40:25Z</time>
      </trkpt>
      <trkpt lat="48.41687" lon="7.10665">
        <ele>595.2</ele>
        <time>2022-12-27T08:40:40Z</time>
      </trkpt>
      <trkpt lat="48.41686" lon="7.10665">
        <ele>595.2</ele>
        <time>2022-12-27T08:40:41Z</time>
      </trkpt>
      <trkpt lat="48.41685" lon="7.10665">
        <ele>595.4</ele>
        <time>2022-12-27T08:40:42Z</time>
      </trkpt>
      <trkpt lat="48.4168" lon="7.10665">
        <ele>595.4</ele>
        <time>2022-12-27T08:40:44Z</time>
      </trkpt>
      <trkpt lat="48.41674" lon="7.10664">
        <ele>595.6</ele>
        <time>2022-12-27T08:40:47Z</time>
      </trkpt>
      <trkpt lat="48.41667" lon="7.10662">
        <ele>596.2</ele>
        <time>2022-12-27T08:40:50Z</time>
      </trkpt>
      <trkpt lat="48.41663" lon="7.10659">
        <ele>596.4</ele>
        <time>2022-12-27T08:40:53Z</time>
      </trkpt>
      <trkpt lat="48.41656" lon="7.10655">
        <ele>596.6</ele>
        <time>2022-12-27T08:40:56Z</time>
      </trkpt>
      <trkpt lat="48.41643" lon="7.10647">
        <ele>596.8</ele>
        <time>2022-12-27T08:41:00Z</time>
      </trkpt>
      <trkpt lat="48.41634" lon="7.10641">
        <ele>597.2</ele>
        <time>2022-12-27T08:41:03Z</time>
      </trkpt>
      <trkpt lat="48.41632" lon="7.10637">
        <ele>597.2</ele>
        <time>2022-12-27T08:41:05Z</time>
      </trkpt>
      <trkpt lat="48.41628" lon="7.10634">
        <ele>597.4</ele>
        <time>2022-12-27T08:41:06Z</time>
      </trkpt>
      <trkpt lat="48.41618" lon="7.10625">
        <ele>597.6</ele>
        <time>2022-12-27T08:41:10Z</time>
      </trkpt>
      <trkpt lat="48.41614" lon="7.10622">
        <ele>597.8</ele>
        <time>2022-12-27T08:41:12Z</time>
      </trkpt>
      <trkpt lat="48.41604" lon="7.10621">
        <ele>598.2</ele>
        <time>2022-12-27T08:41:17Z</time>
      </trkpt>
      <trkpt lat="48.41595" lon="7.1062">
        <ele>598.4</ele>
        <time>2022-12-27T08:41:22Z</time>
      </trkpt>
      <trkpt lat="48.41592" lon="7.10619">
        <ele>598.4</ele>
        <time>2022-12-27T08:41:23Z</time>
      </trkpt>
      <trkpt lat="48.41588" lon="7.10619">
        <ele>598.8</ele>
        <time>2022-12-27T08:41:25Z</time>
      </trkpt>
      <trkpt lat="48.41578" lon="7.10619">
        <ele>599.4</ele>
        <time>2022-12-27T08:41:31Z</time>
      </trkpt>
      <trkpt lat="48.41572" lon="7.10616">
        <ele>599.8</ele>
        <time>2022-12-27T08:41:35Z</time>
      </trkpt>
      <trkpt lat="48.4157" lon="7.10616">
        <ele>599.8</ele>
        <time>2022-12-27T08:41:36Z</time>
      </trkpt>
      <trkpt lat="48.4156" lon="7.10613">
        <ele>600.2</ele>
        <time>2022-12-27T08:41:41Z</time>
      </trkpt>
      <trkpt lat="48.41557" lon="7.10612">
        <ele>600.4</ele>
        <time>2022-12-27T08:41:43Z</time>
      </trkpt>
      <trkpt lat="48.41555" lon="7.10611">
        <ele>600.6</ele>
        <time>2022-12-27T08:41:44Z</time>
      </trkpt>
      <trkpt lat="48.41549" lon="7.10611">
        <ele>600.8</ele>
        <time>2022-12-27T08:41:47Z</time>
      </trkpt>
      <trkpt lat="48.41538" lon="7.10608">
        <ele>601.4</ele>
        <time>2022-12-27T08:41:52Z</time>
      </trkpt>
      <trkpt lat="48.41536" lon="7.10608">
        <ele>601.4</ele>
        <time>2022-12-27T08:41:53Z</time>
      </trkpt>
      <trkpt lat="48.41529" lon="7.10606">
        <ele>601.6</ele>
        <time>2022-12-27T08:41:56Z</time>
      </trkpt>
      <trkpt lat="48.41522" lon="7.10608">
        <ele>601.8</ele>
        <time>2022-12-27T08:42:00Z</time>
      </trkpt>
      <trkpt lat="48.4152" lon="7.10609">
        <ele>601.8</ele>
        <time>2022-12-27T08:42:01Z</time>
      </trkpt>
      <trkpt lat="48.41506" lon="7.10611">
        <ele>602.4</ele>
        <time>2022-12-27T08:42:05Z</time>
      </trkpt>
      <trkpt lat="48.41502" lon="7.10612">
        <ele>602.8</ele>
        <time>2022-12-27T08:42:07Z</time>
      </trkpt>
      <trkpt lat="48.41497" lon="7.10614">
        <ele>602.8</ele>
        <time>2022-12-27T08:42:09Z</time>
      </trkpt>
      <trkpt lat="48.41493" lon="7.10615">
        <ele>603</ele>
        <time>2022-12-27T08:42:11Z</time>
      </trkpt>
      <trkpt lat="48.41477" lon="7.10618">
        <ele>603.6</ele>
        <time>2022-12-27T08:42:19Z</time>
      </trkpt>
      <trkpt lat="48.41465" lon="7.10622">
        <ele>604</ele>
        <time>2022-12-27T08:42:25Z</time>
      </trkpt>
      <trkpt lat="48.41463" lon="7.10622">
        <ele>604.2</ele>
        <time>2022-12-27T08:42:26Z</time>
      </trkpt>
      <trkpt lat="48.41452" lon="7.10622">
        <ele>604.8</ele>
        <time>2022-12-27T08:42:32Z</time>
      </trkpt>
      <trkpt lat="48.41445" lon="7.10621">
        <ele>604.8</ele>
        <time>2022-12-27T08:42:35Z</time>
      </trkpt>
      <trkpt lat="48.41441" lon="7.1062">
        <ele>605</ele>
        <time>2022-12-27T08:42:37Z</time>
      </trkpt>
      <trkpt lat="48.41437" lon="7.10618">
        <ele>605.4</ele>
        <time>2022-12-27T08:42:39Z</time>
      </trkpt>
      <trkpt lat="48.41423" lon="7.10613">
        <ele>606</ele>
        <time>2022-12-27T08:42:44Z</time>
      </trkpt>
      <trkpt lat="48.41419" lon="7.10609">
        <ele>606.2</ele>
        <time>2022-12-27T08:42:47Z</time>
      </trkpt>
      <trkpt lat="48.41414" lon="7.10603">
        <ele>606.4</ele>
        <time>2022-12-27T08:42:49Z</time>
      </trkpt>
      <trkpt lat="48.41413" lon="7.106">
        <ele>606.4</ele>
        <time>2022-12-27T08:42:50Z</time>
      </trkpt>
      <trkpt lat="48.41411" lon="7.10588">
        <ele>607</ele>
        <time>2022-12-27T08:42:54Z</time>
      </trkpt>
      <trkpt lat="48.41409" lon="7.10574">
        <ele>607.2</ele>
        <time>2022-12-27T08:42:59Z</time>
      </trkpt>
      <trkpt lat="48.4141" lon="7.10572">
        <ele>607.2</ele>
        <time>2022-12-27T08:43:00Z</time>
      </trkpt>
      <trkpt lat="48.41413" lon="7.10554">
        <ele>607.6</ele>
        <time>2022-12-27T08:43:06Z</time>
      </trkpt>
      <trkpt lat="48.41413" lon="7.10549">
        <ele>607.8</ele>
        <time>2022-12-27T08:43:08Z</time>
      </trkpt>
      <trkpt lat="48.41416" lon="7.10531">
        <ele>608.2</ele>
        <time>2022-12-27T08:43:14Z</time>
      </trkpt>
      <trkpt lat="48.41417" lon="7.10521">
        <ele>608.8</ele>
        <time>2022-12-27T08:43:17Z</time>
      </trkpt>
      <trkpt lat="48.41414" lon="7.10514">
        <ele>609</ele>
        <time>2022-12-27T08:43:19Z</time>
      </trkpt>
      <trkpt lat="48.41409" lon="7.10507">
        <ele>609.2</ele>
        <time>2022-12-27T08:43:21Z</time>
      </trkpt>
      <trkpt lat="48.41404" lon="7.10499">
        <ele>609.2</ele>
        <time>2022-12-27T08:43:24Z</time>
      </trkpt>
      <trkpt lat="48.41394" lon="7.10486">
        <ele>609.8</ele>
        <time>2022-12-27T08:43:29Z</time>
      </trkpt>
      <trkpt lat="48.4139" lon="7.10481">
        <ele>610.2</ele>
        <time>2022-12-27T08:43:31Z</time>
      </trkpt>
      <trkpt lat="48.41376" lon="7.10467">
        <ele>610.8</ele>
        <time>2022-12-27T08:43:38Z</time>
      </trkpt>
      <trkpt lat="48.41375" lon="7.10465">
        <ele>611</ele>
        <time>2022-12-27T08:43:39Z</time>
      </trkpt>
      <trkpt lat="48.41372" lon="7.10461">
        <ele>611.2</ele>
        <time>2022-12-27T08:43:41Z</time>
      </trkpt>
      <trkpt lat="48.41362" lon="7.10452">
        <ele>611.6</ele>
        <time>2022-12-27T08:43:46Z</time>
      </trkpt>
      <trkpt lat="48.41361" lon="7.10451">
        <ele>611.8</ele>
        <time>2022-12-27T08:43:47Z</time>
      </trkpt>
      <trkpt lat="48.41359" lon="7.1045">
        <ele>611.8</ele>
        <time>2022-12-27T08:43:48Z</time>
      </trkpt>
      <trkpt lat="48.41357" lon="7.10449">
        <ele>612</ele>
        <time>2022-12-27T08:43:49Z</time>
      </trkpt>
      <trkpt lat="48.41351" lon="7.10447">
        <ele>612.4</ele>
        <time>2022-12-27T08:43:54Z</time>
      </trkpt>
      <trkpt lat="48.41337" lon="7.10451">
        <ele>613</ele>
        <time>2022-12-27T08:44:01Z</time>
      </trkpt>
      <trkpt lat="48.41332" lon="7.10455">
        <ele>613.4</ele>
        <time>2022-12-27T08:44:05Z</time>
      </trkpt>
      <trkpt lat="48.4133" lon="7.10457">
        <ele>613.6</ele>
        <time>2022-12-27T08:44:06Z</time>
      </trkpt>
      <trkpt lat="48.41316" lon="7.10475">
        <ele>614</ele>
        <time>2022-12-27T08:44:11Z</time>
      </trkpt>
      <trkpt lat="48.41311" lon="7.10477">
        <ele>614</ele>
        <time>2022-12-27T08:44:13Z</time>
      </trkpt>
      <trkpt lat="48.41309" lon="7.10477">
        <ele>614</ele>
        <time>2022-12-27T08:44:14Z</time>
      </trkpt>
      <trkpt lat="48.41307" lon="7.10477">
        <ele>614.2</ele>
        <time>2022-12-27T08:44:15Z</time>
      </trkpt>
      <trkpt lat="48.41299" lon="7.10479">
        <ele>614.8</ele>
        <time>2022-12-27T08:44:18Z</time>
      </trkpt>
      <trkpt lat="48.41294" lon="7.10479">
        <ele>615</ele>
        <time>2022-12-27T08:44:20Z</time>
      </trkpt>
      <trkpt lat="48.41287" lon="7.10481">
        <ele>615.2</ele>
        <time>2022-12-27T08:44:22Z</time>
      </trkpt>
      <trkpt lat="48.41284" lon="7.10479">
        <ele>615.2</ele>
        <time>2022-12-27T08:44:23Z</time>
      </trkpt>
      <trkpt lat="48.41269" lon="7.10461">
        <ele>615.2</ele>
        <time>2022-12-27T08:44:30Z</time>
      </trkpt>
      <trkpt lat="48.41265" lon="7.10458">
        <ele>615.4</ele>
        <time>2022-12-27T08:44:32Z</time>
      </trkpt>
      <trkpt lat="48.41257" lon="7.10454">
        <ele>615.8</ele>
        <time>2022-12-27T08:44:35Z</time>
      </trkpt>
      <trkpt lat="48.41254" lon="7.10453">
        <ele>615.8</ele>
        <time>2022-12-27T08:44:36Z</time>
      </trkpt>
      <trkpt lat="48.41248" lon="7.10441">
        <ele>616.2</ele>
        <time>2022-12-27T08:44:42Z</time>
      </trkpt>
      <trkpt lat="48.41247" lon="7.1044">
        <ele>616.4</ele>
        <time>2022-12-27T08:44:43Z</time>
      </trkpt>
      <trkpt lat="48.41238" lon="7.10433">
        <ele>616.8</ele>
        <time>2022-12-27T08:44:49Z</time>
      </trkpt>
      <trkpt lat="48.41228" lon="7.10426">
        <ele>617.2</ele>
        <time>2022-12-27T08:44:56Z</time>
      </trkpt>
      <trkpt lat="48.41223" lon="7.10423">
        <ele>617.4</ele>
        <time>2022-12-27T08:44:59Z</time>
      </trkpt>
      <trkpt lat="48.41219" lon="7.10421">
        <ele>617.4</ele>
        <time>2022-12-27T08:45:01Z</time>
      </trkpt>
      <trkpt lat="48.41214" lon="7.10421">
        <ele>617.8</ele>
        <time>2022-12-27T08:45:03Z</time>
      </trkpt>
      <trkpt lat="48.41207" lon="7.10418">
        <ele>618.2</ele>
        <time>2022-12-27T08:45:06Z</time>
      </trkpt>
      <trkpt lat="48.41199" lon="7.10409">
        <ele>618.4</ele>
        <time>2022-12-27T08:45:10Z</time>
      </trkpt>
      <trkpt lat="48.41188" lon="7.10402">
        <ele>618.8</ele>
        <time>2022-12-27T08:45:14Z</time>
      </trkpt>
      <trkpt lat="48.41172" lon="7.10397">
        <ele>619.4</ele>
        <time>2022-12-27T08:45:20Z</time>
      </trkpt>
      <trkpt lat="48.41167" lon="7.10395">
        <ele>619.6</ele>
        <time>2022-12-27T08:45:22Z</time>
      </trkpt>
      <trkpt lat="48.41155" lon="7.10394">
        <ele>619.8</ele>
        <time>2022-12-27T08:45:26Z</time>
      </trkpt>
      <trkpt lat="48.41141" lon="7.10392">
        <ele>620.2</ele>
        <time>2022-12-27T08:45:30Z</time>
      </trkpt>
      <trkpt lat="48.41135" lon="7.10394">
        <ele>620.2</ele>
        <time>2022-12-27T08:45:32Z</time>
      </trkpt>
      <trkpt lat="48.4112" lon="7.10392">
        <ele>620.6</ele>
        <time>2022-12-27T08:45:37Z</time>
      </trkpt>
      <trkpt lat="48.41111" lon="7.10388">
        <ele>620.8</ele>
        <time>2022-12-27T08:45:40Z</time>
      </trkpt>
      <trkpt lat="48.41093" lon="7.10388">
        <ele>621.4</ele>
        <time>2022-12-27T08:45:47Z</time>
      </trkpt>
      <trkpt lat="48.41087" lon="7.10386">
        <ele>621.6</ele>
        <time>2022-12-27T08:45:50Z</time>
      </trkpt>
      <trkpt lat="48.41084" lon="7.10385">
        <ele>621.8</ele>
        <time>2022-12-27T08:45:52Z</time>
      </trkpt>
      <trkpt lat="48.41082" lon="7.10385">
        <ele>621.8</ele>
        <time>2022-12-27T08:45:53Z</time>
      </trkpt>
      <trkpt lat="48.41072" lon="7.10379">
        <ele>622.6</ele>
        <time>2022-12-27T08:45:58Z</time>
      </trkpt>
      <trkpt lat="48.4107" lon="7.10378">
        <ele>622.8</ele>
        <time>2022-12-27T08:45:59Z</time>
      </trkpt>
      <trkpt lat="48.41058" lon="7.10366">
        <ele>623.2</ele>
        <time>2022-12-27T08:46:05Z</time>
      </trkpt>
      <trkpt lat="48.41051" lon="7.1035">
        <ele>623.8</ele>
        <time>2022-12-27T08:46:10Z</time>
      </trkpt>
      <trkpt lat="48.4105" lon="7.10346">
        <ele>623.8</ele>
        <time>2022-12-27T08:46:11Z</time>
      </trkpt>
      <trkpt lat="48.41044" lon="7.10332">
        <ele>624.2</ele>
        <time>2022-12-27T08:46:15Z</time>
      </trkpt>
      <trkpt lat="48.41038" lon="7.10317">
        <ele>624.6</ele>
        <time>2022-12-27T08:46:21Z</time>
      </trkpt>
      <trkpt lat="48.41034" lon="7.10312">
        <ele>624.8</ele>
        <time>2022-12-27T08:46:24Z</time>
      </trkpt>
      <trkpt lat="48.41026" lon="7.10304">
        <ele>625</ele>
        <time>2022-12-27T08:46:28Z</time>
      </trkpt>
      <trkpt lat="48.41012" lon="7.10289">
        <ele>626</ele>
        <time>2022-12-27T08:46:35Z</time>
      </trkpt>
      <trkpt lat="48.4101" lon="7.10287">
        <ele>626</ele>
        <time>2022-12-27T08:46:36Z</time>
      </trkpt>
      <trkpt lat="48.41007" lon="7.10279">
        <ele>626.4</ele>
        <time>2022-12-27T08:46:39Z</time>
      </trkpt>
      <trkpt lat="48.40999" lon="7.10259">
        <ele>627</ele>
        <time>2022-12-27T08:46:44Z</time>
      </trkpt>
      <trkpt lat="48.40993" lon="7.10251">
        <ele>627.2</ele>
        <time>2022-12-27T08:46:46Z</time>
      </trkpt>
      <trkpt lat="48.40982" lon="7.10232">
        <ele>627.6</ele>
        <time>2022-12-27T08:46:52Z</time>
      </trkpt>
      <trkpt lat="48.4098" lon="7.10223">
        <ele>628</ele>
        <time>2022-12-27T08:46:55Z</time>
      </trkpt>
      <trkpt lat="48.40975" lon="7.10215">
        <ele>628.2</ele>
        <time>2022-12-27T08:46:58Z</time>
      </trkpt>
      <trkpt lat="48.40968" lon="7.10205">
        <ele>628.8</ele>
        <time>2022-12-27T08:47:03Z</time>
      </trkpt>
      <trkpt lat="48.40961" lon="7.102">
        <ele>629</ele>
        <time>2022-12-27T08:47:05Z</time>
      </trkpt>
      <trkpt lat="48.40955" lon="7.10196">
        <ele>629.2</ele>
        <time>2022-12-27T08:47:08Z</time>
      </trkpt>
      <trkpt lat="48.40948" lon="7.10191">
        <ele>629.6</ele>
        <time>2022-12-27T08:47:11Z</time>
      </trkpt>
      <trkpt lat="48.40944" lon="7.10187">
        <ele>629.8</ele>
        <time>2022-12-27T08:47:13Z</time>
      </trkpt>
      <trkpt lat="48.40942" lon="7.10186">
        <ele>630</ele>
        <time>2022-12-27T08:47:14Z</time>
      </trkpt>
      <trkpt lat="48.40932" lon="7.10164">
        <ele>630.6</ele>
        <time>2022-12-27T08:47:21Z</time>
      </trkpt>
      <trkpt lat="48.40928" lon="7.10153">
        <ele>630.8</ele>
        <time>2022-12-27T08:47:24Z</time>
      </trkpt>
      <trkpt lat="48.40926" lon="7.10148">
        <ele>630.8</ele>
        <time>2022-12-27T08:47:26Z</time>
      </trkpt>
      <trkpt lat="48.40925" lon="7.10144">
        <ele>630.8</ele>
        <time>2022-12-27T08:47:27Z</time>
      </trkpt>
      <trkpt lat="48.40923" lon="7.10139">
        <ele>631</ele>
        <time>2022-12-27T08:47:30Z</time>
      </trkpt>
      <trkpt lat="48.40918" lon="7.10139">
        <ele>631.2</ele>
        <time>2022-12-27T08:47:31Z</time>
      </trkpt>
      <trkpt lat="48.40916" lon="7.10133">
        <ele>631.4</ele>
        <time>2022-12-27T08:47:33Z</time>
      </trkpt>
      <trkpt lat="48.40912" lon="7.10128">
        <ele>631.6</ele>
        <time>2022-12-27T08:47:35Z</time>
      </trkpt>
      <trkpt lat="48.40904" lon="7.10113">
        <ele>632</ele>
        <time>2022-12-27T08:47:39Z</time>
      </trkpt>
      <trkpt lat="48.40899" lon="7.1011">
        <ele>632.4</ele>
        <time>2022-12-27T08:47:42Z</time>
      </trkpt>
      <trkpt lat="48.40884" lon="7.10104">
        <ele>633</ele>
        <time>2022-12-27T08:47:49Z</time>
      </trkpt>
      <trkpt lat="48.40882" lon="7.10103">
        <ele>633</ele>
        <time>2022-12-27T08:47:50Z</time>
      </trkpt>
      <trkpt lat="48.40865" lon="7.10094">
        <ele>633.8</ele>
        <time>2022-12-27T08:47:56Z</time>
      </trkpt>
      <trkpt lat="48.40855" lon="7.10089">
        <ele>634</ele>
        <time>2022-12-27T08:48:01Z</time>
      </trkpt>
      <trkpt lat="48.40848" lon="7.10084">
        <ele>634.4</ele>
        <time>2022-12-27T08:48:05Z</time>
      </trkpt>
      <trkpt lat="48.40839" lon="7.10079">
        <ele>634.8</ele>
        <time>2022-12-27T08:48:09Z</time>
      </trkpt>
      <trkpt lat="48.40824" lon="7.10078">
        <ele>635.6</ele>
        <time>2022-12-27T08:48:15Z</time>
      </trkpt>
      <trkpt lat="48.40813" lon="7.10081">
        <ele>636</ele>
        <time>2022-12-27T08:48:19Z</time>
      </trkpt>
      <trkpt lat="48.40805" lon="7.10088">
        <ele>636.4</ele>
        <time>2022-12-27T08:48:23Z</time>
      </trkpt>
      <trkpt lat="48.40786" lon="7.10098">
        <ele>637</ele>
        <time>2022-12-27T08:48:29Z</time>
      </trkpt>
      <trkpt lat="48.40776" lon="7.10101">
        <ele>637.2</ele>
        <time>2022-12-27T08:48:32Z</time>
      </trkpt>
      <trkpt lat="48.40763" lon="7.10105">
        <ele>637.8</ele>
        <time>2022-12-27T08:48:39Z</time>
      </trkpt>
      <trkpt lat="48.40751" lon="7.10105">
        <ele>638.2</ele>
        <time>2022-12-27T08:48:44Z</time>
      </trkpt>
      <trkpt lat="48.40747" lon="7.10105">
        <ele>638.4</ele>
        <time>2022-12-27T08:48:46Z</time>
      </trkpt>
      <trkpt lat="48.40734" lon="7.10107">
        <ele>638.8</ele>
        <time>2022-12-27T08:48:52Z</time>
      </trkpt>
      <trkpt lat="48.4073" lon="7.10108">
        <ele>639.2</ele>
        <time>2022-12-27T08:48:54Z</time>
      </trkpt>
      <trkpt lat="48.40719" lon="7.10114">
        <ele>639.8</ele>
        <time>2022-12-27T08:48:59Z</time>
      </trkpt>
      <trkpt lat="48.40707" lon="7.10117">
        <ele>640.4</ele>
        <time>2022-12-27T08:49:04Z</time>
      </trkpt>
      <trkpt lat="48.40699" lon="7.10116">
        <ele>640.8</ele>
        <time>2022-12-27T08:49:07Z</time>
      </trkpt>
      <trkpt lat="48.40688" lon="7.10117">
        <ele>641.2</ele>
        <time>2022-12-27T08:49:10Z</time>
      </trkpt>
      <trkpt lat="48.40681" lon="7.10116">
        <ele>641.6</ele>
        <time>2022-12-27T08:49:12Z</time>
      </trkpt>
      <trkpt lat="48.40679" lon="7.10114">
        <ele>641.6</ele>
        <time>2022-12-27T08:49:13Z</time>
      </trkpt>
      <trkpt lat="48.40668" lon="7.10098">
        <ele>642.2</ele>
        <time>2022-12-27T08:49:19Z</time>
      </trkpt>
      <trkpt lat="48.40666" lon="7.10083">
        <ele>642.6</ele>
        <time>2022-12-27T08:49:23Z</time>
      </trkpt>
      <trkpt lat="48.40667" lon="7.10079">
        <ele>642.8</ele>
        <time>2022-12-27T08:49:24Z</time>
      </trkpt>
      <trkpt lat="48.40664" lon="7.10077">
        <ele>642.8</ele>
        <time>2022-12-27T08:49:25Z</time>
      </trkpt>
      <trkpt lat="48.40662" lon="7.10071">
        <ele>643</ele>
        <time>2022-12-27T08:49:27Z</time>
      </trkpt>
      <trkpt lat="48.40661" lon="7.10068">
        <ele>643</ele>
        <time>2022-12-27T08:49:28Z</time>
      </trkpt>
      <trkpt lat="48.4066" lon="7.10049">
        <ele>643.6</ele>
        <time>2022-12-27T08:49:33Z</time>
      </trkpt>
      <trkpt lat="48.40658" lon="7.10039">
        <ele>644</ele>
        <time>2022-12-27T08:49:36Z</time>
      </trkpt>
      <trkpt lat="48.40659" lon="7.10021">
        <ele>644.2</ele>
        <time>2022-12-27T08:49:41Z</time>
      </trkpt>
      <trkpt lat="48.40655" lon="7.1">
        <ele>644.8</ele>
        <time>2022-12-27T08:49:47Z</time>
      </trkpt>
      <trkpt lat="48.40654" lon="7.09985">
        <ele>645.2</ele>
        <time>2022-12-27T08:49:52Z</time>
      </trkpt>
      <trkpt lat="48.40654" lon="7.09983">
        <ele>645.4</ele>
        <time>2022-12-27T08:49:53Z</time>
      </trkpt>
      <trkpt lat="48.40654" lon="7.09976">
        <ele>645.6</ele>
        <time>2022-12-27T08:49:55Z</time>
      </trkpt>
      <trkpt lat="48.40653" lon="7.09974">
        <ele>645.8</ele>
        <time>2022-12-27T08:49:56Z</time>
      </trkpt>
      <trkpt lat="48.40646" lon="7.09953">
        <ele>646.4</ele>
        <time>2022-12-27T08:50:02Z</time>
      </trkpt>
      <trkpt lat="48.40642" lon="7.09946">
        <ele>646.8</ele>
        <time>2022-12-27T08:50:04Z</time>
      </trkpt>
      <trkpt lat="48.4064" lon="7.0993">
        <ele>647.6</ele>
        <time>2022-12-27T08:50:09Z</time>
      </trkpt>
      <trkpt lat="48.40635" lon="7.09923">
        <ele>648</ele>
        <time>2022-12-27T08:50:11Z</time>
      </trkpt>
      <trkpt lat="48.4063" lon="7.09913">
        <ele>648.6</ele>
        <time>2022-12-27T08:50:14Z</time>
      </trkpt>
      <trkpt lat="48.4063" lon="7.09909">
        <ele>648.8</ele>
        <time>2022-12-27T08:50:16Z</time>
      </trkpt>
      <trkpt lat="48.40624" lon="7.099">
        <ele>649.2</ele>
        <time>2022-12-27T08:50:19Z</time>
      </trkpt>
      <trkpt lat="48.40621" lon="7.09892">
        <ele>649.6</ele>
        <time>2022-12-27T08:50:22Z</time>
      </trkpt>
      <trkpt lat="48.40618" lon="7.09887">
        <ele>650</ele>
        <time>2022-12-27T08:50:24Z</time>
      </trkpt>
      <trkpt lat="48.40617" lon="7.09884">
        <ele>650.4</ele>
        <time>2022-12-27T08:50:25Z</time>
      </trkpt>
      <trkpt lat="48.40616" lon="7.09876">
        <ele>650.6</ele>
        <time>2022-12-27T08:50:27Z</time>
      </trkpt>
      <trkpt lat="48.40618" lon="7.09859">
        <ele>651</ele>
        <time>2022-12-27T08:50:31Z</time>
      </trkpt>
      <trkpt lat="48.40612" lon="7.0983">
        <ele>651.2</ele>
        <time>2022-12-27T08:50:38Z</time>
      </trkpt>
      <trkpt lat="48.4061" lon="7.09825">
        <ele>651.2</ele>
        <time>2022-12-27T08:50:39Z</time>
      </trkpt>
      <trkpt lat="48.40609" lon="7.0982">
        <ele>651.2</ele>
        <time>2022-12-27T08:50:40Z</time>
      </trkpt>
      <trkpt lat="48.40606" lon="7.09816">
        <ele>651.4</ele>
        <time>2022-12-27T08:50:41Z</time>
      </trkpt>
      <trkpt lat="48.40604" lon="7.09813">
        <ele>651.4</ele>
        <time>2022-12-27T08:50:42Z</time>
      </trkpt>
      <trkpt lat="48.40593" lon="7.09791">
        <ele>651.4</ele>
        <time>2022-12-27T08:50:48Z</time>
      </trkpt>
      <trkpt lat="48.40587" lon="7.09767">
        <ele>651.4</ele>
        <time>2022-12-27T08:50:53Z</time>
      </trkpt>
      <trkpt lat="48.40581" lon="7.09754">
        <ele>651.6</ele>
        <time>2022-12-27T08:50:58Z</time>
      </trkpt>
      <trkpt lat="48.40568" lon="7.09738">
        <ele>651.8</ele>
        <time>2022-12-27T08:51:05Z</time>
      </trkpt>
      <trkpt lat="48.40554" lon="7.09725">
        <ele>652.2</ele>
        <time>2022-12-27T08:51:12Z</time>
      </trkpt>
      <trkpt lat="48.4055" lon="7.09721">
        <ele>652.4</ele>
        <time>2022-12-27T08:51:14Z</time>
      </trkpt>
      <trkpt lat="48.40541" lon="7.09708">
        <ele>652.8</ele>
        <time>2022-12-27T08:51:19Z</time>
      </trkpt>
      <trkpt lat="48.4053" lon="7.09694">
        <ele>653.2</ele>
        <time>2022-12-27T08:51:25Z</time>
      </trkpt>
      <trkpt lat="48.40523" lon="7.09685">
        <ele>653.6</ele>
        <time>2022-12-27T08:51:29Z</time>
      </trkpt>
      <trkpt lat="48.4052" lon="7.09679">
        <ele>653.8</ele>
        <time>2022-12-27T08:51:31Z</time>
      </trkpt>
      <trkpt lat="48.40513" lon="7.09665">
        <ele>654.6</ele>
        <time>2022-12-27T08:51:36Z</time>
      </trkpt>
      <trkpt lat="48.40505" lon="7.09643">
        <ele>655.6</ele>
        <time>2022-12-27T08:51:42Z</time>
      </trkpt>
      <trkpt lat="48.405" lon="7.09622">
        <ele>656.4</ele>
        <time>2022-12-27T08:51:47Z</time>
      </trkpt>
      <trkpt lat="48.40499" lon="7.09619">
        <ele>656.8</ele>
        <time>2022-12-27T08:51:49Z</time>
      </trkpt>
      <trkpt lat="48.40496" lon="7.09608">
        <ele>657.4</ele>
        <time>2022-12-27T08:51:53Z</time>
      </trkpt>
      <trkpt lat="48.40497" lon="7.09604">
        <ele>657.8</ele>
        <time>2022-12-27T08:51:55Z</time>
      </trkpt>
      <trkpt lat="48.40495" lon="7.09594">
        <ele>658.6</ele>
        <time>2022-12-27T08:52:00Z</time>
      </trkpt>
      <trkpt lat="48.40496" lon="7.0959">
        <ele>658.8</ele>
        <time>2022-12-27T08:52:02Z</time>
      </trkpt>
      <trkpt lat="48.40495" lon="7.09575">
        <ele>659.6</ele>
        <time>2022-12-27T08:52:07Z</time>
      </trkpt>
      <trkpt lat="48.40493" lon="7.09562">
        <ele>660</ele>
        <time>2022-12-27T08:52:12Z</time>
      </trkpt>
      <trkpt lat="48.40492" lon="7.09559">
        <ele>660</ele>
        <time>2022-12-27T08:52:13Z</time>
      </trkpt>
      <trkpt lat="48.40487" lon="7.09554">
        <ele>660.2</ele>
        <time>2022-12-27T08:52:15Z</time>
      </trkpt>
      <trkpt lat="48.40483" lon="7.09552">
        <ele>660.4</ele>
        <time>2022-12-27T08:52:17Z</time>
      </trkpt>
      <trkpt lat="48.40477" lon="7.09549">
        <ele>660.8</ele>
        <time>2022-12-27T08:52:20Z</time>
      </trkpt>
      <trkpt lat="48.40461" lon="7.09539">
        <ele>661</ele>
        <time>2022-12-27T08:52:26Z</time>
      </trkpt>
      <trkpt lat="48.40453" lon="7.0953">
        <ele>661.2</ele>
        <time>2022-12-27T08:52:29Z</time>
      </trkpt>
      <trkpt lat="48.40447" lon="7.09522">
        <ele>661.4</ele>
        <time>2022-12-27T08:52:31Z</time>
      </trkpt>
      <trkpt lat="48.40435" lon="7.09499">
        <ele>661.8</ele>
        <time>2022-12-27T08:52:39Z</time>
      </trkpt>
      <trkpt lat="48.40425" lon="7.09483">
        <ele>662.2</ele>
        <time>2022-12-27T08:52:45Z</time>
      </trkpt>
      <trkpt lat="48.40424" lon="7.0948">
        <ele>662.2</ele>
        <time>2022-12-27T08:52:46Z</time>
      </trkpt>
      <trkpt lat="48.4042" lon="7.09473">
        <ele>662.2</ele>
        <time>2022-12-27T08:52:49Z</time>
      </trkpt>
      <trkpt lat="48.40419" lon="7.0947">
        <ele>662.4</ele>
        <time>2022-12-27T08:52:51Z</time>
      </trkpt>
      <trkpt lat="48.40415" lon="7.09461">
        <ele>662.4</ele>
        <time>2022-12-27T08:52:54Z</time>
      </trkpt>
      <trkpt lat="48.40406" lon="7.0943">
        <ele>663</ele>
        <time>2022-12-27T08:53:02Z</time>
      </trkpt>
      <trkpt lat="48.40405" lon="7.09425">
        <ele>663.2</ele>
        <time>2022-12-27T08:53:03Z</time>
      </trkpt>
      <trkpt lat="48.40396" lon="7.09404">
        <ele>663.8</ele>
        <time>2022-12-27T08:53:09Z</time>
      </trkpt>
      <trkpt lat="48.40392" lon="7.09382">
        <ele>664</ele>
        <time>2022-12-27T08:53:15Z</time>
      </trkpt>
      <trkpt lat="48.40387" lon="7.09374">
        <ele>664.2</ele>
        <time>2022-12-27T08:53:18Z</time>
      </trkpt>
      <trkpt lat="48.40386" lon="7.09369">
        <ele>664.4</ele>
        <time>2022-12-27T08:53:20Z</time>
      </trkpt>
      <trkpt lat="48.4038" lon="7.09355">
        <ele>664.6</ele>
        <time>2022-12-27T08:53:25Z</time>
      </trkpt>
      <trkpt lat="48.40374" lon="7.09335">
        <ele>665.4</ele>
        <time>2022-12-27T08:53:32Z</time>
      </trkpt>
      <trkpt lat="48.40373" lon="7.09332">
        <ele>665.6</ele>
        <time>2022-12-27T08:53:33Z</time>
      </trkpt>
      <trkpt lat="48.4037" lon="7.0931">
        <ele>666.4</ele>
        <time>2022-12-27T08:53:39Z</time>
      </trkpt>
      <trkpt lat="48.4037" lon="7.09307">
        <ele>666.4</ele>
        <time>2022-12-27T08:53:40Z</time>
      </trkpt>
      <trkpt lat="48.40368" lon="7.09305">
        <ele>666.6</ele>
        <time>2022-12-27T08:53:41Z</time>
      </trkpt>
      <trkpt lat="48.40364" lon="7.09293">
        <ele>666.8</ele>
        <time>2022-12-27T08:53:44Z</time>
      </trkpt>
      <trkpt lat="48.40363" lon="7.09288">
        <ele>667</ele>
        <time>2022-12-27T08:53:45Z</time>
      </trkpt>
      <trkpt lat="48.40359" lon="7.09278">
        <ele>667</ele>
        <time>2022-12-27T08:53:47Z</time>
      </trkpt>
      <trkpt lat="48.40359" lon="7.09267">
        <ele>667.2</ele>
        <time>2022-12-27T08:53:49Z</time>
      </trkpt>
      <trkpt lat="48.40352" lon="7.09242">
        <ele>667.8</ele>
        <time>2022-12-27T08:53:55Z</time>
      </trkpt>
      <trkpt lat="48.40346" lon="7.09222">
        <ele>668.2</ele>
        <time>2022-12-27T08:54:02Z</time>
      </trkpt>
      <trkpt lat="48.40344" lon="7.09215">
        <ele>668.4</ele>
        <time>2022-12-27T08:54:04Z</time>
      </trkpt>
      <trkpt lat="48.40341" lon="7.09208">
        <ele>668.6</ele>
        <time>2022-12-27T08:54:06Z</time>
      </trkpt>
      <trkpt lat="48.40341" lon="7.09205">
        <ele>668.8</ele>
        <time>2022-12-27T08:54:07Z</time>
      </trkpt>
      <trkpt lat="48.40335" lon="7.09187">
        <ele>669</ele>
        <time>2022-12-27T08:54:12Z</time>
      </trkpt>
      <trkpt lat="48.40331" lon="7.09169">
        <ele>669.2</ele>
        <time>2022-12-27T08:54:17Z</time>
      </trkpt>
      <trkpt lat="48.40327" lon="7.09146">
        <ele>669.2</ele>
        <time>2022-12-27T08:54:23Z</time>
      </trkpt>
      <trkpt lat="48.40321" lon="7.09124">
        <ele>669.2</ele>
        <time>2022-12-27T08:54:28Z</time>
      </trkpt>
      <trkpt lat="48.40319" lon="7.09117">
        <ele>669.2</ele>
        <time>2022-12-27T08:54:29Z</time>
      </trkpt>
      <trkpt lat="48.4031" lon="7.09093">
        <ele>668.8</ele>
        <time>2022-12-27T08:54:33Z</time>
      </trkpt>
      <trkpt lat="48.40308" lon="7.09087">
        <ele>668.8</ele>
        <time>2022-12-27T08:54:34Z</time>
      </trkpt>
      <trkpt lat="48.40305" lon="7.0908">
        <ele>668.8</ele>
        <time>2022-12-27T08:54:35Z</time>
      </trkpt>
      <trkpt lat="48.40301" lon="7.09067">
        <ele>668.6</ele>
        <time>2022-12-27T08:54:37Z</time>
      </trkpt>
      <trkpt lat="48.40299" lon="7.09053">
        <ele>668.2</ele>
        <time>2022-12-27T08:54:39Z</time>
      </trkpt>
      <trkpt lat="48.40294" lon="7.09039">
        <ele>668</ele>
        <time>2022-12-27T08:54:41Z</time>
      </trkpt>
      <trkpt lat="48.40291" lon="7.09027">
        <ele>667.8</ele>
        <time>2022-12-27T08:54:43Z</time>
      </trkpt>
      <trkpt lat="48.40289" lon="7.09021">
        <ele>667</ele>
        <time>2022-12-27T08:54:44Z</time>
      </trkpt>
      <trkpt lat="48.40287" lon="7.09014">
        <ele>666.6</ele>
        <time>2022-12-27T08:54:45Z</time>
      </trkpt>
      <trkpt lat="48.40281" lon="7.08993">
        <ele>665.4</ele>
        <time>2022-12-27T08:54:48Z</time>
      </trkpt>
      <trkpt lat="48.40278" lon="7.08979">
        <ele>664.8</ele>
        <time>2022-12-27T08:54:50Z</time>
      </trkpt>
      <trkpt lat="48.40281" lon="7.08959">
        <ele>664.2</ele>
        <time>2022-12-27T08:54:52Z</time>
      </trkpt>
      <trkpt lat="48.4028" lon="7.08952">
        <ele>664</ele>
        <time>2022-12-27T08:54:53Z</time>
      </trkpt>
      <trkpt lat="48.40279" lon="7.08928">
        <ele>663.6</ele>
        <time>2022-12-27T08:54:56Z</time>
      </trkpt>
      <trkpt lat="48.4028" lon="7.08921">
        <ele>663.2</ele>
        <time>2022-12-27T08:54:57Z</time>
      </trkpt>
      <trkpt lat="48.4028" lon="7.08905">
        <ele>662.2</ele>
        <time>2022-12-27T08:54:59Z</time>
      </trkpt>
      <trkpt lat="48.40282" lon="7.08896">
        <ele>661.6</ele>
        <time>2022-12-27T08:55:00Z</time>
      </trkpt>
      <trkpt lat="48.40285" lon="7.08889">
        <ele>661.6</ele>
        <time>2022-12-27T08:55:01Z</time>
      </trkpt>
      <trkpt lat="48.40287" lon="7.08882">
        <ele>661</ele>
        <time>2022-12-27T08:55:02Z</time>
      </trkpt>
      <trkpt lat="48.4029" lon="7.08877">
        <ele>660.6</ele>
        <time>2022-12-27T08:55:03Z</time>
      </trkpt>
      <trkpt lat="48.40301" lon="7.08856">
        <ele>659.8</ele>
        <time>2022-12-27T08:55:06Z</time>
      </trkpt>
      <trkpt lat="48.40305" lon="7.08848">
        <ele>659.6</ele>
        <time>2022-12-27T08:55:07Z</time>
      </trkpt>
      <trkpt lat="48.40308" lon="7.08841">
        <ele>659.2</ele>
        <time>2022-12-27T08:55:08Z</time>
      </trkpt>
      <trkpt lat="48.4032" lon="7.08812">
        <ele>658.4</ele>
        <time>2022-12-27T08:55:11Z</time>
      </trkpt>
      <trkpt lat="48.4033" lon="7.08784">
        <ele>657.2</ele>
        <time>2022-12-27T08:55:14Z</time>
      </trkpt>
      <trkpt lat="48.40344" lon="7.08752">
        <ele>656.6</ele>
        <time>2022-12-27T08:55:17Z</time>
      </trkpt>
      <trkpt lat="48.40348" lon="7.08741">
        <ele>656</ele>
        <time>2022-12-27T08:55:18Z</time>
      </trkpt>
      <trkpt lat="48.40356" lon="7.08719">
        <ele>655</ele>
        <time>2022-12-27T08:55:20Z</time>
      </trkpt>
      <trkpt lat="48.40361" lon="7.08709">
        <ele>654.8</ele>
        <time>2022-12-27T08:55:21Z</time>
      </trkpt>
      <trkpt lat="48.40368" lon="7.08696">
        <ele>654.2</ele>
        <time>2022-12-27T08:55:22Z</time>
      </trkpt>
      <trkpt lat="48.40378" lon="7.08676">
        <ele>653.6</ele>
        <time>2022-12-27T08:55:24Z</time>
      </trkpt>
      <trkpt lat="48.40397" lon="7.08643">
        <ele>652.4</ele>
        <time>2022-12-27T08:55:27Z</time>
      </trkpt>
      <trkpt lat="48.40402" lon="7.08632">
        <ele>651.6</ele>
        <time>2022-12-27T08:55:28Z</time>
      </trkpt>
      <trkpt lat="48.40408" lon="7.08622">
        <ele>651.2</ele>
        <time>2022-12-27T08:55:29Z</time>
      </trkpt>
      <trkpt lat="48.40419" lon="7.086">
        <ele>650.2</ele>
        <time>2022-12-27T08:55:31Z</time>
      </trkpt>
      <trkpt lat="48.40426" lon="7.08572">
        <ele>649</ele>
        <time>2022-12-27T08:55:33Z</time>
      </trkpt>
      <trkpt lat="48.40431" lon="7.08546">
        <ele>647.8</ele>
        <time>2022-12-27T08:55:35Z</time>
      </trkpt>
      <trkpt lat="48.40441" lon="7.085">
        <ele>646.2</ele>
        <time>2022-12-27T08:55:38Z</time>
      </trkpt>
      <trkpt lat="48.40446" lon="7.08486">
        <ele>645.8</ele>
        <time>2022-12-27T08:55:39Z</time>
      </trkpt>
      <trkpt lat="48.40451" lon="7.08476">
        <ele>645</ele>
        <time>2022-12-27T08:55:40Z</time>
      </trkpt>
      <trkpt lat="48.40466" lon="7.08449">
        <ele>643.4</ele>
        <time>2022-12-27T08:55:42Z</time>
      </trkpt>
      <trkpt lat="48.40474" lon="7.08438">
        <ele>643</ele>
        <time>2022-12-27T08:55:43Z</time>
      </trkpt>
      <trkpt lat="48.40481" lon="7.08426">
        <ele>641.6</ele>
        <time>2022-12-27T08:55:44Z</time>
      </trkpt>
      <trkpt lat="48.40495" lon="7.08401">
        <ele>640</ele>
        <time>2022-12-27T08:55:46Z</time>
      </trkpt>
      <trkpt lat="48.40501" lon="7.08387">
        <ele>639.8</ele>
        <time>2022-12-27T08:55:47Z</time>
      </trkpt>
      <trkpt lat="48.40516" lon="7.08351">
        <ele>638.2</ele>
        <time>2022-12-27T08:55:50Z</time>
      </trkpt>
      <trkpt lat="48.40519" lon="7.08341">
        <ele>637.6</ele>
        <time>2022-12-27T08:55:51Z</time>
      </trkpt>
      <trkpt lat="48.40522" lon="7.0833">
        <ele>637</ele>
        <time>2022-12-27T08:55:52Z</time>
      </trkpt>
      <trkpt lat="48.40526" lon="7.08307">
        <ele>635.4</ele>
        <time>2022-12-27T08:55:54Z</time>
      </trkpt>
      <trkpt lat="48.40527" lon="7.08294">
        <ele>635</ele>
        <time>2022-12-27T08:55:56Z</time>
      </trkpt>
      <trkpt lat="48.40528" lon="7.08281">
        <ele>634</ele>
        <time>2022-12-27T08:55:57Z</time>
      </trkpt>
      <trkpt lat="48.4053" lon="7.08256">
        <ele>632.6</ele>
        <time>2022-12-27T08:55:59Z</time>
      </trkpt>
      <trkpt lat="48.40533" lon="7.08246">
        <ele>632.2</ele>
        <time>2022-12-27T08:56:00Z</time>
      </trkpt>
      <trkpt lat="48.40537" lon="7.08236">
        <ele>631.8</ele>
        <time>2022-12-27T08:56:01Z</time>
      </trkpt>
      <trkpt lat="48.40541" lon="7.08228">
        <ele>631.2</ele>
        <time>2022-12-27T08:56:02Z</time>
      </trkpt>
      <trkpt lat="48.40551" lon="7.08219">
        <ele>630.2</ele>
        <time>2022-12-27T08:56:04Z</time>
      </trkpt>
      <trkpt lat="48.40556" lon="7.08215">
        <ele>629.8</ele>
        <time>2022-12-27T08:56:05Z</time>
      </trkpt>
      <trkpt lat="48.40565" lon="7.08213">
        <ele>629</ele>
        <time>2022-12-27T08:56:07Z</time>
      </trkpt>
      <trkpt lat="48.40569" lon="7.08213">
        <ele>628.6</ele>
        <time>2022-12-27T08:56:08Z</time>
      </trkpt>
      <trkpt lat="48.40575" lon="7.08211">
        <ele>628.2</ele>
        <time>2022-12-27T08:56:11Z</time>
      </trkpt>
      <trkpt lat="48.4058" lon="7.0821">
        <ele>628.2</ele>
        <time>2022-12-27T08:56:15Z</time>
      </trkpt>
      <trkpt lat="48.40583" lon="7.08208">
        <ele>628.4</ele>
        <time>2022-12-27T08:56:17Z</time>
      </trkpt>
      <trkpt lat="48.40591" lon="7.08204">
        <ele>629.8</ele>
        <time>2022-12-27T08:56:23Z</time>
      </trkpt>
      <trkpt lat="48.40595" lon="7.08199">
        <ele>630.2</ele>
        <time>2022-12-27T08:56:25Z</time>
      </trkpt>
      <trkpt lat="48.40598" lon="7.08192">
        <ele>630.4</ele>
        <time>2022-12-27T08:56:27Z</time>
      </trkpt>
      <trkpt lat="48.406" lon="7.08191">
        <ele>630.6</ele>
        <time>2022-12-27T08:56:28Z</time>
      </trkpt>
      <trkpt lat="48.40613" lon="7.08185">
        <ele>631</ele>
        <time>2022-12-27T08:56:34Z</time>
      </trkpt>
      <trkpt lat="48.40619" lon="7.08181">
        <ele>631</ele>
        <time>2022-12-27T08:56:37Z</time>
      </trkpt>
      <trkpt lat="48.40625" lon="7.08176">
        <ele>631.2</ele>
        <time>2022-12-27T08:56:39Z</time>
      </trkpt>
      <trkpt lat="48.4064" lon="7.08149">
        <ele>631.4</ele>
        <time>2022-12-27T08:56:45Z</time>
      </trkpt>
      <trkpt lat="48.40642" lon="7.08132">
        <ele>631.6</ele>
        <time>2022-12-27T08:56:50Z</time>
      </trkpt>
      <trkpt lat="48.40642" lon="7.08129">
        <ele>631.6</ele>
        <time>2022-12-27T08:56:51Z</time>
      </trkpt>
      <trkpt lat="48.40652" lon="7.08104">
        <ele>631.6</ele>
        <time>2022-12-27T08:56:57Z</time>
      </trkpt>
      <trkpt lat="48.40654" lon="7.08101">
        <ele>631.6</ele>
        <time>2022-12-27T08:56:58Z</time>
      </trkpt>
      <trkpt lat="48.40658" lon="7.081">
        <ele>631.8</ele>
        <time>2022-12-27T08:56:59Z</time>
      </trkpt>
      <trkpt lat="48.40668" lon="7.08091">
        <ele>632</ele>
        <time>2022-12-27T08:57:04Z</time>
      </trkpt>
      <trkpt lat="48.40672" lon="7.08088">
        <ele>631.8</ele>
        <time>2022-12-27T08:57:06Z</time>
      </trkpt>
      <trkpt lat="48.40679" lon="7.08084">
        <ele>632</ele>
        <time>2022-12-27T08:57:09Z</time>
      </trkpt>
      <trkpt lat="48.40684" lon="7.08079">
        <ele>632</ele>
        <time>2022-12-27T08:57:12Z</time>
      </trkpt>
      <trkpt lat="48.40687" lon="7.08077">
        <ele>632.2</ele>
        <time>2022-12-27T08:57:13Z</time>
      </trkpt>
      <trkpt lat="48.40689" lon="7.08075">
        <ele>632.2</ele>
        <time>2022-12-27T08:57:14Z</time>
      </trkpt>
      <trkpt lat="48.40693" lon="7.0807">
        <ele>632.2</ele>
        <time>2022-12-27T08:57:16Z</time>
      </trkpt>
      <trkpt lat="48.40696" lon="7.08067">
        <ele>632.4</ele>
        <time>2022-12-27T08:57:17Z</time>
      </trkpt>
      <trkpt lat="48.40698" lon="7.08064">
        <ele>632.4</ele>
        <time>2022-12-27T08:57:18Z</time>
      </trkpt>
      <trkpt lat="48.40702" lon="7.08056">
        <ele>632.4</ele>
        <time>2022-12-27T08:57:20Z</time>
      </trkpt>
      <trkpt lat="48.40704" lon="7.08053">
        <ele>632.4</ele>
        <time>2022-12-27T08:57:21Z</time>
      </trkpt>
      <trkpt lat="48.40708" lon="7.0805">
        <ele>632.4</ele>
        <time>2022-12-27T08:57:23Z</time>
      </trkpt>
      <trkpt lat="48.40711" lon="7.08044">
        <ele>632.6</ele>
        <time>2022-12-27T08:57:25Z</time>
      </trkpt>
      <trkpt lat="48.40712" lon="7.08041">
        <ele>632.6</ele>
        <time>2022-12-27T08:57:26Z</time>
      </trkpt>
      <trkpt lat="48.40715" lon="7.08037">
        <ele>632.8</ele>
        <time>2022-12-27T08:57:28Z</time>
      </trkpt>
      <trkpt lat="48.40717" lon="7.08035">
        <ele>633</ele>
        <time>2022-12-27T08:57:30Z</time>
      </trkpt>
      <trkpt lat="48.40718" lon="7.08032">
        <ele>633</ele>
        <time>2022-12-27T08:57:32Z</time>
      </trkpt>
      <trkpt lat="48.4072" lon="7.0803">
        <ele>633</ele>
        <time>2022-12-27T08:57:33Z</time>
      </trkpt>
      <trkpt lat="48.40722" lon="7.08028">
        <ele>633</ele>
        <time>2022-12-27T08:57:35Z</time>
      </trkpt>
      <trkpt lat="48.40729" lon="7.0802">
        <ele>633</ele>
        <time>2022-12-27T08:57:38Z</time>
      </trkpt>
      <trkpt lat="48.40743" lon="7.08005">
        <ele>633.2</ele>
        <time>2022-12-27T08:57:43Z</time>
      </trkpt>
      <trkpt lat="48.40757" lon="7.0799">
        <ele>633</ele>
        <time>2022-12-27T08:57:47Z</time>
      </trkpt>
      <trkpt lat="48.40762" lon="7.07979">
        <ele>633.2</ele>
        <time>2022-12-27T08:57:49Z</time>
      </trkpt>
      <trkpt lat="48.40766" lon="7.07971">
        <ele>633.2</ele>
        <time>2022-12-27T08:57:50Z</time>
      </trkpt>
      <trkpt lat="48.4077" lon="7.07962">
        <ele>633.4</ele>
        <time>2022-12-27T08:57:53Z</time>
      </trkpt>
      <trkpt lat="48.40771" lon="7.07959">
        <ele>633.4</ele>
        <time>2022-12-27T08:57:54Z</time>
      </trkpt>
      <trkpt lat="48.40773" lon="7.07957">
        <ele>633.4</ele>
        <time>2022-12-27T08:57:55Z</time>
      </trkpt>
      <trkpt lat="48.40779" lon="7.07955">
        <ele>633.6</ele>
        <time>2022-12-27T08:57:58Z</time>
      </trkpt>
      <trkpt lat="48.40784" lon="7.07951">
        <ele>633.8</ele>
        <time>2022-12-27T08:58:00Z</time>
      </trkpt>
      <trkpt lat="48.40796" lon="7.07938">
        <ele>633.8</ele>
        <time>2022-12-27T08:58:06Z</time>
      </trkpt>
      <trkpt lat="48.40799" lon="7.07932">
        <ele>634</ele>
        <time>2022-12-27T08:58:08Z</time>
      </trkpt>
      <trkpt lat="48.40807" lon="7.0791">
        <ele>634.2</ele>
        <time>2022-12-27T08:58:13Z</time>
      </trkpt>
      <trkpt lat="48.40809" lon="7.07908">
        <ele>634.2</ele>
        <time>2022-12-27T08:58:14Z</time>
      </trkpt>
      <trkpt lat="48.40811" lon="7.07905">
        <ele>634.4</ele>
        <time>2022-12-27T08:58:15Z</time>
      </trkpt>
      <trkpt lat="48.40813" lon="7.07903">
        <ele>634.4</ele>
        <time>2022-12-27T08:58:16Z</time>
      </trkpt>
      <trkpt lat="48.4082" lon="7.07893">
        <ele>634.4</ele>
        <time>2022-12-27T08:58:20Z</time>
      </trkpt>
      <trkpt lat="48.40837" lon="7.07879">
        <ele>634.6</ele>
        <time>2022-12-27T08:58:27Z</time>
      </trkpt>
      <trkpt lat="48.40838" lon="7.07874">
        <ele>634.8</ele>
        <time>2022-12-27T08:58:28Z</time>
      </trkpt>
      <trkpt lat="48.40844" lon="7.07867">
        <ele>634.8</ele>
        <time>2022-12-27T08:58:31Z</time>
      </trkpt>
      <trkpt lat="48.4085" lon="7.07862">
        <ele>635</ele>
        <time>2022-12-27T08:58:33Z</time>
      </trkpt>
      <trkpt lat="48.40854" lon="7.07859">
        <ele>635</ele>
        <time>2022-12-27T08:58:34Z</time>
      </trkpt>
      <trkpt lat="48.40859" lon="7.07851">
        <ele>635</ele>
        <time>2022-12-27T08:58:36Z</time>
      </trkpt>
      <trkpt lat="48.40858" lon="7.07843">
        <ele>635</ele>
        <time>2022-12-27T08:58:37Z</time>
      </trkpt>
      <trkpt lat="48.40857" lon="7.07821">
        <ele>635.2</ele>
        <time>2022-12-27T08:58:41Z</time>
      </trkpt>
      <trkpt lat="48.40863" lon="7.07807">
        <ele>635.2</ele>
        <time>2022-12-27T08:58:46Z</time>
      </trkpt>
      <trkpt lat="48.40875" lon="7.07789">
        <ele>635.2</ele>
        <time>2022-12-27T08:58:53Z</time>
      </trkpt>
      <trkpt lat="48.40882" lon="7.07776">
        <ele>635.4</ele>
        <time>2022-12-27T08:58:57Z</time>
      </trkpt>
      <trkpt lat="48.40885" lon="7.07772">
        <ele>635.4</ele>
        <time>2022-12-27T08:58:59Z</time>
      </trkpt>
      <trkpt lat="48.4089" lon="7.07757">
        <ele>636</ele>
        <time>2022-12-27T08:59:04Z</time>
      </trkpt>
      <trkpt lat="48.40895" lon="7.07734">
        <ele>636</ele>
        <time>2022-12-27T08:59:09Z</time>
      </trkpt>
      <trkpt lat="48.40901" lon="7.07712">
        <ele>636</ele>
        <time>2022-12-27T08:59:14Z</time>
      </trkpt>
      <trkpt lat="48.40908" lon="7.07694">
        <ele>636</ele>
        <time>2022-12-27T08:59:19Z</time>
      </trkpt>
      <trkpt lat="48.4091" lon="7.07689">
        <ele>636</ele>
        <time>2022-12-27T08:59:21Z</time>
      </trkpt>
      <trkpt lat="48.40915" lon="7.07683">
        <ele>636.2</ele>
        <time>2022-12-27T08:59:23Z</time>
      </trkpt>
      <trkpt lat="48.4092" lon="7.07676">
        <ele>636.4</ele>
        <time>2022-12-27T08:59:26Z</time>
      </trkpt>
      <trkpt lat="48.40922" lon="7.07668">
        <ele>636.4</ele>
        <time>2022-12-27T08:59:28Z</time>
      </trkpt>
      <trkpt lat="48.40935" lon="7.07648">
        <ele>636.6</ele>
        <time>2022-12-27T08:59:34Z</time>
      </trkpt>
      <trkpt lat="48.4095" lon="7.07633">
        <ele>636.6</ele>
        <time>2022-12-27T08:59:41Z</time>
      </trkpt>
      <trkpt lat="48.40956" lon="7.07625">
        <ele>636.6</ele>
        <time>2022-12-27T08:59:44Z</time>
      </trkpt>
      <trkpt lat="48.4096" lon="7.07623">
        <ele>636.8</ele>
        <time>2022-12-27T08:59:46Z</time>
      </trkpt>
      <trkpt lat="48.40962" lon="7.07619">
        <ele>636.8</ele>
        <time>2022-12-27T08:59:47Z</time>
      </trkpt>
      <trkpt lat="48.40975" lon="7.07603">
        <ele>637</ele>
        <time>2022-12-27T08:59:53Z</time>
      </trkpt>
      <trkpt lat="48.40988" lon="7.0759">
        <ele>637.2</ele>
        <time>2022-12-27T08:59:58Z</time>
      </trkpt>
      <trkpt lat="48.40999" lon="7.07564">
        <ele>637.4</ele>
        <time>2022-12-27T09:00:04Z</time>
      </trkpt>
      <trkpt lat="48.41011" lon="7.0755">
        <ele>637.8</ele>
        <time>2022-12-27T09:00:10Z</time>
      </trkpt>
      <trkpt lat="48.41028" lon="7.07535">
        <ele>638</ele>
        <time>2022-12-27T09:00:17Z</time>
      </trkpt>
      <trkpt lat="48.41035" lon="7.07528">
        <ele>638.2</ele>
        <time>2022-12-27T09:00:19Z</time>
      </trkpt>
      <trkpt lat="48.41044" lon="7.07519">
        <ele>638.4</ele>
        <time>2022-12-27T09:00:23Z</time>
      </trkpt>
      <trkpt lat="48.41063" lon="7.07489">
        <ele>639</ele>
        <time>2022-12-27T09:00:32Z</time>
      </trkpt>
      <trkpt lat="48.41079" lon="7.07471">
        <ele>639</ele>
        <time>2022-12-27T09:00:39Z</time>
      </trkpt>
      <trkpt lat="48.41084" lon="7.07462">
        <ele>638.8</ele>
        <time>2022-12-27T09:00:42Z</time>
      </trkpt>
      <trkpt lat="48.41085" lon="7.07461">
        <ele>638.6</ele>
        <time>2022-12-27T09:00:43Z</time>
      </trkpt>
      <trkpt lat="48.41096" lon="7.07454">
        <ele>638.6</ele>
        <time>2022-12-27T09:00:48Z</time>
      </trkpt>
      <trkpt lat="48.41111" lon="7.07449">
        <ele>638.6</ele>
        <time>2022-12-27T09:00:54Z</time>
      </trkpt>
      <trkpt lat="48.41121" lon="7.07448">
        <ele>638.8</ele>
        <time>2022-12-27T09:01:00Z</time>
      </trkpt>
      <trkpt lat="48.41126" lon="7.0745">
        <ele>639</ele>
        <time>2022-12-27T09:01:04Z</time>
      </trkpt>
      <trkpt lat="48.41128" lon="7.0745">
        <ele>639</ele>
        <time>2022-12-27T09:01:05Z</time>
      </trkpt>
      <trkpt lat="48.41141" lon="7.07449">
        <ele>639.4</ele>
        <time>2022-12-27T09:01:10Z</time>
      </trkpt>
      <trkpt lat="48.41144" lon="7.07449">
        <ele>639.6</ele>
        <time>2022-12-27T09:01:11Z</time>
      </trkpt>
      <trkpt lat="48.41151" lon="7.0745">
        <ele>639.6</ele>
        <time>2022-12-27T09:01:13Z</time>
      </trkpt>
      <trkpt lat="48.41163" lon="7.07456">
        <ele>639.8</ele>
        <time>2022-12-27T09:01:16Z</time>
      </trkpt>
      <trkpt lat="48.41165" lon="7.07457">
        <ele>639.8</ele>
        <time>2022-12-27T09:01:17Z</time>
      </trkpt>
      <trkpt lat="48.41174" lon="7.07462">
        <ele>639.8</ele>
        <time>2022-12-27T09:01:20Z</time>
      </trkpt>
      <trkpt lat="48.41193" lon="7.07477">
        <ele>639.6</ele>
        <time>2022-12-27T09:01:26Z</time>
      </trkpt>
      <trkpt lat="48.41203" lon="7.07488">
        <ele>639.2</ele>
        <time>2022-12-27T09:01:29Z</time>
      </trkpt>
      <trkpt lat="48.41218" lon="7.07499">
        <ele>638.8</ele>
        <time>2022-12-27T09:01:32Z</time>
      </trkpt>
      <trkpt lat="48.41229" lon="7.07506">
        <ele>638.8</ele>
        <time>2022-12-27T09:01:34Z</time>
      </trkpt>
      <trkpt lat="48.41233" lon="7.07509">
        <ele>638.6</ele>
        <time>2022-12-27T09:01:35Z</time>
      </trkpt>
      <trkpt lat="48.41239" lon="7.07516">
        <ele>638.2</ele>
        <time>2022-12-27T09:01:36Z</time>
      </trkpt>
      <trkpt lat="48.4125" lon="7.07525">
        <ele>637.8</ele>
        <time>2022-12-27T09:01:39Z</time>
      </trkpt>
      <trkpt lat="48.41257" lon="7.07535">
        <ele>637.4</ele>
        <time>2022-12-27T09:01:41Z</time>
      </trkpt>
      <trkpt lat="48.41266" lon="7.07544">
        <ele>637</ele>
        <time>2022-12-27T09:01:43Z</time>
      </trkpt>
      <trkpt lat="48.41273" lon="7.0755">
        <ele>636.6</ele>
        <time>2022-12-27T09:01:44Z</time>
      </trkpt>
      <trkpt lat="48.41277" lon="7.07553">
        <ele>636.6</ele>
        <time>2022-12-27T09:01:45Z</time>
      </trkpt>
      <trkpt lat="48.41285" lon="7.07558">
        <ele>636</ele>
        <time>2022-12-27T09:01:47Z</time>
      </trkpt>
      <trkpt lat="48.41287" lon="7.07562">
        <ele>636</ele>
        <time>2022-12-27T09:01:48Z</time>
      </trkpt>
      <trkpt lat="48.41291" lon="7.07566">
        <ele>635.8</ele>
        <time>2022-12-27T09:01:49Z</time>
      </trkpt>
      <trkpt lat="48.41297" lon="7.07571">
        <ele>635.8</ele>
        <time>2022-12-27T09:01:51Z</time>
      </trkpt>
      <trkpt lat="48.4131" lon="7.07583">
        <ele>635.2</ele>
        <time>2022-12-27T09:01:54Z</time>
      </trkpt>
      <trkpt lat="48.41313" lon="7.07586">
        <ele>635.2</ele>
        <time>2022-12-27T09:01:55Z</time>
      </trkpt>
      <trkpt lat="48.41319" lon="7.07595">
        <ele>635</ele>
        <time>2022-12-27T09:01:57Z</time>
      </trkpt>
      <trkpt lat="48.41323" lon="7.076">
        <ele>634.8</ele>
        <time>2022-12-27T09:01:58Z</time>
      </trkpt>
      <trkpt lat="48.41331" lon="7.0761">
        <ele>634.6</ele>
        <time>2022-12-27T09:02:00Z</time>
      </trkpt>
      <trkpt lat="48.41341" lon="7.07619">
        <ele>634.2</ele>
        <time>2022-12-27T09:02:02Z</time>
      </trkpt>
      <trkpt lat="48.41344" lon="7.07624">
        <ele>634</ele>
        <time>2022-12-27T09:02:03Z</time>
      </trkpt>
      <trkpt lat="48.41349" lon="7.0763">
        <ele>633.8</ele>
        <time>2022-12-27T09:02:04Z</time>
      </trkpt>
      <trkpt lat="48.41364" lon="7.0765">
        <ele>633.4</ele>
        <time>2022-12-27T09:02:07Z</time>
      </trkpt>
      <trkpt lat="48.41374" lon="7.0767">
        <ele>632.8</ele>
        <time>2022-12-27T09:02:10Z</time>
      </trkpt>
      <trkpt lat="48.41383" lon="7.07685">
        <ele>632.2</ele>
        <time>2022-12-27T09:02:12Z</time>
      </trkpt>
      <trkpt lat="48.41389" lon="7.07691">
        <ele>632</ele>
        <time>2022-12-27T09:02:13Z</time>
      </trkpt>
      <trkpt lat="48.41396" lon="7.07703">
        <ele>631.6</ele>
        <time>2022-12-27T09:02:16Z</time>
      </trkpt>
      <trkpt lat="48.414" lon="7.0771">
        <ele>631.6</ele>
        <time>2022-12-27T09:02:18Z</time>
      </trkpt>
      <trkpt lat="48.41409" lon="7.07726">
        <ele>631.4</ele>
        <time>2022-12-27T09:02:23Z</time>
      </trkpt>
      <trkpt lat="48.41413" lon="7.07742">
        <ele>631.8</ele>
        <time>2022-12-27T09:02:28Z</time>
      </trkpt>
      <trkpt lat="48.41414" lon="7.07745">
        <ele>631.8</ele>
        <time>2022-12-27T09:02:29Z</time>
      </trkpt>
      <trkpt lat="48.41413" lon="7.07756">
        <ele>631.8</ele>
        <time>2022-12-27T09:02:32Z</time>
      </trkpt>
      <trkpt lat="48.41416" lon="7.07764">
        <ele>631.8</ele>
        <time>2022-12-27T09:02:35Z</time>
      </trkpt>
      <trkpt lat="48.41417" lon="7.07766">
        <ele>632</ele>
        <time>2022-12-27T09:02:36Z</time>
      </trkpt>
      <trkpt lat="48.41419" lon="7.07774">
        <ele>632</ele>
        <time>2022-12-27T09:02:39Z</time>
      </trkpt>
      <trkpt lat="48.4142" lon="7.07784">
        <ele>632</ele>
        <time>2022-12-27T09:02:42Z</time>
      </trkpt>
      <trkpt lat="48.41421" lon="7.07786">
        <ele>632.2</ele>
        <time>2022-12-27T09:02:43Z</time>
      </trkpt>
      <trkpt lat="48.41422" lon="7.07793">
        <ele>632.2</ele>
        <time>2022-12-27T09:02:45Z</time>
      </trkpt>
      <trkpt lat="48.41423" lon="7.07799">
        <ele>632.8</ele>
        <time>2022-12-27T09:02:47Z</time>
      </trkpt>
      <trkpt lat="48.41424" lon="7.07805">
        <ele>632.6</ele>
        <time>2022-12-27T09:02:49Z</time>
      </trkpt>
      <trkpt lat="48.41425" lon="7.07806">
        <ele>632.8</ele>
        <time>2022-12-27T09:02:50Z</time>
      </trkpt>
      <trkpt lat="48.41424" lon="7.07809">
        <ele>633</ele>
        <time>2022-12-27T09:02:51Z</time>
      </trkpt>
      <trkpt lat="48.41426" lon="7.0782">
        <ele>633.4</ele>
        <time>2022-12-27T09:02:54Z</time>
      </trkpt>
      <trkpt lat="48.41427" lon="7.07823">
        <ele>633.4</ele>
        <time>2022-12-27T09:02:55Z</time>
      </trkpt>
      <trkpt lat="48.41426" lon="7.07828">
        <ele>633.6</ele>
        <time>2022-12-27T09:02:57Z</time>
      </trkpt>
      <trkpt lat="48.41426" lon="7.0784">
        <ele>633.8</ele>
        <time>2022-12-27T09:03:00Z</time>
      </trkpt>
      <trkpt lat="48.41426" lon="7.07848">
        <ele>634</ele>
        <time>2022-12-27T09:03:02Z</time>
      </trkpt>
      <trkpt lat="48.41425" lon="7.07859">
        <ele>634.4</ele>
        <time>2022-12-27T09:03:05Z</time>
      </trkpt>
      <trkpt lat="48.41424" lon="7.07865">
        <ele>634.6</ele>
        <time>2022-12-27T09:03:07Z</time>
      </trkpt>
      <trkpt lat="48.41426" lon="7.07873">
        <ele>634.8</ele>
        <time>2022-12-27T09:03:09Z</time>
      </trkpt>
      <trkpt lat="48.41425" lon="7.07877">
        <ele>635.2</ele>
        <time>2022-12-27T09:03:11Z</time>
      </trkpt>
      <trkpt lat="48.41425" lon="7.07879">
        <ele>635.4</ele>
        <time>2022-12-27T09:03:16Z</time>
      </trkpt>
      <trkpt lat="48.41423" lon="7.07883">
        <ele>636.2</ele>
        <time>2022-12-27T09:03:19Z</time>
      </trkpt>
      <trkpt lat="48.41418" lon="7.07896">
        <ele>636.6</ele>
        <time>2022-12-27T09:03:23Z</time>
      </trkpt>
      <trkpt lat="48.41412" lon="7.07904">
        <ele>637.2</ele>
        <time>2022-12-27T09:03:27Z</time>
      </trkpt>
      <trkpt lat="48.4141" lon="7.0791">
        <ele>637.8</ele>
        <time>2022-12-27T09:03:31Z</time>
      </trkpt>
      <trkpt lat="48.41409" lon="7.07914">
        <ele>637.8</ele>
        <time>2022-12-27T09:03:32Z</time>
      </trkpt>
      <trkpt lat="48.41406" lon="7.07924">
        <ele>638.4</ele>
        <time>2022-12-27T09:03:35Z</time>
      </trkpt>
      <trkpt lat="48.41405" lon="7.07925">
        <ele>638.6</ele>
        <time>2022-12-27T09:03:36Z</time>
      </trkpt>
      <trkpt lat="48.41404" lon="7.07931">
        <ele>639.6</ele>
        <time>2022-12-27T09:03:40Z</time>
      </trkpt>
      <trkpt lat="48.41402" lon="7.07934">
        <ele>639.8</ele>
        <time>2022-12-27T09:03:42Z</time>
      </trkpt>
      <trkpt lat="48.41398" lon="7.07939">
        <ele>640.6</ele>
        <time>2022-12-27T09:03:46Z</time>
      </trkpt>
      <trkpt lat="48.41398" lon="7.0794">
        <ele>640.8</ele>
        <time>2022-12-27T09:03:47Z</time>
      </trkpt>
      <trkpt lat="48.41397" lon="7.07942">
        <ele>641</ele>
        <time>2022-12-27T09:03:49Z</time>
      </trkpt>
      <trkpt lat="48.41399" lon="7.07947">
        <ele>641.2</ele>
        <time>2022-12-27T09:03:50Z</time>
      </trkpt>
      <trkpt lat="48.41399" lon="7.07959">
        <ele>641.8</ele>
        <time>2022-12-27T09:03:53Z</time>
      </trkpt>
      <trkpt lat="48.41395" lon="7.07963">
        <ele>642.2</ele>
        <time>2022-12-27T09:03:55Z</time>
      </trkpt>
      <trkpt lat="48.41395" lon="7.07964">
        <ele>642.4</ele>
        <time>2022-12-27T09:03:56Z</time>
      </trkpt>
      <trkpt lat="48.41396" lon="7.07968">
        <ele>642.8</ele>
        <time>2022-12-27T09:03:58Z</time>
      </trkpt>
      <trkpt lat="48.41395" lon="7.0797">
        <ele>643.2</ele>
        <time>2022-12-27T09:03:59Z</time>
      </trkpt>
      <trkpt lat="48.41394" lon="7.07972">
        <ele>643.2</ele>
        <time>2022-12-27T09:04:00Z</time>
      </trkpt>
      <trkpt lat="48.41392" lon="7.07973">
        <ele>643.8</ele>
        <time>2022-12-27T09:04:02Z</time>
      </trkpt>
      <trkpt lat="48.41386" lon="7.07978">
        <ele>644</ele>
        <time>2022-12-27T09:04:04Z</time>
      </trkpt>
      <trkpt lat="48.41386" lon="7.07982">
        <ele>644.4</ele>
        <time>2022-12-27T09:04:07Z</time>
      </trkpt>
      <trkpt lat="48.41381" lon="7.08001">
        <ele>644.8</ele>
        <time>2022-12-27T09:04:12Z</time>
      </trkpt>
      <trkpt lat="48.4138" lon="7.08003">
        <ele>645</ele>
        <time>2022-12-27T09:04:13Z</time>
      </trkpt>
      <trkpt lat="48.41377" lon="7.0801">
        <ele>645.4</ele>
        <time>2022-12-27T09:04:16Z</time>
      </trkpt>
      <trkpt lat="48.41374" lon="7.08017">
        <ele>646.2</ele>
        <time>2022-12-27T09:04:19Z</time>
      </trkpt>
      <trkpt lat="48.41376" lon="7.08021">
        <ele>646.4</ele>
        <time>2022-12-27T09:04:20Z</time>
      </trkpt>
      <trkpt lat="48.41379" lon="7.0803">
        <ele>647</ele>
        <time>2022-12-27T09:04:25Z</time>
      </trkpt>
      <trkpt lat="48.41377" lon="7.08039">
        <ele>647.8</ele>
        <time>2022-12-27T09:04:28Z</time>
      </trkpt>
      <trkpt lat="48.41376" lon="7.08044">
        <ele>648.2</ele>
        <time>2022-12-27T09:04:30Z</time>
      </trkpt>
      <trkpt lat="48.41374" lon="7.0805">
        <ele>648.8</ele>
        <time>2022-12-27T09:04:34Z</time>
      </trkpt>
      <trkpt lat="48.41373" lon="7.08059">
        <ele>649.4</ele>
        <time>2022-12-27T09:04:37Z</time>
      </trkpt>
      <trkpt lat="48.41372" lon="7.0806">
        <ele>649.4</ele>
        <time>2022-12-27T09:04:38Z</time>
      </trkpt>
      <trkpt lat="48.4137" lon="7.08065">
        <ele>649.6</ele>
        <time>2022-12-27T09:04:41Z</time>
      </trkpt>
      <trkpt lat="48.4137" lon="7.08067">
        <ele>649.8</ele>
        <time>2022-12-27T09:04:42Z</time>
      </trkpt>
      <trkpt lat="48.41374" lon="7.0807">
        <ele>650.2</ele>
        <time>2022-12-27T09:04:44Z</time>
      </trkpt>
      <trkpt lat="48.41374" lon="7.08072">
        <ele>650.4</ele>
        <time>2022-12-27T09:04:45Z</time>
      </trkpt>
      <trkpt lat="48.41375" lon="7.08074">
        <ele>650.4</ele>
        <time>2022-12-27T09:04:46Z</time>
      </trkpt>
      <trkpt lat="48.41375" lon="7.08075">
        <ele>650.6</ele>
        <time>2022-12-27T09:04:47Z</time>
      </trkpt>
      <trkpt lat="48.41375" lon="7.08077">
        <ele>650.6</ele>
        <time>2022-12-27T09:04:48Z</time>
      </trkpt>
      <trkpt lat="48.41377" lon="7.08082">
        <ele>650.8</ele>
        <time>2022-12-27T09:04:51Z</time>
      </trkpt>
      <trkpt lat="48.41377" lon="7.08084">
        <ele>651</ele>
        <time>2022-12-27T09:04:52Z</time>
      </trkpt>
      <trkpt lat="48.41377" lon="7.08086">
        <ele>651.2</ele>
        <time>2022-12-27T09:04:54Z</time>
      </trkpt>
      <trkpt lat="48.41378" lon="7.08094">
        <ele>651.6</ele>
        <time>2022-12-27T09:04:58Z</time>
      </trkpt>
      <trkpt lat="48.41377" lon="7.081">
        <ele>652</ele>
        <time>2022-12-27T09:05:01Z</time>
      </trkpt>
      <trkpt lat="48.41376" lon="7.08104">
        <ele>652.2</ele>
        <time>2022-12-27T09:05:03Z</time>
      </trkpt>
      <trkpt lat="48.41377" lon="7.08114">
        <ele>652.4</ele>
        <time>2022-12-27T09:05:07Z</time>
      </trkpt>
      <trkpt lat="48.41378" lon="7.08122">
        <ele>653</ele>
        <time>2022-12-27T09:05:10Z</time>
      </trkpt>
      <trkpt lat="48.41377" lon="7.08128">
        <ele>653.2</ele>
        <time>2022-12-27T09:05:13Z</time>
      </trkpt>
      <trkpt lat="48.41376" lon="7.08132">
        <ele>653.8</ele>
        <time>2022-12-27T09:05:16Z</time>
      </trkpt>
      <trkpt lat="48.41369" lon="7.08145">
        <ele>654.8</ele>
        <time>2022-12-27T09:05:22Z</time>
      </trkpt>
      <trkpt lat="48.41369" lon="7.08147">
        <ele>655</ele>
        <time>2022-12-27T09:05:23Z</time>
      </trkpt>
      <trkpt lat="48.41369" lon="7.08149">
        <ele>655.2</ele>
        <time>2022-12-27T09:05:24Z</time>
      </trkpt>
      <trkpt lat="48.41367" lon="7.08153">
        <ele>655.8</ele>
        <time>2022-12-27T09:05:27Z</time>
      </trkpt>
      <trkpt lat="48.41367" lon="7.08154">
        <ele>656</ele>
        <time>2022-12-27T09:05:28Z</time>
      </trkpt>
      <trkpt lat="48.41368" lon="7.08157">
        <ele>656.2</ele>
        <time>2022-12-27T09:05:30Z</time>
      </trkpt>
      <trkpt lat="48.4137" lon="7.08161">
        <ele>656.6</ele>
        <time>2022-12-27T09:05:32Z</time>
      </trkpt>
      <trkpt lat="48.4137" lon="7.08162">
        <ele>656.8</ele>
        <time>2022-12-27T09:05:33Z</time>
      </trkpt>
      <trkpt lat="48.4137" lon="7.08167">
        <ele>657</ele>
        <time>2022-12-27T09:05:35Z</time>
      </trkpt>
      <trkpt lat="48.41371" lon="7.08169">
        <ele>657.2</ele>
        <time>2022-12-27T09:05:36Z</time>
      </trkpt>
      <trkpt lat="48.4137" lon="7.08171">
        <ele>657.2</ele>
        <time>2022-12-27T09:05:37Z</time>
      </trkpt>
      <trkpt lat="48.4137" lon="7.08177">
        <ele>657.8</ele>
        <time>2022-12-27T09:05:43Z</time>
      </trkpt>
      <trkpt lat="48.4137" lon="7.08177">
        <ele>658.2</ele>
        <time>2022-12-27T09:05:45Z</time>
      </trkpt>
      <trkpt lat="48.4137" lon="7.08185">
        <ele>658.8</ele>
        <time>2022-12-27T09:05:50Z</time>
      </trkpt>
      <trkpt lat="48.41369" lon="7.08189">
        <ele>659.2</ele>
        <time>2022-12-27T09:05:52Z</time>
      </trkpt>
      <trkpt lat="48.41368" lon="7.08193">
        <ele>659.6</ele>
        <time>2022-12-27T09:05:54Z</time>
      </trkpt>
      <trkpt lat="48.41368" lon="7.08195">
        <ele>659.6</ele>
        <time>2022-12-27T09:05:55Z</time>
      </trkpt>
      <trkpt lat="48.41365" lon="7.08203">
        <ele>660</ele>
        <time>2022-12-27T09:05:59Z</time>
      </trkpt>
      <trkpt lat="48.41365" lon="7.08205">
        <ele>660.4</ele>
        <time>2022-12-27T09:06:01Z</time>
      </trkpt>
      <trkpt lat="48.41364" lon="7.08211">
        <ele>660.4</ele>
        <time>2022-12-27T09:06:02Z</time>
      </trkpt>
      <trkpt lat="48.41365" lon="7.08225">
        <ele>661</ele>
        <time>2022-12-27T09:06:07Z</time>
      </trkpt>
      <trkpt lat="48.41363" lon="7.08229">
        <ele>661.4</ele>
        <time>2022-12-27T09:06:09Z</time>
      </trkpt>
      <trkpt lat="48.41362" lon="7.08231">
        <ele>661.6</ele>
        <time>2022-12-27T09:06:11Z</time>
      </trkpt>
      <trkpt lat="48.41361" lon="7.08232">
        <ele>661.8</ele>
        <time>2022-12-27T09:06:12Z</time>
      </trkpt>
      <trkpt lat="48.4136" lon="7.08236">
        <ele>662</ele>
        <time>2022-12-27T09:06:14Z</time>
      </trkpt>
      <trkpt lat="48.41357" lon="7.08242">
        <ele>662.6</ele>
        <time>2022-12-27T09:06:17Z</time>
      </trkpt>
      <trkpt lat="48.41356" lon="7.08242">
        <ele>662.6</ele>
        <time>2022-12-27T09:06:18Z</time>
      </trkpt>
      <trkpt lat="48.41355" lon="7.08254">
        <ele>663.4</ele>
        <time>2022-12-27T09:06:24Z</time>
      </trkpt>
      <trkpt lat="48.41355" lon="7.0826">
        <ele>663.4</ele>
        <time>2022-12-27T09:06:26Z</time>
      </trkpt>
      <trkpt lat="48.4135" lon="7.08273">
        <ele>663.8</ele>
        <time>2022-12-27T09:06:30Z</time>
      </trkpt>
      <trkpt lat="48.41348" lon="7.08282">
        <ele>664</ele>
        <time>2022-12-27T09:06:33Z</time>
      </trkpt>
      <trkpt lat="48.41346" lon="7.08285">
        <ele>664.4</ele>
        <time>2022-12-27T09:06:36Z</time>
      </trkpt>
      <trkpt lat="48.41346" lon="7.08288">
        <ele>664.4</ele>
        <time>2022-12-27T09:06:37Z</time>
      </trkpt>
      <trkpt lat="48.41345" lon="7.08288">
        <ele>664.6</ele>
        <time>2022-12-27T09:06:38Z</time>
      </trkpt>
      <trkpt lat="48.41343" lon="7.0829">
        <ele>664.8</ele>
        <time>2022-12-27T09:06:40Z</time>
      </trkpt>
      <trkpt lat="48.41342" lon="7.08298">
        <ele>665.6</ele>
        <time>2022-12-27T09:06:47Z</time>
      </trkpt>
      <trkpt lat="48.41341" lon="7.083">
        <ele>665.6</ele>
        <time>2022-12-27T09:06:48Z</time>
      </trkpt>
      <trkpt lat="48.41339" lon="7.08305">
        <ele>665.8</ele>
        <time>2022-12-27T09:06:51Z</time>
      </trkpt>
      <trkpt lat="48.41338" lon="7.08306">
        <ele>666.4</ele>
        <time>2022-12-27T09:06:55Z</time>
      </trkpt>
      <trkpt lat="48.41338" lon="7.08306">
        <ele>666.6</ele>
        <time>2022-12-27T09:06:56Z</time>
      </trkpt>
      <trkpt lat="48.41334" lon="7.08322">
        <ele>667.2</ele>
        <time>2022-12-27T09:07:03Z</time>
      </trkpt>
      <trkpt lat="48.41333" lon="7.08327">
        <ele>667.6</ele>
        <time>2022-12-27T09:07:05Z</time>
      </trkpt>
      <trkpt lat="48.41332" lon="7.0833">
        <ele>668</ele>
        <time>2022-12-27T09:07:06Z</time>
      </trkpt>
      <trkpt lat="48.41331" lon="7.08334">
        <ele>668.8</ele>
        <time>2022-12-27T09:07:08Z</time>
      </trkpt>
      <trkpt lat="48.4133" lon="7.08335">
        <ele>669.2</ele>
        <time>2022-12-27T09:07:09Z</time>
      </trkpt>
      <trkpt lat="48.41329" lon="7.08336">
        <ele>669.2</ele>
        <time>2022-12-27T09:07:10Z</time>
      </trkpt>
      <trkpt lat="48.41327" lon="7.08339">
        <ele>669.4</ele>
        <time>2022-12-27T09:07:12Z</time>
      </trkpt>
      <trkpt lat="48.41325" lon="7.08345">
        <ele>669.4</ele>
        <time>2022-12-27T09:07:14Z</time>
      </trkpt>
      <trkpt lat="48.41324" lon="7.08354">
        <ele>669.6</ele>
        <time>2022-12-27T09:07:18Z</time>
      </trkpt>
      <trkpt lat="48.41323" lon="7.08361">
        <ele>669.8</ele>
        <time>2022-12-27T09:07:20Z</time>
      </trkpt>
      <trkpt lat="48.41321" lon="7.08368">
        <ele>670.2</ele>
        <time>2022-12-27T09:07:23Z</time>
      </trkpt>
      <trkpt lat="48.4132" lon="7.0837">
        <ele>670.4</ele>
        <time>2022-12-27T09:07:25Z</time>
      </trkpt>
      <trkpt lat="48.4132" lon="7.08372">
        <ele>670.2</ele>
        <time>2022-12-27T09:07:26Z</time>
      </trkpt>
      <trkpt lat="48.41319" lon="7.08391">
        <ele>671</ele>
        <time>2022-12-27T09:07:33Z</time>
      </trkpt>
      <trkpt lat="48.41318" lon="7.08395">
        <ele>671.4</ele>
        <time>2022-12-27T09:07:34Z</time>
      </trkpt>
      <trkpt lat="48.41319" lon="7.08399">
        <ele>671.4</ele>
        <time>2022-12-27T09:07:35Z</time>
      </trkpt>
      <trkpt lat="48.41322" lon="7.08404">
        <ele>671.6</ele>
        <time>2022-12-27T09:07:36Z</time>
      </trkpt>
      <trkpt lat="48.41323" lon="7.0841">
        <ele>672</ele>
        <time>2022-12-27T09:07:38Z</time>
      </trkpt>
      <trkpt lat="48.41323" lon="7.08417">
        <ele>672.2</ele>
        <time>2022-12-27T09:07:40Z</time>
      </trkpt>
      <trkpt lat="48.41323" lon="7.08419">
        <ele>672.2</ele>
        <time>2022-12-27T09:07:41Z</time>
      </trkpt>
      <trkpt lat="48.41323" lon="7.08424">
        <ele>672.6</ele>
        <time>2022-12-27T09:07:44Z</time>
      </trkpt>
      <trkpt lat="48.4132" lon="7.08441">
        <ele>673</ele>
        <time>2022-12-27T09:07:49Z</time>
      </trkpt>
      <trkpt lat="48.41319" lon="7.08448">
        <ele>673</ele>
        <time>2022-12-27T09:07:51Z</time>
      </trkpt>
      <trkpt lat="48.41319" lon="7.08451">
        <ele>673.2</ele>
        <time>2022-12-27T09:07:52Z</time>
      </trkpt>
      <trkpt lat="48.41323" lon="7.08472">
        <ele>673.4</ele>
        <time>2022-12-27T09:07:56Z</time>
      </trkpt>
      <trkpt lat="48.41323" lon="7.08478">
        <ele>673.4</ele>
        <time>2022-12-27T09:07:57Z</time>
      </trkpt>
      <trkpt lat="48.41324" lon="7.08486">
        <ele>673.4</ele>
        <time>2022-12-27T09:07:58Z</time>
      </trkpt>
      <trkpt lat="48.41322" lon="7.08501">
        <ele>673.2</ele>
        <time>2022-12-27T09:08:00Z</time>
      </trkpt>
      <trkpt lat="48.41322" lon="7.08509">
        <ele>673.2</ele>
        <time>2022-12-27T09:08:01Z</time>
      </trkpt>
      <trkpt lat="48.41323" lon="7.08516">
        <ele>673</ele>
        <time>2022-12-27T09:08:02Z</time>
      </trkpt>
      <trkpt lat="48.41322" lon="7.08539">
        <ele>672.4</ele>
        <time>2022-12-27T09:08:05Z</time>
      </trkpt>
      <trkpt lat="48.41324" lon="7.08549">
        <ele>672.2</ele>
        <time>2022-12-27T09:08:06Z</time>
      </trkpt>
      <trkpt lat="48.41325" lon="7.08559">
        <ele>671.8</ele>
        <time>2022-12-27T09:08:07Z</time>
      </trkpt>
      <trkpt lat="48.41327" lon="7.08568">
        <ele>671.4</ele>
        <time>2022-12-27T09:08:08Z</time>
      </trkpt>
      <trkpt lat="48.41329" lon="7.08577">
        <ele>671</ele>
        <time>2022-12-27T09:08:09Z</time>
      </trkpt>
      <trkpt lat="48.41333" lon="7.08585">
        <ele>670.4</ele>
        <time>2022-12-27T09:08:10Z</time>
      </trkpt>
      <trkpt lat="48.41337" lon="7.08594">
        <ele>670.2</ele>
        <time>2022-12-27T09:08:11Z</time>
      </trkpt>
      <trkpt lat="48.41344" lon="7.08602">
        <ele>669.8</ele>
        <time>2022-12-27T09:08:12Z</time>
      </trkpt>
      <trkpt lat="48.41351" lon="7.0861">
        <ele>669.6</ele>
        <time>2022-12-27T09:08:13Z</time>
      </trkpt>
      <trkpt lat="48.41361" lon="7.08618">
        <ele>669</ele>
        <time>2022-12-27T09:08:15Z</time>
      </trkpt>
      <trkpt lat="48.41365" lon="7.0862">
        <ele>668.4</ele>
        <time>2022-12-27T09:08:16Z</time>
      </trkpt>
      <trkpt lat="48.41369" lon="7.08619">
        <ele>668</ele>
        <time>2022-12-27T09:08:17Z</time>
      </trkpt>
      <trkpt lat="48.4138" lon="7.08619">
        <ele>667.6</ele>
        <time>2022-12-27T09:08:21Z</time>
      </trkpt>
      <trkpt lat="48.41394" lon="7.08617">
        <ele>667.8</ele>
        <time>2022-12-27T09:08:26Z</time>
      </trkpt>
      <trkpt lat="48.4141" lon="7.08614">
        <ele>668.6</ele>
        <time>2022-12-27T09:08:32Z</time>
      </trkpt>
      <trkpt lat="48.41421" lon="7.08609">
        <ele>669.2</ele>
        <time>2022-12-27T09:08:37Z</time>
      </trkpt>
      <trkpt lat="48.41429" lon="7.08604">
        <ele>669.4</ele>
        <time>2022-12-27T09:08:40Z</time>
      </trkpt>
      <trkpt lat="48.41441" lon="7.08598">
        <ele>669.4</ele>
        <time>2022-12-27T09:08:43Z</time>
      </trkpt>
      <trkpt lat="48.4146" lon="7.08586">
        <ele>669.2</ele>
        <time>2022-12-27T09:08:49Z</time>
      </trkpt>
      <trkpt lat="48.41462" lon="7.08585">
        <ele>669</ele>
        <time>2022-12-27T09:08:52Z</time>
      </trkpt>
      <trkpt lat="48.41467" lon="7.08585">
        <ele>668.8</ele>
        <time>2022-12-27T09:08:57Z</time>
      </trkpt>
      <trkpt lat="48.41471" lon="7.08583">
        <ele>668.8</ele>
        <time>2022-12-27T09:08:59Z</time>
      </trkpt>
      <trkpt lat="48.4148" lon="7.08574">
        <ele>668.6</ele>
        <time>2022-12-27T09:09:02Z</time>
      </trkpt>
      <trkpt lat="48.41488" lon="7.08567">
        <ele>668.4</ele>
        <time>2022-12-27T09:09:04Z</time>
      </trkpt>
      <trkpt lat="48.41492" lon="7.08567">
        <ele>668.2</ele>
        <time>2022-12-27T09:09:05Z</time>
      </trkpt>
      <trkpt lat="48.41512" lon="7.08571">
        <ele>667.4</ele>
        <time>2022-12-27T09:09:11Z</time>
      </trkpt>
      <trkpt lat="48.41518" lon="7.08572">
        <ele>667</ele>
        <time>2022-12-27T09:09:13Z</time>
      </trkpt>
      <trkpt lat="48.41518" lon="7.08572">
        <ele>667</ele>
        <time>2022-12-27T09:09:14Z</time>
      </trkpt>
      <trkpt lat="48.41522" lon="7.08571">
        <ele>666.8</ele>
        <time>2022-12-27T09:09:17Z</time>
      </trkpt>
      <trkpt lat="48.41532" lon="7.08576">
        <ele>666.8</ele>
        <time>2022-12-27T09:09:22Z</time>
      </trkpt>
      <trkpt lat="48.41547" lon="7.0858">
        <ele>666.8</ele>
        <time>2022-12-27T09:09:28Z</time>
      </trkpt>
      <trkpt lat="48.41566" lon="7.08591">
        <ele>666.6</ele>
        <time>2022-12-27T09:09:34Z</time>
      </trkpt>
      <trkpt lat="48.4158" lon="7.08601">
        <ele>666.2</ele>
        <time>2022-12-27T09:09:38Z</time>
      </trkpt>
      <trkpt lat="48.41582" lon="7.08603">
        <ele>666.2</ele>
        <time>2022-12-27T09:09:39Z</time>
      </trkpt>
      <trkpt lat="48.41587" lon="7.08605">
        <ele>666.2</ele>
        <time>2022-12-27T09:09:41Z</time>
      </trkpt>
      <trkpt lat="48.41594" lon="7.08613">
        <ele>666.2</ele>
        <time>2022-12-27T09:09:44Z</time>
      </trkpt>
      <trkpt lat="48.4161" lon="7.08623">
        <ele>666.4</ele>
        <time>2022-12-27T09:09:50Z</time>
      </trkpt>
      <trkpt lat="48.4162" lon="7.0863">
        <ele>666.6</ele>
        <time>2022-12-27T09:09:54Z</time>
      </trkpt>
      <trkpt lat="48.41623" lon="7.08632">
        <ele>666.6</ele>
        <time>2022-12-27T09:09:56Z</time>
      </trkpt>
      <trkpt lat="48.41627" lon="7.08636">
        <ele>667</ele>
        <time>2022-12-27T09:10:02Z</time>
      </trkpt>
      <trkpt lat="48.41627" lon="7.08636">
        <ele>667.4</ele>
        <time>2022-12-27T09:10:09Z</time>
      </trkpt>
      <trkpt lat="48.41627" lon="7.08636">
        <ele>667.4</ele>
        <time>2022-12-27T09:10:16Z</time>
      </trkpt>
      <trkpt lat="48.41629" lon="7.08636">
        <ele>667.4</ele>
        <time>2022-12-27T09:10:23Z</time>
      </trkpt>
      <trkpt lat="48.4163" lon="7.08636">
        <ele>667.4</ele>
        <time>2022-12-27T09:10:30Z</time>
      </trkpt>
      <trkpt lat="48.4163" lon="7.08637">
        <ele>667.6</ele>
        <time>2022-12-27T09:10:55Z</time>
      </trkpt>
      <trkpt lat="48.4163" lon="7.08637">
        <ele>667.6</ele>
        <time>2022-12-27T09:11:09Z</time>
      </trkpt>
      <trkpt lat="48.4163" lon="7.08637">
        <ele>667.6</ele>
        <time>2022-12-27T09:11:13Z</time>
      </trkpt>
      <trkpt lat="48.4163" lon="7.08637">
        <ele>667.4</ele>
        <time>2022-12-27T09:11:16Z</time>
      </trkpt>
      <trkpt lat="48.4163" lon="7.08637">
        <ele>667.4</ele>
        <time>2022-12-27T09:11:18Z</time>
      </trkpt>
      <trkpt lat="48.4163" lon="7.08637">
        <ele>667.6</ele>
        <time>2022-12-27T09:11:24Z</time>
      </trkpt>
      <trkpt lat="48.4163" lon="7.08637">
        <ele>667.8</ele>
        <time>2022-12-27T09:11:33Z</time>
      </trkpt>
      <trkpt lat="48.4163" lon="7.08637">
        <ele>668</ele>
        <time>2022-12-27T09:11:46Z</time>
      </trkpt>
      <trkpt lat="48.4163" lon="7.08637">
        <ele>667.8</ele>
        <time>2022-12-27T09:11:49Z</time>
      </trkpt>
      <trkpt lat="48.4163" lon="7.08637">
        <ele>667.8</ele>
        <time>2022-12-27T09:12:12Z</time>
      </trkpt>
      <trkpt lat="48.4163" lon="7.08637">
        <ele>667.6</ele>
        <time>2022-12-27T09:12:21Z</time>
      </trkpt>
      <trkpt lat="48.4163" lon="7.08637">
        <ele>667.8</ele>
        <time>2022-12-27T09:14:05Z</time>
      </trkpt>
      <trkpt lat="48.4163" lon="7.08637">
        <ele>667.8</ele>
        <time>2022-12-27T09:14:06Z</time>
      </trkpt>
      <trkpt lat="48.4163" lon="7.08637">
        <ele>667.6</ele>
        <time>2022-12-27T09:14:16Z</time>
      </trkpt>
      <trkpt lat="48.41632" lon="7.08639">
        <ele>667.6</ele>
        <time>2022-12-27T09:14:18Z</time>
      </trkpt>
      <trkpt lat="48.41642" lon="7.0865">
        <ele>668</ele>
        <time>2022-12-27T09:14:25Z</time>
      </trkpt>
      <trkpt lat="48.41652" lon="7.08653">
        <ele>668.6</ele>
        <time>2022-12-27T09:14:32Z</time>
      </trkpt>
      <trkpt lat="48.41655" lon="7.08655">
        <ele>668.8</ele>
        <time>2022-12-27T09:14:34Z</time>
      </trkpt>
      <trkpt lat="48.41667" lon="7.08658">
        <ele>669.2</ele>
        <time>2022-12-27T09:14:40Z</time>
      </trkpt>
      <trkpt lat="48.41676" lon="7.08659">
        <ele>669.2</ele>
        <time>2022-12-27T09:14:43Z</time>
      </trkpt>
      <trkpt lat="48.41685" lon="7.0866">
        <ele>669.4</ele>
        <time>2022-12-27T09:14:46Z</time>
      </trkpt>
      <trkpt lat="48.41697" lon="7.08656">
        <ele>670</ele>
        <time>2022-12-27T09:14:54Z</time>
      </trkpt>
      <trkpt lat="48.41705" lon="7.08654">
        <ele>670.2</ele>
        <time>2022-12-27T09:14:58Z</time>
      </trkpt>
      <trkpt lat="48.4171" lon="7.08654">
        <ele>670.2</ele>
        <time>2022-12-27T09:15:00Z</time>
      </trkpt>
      <trkpt lat="48.41711" lon="7.08654">
        <ele>670.2</ele>
        <time>2022-12-27T09:15:01Z</time>
      </trkpt>
      <trkpt lat="48.41716" lon="7.08654">
        <ele>670.4</ele>
        <time>2022-12-27T09:15:04Z</time>
      </trkpt>
      <trkpt lat="48.41719" lon="7.08653">
        <ele>670.6</ele>
        <time>2022-12-27T09:15:06Z</time>
      </trkpt>
      <trkpt lat="48.41722" lon="7.08653">
        <ele>670.8</ele>
        <time>2022-12-27T09:15:08Z</time>
      </trkpt>
      <trkpt lat="48.41726" lon="7.08652">
        <ele>671.2</ele>
        <time>2022-12-27T09:15:10Z</time>
      </trkpt>
      <trkpt lat="48.41731" lon="7.08651">
        <ele>671.2</ele>
        <time>2022-12-27T09:15:13Z</time>
      </trkpt>
      <trkpt lat="48.41736" lon="7.08652">
        <ele>671.6</ele>
        <time>2022-12-27T09:15:16Z</time>
      </trkpt>
      <trkpt lat="48.41742" lon="7.08649">
        <ele>672</ele>
        <time>2022-12-27T09:15:21Z</time>
      </trkpt>
      <trkpt lat="48.41743" lon="7.08648">
        <ele>672.2</ele>
        <time>2022-12-27T09:15:22Z</time>
      </trkpt>
      <trkpt lat="48.41745" lon="7.08648">
        <ele>672.2</ele>
        <time>2022-12-27T09:15:24Z</time>
      </trkpt>
      <trkpt lat="48.41746" lon="7.08648">
        <ele>672.4</ele>
        <time>2022-12-27T09:15:27Z</time>
      </trkpt>
      <trkpt lat="48.41746" lon="7.08648">
        <ele>673</ele>
        <time>2022-12-27T09:16:05Z</time>
      </trkpt>
      <trkpt lat="48.41746" lon="7.08648">
        <ele>673</ele>
        <time>2022-12-27T09:16:06Z</time>
      </trkpt>
      <trkpt lat="48.41749" lon="7.08644">
        <ele>673.6</ele>
        <time>2022-12-27T09:16:17Z</time>
      </trkpt>
      <trkpt lat="48.41752" lon="7.08641">
        <ele>674</ele>
        <time>2022-12-27T09:16:20Z</time>
      </trkpt>
      <trkpt lat="48.41754" lon="7.08639">
        <ele>674</ele>
        <time>2022-12-27T09:16:21Z</time>
      </trkpt>
      <trkpt lat="48.41759" lon="7.0863">
        <ele>674.8</ele>
        <time>2022-12-27T09:16:25Z</time>
      </trkpt>
      <trkpt lat="48.41761" lon="7.08626">
        <ele>675.2</ele>
        <time>2022-12-27T09:16:27Z</time>
      </trkpt>
      <trkpt lat="48.41766" lon="7.08615">
        <ele>676.2</ele>
        <time>2022-12-27T09:16:32Z</time>
      </trkpt>
      <trkpt lat="48.41773" lon="7.08604">
        <ele>676.8</ele>
        <time>2022-12-27T09:16:37Z</time>
      </trkpt>
      <trkpt lat="48.41775" lon="7.08602">
        <ele>677.2</ele>
        <time>2022-12-27T09:16:39Z</time>
      </trkpt>
      <trkpt lat="48.41775" lon="7.08601">
        <ele>677.4</ele>
        <time>2022-12-27T09:16:40Z</time>
      </trkpt>
      <trkpt lat="48.4178" lon="7.08589">
        <ele>678.4</ele>
        <time>2022-12-27T09:16:46Z</time>
      </trkpt>
      <trkpt lat="48.41784" lon="7.08582">
        <ele>679</ele>
        <time>2022-12-27T09:16:51Z</time>
      </trkpt>
      <trkpt lat="48.41785" lon="7.0858">
        <ele>679.2</ele>
        <time>2022-12-27T09:16:53Z</time>
      </trkpt>
      <trkpt lat="48.41786" lon="7.08579">
        <ele>679.4</ele>
        <time>2022-12-27T09:16:54Z</time>
      </trkpt>
      <trkpt lat="48.41787" lon="7.08578">
        <ele>679.6</ele>
        <time>2022-12-27T09:16:55Z</time>
      </trkpt>
      <trkpt lat="48.4179" lon="7.08573">
        <ele>680.2</ele>
        <time>2022-12-27T09:16:59Z</time>
      </trkpt>
      <trkpt lat="48.41792" lon="7.08569">
        <ele>680.6</ele>
        <time>2022-12-27T09:17:02Z</time>
      </trkpt>
      <trkpt lat="48.41796" lon="7.08566">
        <ele>680.8</ele>
        <time>2022-12-27T09:17:05Z</time>
      </trkpt>
      <trkpt lat="48.41797" lon="7.08562">
        <ele>681</ele>
        <time>2022-12-27T09:17:07Z</time>
      </trkpt>
      <trkpt lat="48.418" lon="7.08557">
        <ele>681.6</ele>
        <time>2022-12-27T09:17:11Z</time>
      </trkpt>
      <trkpt lat="48.41801" lon="7.08555">
        <ele>681.8</ele>
        <time>2022-12-27T09:17:12Z</time>
      </trkpt>
      <trkpt lat="48.41808" lon="7.08546">
        <ele>683</ele>
        <time>2022-12-27T09:17:20Z</time>
      </trkpt>
      <trkpt lat="48.41815" lon="7.08546">
        <ele>684</ele>
        <time>2022-12-27T09:17:26Z</time>
      </trkpt>
      <trkpt lat="48.41816" lon="7.08547">
        <ele>684</ele>
        <time>2022-12-27T09:17:27Z</time>
      </trkpt>
      <trkpt lat="48.41817" lon="7.08548">
        <ele>684.2</ele>
        <time>2022-12-27T09:17:28Z</time>
      </trkpt>
      <trkpt lat="48.41819" lon="7.08556">
        <ele>685.2</ele>
        <time>2022-12-27T09:17:34Z</time>
      </trkpt>
      <trkpt lat="48.41819" lon="7.08557">
        <ele>685.2</ele>
        <time>2022-12-27T09:17:35Z</time>
      </trkpt>
      <trkpt lat="48.41819" lon="7.08559">
        <ele>685.4</ele>
        <time>2022-12-27T09:17:36Z</time>
      </trkpt>
      <trkpt lat="48.4182" lon="7.08562">
        <ele>685.6</ele>
        <time>2022-12-27T09:17:38Z</time>
      </trkpt>
      <trkpt lat="48.41819" lon="7.0857">
        <ele>686.4</ele>
        <time>2022-12-27T09:17:44Z</time>
      </trkpt>
      <trkpt lat="48.41818" lon="7.08576">
        <ele>687.2</ele>
        <time>2022-12-27T09:17:50Z</time>
      </trkpt>
      <trkpt lat="48.41818" lon="7.08579">
        <ele>687.6</ele>
        <time>2022-12-27T09:17:52Z</time>
      </trkpt>
      <trkpt lat="48.41819" lon="7.08587">
        <ele>688.6</ele>
        <time>2022-12-27T09:17:57Z</time>
      </trkpt>
      <trkpt lat="48.41819" lon="7.08589">
        <ele>689</ele>
        <time>2022-12-27T09:17:58Z</time>
      </trkpt>
      <trkpt lat="48.41817" lon="7.086">
        <ele>689.6</ele>
        <time>2022-12-27T09:18:04Z</time>
      </trkpt>
      <trkpt lat="48.41818" lon="7.08612">
        <ele>690.8</ele>
        <time>2022-12-27T09:18:10Z</time>
      </trkpt>
      <trkpt lat="48.41819" lon="7.0862">
        <ele>691.2</ele>
        <time>2022-12-27T09:18:14Z</time>
      </trkpt>
      <trkpt lat="48.41819" lon="7.08629">
        <ele>691.8</ele>
        <time>2022-12-27T09:18:18Z</time>
      </trkpt>
      <trkpt lat="48.41815" lon="7.08644">
        <ele>692.6</ele>
        <time>2022-12-27T09:18:24Z</time>
      </trkpt>
      <trkpt lat="48.41816" lon="7.08653">
        <ele>692.8</ele>
        <time>2022-12-27T09:18:27Z</time>
      </trkpt>
      <trkpt lat="48.41817" lon="7.0866">
        <ele>693.2</ele>
        <time>2022-12-27T09:18:30Z</time>
      </trkpt>
      <trkpt lat="48.41817" lon="7.08673">
        <ele>693.8</ele>
        <time>2022-12-27T09:18:36Z</time>
      </trkpt>
      <trkpt lat="48.41817" lon="7.0868">
        <ele>694.2</ele>
        <time>2022-12-27T09:18:40Z</time>
      </trkpt>
      <trkpt lat="48.41819" lon="7.08687">
        <ele>694.6</ele>
        <time>2022-12-27T09:18:44Z</time>
      </trkpt>
      <trkpt lat="48.41819" lon="7.08694">
        <ele>694.8</ele>
        <time>2022-12-27T09:18:48Z</time>
      </trkpt>
      <trkpt lat="48.4182" lon="7.08695">
        <ele>694.8</ele>
        <time>2022-12-27T09:18:49Z</time>
      </trkpt>
      <trkpt lat="48.41821" lon="7.08701">
        <ele>695.2</ele>
        <time>2022-12-27T09:18:52Z</time>
      </trkpt>
      <trkpt lat="48.41822" lon="7.08706">
        <ele>695.6</ele>
        <time>2022-12-27T09:18:55Z</time>
      </trkpt>
      <trkpt lat="48.41823" lon="7.08711">
        <ele>695.8</ele>
        <time>2022-12-27T09:18:57Z</time>
      </trkpt>
      <trkpt lat="48.41823" lon="7.08713">
        <ele>696</ele>
        <time>2022-12-27T09:18:58Z</time>
      </trkpt>
      <trkpt lat="48.41825" lon="7.08718">
        <ele>696.4</ele>
        <time>2022-12-27T09:19:01Z</time>
      </trkpt>
      <trkpt lat="48.41825" lon="7.0872">
        <ele>696.6</ele>
        <time>2022-12-27T09:19:02Z</time>
      </trkpt>
      <trkpt lat="48.41825" lon="7.08724">
        <ele>697</ele>
        <time>2022-12-27T09:19:04Z</time>
      </trkpt>
      <trkpt lat="48.41823" lon="7.08729">
        <ele>697.2</ele>
        <time>2022-12-27T09:19:06Z</time>
      </trkpt>
      <trkpt lat="48.41822" lon="7.08732">
        <ele>697.4</ele>
        <time>2022-12-27T09:19:07Z</time>
      </trkpt>
      <trkpt lat="48.41821" lon="7.08735">
        <ele>697.6</ele>
        <time>2022-12-27T09:19:08Z</time>
      </trkpt>
      <trkpt lat="48.41821" lon="7.08737">
        <ele>698</ele>
        <time>2022-12-27T09:19:09Z</time>
      </trkpt>
      <trkpt lat="48.4182" lon="7.08741">
        <ele>698.2</ele>
        <time>2022-12-27T09:19:11Z</time>
      </trkpt>
      <trkpt lat="48.41817" lon="7.08744">
        <ele>698.4</ele>
        <time>2022-12-27T09:19:13Z</time>
      </trkpt>
      <trkpt lat="48.41815" lon="7.08747">
        <ele>698.6</ele>
        <time>2022-12-27T09:19:15Z</time>
      </trkpt>
      <trkpt lat="48.41813" lon="7.08748">
        <ele>698.6</ele>
        <time>2022-12-27T09:19:16Z</time>
      </trkpt>
      <trkpt lat="48.41805" lon="7.08758">
        <ele>699</ele>
        <time>2022-12-27T09:19:24Z</time>
      </trkpt>
      <trkpt lat="48.41803" lon="7.08763">
        <ele>699.2</ele>
        <time>2022-12-27T09:19:27Z</time>
      </trkpt>
      <trkpt lat="48.41796" lon="7.08772">
        <ele>699.6</ele>
        <time>2022-12-27T09:19:33Z</time>
      </trkpt>
      <trkpt lat="48.41796" lon="7.08773">
        <ele>699.6</ele>
        <time>2022-12-27T09:19:34Z</time>
      </trkpt>
      <trkpt lat="48.41794" lon="7.08779">
        <ele>699.6</ele>
        <time>2022-12-27T09:19:37Z</time>
      </trkpt>
      <trkpt lat="48.41791" lon="7.08786">
        <ele>699.8</ele>
        <time>2022-12-27T09:19:40Z</time>
      </trkpt>
      <trkpt lat="48.41788" lon="7.08792">
        <ele>700.2</ele>
        <time>2022-12-27T09:19:44Z</time>
      </trkpt>
      <trkpt lat="48.41787" lon="7.08794">
        <ele>700.2</ele>
        <time>2022-12-27T09:19:46Z</time>
      </trkpt>
      <trkpt lat="48.41781" lon="7.08807">
        <ele>700.8</ele>
        <time>2022-12-27T09:19:52Z</time>
      </trkpt>
      <trkpt lat="48.41779" lon="7.08812">
        <ele>701</ele>
        <time>2022-12-27T09:19:53Z</time>
      </trkpt>
      <trkpt lat="48.41778" lon="7.08817">
        <ele>701.4</ele>
        <time>2022-12-27T09:19:56Z</time>
      </trkpt>
      <trkpt lat="48.41777" lon="7.08821">
        <ele>701.6</ele>
        <time>2022-12-27T09:19:58Z</time>
      </trkpt>
      <trkpt lat="48.41769" lon="7.08837">
        <ele>702.2</ele>
        <time>2022-12-27T09:20:06Z</time>
      </trkpt>
      <trkpt lat="48.41769" lon="7.08837">
        <ele>702.4</ele>
        <time>2022-12-27T09:20:07Z</time>
      </trkpt>
      <trkpt lat="48.41758" lon="7.08854">
        <ele>703.4</ele>
        <time>2022-12-27T09:20:17Z</time>
      </trkpt>
      <trkpt lat="48.41754" lon="7.0886">
        <ele>703.4</ele>
        <time>2022-12-27T09:20:19Z</time>
      </trkpt>
      <trkpt lat="48.4175" lon="7.0887">
        <ele>704</ele>
        <time>2022-12-27T09:20:23Z</time>
      </trkpt>
      <trkpt lat="48.41749" lon="7.08873">
        <ele>704.2</ele>
        <time>2022-12-27T09:20:24Z</time>
      </trkpt>
      <trkpt lat="48.41749" lon="7.0888">
        <ele>704.6</ele>
        <time>2022-12-27T09:20:26Z</time>
      </trkpt>
      <trkpt lat="48.4175" lon="7.08886">
        <ele>704.8</ele>
        <time>2022-12-27T09:20:28Z</time>
      </trkpt>
      <trkpt lat="48.4175" lon="7.08892">
        <ele>705</ele>
        <time>2022-12-27T09:20:30Z</time>
      </trkpt>
      <trkpt lat="48.41747" lon="7.08897">
        <ele>705.4</ele>
        <time>2022-12-27T09:20:34Z</time>
      </trkpt>
      <trkpt lat="48.41744" lon="7.08901">
        <ele>705.6</ele>
        <time>2022-12-27T09:20:36Z</time>
      </trkpt>
      <trkpt lat="48.41742" lon="7.08902">
        <ele>705.6</ele>
        <time>2022-12-27T09:20:37Z</time>
      </trkpt>
      <trkpt lat="48.4174" lon="7.08904">
        <ele>705.8</ele>
        <time>2022-12-27T09:20:39Z</time>
      </trkpt>
      <trkpt lat="48.41734" lon="7.08912">
        <ele>706.4</ele>
        <time>2022-12-27T09:20:44Z</time>
      </trkpt>
      <trkpt lat="48.41734" lon="7.08915">
        <ele>706.6</ele>
        <time>2022-12-27T09:20:46Z</time>
      </trkpt>
      <trkpt lat="48.4173" lon="7.08923">
        <ele>707</ele>
        <time>2022-12-27T09:20:50Z</time>
      </trkpt>
      <trkpt lat="48.41729" lon="7.08927">
        <ele>707.8</ele>
        <time>2022-12-27T09:20:53Z</time>
      </trkpt>
      <trkpt lat="48.41725" lon="7.08933">
        <ele>708.2</ele>
        <time>2022-12-27T09:20:56Z</time>
      </trkpt>
      <trkpt lat="48.41721" lon="7.08938">
        <ele>708.8</ele>
        <time>2022-12-27T09:20:59Z</time>
      </trkpt>
      <trkpt lat="48.41712" lon="7.08948">
        <ele>709.4</ele>
        <time>2022-12-27T09:21:03Z</time>
      </trkpt>
      <trkpt lat="48.41709" lon="7.08953">
        <ele>710</ele>
        <time>2022-12-27T09:21:09Z</time>
      </trkpt>
      <trkpt lat="48.41709" lon="7.08954">
        <ele>710</ele>
        <time>2022-12-27T09:21:10Z</time>
      </trkpt>
      <trkpt lat="48.41708" lon="7.08954">
        <ele>710.2</ele>
        <time>2022-12-27T09:21:11Z</time>
      </trkpt>
      <trkpt lat="48.41703" lon="7.08961">
        <ele>711</ele>
        <time>2022-12-27T09:21:16Z</time>
      </trkpt>
      <trkpt lat="48.41699" lon="7.08967">
        <ele>711.4</ele>
        <time>2022-12-27T09:21:19Z</time>
      </trkpt>
      <trkpt lat="48.41696" lon="7.08973">
        <ele>711.6</ele>
        <time>2022-12-27T09:21:22Z</time>
      </trkpt>
      <trkpt lat="48.41696" lon="7.08975">
        <ele>712.2</ele>
        <time>2022-12-27T09:21:25Z</time>
      </trkpt>
      <trkpt lat="48.41694" lon="7.08982">
        <ele>712.6</ele>
        <time>2022-12-27T09:21:29Z</time>
      </trkpt>
      <trkpt lat="48.41692" lon="7.08986">
        <ele>713</ele>
        <time>2022-12-27T09:21:31Z</time>
      </trkpt>
      <trkpt lat="48.41688" lon="7.08995">
        <ele>713.6</ele>
        <time>2022-12-27T09:21:36Z</time>
      </trkpt>
      <trkpt lat="48.41686" lon="7.09003">
        <ele>714</ele>
        <time>2022-12-27T09:21:39Z</time>
      </trkpt>
      <trkpt lat="48.41678" lon="7.09027">
        <ele>714.6</ele>
        <time>2022-12-27T09:21:44Z</time>
      </trkpt>
      <trkpt lat="48.41677" lon="7.09029">
        <ele>714.6</ele>
        <time>2022-12-27T09:21:45Z</time>
      </trkpt>
      <trkpt lat="48.41677" lon="7.09036">
        <ele>715</ele>
        <time>2022-12-27T09:21:50Z</time>
      </trkpt>
      <trkpt lat="48.41682" lon="7.09048">
        <ele>715.4</ele>
        <time>2022-12-27T09:21:54Z</time>
      </trkpt>
      <trkpt lat="48.41675" lon="7.09064">
        <ele>716</ele>
        <time>2022-12-27T09:22:01Z</time>
      </trkpt>
      <trkpt lat="48.41674" lon="7.09072">
        <ele>716.2</ele>
        <time>2022-12-27T09:22:03Z</time>
      </trkpt>
      <trkpt lat="48.41673" lon="7.09075">
        <ele>716.4</ele>
        <time>2022-12-27T09:22:05Z</time>
      </trkpt>
      <trkpt lat="48.41674" lon="7.09077">
        <ele>716.6</ele>
        <time>2022-12-27T09:22:06Z</time>
      </trkpt>
      <trkpt lat="48.41675" lon="7.09086">
        <ele>717</ele>
        <time>2022-12-27T09:22:10Z</time>
      </trkpt>
      <trkpt lat="48.41674" lon="7.0909">
        <ele>717</ele>
        <time>2022-12-27T09:22:11Z</time>
      </trkpt>
      <trkpt lat="48.41674" lon="7.091">
        <ele>717.4</ele>
        <time>2022-12-27T09:22:14Z</time>
      </trkpt>
      <trkpt lat="48.41676" lon="7.09106">
        <ele>717.6</ele>
        <time>2022-12-27T09:22:16Z</time>
      </trkpt>
      <trkpt lat="48.41677" lon="7.09114">
        <ele>718.2</ele>
        <time>2022-12-27T09:22:19Z</time>
      </trkpt>
      <trkpt lat="48.41674" lon="7.09121">
        <ele>718.6</ele>
        <time>2022-12-27T09:22:21Z</time>
      </trkpt>
      <trkpt lat="48.41674" lon="7.09123">
        <ele>718.6</ele>
        <time>2022-12-27T09:22:22Z</time>
      </trkpt>
      <trkpt lat="48.41677" lon="7.09131">
        <ele>719.2</ele>
        <time>2022-12-27T09:22:26Z</time>
      </trkpt>
      <trkpt lat="48.41677" lon="7.09133">
        <ele>719.4</ele>
        <time>2022-12-27T09:22:27Z</time>
      </trkpt>
      <trkpt lat="48.41677" lon="7.09135">
        <ele>719.4</ele>
        <time>2022-12-27T09:22:28Z</time>
      </trkpt>
      <trkpt lat="48.4168" lon="7.09143">
        <ele>719.8</ele>
        <time>2022-12-27T09:22:32Z</time>
      </trkpt>
      <trkpt lat="48.41681" lon="7.09144">
        <ele>720</ele>
        <time>2022-12-27T09:22:33Z</time>
      </trkpt>
      <trkpt lat="48.41684" lon="7.09147">
        <ele>720.2</ele>
        <time>2022-12-27T09:22:35Z</time>
      </trkpt>
      <trkpt lat="48.41685" lon="7.0915">
        <ele>720.4</ele>
        <time>2022-12-27T09:22:37Z</time>
      </trkpt>
      <trkpt lat="48.41692" lon="7.09163">
        <ele>721.2</ele>
        <time>2022-12-27T09:22:44Z</time>
      </trkpt>
      <trkpt lat="48.41693" lon="7.09164">
        <ele>721.4</ele>
        <time>2022-12-27T09:22:45Z</time>
      </trkpt>
      <trkpt lat="48.417" lon="7.09177">
        <ele>722.2</ele>
        <time>2022-12-27T09:22:52Z</time>
      </trkpt>
      <trkpt lat="48.41702" lon="7.09181">
        <ele>722.4</ele>
        <time>2022-12-27T09:22:54Z</time>
      </trkpt>
      <trkpt lat="48.41707" lon="7.09193">
        <ele>723.2</ele>
        <time>2022-12-27T09:23:00Z</time>
      </trkpt>
      <trkpt lat="48.41711" lon="7.09201">
        <ele>723.6</ele>
        <time>2022-12-27T09:23:04Z</time>
      </trkpt>
      <trkpt lat="48.41715" lon="7.09207">
        <ele>723.8</ele>
        <time>2022-12-27T09:23:07Z</time>
      </trkpt>
      <trkpt lat="48.41725" lon="7.09221">
        <ele>724.6</ele>
        <time>2022-12-27T09:23:14Z</time>
      </trkpt>
      <trkpt lat="48.41727" lon="7.09222">
        <ele>724.8</ele>
        <time>2022-12-27T09:23:15Z</time>
      </trkpt>
      <trkpt lat="48.41739" lon="7.09233">
        <ele>725.6</ele>
        <time>2022-12-27T09:23:23Z</time>
      </trkpt>
      <trkpt lat="48.41742" lon="7.09233">
        <ele>726.4</ele>
        <time>2022-12-27T09:23:26Z</time>
      </trkpt>
      <trkpt lat="48.41751" lon="7.0924">
        <ele>726.8</ele>
        <time>2022-12-27T09:23:31Z</time>
      </trkpt>
      <trkpt lat="48.41754" lon="7.09242">
        <ele>727</ele>
        <time>2022-12-27T09:23:33Z</time>
      </trkpt>
      <trkpt lat="48.41763" lon="7.0925">
        <ele>727.8</ele>
        <time>2022-12-27T09:23:39Z</time>
      </trkpt>
      <trkpt lat="48.41765" lon="7.09252">
        <ele>728</ele>
        <time>2022-12-27T09:23:40Z</time>
      </trkpt>
      <trkpt lat="48.4177" lon="7.0926">
        <ele>728.4</ele>
        <time>2022-12-27T09:23:45Z</time>
      </trkpt>
      <trkpt lat="48.41773" lon="7.09263">
        <ele>728.8</ele>
        <time>2022-12-27T09:23:47Z</time>
      </trkpt>
      <trkpt lat="48.41775" lon="7.09265">
        <ele>728.8</ele>
        <time>2022-12-27T09:23:48Z</time>
      </trkpt>
      <trkpt lat="48.41783" lon="7.09272">
        <ele>729.4</ele>
        <time>2022-12-27T09:23:53Z</time>
      </trkpt>
      <trkpt lat="48.41785" lon="7.09272">
        <ele>729.6</ele>
        <time>2022-12-27T09:23:54Z</time>
      </trkpt>
      <trkpt lat="48.41792" lon="7.09276">
        <ele>729.8</ele>
        <time>2022-12-27T09:23:58Z</time>
      </trkpt>
      <trkpt lat="48.41796" lon="7.09278">
        <ele>730.2</ele>
        <time>2022-12-27T09:24:00Z</time>
      </trkpt>
      <trkpt lat="48.41813" lon="7.09285">
        <ele>731</ele>
        <time>2022-12-27T09:24:08Z</time>
      </trkpt>
      <trkpt lat="48.41816" lon="7.09286">
        <ele>731.2</ele>
        <time>2022-12-27T09:24:09Z</time>
      </trkpt>
      <trkpt lat="48.41823" lon="7.09288">
        <ele>731.2</ele>
        <time>2022-12-27T09:24:14Z</time>
      </trkpt>
      <trkpt lat="48.41825" lon="7.09288">
        <ele>731.2</ele>
        <time>2022-12-27T09:24:15Z</time>
      </trkpt>
      <trkpt lat="48.41828" lon="7.09288">
        <ele>731.6</ele>
        <time>2022-12-27T09:24:17Z</time>
      </trkpt>
      <trkpt lat="48.41831" lon="7.09287">
        <ele>731.6</ele>
        <time>2022-12-27T09:24:19Z</time>
      </trkpt>
      <trkpt lat="48.41832" lon="7.09287">
        <ele>731.6</ele>
        <time>2022-12-27T09:24:20Z</time>
      </trkpt>
      <trkpt lat="48.41841" lon="7.09284">
        <ele>731</ele>
        <time>2022-12-27T09:24:25Z</time>
      </trkpt>
      <trkpt lat="48.41843" lon="7.09283">
        <ele>730.8</ele>
        <time>2022-12-27T09:24:26Z</time>
      </trkpt>
      <trkpt lat="48.41853" lon="7.09284">
        <ele>730.6</ele>
        <time>2022-12-27T09:24:30Z</time>
      </trkpt>
      <trkpt lat="48.41866" lon="7.09282">
        <ele>730.6</ele>
        <time>2022-12-27T09:24:34Z</time>
      </trkpt>
      <trkpt lat="48.41871" lon="7.09284">
        <ele>730.8</ele>
        <time>2022-12-27T09:24:35Z</time>
      </trkpt>
      <trkpt lat="48.41876" lon="7.09283">
        <ele>730.6</ele>
        <time>2022-12-27T09:24:36Z</time>
      </trkpt>
      <trkpt lat="48.41892" lon="7.09282">
        <ele>730.4</ele>
        <time>2022-12-27T09:24:39Z</time>
      </trkpt>
      <trkpt lat="48.41898" lon="7.09283">
        <ele>729.8</ele>
        <time>2022-12-27T09:24:40Z</time>
      </trkpt>
      <trkpt lat="48.41911" lon="7.09282">
        <ele>729</ele>
        <time>2022-12-27T09:24:42Z</time>
      </trkpt>
      <trkpt lat="48.41917" lon="7.09281">
        <ele>728.6</ele>
        <time>2022-12-27T09:24:43Z</time>
      </trkpt>
      <trkpt lat="48.41928" lon="7.0928">
        <ele>727.8</ele>
        <time>2022-12-27T09:24:45Z</time>
      </trkpt>
      <trkpt lat="48.41935" lon="7.09279">
        <ele>727.4</ele>
        <time>2022-12-27T09:24:46Z</time>
      </trkpt>
      <trkpt lat="48.41954" lon="7.0928">
        <ele>726.8</ele>
        <time>2022-12-27T09:24:49Z</time>
      </trkpt>
      <trkpt lat="48.41961" lon="7.0928">
        <ele>726.4</ele>
        <time>2022-12-27T09:24:50Z</time>
      </trkpt>
      <trkpt lat="48.41977" lon="7.09281">
        <ele>725.2</ele>
        <time>2022-12-27T09:24:52Z</time>
      </trkpt>
      <trkpt lat="48.41998" lon="7.09281">
        <ele>724.2</ele>
        <time>2022-12-27T09:24:55Z</time>
      </trkpt>
      <trkpt lat="48.42007" lon="7.0928">
        <ele>723.4</ele>
        <time>2022-12-27T09:24:56Z</time>
      </trkpt>
      <trkpt lat="48.42015" lon="7.09279">
        <ele>723.4</ele>
        <time>2022-12-27T09:24:57Z</time>
      </trkpt>
      <trkpt lat="48.42022" lon="7.09279">
        <ele>722.8</ele>
        <time>2022-12-27T09:24:58Z</time>
      </trkpt>
      <trkpt lat="48.42028" lon="7.09279">
        <ele>722.6</ele>
        <time>2022-12-27T09:24:59Z</time>
      </trkpt>
      <trkpt lat="48.42035" lon="7.09276">
        <ele>722.2</ele>
        <time>2022-12-27T09:25:00Z</time>
      </trkpt>
      <trkpt lat="48.42049" lon="7.09268">
        <ele>721.6</ele>
        <time>2022-12-27T09:25:02Z</time>
      </trkpt>
      <trkpt lat="48.42055" lon="7.09263">
        <ele>721.2</ele>
        <time>2022-12-27T09:25:03Z</time>
      </trkpt>
      <trkpt lat="48.4206" lon="7.09258">
        <ele>720.4</ele>
        <time>2022-12-27T09:25:04Z</time>
      </trkpt>
      <trkpt lat="48.42066" lon="7.09252">
        <ele>720.2</ele>
        <time>2022-12-27T09:25:05Z</time>
      </trkpt>
      <trkpt lat="48.42072" lon="7.09247">
        <ele>719.8</ele>
        <time>2022-12-27T09:25:06Z</time>
      </trkpt>
      <trkpt lat="48.42087" lon="7.09237">
        <ele>719.2</ele>
        <time>2022-12-27T09:25:08Z</time>
      </trkpt>
      <trkpt lat="48.42093" lon="7.09236">
        <ele>718.6</ele>
        <time>2022-12-27T09:25:09Z</time>
      </trkpt>
      <trkpt lat="48.42103" lon="7.09232">
        <ele>718.2</ele>
        <time>2022-12-27T09:25:10Z</time>
      </trkpt>
      <trkpt lat="48.42109" lon="7.09228">
        <ele>717.4</ele>
        <time>2022-12-27T09:25:11Z</time>
      </trkpt>
      <trkpt lat="48.42115" lon="7.09224">
        <ele>717</ele>
        <time>2022-12-27T09:25:12Z</time>
      </trkpt>
      <trkpt lat="48.4213" lon="7.09213">
        <ele>715.8</ele>
        <time>2022-12-27T09:25:15Z</time>
      </trkpt>
      <trkpt lat="48.42136" lon="7.09211">
        <ele>715.6</ele>
        <time>2022-12-27T09:25:16Z</time>
      </trkpt>
      <trkpt lat="48.42149" lon="7.09209">
        <ele>714.6</ele>
        <time>2022-12-27T09:25:18Z</time>
      </trkpt>
      <trkpt lat="48.42163" lon="7.09208">
        <ele>713.6</ele>
        <time>2022-12-27T09:25:20Z</time>
      </trkpt>
      <trkpt lat="48.4217" lon="7.09208">
        <ele>713</ele>
        <time>2022-12-27T09:25:21Z</time>
      </trkpt>
      <trkpt lat="48.42183" lon="7.09208">
        <ele>711.8</ele>
        <time>2022-12-27T09:25:23Z</time>
      </trkpt>
      <trkpt lat="48.42207" lon="7.09209">
        <ele>710.6</ele>
        <time>2022-12-27T09:25:26Z</time>
      </trkpt>
      <trkpt lat="48.42214" lon="7.09209">
        <ele>710</ele>
        <time>2022-12-27T09:25:27Z</time>
      </trkpt>
      <trkpt lat="48.42229" lon="7.09209">
        <ele>709.4</ele>
        <time>2022-12-27T09:25:29Z</time>
      </trkpt>
      <trkpt lat="48.42244" lon="7.0921">
        <ele>707.8</ele>
        <time>2022-12-27T09:25:31Z</time>
      </trkpt>
      <trkpt lat="48.42259" lon="7.09208">
        <ele>707</ele>
        <time>2022-12-27T09:25:33Z</time>
      </trkpt>
      <trkpt lat="48.42267" lon="7.09205">
        <ele>706.8</ele>
        <time>2022-12-27T09:25:34Z</time>
      </trkpt>
      <trkpt lat="48.42275" lon="7.09201">
        <ele>706.4</ele>
        <time>2022-12-27T09:25:35Z</time>
      </trkpt>
      <trkpt lat="48.42282" lon="7.09197">
        <ele>706</ele>
        <time>2022-12-27T09:25:36Z</time>
      </trkpt>
      <trkpt lat="48.4229" lon="7.09191">
        <ele>705.6</ele>
        <time>2022-12-27T09:25:37Z</time>
      </trkpt>
      <trkpt lat="48.42297" lon="7.09185">
        <ele>705</ele>
        <time>2022-12-27T09:25:38Z</time>
      </trkpt>
      <trkpt lat="48.42318" lon="7.09167">
        <ele>703.6</ele>
        <time>2022-12-27T09:25:41Z</time>
      </trkpt>
      <trkpt lat="48.42332" lon="7.09156">
        <ele>703</ele>
        <time>2022-12-27T09:25:43Z</time>
      </trkpt>
      <trkpt lat="48.42344" lon="7.09144">
        <ele>702.4</ele>
        <time>2022-12-27T09:25:45Z</time>
      </trkpt>
      <trkpt lat="48.4235" lon="7.09139">
        <ele>702.2</ele>
        <time>2022-12-27T09:25:46Z</time>
      </trkpt>
      <trkpt lat="48.42362" lon="7.09125">
        <ele>701.4</ele>
        <time>2022-12-27T09:25:48Z</time>
      </trkpt>
      <trkpt lat="48.42369" lon="7.09119">
        <ele>700.4</ele>
        <time>2022-12-27T09:25:49Z</time>
      </trkpt>
      <trkpt lat="48.42383" lon="7.09105">
        <ele>699.4</ele>
        <time>2022-12-27T09:25:51Z</time>
      </trkpt>
      <trkpt lat="48.4239" lon="7.091">
        <ele>699.2</ele>
        <time>2022-12-27T09:25:52Z</time>
      </trkpt>
      <trkpt lat="48.42398" lon="7.09095">
        <ele>698.2</ele>
        <time>2022-12-27T09:25:53Z</time>
      </trkpt>
      <trkpt lat="48.42407" lon="7.09091">
        <ele>697.6</ele>
        <time>2022-12-27T09:25:54Z</time>
      </trkpt>
      <trkpt lat="48.42425" lon="7.09082">
        <ele>696.2</ele>
        <time>2022-12-27T09:25:56Z</time>
      </trkpt>
      <trkpt lat="48.42433" lon="7.09076">
        <ele>695.4</ele>
        <time>2022-12-27T09:25:57Z</time>
      </trkpt>
      <trkpt lat="48.42442" lon="7.09069">
        <ele>695.2</ele>
        <time>2022-12-27T09:25:58Z</time>
      </trkpt>
      <trkpt lat="48.4245" lon="7.09061">
        <ele>694.6</ele>
        <time>2022-12-27T09:25:59Z</time>
      </trkpt>
      <trkpt lat="48.42466" lon="7.09047">
        <ele>693</ele>
        <time>2022-12-27T09:26:01Z</time>
      </trkpt>
      <trkpt lat="48.42475" lon="7.09042">
        <ele>692.6</ele>
        <time>2022-12-27T09:26:02Z</time>
      </trkpt>
      <trkpt lat="48.42484" lon="7.09038">
        <ele>691.6</ele>
        <time>2022-12-27T09:26:03Z</time>
      </trkpt>
      <trkpt lat="48.42492" lon="7.09033">
        <ele>691</ele>
        <time>2022-12-27T09:26:04Z</time>
      </trkpt>
      <trkpt lat="48.42499" lon="7.09027">
        <ele>690</ele>
        <time>2022-12-27T09:26:05Z</time>
      </trkpt>
      <trkpt lat="48.42506" lon="7.09019">
        <ele>689.8</ele>
        <time>2022-12-27T09:26:06Z</time>
      </trkpt>
      <trkpt lat="48.42516" lon="7.09002">
        <ele>689.2</ele>
        <time>2022-12-27T09:26:08Z</time>
      </trkpt>
      <trkpt lat="48.42522" lon="7.08983">
        <ele>689</ele>
        <time>2022-12-27T09:26:10Z</time>
      </trkpt>
      <trkpt lat="48.42526" lon="7.08965">
        <ele>689</ele>
        <time>2022-12-27T09:26:12Z</time>
      </trkpt>
      <trkpt lat="48.4253" lon="7.08943">
        <ele>688.8</ele>
        <time>2022-12-27T09:26:15Z</time>
      </trkpt>
      <trkpt lat="48.42538" lon="7.08913">
        <ele>688.6</ele>
        <time>2022-12-27T09:26:20Z</time>
      </trkpt>
      <trkpt lat="48.42544" lon="7.08881">
        <ele>688.8</ele>
        <time>2022-12-27T09:26:26Z</time>
      </trkpt>
      <trkpt lat="48.42545" lon="7.08876">
        <ele>688.8</ele>
        <time>2022-12-27T09:26:27Z</time>
      </trkpt>
      <trkpt lat="48.42548" lon="7.08862">
        <ele>689</ele>
        <time>2022-12-27T09:26:30Z</time>
      </trkpt>
      <trkpt lat="48.42552" lon="7.08848">
        <ele>689.2</ele>
        <time>2022-12-27T09:26:33Z</time>
      </trkpt>
      <trkpt lat="48.42558" lon="7.08826">
        <ele>689.2</ele>
        <time>2022-12-27T09:26:39Z</time>
      </trkpt>
      <trkpt lat="48.4256" lon="7.08793">
        <ele>689.2</ele>
        <time>2022-12-27T09:26:46Z</time>
      </trkpt>
      <trkpt lat="48.42555" lon="7.08779">
        <ele>689.2</ele>
        <time>2022-12-27T09:26:50Z</time>
      </trkpt>
      <trkpt lat="48.42547" lon="7.08757">
        <ele>689</ele>
        <time>2022-12-27T09:26:55Z</time>
      </trkpt>
      <trkpt lat="48.42542" lon="7.08749">
        <ele>689</ele>
        <time>2022-12-27T09:26:57Z</time>
      </trkpt>
      <trkpt lat="48.42536" lon="7.08727">
        <ele>688.8</ele>
        <time>2022-12-27T09:27:01Z</time>
      </trkpt>
      <trkpt lat="48.42534" lon="7.08721">
        <ele>688.8</ele>
        <time>2022-12-27T09:27:02Z</time>
      </trkpt>
      <trkpt lat="48.42532" lon="7.08714">
        <ele>688.8</ele>
        <time>2022-12-27T09:27:03Z</time>
      </trkpt>
      <trkpt lat="48.4252" lon="7.08692">
        <ele>688.2</ele>
        <time>2022-12-27T09:27:07Z</time>
      </trkpt>
      <trkpt lat="48.42514" lon="7.08677">
        <ele>687.8</ele>
        <time>2022-12-27T09:27:09Z</time>
      </trkpt>
      <trkpt lat="48.42507" lon="7.08659">
        <ele>687.2</ele>
        <time>2022-12-27T09:27:11Z</time>
      </trkpt>
      <trkpt lat="48.42506" lon="7.08649">
        <ele>686.6</ele>
        <time>2022-12-27T09:27:12Z</time>
      </trkpt>
      <trkpt lat="48.42505" lon="7.0864">
        <ele>686.4</ele>
        <time>2022-12-27T09:27:13Z</time>
      </trkpt>
      <trkpt lat="48.42504" lon="7.08632">
        <ele>685.4</ele>
        <time>2022-12-27T09:27:14Z</time>
      </trkpt>
      <trkpt lat="48.42503" lon="7.08625">
        <ele>684.8</ele>
        <time>2022-12-27T09:27:15Z</time>
      </trkpt>
      <trkpt lat="48.42502" lon="7.08618">
        <ele>684.4</ele>
        <time>2022-12-27T09:27:16Z</time>
      </trkpt>
      <trkpt lat="48.42502" lon="7.086">
        <ele>683.2</ele>
        <time>2022-12-27T09:27:19Z</time>
      </trkpt>
      <trkpt lat="48.42504" lon="7.08595">
        <ele>682</ele>
        <time>2022-12-27T09:27:20Z</time>
      </trkpt>
      <trkpt lat="48.42504" lon="7.08586">
        <ele>681</ele>
        <time>2022-12-27T09:27:22Z</time>
      </trkpt>
      <trkpt lat="48.42503" lon="7.0858">
        <ele>680.6</ele>
        <time>2022-12-27T09:27:23Z</time>
      </trkpt>
      <trkpt lat="48.42503" lon="7.08573">
        <ele>679.8</ele>
        <time>2022-12-27T09:27:24Z</time>
      </trkpt>
      <trkpt lat="48.42503" lon="7.08547">
        <ele>678.6</ele>
        <time>2022-12-27T09:27:27Z</time>
      </trkpt>
      <trkpt lat="48.42506" lon="7.0854">
        <ele>678.2</ele>
        <time>2022-12-27T09:27:28Z</time>
      </trkpt>
      <trkpt lat="48.42512" lon="7.08521">
        <ele>677.4</ele>
        <time>2022-12-27T09:27:30Z</time>
      </trkpt>
      <trkpt lat="48.42513" lon="7.08512">
        <ele>677.2</ele>
        <time>2022-12-27T09:27:31Z</time>
      </trkpt>
      <trkpt lat="48.42513" lon="7.08498">
        <ele>676.4</ele>
        <time>2022-12-27T09:27:33Z</time>
      </trkpt>
      <trkpt lat="48.42513" lon="7.08493">
        <ele>675.8</ele>
        <time>2022-12-27T09:27:34Z</time>
      </trkpt>
      <trkpt lat="48.42512" lon="7.08486">
        <ele>675.4</ele>
        <time>2022-12-27T09:27:37Z</time>
      </trkpt>
      <trkpt lat="48.42512" lon="7.08486">
        <ele>675.2</ele>
        <time>2022-12-27T09:27:39Z</time>
      </trkpt>
      <trkpt lat="48.42512" lon="7.08486">
        <ele>675.8</ele>
        <time>2022-12-27T09:27:47Z</time>
      </trkpt>
      <trkpt lat="48.42512" lon="7.08486">
        <ele>675.6</ele>
        <time>2022-12-27T09:28:01Z</time>
      </trkpt>
      <trkpt lat="48.42512" lon="7.08486">
        <ele>675.2</ele>
        <time>2022-12-27T09:28:11Z</time>
      </trkpt>
      <trkpt lat="48.42513" lon="7.0848">
        <ele>675.2</ele>
        <time>2022-12-27T09:28:18Z</time>
      </trkpt>
      <trkpt lat="48.42514" lon="7.08468">
        <ele>675.4</ele>
        <time>2022-12-27T09:28:23Z</time>
      </trkpt>
      <trkpt lat="48.42514" lon="7.08465">
        <ele>675.4</ele>
        <time>2022-12-27T09:28:25Z</time>
      </trkpt>
      <trkpt lat="48.42514" lon="7.0846">
        <ele>676</ele>
        <time>2022-12-27T09:28:30Z</time>
      </trkpt>
      <trkpt lat="48.42515" lon="7.08456">
        <ele>676.2</ele>
        <time>2022-12-27T09:28:32Z</time>
      </trkpt>
      <trkpt lat="48.42517" lon="7.0845">
        <ele>676.4</ele>
        <time>2022-12-27T09:28:35Z</time>
      </trkpt>
      <trkpt lat="48.42518" lon="7.08446">
        <ele>676.4</ele>
        <time>2022-12-27T09:28:37Z</time>
      </trkpt>
      <trkpt lat="48.4252" lon="7.08438">
        <ele>677</ele>
        <time>2022-12-27T09:28:41Z</time>
      </trkpt>
      <trkpt lat="48.42522" lon="7.08436">
        <ele>677.2</ele>
        <time>2022-12-27T09:28:43Z</time>
      </trkpt>
      <trkpt lat="48.42524" lon="7.08427">
        <ele>677.8</ele>
        <time>2022-12-27T09:28:48Z</time>
      </trkpt>
      <trkpt lat="48.42525" lon="7.08425">
        <ele>678</ele>
        <time>2022-12-27T09:28:49Z</time>
      </trkpt>
      <trkpt lat="48.42525" lon="7.08423">
        <ele>678.2</ele>
        <time>2022-12-27T09:28:50Z</time>
      </trkpt>
      <trkpt lat="48.42525" lon="7.08422">
        <ele>678.4</ele>
        <time>2022-12-27T09:28:51Z</time>
      </trkpt>
      <trkpt lat="48.42527" lon="7.08416">
        <ele>679</ele>
        <time>2022-12-27T09:28:55Z</time>
      </trkpt>
      <trkpt lat="48.42527" lon="7.08414">
        <ele>679.2</ele>
        <time>2022-12-27T09:28:56Z</time>
      </trkpt>
      <trkpt lat="48.42529" lon="7.08406">
        <ele>679.4</ele>
        <time>2022-12-27T09:29:00Z</time>
      </trkpt>
      <trkpt lat="48.42532" lon="7.08399">
        <ele>680.2</ele>
        <time>2022-12-27T09:29:04Z</time>
      </trkpt>
      <trkpt lat="48.42534" lon="7.08394">
        <ele>680.8</ele>
        <time>2022-12-27T09:29:08Z</time>
      </trkpt>
      <trkpt lat="48.42536" lon="7.08388">
        <ele>681.4</ele>
        <time>2022-12-27T09:29:13Z</time>
      </trkpt>
      <trkpt lat="48.42537" lon="7.08386">
        <ele>681.6</ele>
        <time>2022-12-27T09:29:15Z</time>
      </trkpt>
      <trkpt lat="48.42541" lon="7.08379">
        <ele>682.4</ele>
        <time>2022-12-27T09:29:19Z</time>
      </trkpt>
      <trkpt lat="48.42545" lon="7.08372">
        <ele>683.2</ele>
        <time>2022-12-27T09:29:23Z</time>
      </trkpt>
      <trkpt lat="48.42545" lon="7.08371">
        <ele>683.2</ele>
        <time>2022-12-27T09:29:24Z</time>
      </trkpt>
      <trkpt lat="48.42548" lon="7.08366">
        <ele>683.6</ele>
        <time>2022-12-27T09:29:27Z</time>
      </trkpt>
      <trkpt lat="48.42549" lon="7.08363">
        <ele>684</ele>
        <time>2022-12-27T09:29:30Z</time>
      </trkpt>
      <trkpt lat="48.42549" lon="7.08361">
        <ele>684.2</ele>
        <time>2022-12-27T09:29:31Z</time>
      </trkpt>
      <trkpt lat="48.4255" lon="7.08358">
        <ele>684.4</ele>
        <time>2022-12-27T09:29:33Z</time>
      </trkpt>
      <trkpt lat="48.42551" lon="7.08355">
        <ele>684.4</ele>
        <time>2022-12-27T09:29:35Z</time>
      </trkpt>
      <trkpt lat="48.42553" lon="7.08351">
        <ele>684.8</ele>
        <time>2022-12-27T09:29:37Z</time>
      </trkpt>
      <trkpt lat="48.42554" lon="7.08345">
        <ele>685</ele>
        <time>2022-12-27T09:29:40Z</time>
      </trkpt>
      <trkpt lat="48.42557" lon="7.08342">
        <ele>685.4</ele>
        <time>2022-12-27T09:29:42Z</time>
      </trkpt>
      <trkpt lat="48.42559" lon="7.08337">
        <ele>685.8</ele>
        <time>2022-12-27T09:29:45Z</time>
      </trkpt>
      <trkpt lat="48.42562" lon="7.08332">
        <ele>686</ele>
        <time>2022-12-27T09:29:48Z</time>
      </trkpt>
      <trkpt lat="48.42563" lon="7.08331">
        <ele>686.2</ele>
        <time>2022-12-27T09:29:49Z</time>
      </trkpt>
      <trkpt lat="48.42564" lon="7.08324">
        <ele>687</ele>
        <time>2022-12-27T09:29:53Z</time>
      </trkpt>
      <trkpt lat="48.42567" lon="7.08318">
        <ele>687.8</ele>
        <time>2022-12-27T09:29:57Z</time>
      </trkpt>
      <trkpt lat="48.42568" lon="7.08316">
        <ele>688</ele>
        <time>2022-12-27T09:29:58Z</time>
      </trkpt>
      <trkpt lat="48.42569" lon="7.08313">
        <ele>688</ele>
        <time>2022-12-27T09:30:00Z</time>
      </trkpt>
      <trkpt lat="48.42569" lon="7.0831">
        <ele>688.4</ele>
        <time>2022-12-27T09:30:02Z</time>
      </trkpt>
      <trkpt lat="48.42575" lon="7.08301">
        <ele>689</ele>
        <time>2022-12-27T09:30:09Z</time>
      </trkpt>
      <trkpt lat="48.42576" lon="7.08298">
        <ele>689.2</ele>
        <time>2022-12-27T09:30:11Z</time>
      </trkpt>
      <trkpt lat="48.42579" lon="7.08291">
        <ele>689.4</ele>
        <time>2022-12-27T09:30:14Z</time>
      </trkpt>
      <trkpt lat="48.4258" lon="7.08289">
        <ele>689.4</ele>
        <time>2022-12-27T09:30:15Z</time>
      </trkpt>
      <trkpt lat="48.42583" lon="7.08284">
        <ele>690</ele>
        <time>2022-12-27T09:30:17Z</time>
      </trkpt>
      <trkpt lat="48.42584" lon="7.08282">
        <ele>690</ele>
        <time>2022-12-27T09:30:18Z</time>
      </trkpt>
      <trkpt lat="48.42585" lon="7.08281">
        <ele>690.2</ele>
        <time>2022-12-27T09:30:19Z</time>
      </trkpt>
      <trkpt lat="48.42587" lon="7.0828">
        <ele>690.2</ele>
        <time>2022-12-27T09:30:20Z</time>
      </trkpt>
      <trkpt lat="48.42588" lon="7.08279">
        <ele>690.2</ele>
        <time>2022-12-27T09:30:21Z</time>
      </trkpt>
      <trkpt lat="48.42589" lon="7.08274">
        <ele>690.4</ele>
        <time>2022-12-27T09:30:23Z</time>
      </trkpt>
      <trkpt lat="48.42589" lon="7.0827">
        <ele>690.6</ele>
        <time>2022-12-27T09:30:25Z</time>
      </trkpt>
      <trkpt lat="48.42592" lon="7.08265">
        <ele>690.8</ele>
        <time>2022-12-27T09:30:28Z</time>
      </trkpt>
      <trkpt lat="48.42594" lon="7.08261">
        <ele>691.4</ele>
        <time>2022-12-27T09:30:31Z</time>
      </trkpt>
      <trkpt lat="48.42595" lon="7.0826">
        <ele>691.6</ele>
        <time>2022-12-27T09:30:32Z</time>
      </trkpt>
      <trkpt lat="48.42597" lon="7.08257">
        <ele>691.8</ele>
        <time>2022-12-27T09:30:34Z</time>
      </trkpt>
      <trkpt lat="48.42599" lon="7.08255">
        <ele>692.2</ele>
        <time>2022-12-27T09:30:37Z</time>
      </trkpt>
      <trkpt lat="48.42601" lon="7.08249">
        <ele>692.6</ele>
        <time>2022-12-27T09:30:41Z</time>
      </trkpt>
      <trkpt lat="48.42605" lon="7.08241">
        <ele>693.4</ele>
        <time>2022-12-27T09:30:45Z</time>
      </trkpt>
      <trkpt lat="48.42606" lon="7.0824">
        <ele>693.4</ele>
        <time>2022-12-27T09:30:46Z</time>
      </trkpt>
      <trkpt lat="48.42608" lon="7.08236">
        <ele>693.6</ele>
        <time>2022-12-27T09:30:49Z</time>
      </trkpt>
      <trkpt lat="48.42609" lon="7.08234">
        <ele>694</ele>
        <time>2022-12-27T09:30:51Z</time>
      </trkpt>
      <trkpt lat="48.42616" lon="7.0822">
        <ele>694.8</ele>
        <time>2022-12-27T09:30:59Z</time>
      </trkpt>
      <trkpt lat="48.4262" lon="7.08213">
        <ele>695.2</ele>
        <time>2022-12-27T09:31:03Z</time>
      </trkpt>
      <trkpt lat="48.42621" lon="7.08209">
        <ele>695.4</ele>
        <time>2022-12-27T09:31:05Z</time>
      </trkpt>
      <trkpt lat="48.42623" lon="7.08206">
        <ele>695.6</ele>
        <time>2022-12-27T09:31:07Z</time>
      </trkpt>
      <trkpt lat="48.42625" lon="7.08202">
        <ele>695.8</ele>
        <time>2022-12-27T09:31:09Z</time>
      </trkpt>
      <trkpt lat="48.42625" lon="7.082">
        <ele>696</ele>
        <time>2022-12-27T09:31:10Z</time>
      </trkpt>
      <trkpt lat="48.42628" lon="7.08193">
        <ele>696.2</ele>
        <time>2022-12-27T09:31:14Z</time>
      </trkpt>
      <trkpt lat="48.42631" lon="7.08186">
        <ele>697</ele>
        <time>2022-12-27T09:31:18Z</time>
      </trkpt>
      <trkpt lat="48.42632" lon="7.08183">
        <ele>697.2</ele>
        <time>2022-12-27T09:31:20Z</time>
      </trkpt>
      <trkpt lat="48.42634" lon="7.08178">
        <ele>697.6</ele>
        <time>2022-12-27T09:31:23Z</time>
      </trkpt>
      <trkpt lat="48.42635" lon="7.08174">
        <ele>698</ele>
        <time>2022-12-27T09:31:26Z</time>
      </trkpt>
      <trkpt lat="48.42638" lon="7.0817">
        <ele>698.6</ele>
        <time>2022-12-27T09:31:29Z</time>
      </trkpt>
      <trkpt lat="48.42642" lon="7.08159">
        <ele>699.2</ele>
        <time>2022-12-27T09:31:35Z</time>
      </trkpt>
      <trkpt lat="48.42644" lon="7.08154">
        <ele>699.4</ele>
        <time>2022-12-27T09:31:38Z</time>
      </trkpt>
      <trkpt lat="48.42649" lon="7.0814">
        <ele>700.4</ele>
        <time>2022-12-27T09:31:46Z</time>
      </trkpt>
      <trkpt lat="48.42655" lon="7.08127">
        <ele>701</ele>
        <time>2022-12-27T09:31:53Z</time>
      </trkpt>
      <trkpt lat="48.42655" lon="7.08125">
        <ele>701.2</ele>
        <time>2022-12-27T09:31:54Z</time>
      </trkpt>
      <trkpt lat="48.42657" lon="7.0812">
        <ele>701.2</ele>
        <time>2022-12-27T09:31:57Z</time>
      </trkpt>
      <trkpt lat="48.42658" lon="7.08118">
        <ele>701.4</ele>
        <time>2022-12-27T09:31:58Z</time>
      </trkpt>
      <trkpt lat="48.42659" lon="7.08116">
        <ele>701.4</ele>
        <time>2022-12-27T09:31:59Z</time>
      </trkpt>
      <trkpt lat="48.42664" lon="7.08105">
        <ele>702.2</ele>
        <time>2022-12-27T09:32:07Z</time>
      </trkpt>
      <trkpt lat="48.42665" lon="7.08103">
        <ele>702.2</ele>
        <time>2022-12-27T09:32:08Z</time>
      </trkpt>
      <trkpt lat="48.42667" lon="7.08102">
        <ele>702.4</ele>
        <time>2022-12-27T09:32:10Z</time>
      </trkpt>
      <trkpt lat="48.42672" lon="7.08098">
        <ele>703.2</ele>
        <time>2022-12-27T09:32:15Z</time>
      </trkpt>
      <trkpt lat="48.42675" lon="7.08095">
        <ele>703.6</ele>
        <time>2022-12-27T09:32:18Z</time>
      </trkpt>
      <trkpt lat="48.42679" lon="7.08089">
        <ele>703.8</ele>
        <time>2022-12-27T09:32:21Z</time>
      </trkpt>
      <trkpt lat="48.42687" lon="7.08085">
        <ele>704.6</ele>
        <time>2022-12-27T09:32:27Z</time>
      </trkpt>
      <trkpt lat="48.42688" lon="7.08084">
        <ele>704.6</ele>
        <time>2022-12-27T09:32:28Z</time>
      </trkpt>
      <trkpt lat="48.4269" lon="7.08082">
        <ele>704.8</ele>
        <time>2022-12-27T09:32:30Z</time>
      </trkpt>
      <trkpt lat="48.42693" lon="7.0808">
        <ele>705</ele>
        <time>2022-12-27T09:32:33Z</time>
      </trkpt>
      <trkpt lat="48.42699" lon="7.08077">
        <ele>705.6</ele>
        <time>2022-12-27T09:32:37Z</time>
      </trkpt>
      <trkpt lat="48.42706" lon="7.08074">
        <ele>706</ele>
        <time>2022-12-27T09:32:41Z</time>
      </trkpt>
      <trkpt lat="48.42707" lon="7.08074">
        <ele>706</ele>
        <time>2022-12-27T09:32:42Z</time>
      </trkpt>
      <trkpt lat="48.42714" lon="7.08073">
        <ele>706.6</ele>
        <time>2022-12-27T09:32:46Z</time>
      </trkpt>
      <trkpt lat="48.42717" lon="7.08072">
        <ele>706.6</ele>
        <time>2022-12-27T09:32:47Z</time>
      </trkpt>
      <trkpt lat="48.4272" lon="7.08073">
        <ele>707</ele>
        <time>2022-12-27T09:32:50Z</time>
      </trkpt>
      <trkpt lat="48.42723" lon="7.08072">
        <ele>707.2</ele>
        <time>2022-12-27T09:32:52Z</time>
      </trkpt>
      <trkpt lat="48.42731" lon="7.08069">
        <ele>707.4</ele>
        <time>2022-12-27T09:32:57Z</time>
      </trkpt>
      <trkpt lat="48.42734" lon="7.08066">
        <ele>707.8</ele>
        <time>2022-12-27T09:32:59Z</time>
      </trkpt>
      <trkpt lat="48.42736" lon="7.08064">
        <ele>708</ele>
        <time>2022-12-27T09:33:00Z</time>
      </trkpt>
      <trkpt lat="48.42743" lon="7.08063">
        <ele>708.4</ele>
        <time>2022-12-27T09:33:04Z</time>
      </trkpt>
      <trkpt lat="48.42745" lon="7.08063">
        <ele>708.4</ele>
        <time>2022-12-27T09:33:05Z</time>
      </trkpt>
      <trkpt lat="48.42752" lon="7.0806">
        <ele>709</ele>
        <time>2022-12-27T09:33:11Z</time>
      </trkpt>
      <trkpt lat="48.42755" lon="7.08058">
        <ele>709.2</ele>
        <time>2022-12-27T09:33:13Z</time>
      </trkpt>
      <trkpt lat="48.42768" lon="7.08051">
        <ele>710</ele>
        <time>2022-12-27T09:33:22Z</time>
      </trkpt>
      <trkpt lat="48.42779" lon="7.08051">
        <ele>711.2</ele>
        <time>2022-12-27T09:33:31Z</time>
      </trkpt>
      <trkpt lat="48.42782" lon="7.08051">
        <ele>711.4</ele>
        <time>2022-12-27T09:33:33Z</time>
      </trkpt>
      <trkpt lat="48.42796" lon="7.08057">
        <ele>712</ele>
        <time>2022-12-27T09:33:42Z</time>
      </trkpt>
      <trkpt lat="48.42801" lon="7.08059">
        <ele>712.2</ele>
        <time>2022-12-27T09:33:45Z</time>
      </trkpt>
      <trkpt lat="48.42812" lon="7.08066">
        <ele>712.8</ele>
        <time>2022-12-27T09:33:51Z</time>
      </trkpt>
      <trkpt lat="48.42836" lon="7.08084">
        <ele>713</ele>
        <time>2022-12-27T09:34:01Z</time>
      </trkpt>
      <trkpt lat="48.42849" lon="7.08097">
        <ele>713.2</ele>
        <time>2022-12-27T09:34:07Z</time>
      </trkpt>
      <trkpt lat="48.42865" lon="7.08113">
        <ele>713.6</ele>
        <time>2022-12-27T09:34:13Z</time>
      </trkpt>
      <trkpt lat="48.4287" lon="7.08119">
        <ele>713.8</ele>
        <time>2022-12-27T09:34:15Z</time>
      </trkpt>
      <trkpt lat="48.42877" lon="7.08131">
        <ele>713.8</ele>
        <time>2022-12-27T09:34:18Z</time>
      </trkpt>
      <trkpt lat="48.4289" lon="7.08151">
        <ele>713.8</ele>
        <time>2022-12-27T09:34:23Z</time>
      </trkpt>
      <trkpt lat="48.42901" lon="7.08172">
        <ele>713.8</ele>
        <time>2022-12-27T09:34:28Z</time>
      </trkpt>
      <trkpt lat="48.42916" lon="7.08199">
        <ele>713.8</ele>
        <time>2022-12-27T09:34:34Z</time>
      </trkpt>
      <trkpt lat="48.42929" lon="7.08219">
        <ele>714</ele>
        <time>2022-12-27T09:34:40Z</time>
      </trkpt>
      <trkpt lat="48.42936" lon="7.08245">
        <ele>714.4</ele>
        <time>2022-12-27T09:34:46Z</time>
      </trkpt>
      <trkpt lat="48.42943" lon="7.08253">
        <ele>714.6</ele>
        <time>2022-12-27T09:34:49Z</time>
      </trkpt>
      <trkpt lat="48.42946" lon="7.08255">
        <ele>714.8</ele>
        <time>2022-12-27T09:34:50Z</time>
      </trkpt>
      <trkpt lat="48.42949" lon="7.08258">
        <ele>715</ele>
        <time>2022-12-27T09:34:51Z</time>
      </trkpt>
      <trkpt lat="48.42955" lon="7.08273">
        <ele>715.4</ele>
        <time>2022-12-27T09:34:56Z</time>
      </trkpt>
      <trkpt lat="48.42959" lon="7.08281">
        <ele>715.8</ele>
        <time>2022-12-27T09:34:59Z</time>
      </trkpt>
      <trkpt lat="48.42962" lon="7.08287">
        <ele>716</ele>
        <time>2022-12-27T09:35:01Z</time>
      </trkpt>
      <trkpt lat="48.42964" lon="7.0829">
        <ele>716</ele>
        <time>2022-12-27T09:35:02Z</time>
      </trkpt>
      <trkpt lat="48.42969" lon="7.08301">
        <ele>716.4</ele>
        <time>2022-12-27T09:35:06Z</time>
      </trkpt>
      <trkpt lat="48.4297" lon="7.08308">
        <ele>716.6</ele>
        <time>2022-12-27T09:35:08Z</time>
      </trkpt>
      <trkpt lat="48.42973" lon="7.08314">
        <ele>716.8</ele>
        <time>2022-12-27T09:35:10Z</time>
      </trkpt>
      <trkpt lat="48.42977" lon="7.0833">
        <ele>717.4</ele>
        <time>2022-12-27T09:35:15Z</time>
      </trkpt>
      <trkpt lat="48.4298" lon="7.08342">
        <ele>717.8</ele>
        <time>2022-12-27T09:35:19Z</time>
      </trkpt>
      <trkpt lat="48.42982" lon="7.08347">
        <ele>718.2</ele>
        <time>2022-12-27T09:35:21Z</time>
      </trkpt>
      <trkpt lat="48.42987" lon="7.08364">
        <ele>719</ele>
        <time>2022-12-27T09:35:27Z</time>
      </trkpt>
      <trkpt lat="48.42991" lon="7.08379">
        <ele>719.6</ele>
        <time>2022-12-27T09:35:32Z</time>
      </trkpt>
      <trkpt lat="48.42993" lon="7.08389">
        <ele>720.2</ele>
        <time>2022-12-27T09:35:35Z</time>
      </trkpt>
      <trkpt lat="48.42997" lon="7.08397">
        <ele>720.4</ele>
        <time>2022-12-27T09:35:38Z</time>
      </trkpt>
      <trkpt lat="48.42998" lon="7.08401">
        <ele>720.6</ele>
        <time>2022-12-27T09:35:39Z</time>
      </trkpt>
      <trkpt lat="48.43" lon="7.08411">
        <ele>720.8</ele>
        <time>2022-12-27T09:35:42Z</time>
      </trkpt>
      <trkpt lat="48.43003" lon="7.08423">
        <ele>721.4</ele>
        <time>2022-12-27T09:35:46Z</time>
      </trkpt>
      <trkpt lat="48.43008" lon="7.08434">
        <ele>722</ele>
        <time>2022-12-27T09:35:49Z</time>
      </trkpt>
      <trkpt lat="48.43008" lon="7.08444">
        <ele>722.4</ele>
        <time>2022-12-27T09:35:52Z</time>
      </trkpt>
      <trkpt lat="48.43008" lon="7.08447">
        <ele>722.6</ele>
        <time>2022-12-27T09:35:53Z</time>
      </trkpt>
      <trkpt lat="48.43005" lon="7.08454">
        <ele>722.8</ele>
        <time>2022-12-27T09:35:55Z</time>
      </trkpt>
      <trkpt lat="48.43006" lon="7.0846">
        <ele>722.8</ele>
        <time>2022-12-27T09:35:57Z</time>
      </trkpt>
      <trkpt lat="48.43009" lon="7.08465">
        <ele>723.2</ele>
        <time>2022-12-27T09:35:59Z</time>
      </trkpt>
      <trkpt lat="48.4301" lon="7.08469">
        <ele>723.4</ele>
        <time>2022-12-27T09:36:00Z</time>
      </trkpt>
      <trkpt lat="48.43012" lon="7.08475">
        <ele>723.8</ele>
        <time>2022-12-27T09:36:02Z</time>
      </trkpt>
      <trkpt lat="48.43013" lon="7.0848">
        <ele>723.8</ele>
        <time>2022-12-27T09:36:03Z</time>
      </trkpt>
      <trkpt lat="48.43013" lon="7.08487">
        <ele>724.4</ele>
        <time>2022-12-27T09:36:05Z</time>
      </trkpt>
      <trkpt lat="48.43015" lon="7.08494">
        <ele>724.6</ele>
        <time>2022-12-27T09:36:07Z</time>
      </trkpt>
      <trkpt lat="48.43017" lon="7.08502">
        <ele>724.8</ele>
        <time>2022-12-27T09:36:09Z</time>
      </trkpt>
      <trkpt lat="48.43018" lon="7.08506">
        <ele>725</ele>
        <time>2022-12-27T09:36:10Z</time>
      </trkpt>
      <trkpt lat="48.43017" lon="7.08515">
        <ele>725.2</ele>
        <time>2022-12-27T09:36:12Z</time>
      </trkpt>
      <trkpt lat="48.43017" lon="7.08525">
        <ele>725.8</ele>
        <time>2022-12-27T09:36:15Z</time>
      </trkpt>
      <trkpt lat="48.43019" lon="7.08528">
        <ele>725.8</ele>
        <time>2022-12-27T09:36:16Z</time>
      </trkpt>
      <trkpt lat="48.43024" lon="7.08547">
        <ele>727</ele>
        <time>2022-12-27T09:36:22Z</time>
      </trkpt>
      <trkpt lat="48.43025" lon="7.08553">
        <ele>727.2</ele>
        <time>2022-12-27T09:36:24Z</time>
      </trkpt>
      <trkpt lat="48.43028" lon="7.08562">
        <ele>727.4</ele>
        <time>2022-12-27T09:36:27Z</time>
      </trkpt>
      <trkpt lat="48.43029" lon="7.08565">
        <ele>727.4</ele>
        <time>2022-12-27T09:36:28Z</time>
      </trkpt>
      <trkpt lat="48.43032" lon="7.08582">
        <ele>728</ele>
        <time>2022-12-27T09:36:33Z</time>
      </trkpt>
      <trkpt lat="48.43033" lon="7.08586">
        <ele>728.2</ele>
        <time>2022-12-27T09:36:34Z</time>
      </trkpt>
      <trkpt lat="48.4304" lon="7.086">
        <ele>728.2</ele>
        <time>2022-12-27T09:36:38Z</time>
      </trkpt>
      <trkpt lat="48.43043" lon="7.08608">
        <ele>728.2</ele>
        <time>2022-12-27T09:36:40Z</time>
      </trkpt>
      <trkpt lat="48.43054" lon="7.08637">
        <ele>728.6</ele>
        <time>2022-12-27T09:36:48Z</time>
      </trkpt>
      <trkpt lat="48.43059" lon="7.08659">
        <ele>729</ele>
        <time>2022-12-27T09:36:55Z</time>
      </trkpt>
      <trkpt lat="48.4306" lon="7.08662">
        <ele>729</ele>
        <time>2022-12-27T09:36:56Z</time>
      </trkpt>
      <trkpt lat="48.43069" lon="7.08687">
        <ele>730</ele>
        <time>2022-12-27T09:37:04Z</time>
      </trkpt>
      <trkpt lat="48.4307" lon="7.0869">
        <ele>730.2</ele>
        <time>2022-12-27T09:37:05Z</time>
      </trkpt>
      <trkpt lat="48.43076" lon="7.08706">
        <ele>730.8</ele>
        <time>2022-12-27T09:37:10Z</time>
      </trkpt>
      <trkpt lat="48.43081" lon="7.08719">
        <ele>731.2</ele>
        <time>2022-12-27T09:37:14Z</time>
      </trkpt>
      <trkpt lat="48.43082" lon="7.08725">
        <ele>731.8</ele>
        <time>2022-12-27T09:37:16Z</time>
      </trkpt>
      <trkpt lat="48.43084" lon="7.08728">
        <ele>731.8</ele>
        <time>2022-12-27T09:37:17Z</time>
      </trkpt>
      <trkpt lat="48.43089" lon="7.08741">
        <ele>732.2</ele>
        <time>2022-12-27T09:37:21Z</time>
      </trkpt>
      <trkpt lat="48.43089" lon="7.08744">
        <ele>732.4</ele>
        <time>2022-12-27T09:37:22Z</time>
      </trkpt>
      <trkpt lat="48.43093" lon="7.08765">
        <ele>733.4</ele>
        <time>2022-12-27T09:37:28Z</time>
      </trkpt>
      <trkpt lat="48.43094" lon="7.08767">
        <ele>733.6</ele>
        <time>2022-12-27T09:37:29Z</time>
      </trkpt>
      <trkpt lat="48.43097" lon="7.08783">
        <ele>734.4</ele>
        <time>2022-12-27T09:37:35Z</time>
      </trkpt>
      <trkpt lat="48.431" lon="7.088">
        <ele>735.4</ele>
        <time>2022-12-27T09:37:41Z</time>
      </trkpt>
      <trkpt lat="48.43101" lon="7.08807">
        <ele>736</ele>
        <time>2022-12-27T09:37:43Z</time>
      </trkpt>
      <trkpt lat="48.43101" lon="7.08815">
        <ele>736.6</ele>
        <time>2022-12-27T09:37:46Z</time>
      </trkpt>
      <trkpt lat="48.43102" lon="7.08831">
        <ele>737</ele>
        <time>2022-12-27T09:37:51Z</time>
      </trkpt>
      <trkpt lat="48.43103" lon="7.08839">
        <ele>737.6</ele>
        <time>2022-12-27T09:37:55Z</time>
      </trkpt>
      <trkpt lat="48.43103" lon="7.08842">
        <ele>737.8</ele>
        <time>2022-12-27T09:37:56Z</time>
      </trkpt>
      <trkpt lat="48.43104" lon="7.08851">
        <ele>738.4</ele>
        <time>2022-12-27T09:37:59Z</time>
      </trkpt>
      <trkpt lat="48.43103" lon="7.08859">
        <ele>738.6</ele>
        <time>2022-12-27T09:38:02Z</time>
      </trkpt>
      <trkpt lat="48.43104" lon="7.08863">
        <ele>739</ele>
        <time>2022-12-27T09:38:03Z</time>
      </trkpt>
      <trkpt lat="48.43105" lon="7.08878">
        <ele>740</ele>
        <time>2022-12-27T09:38:09Z</time>
      </trkpt>
      <trkpt lat="48.43105" lon="7.0888">
        <ele>740</ele>
        <time>2022-12-27T09:38:10Z</time>
      </trkpt>
      <trkpt lat="48.43105" lon="7.08881">
        <ele>740.2</ele>
        <time>2022-12-27T09:38:11Z</time>
      </trkpt>
      <trkpt lat="48.43105" lon="7.08888">
        <ele>740.6</ele>
        <time>2022-12-27T09:38:14Z</time>
      </trkpt>
      <trkpt lat="48.43107" lon="7.08896">
        <ele>741</ele>
        <time>2022-12-27T09:38:17Z</time>
      </trkpt>
      <trkpt lat="48.43111" lon="7.08911">
        <ele>741.8</ele>
        <time>2022-12-27T09:38:21Z</time>
      </trkpt>
      <trkpt lat="48.4311" lon="7.08916">
        <ele>742.2</ele>
        <time>2022-12-27T09:38:23Z</time>
      </trkpt>
      <trkpt lat="48.4311" lon="7.08922">
        <ele>742.4</ele>
        <time>2022-12-27T09:38:25Z</time>
      </trkpt>
      <trkpt lat="48.43109" lon="7.0893">
        <ele>742.4</ele>
        <time>2022-12-27T09:38:28Z</time>
      </trkpt>
      <trkpt lat="48.4311" lon="7.08942">
        <ele>743.4</ele>
        <time>2022-12-27T09:38:32Z</time>
      </trkpt>
      <trkpt lat="48.4311" lon="7.08948">
        <ele>743.8</ele>
        <time>2022-12-27T09:38:34Z</time>
      </trkpt>
      <trkpt lat="48.4311" lon="7.08951">
        <ele>743.8</ele>
        <time>2022-12-27T09:38:35Z</time>
      </trkpt>
      <trkpt lat="48.43112" lon="7.08962">
        <ele>744.4</ele>
        <time>2022-12-27T09:38:38Z</time>
      </trkpt>
      <trkpt lat="48.43112" lon="7.08965">
        <ele>744.4</ele>
        <time>2022-12-27T09:38:39Z</time>
      </trkpt>
      <trkpt lat="48.43112" lon="7.08992">
        <ele>745.6</ele>
        <time>2022-12-27T09:38:47Z</time>
      </trkpt>
      <trkpt lat="48.43107" lon="7.09014">
        <ele>746.6</ele>
        <time>2022-12-27T09:38:55Z</time>
      </trkpt>
      <trkpt lat="48.43106" lon="7.09019">
        <ele>746.8</ele>
        <time>2022-12-27T09:38:57Z</time>
      </trkpt>
      <trkpt lat="48.43101" lon="7.09036">
        <ele>747.2</ele>
        <time>2022-12-27T09:39:03Z</time>
      </trkpt>
      <trkpt lat="48.43097" lon="7.09052">
        <ele>747.8</ele>
        <time>2022-12-27T09:39:09Z</time>
      </trkpt>
      <trkpt lat="48.43096" lon="7.09057">
        <ele>748.2</ele>
        <time>2022-12-27T09:39:11Z</time>
      </trkpt>
      <trkpt lat="48.43094" lon="7.09066">
        <ele>748.4</ele>
        <time>2022-12-27T09:39:14Z</time>
      </trkpt>
      <trkpt lat="48.43094" lon="7.09075">
        <ele>749</ele>
        <time>2022-12-27T09:39:17Z</time>
      </trkpt>
      <trkpt lat="48.43095" lon="7.09085">
        <ele>749.6</ele>
        <time>2022-12-27T09:39:20Z</time>
      </trkpt>
      <trkpt lat="48.43099" lon="7.09094">
        <ele>749.8</ele>
        <time>2022-12-27T09:39:23Z</time>
      </trkpt>
      <trkpt lat="48.43101" lon="7.09097">
        <ele>750</ele>
        <time>2022-12-27T09:39:24Z</time>
      </trkpt>
      <trkpt lat="48.43103" lon="7.091">
        <ele>750</ele>
        <time>2022-12-27T09:39:25Z</time>
      </trkpt>
      <trkpt lat="48.43119" lon="7.09111">
        <ele>750.4</ele>
        <time>2022-12-27T09:39:32Z</time>
      </trkpt>
      <trkpt lat="48.4314" lon="7.09114">
        <ele>751</ele>
        <time>2022-12-27T09:39:40Z</time>
      </trkpt>
      <trkpt lat="48.43144" lon="7.09117">
        <ele>751.2</ele>
        <time>2022-12-27T09:39:42Z</time>
      </trkpt>
      <trkpt lat="48.43155" lon="7.09121">
        <ele>751.6</ele>
        <time>2022-12-27T09:39:46Z</time>
      </trkpt>
      <trkpt lat="48.43159" lon="7.09121">
        <ele>752</ele>
        <time>2022-12-27T09:39:48Z</time>
      </trkpt>
      <trkpt lat="48.43166" lon="7.09123">
        <ele>752.2</ele>
        <time>2022-12-27T09:39:51Z</time>
      </trkpt>
      <trkpt lat="48.43177" lon="7.09127">
        <ele>752.8</ele>
        <time>2022-12-27T09:39:57Z</time>
      </trkpt>
      <trkpt lat="48.43178" lon="7.09128">
        <ele>752.8</ele>
        <time>2022-12-27T09:39:58Z</time>
      </trkpt>
      <trkpt lat="48.43182" lon="7.09131">
        <ele>753</ele>
        <time>2022-12-27T09:40:00Z</time>
      </trkpt>
      <trkpt lat="48.43185" lon="7.09134">
        <ele>753.2</ele>
        <time>2022-12-27T09:40:02Z</time>
      </trkpt>
      <trkpt lat="48.43195" lon="7.09138">
        <ele>754</ele>
        <time>2022-12-27T09:40:08Z</time>
      </trkpt>
      <trkpt lat="48.43198" lon="7.09141">
        <ele>754.2</ele>
        <time>2022-12-27T09:40:10Z</time>
      </trkpt>
      <trkpt lat="48.4321" lon="7.09148">
        <ele>755.4</ele>
        <time>2022-12-27T09:40:17Z</time>
      </trkpt>
      <trkpt lat="48.43222" lon="7.09158">
        <ele>756.4</ele>
        <time>2022-12-27T09:40:25Z</time>
      </trkpt>
      <trkpt lat="48.43223" lon="7.09159">
        <ele>756.8</ele>
        <time>2022-12-27T09:40:26Z</time>
      </trkpt>
      <trkpt lat="48.43236" lon="7.09168">
        <ele>757.6</ele>
        <time>2022-12-27T09:40:33Z</time>
      </trkpt>
      <trkpt lat="48.43237" lon="7.0917">
        <ele>757.6</ele>
        <time>2022-12-27T09:40:34Z</time>
      </trkpt>
      <trkpt lat="48.43244" lon="7.09176">
        <ele>758.6</ele>
        <time>2022-12-27T09:40:39Z</time>
      </trkpt>
      <trkpt lat="48.43248" lon="7.0918">
        <ele>759</ele>
        <time>2022-12-27T09:40:41Z</time>
      </trkpt>
      <trkpt lat="48.43256" lon="7.09188">
        <ele>759.6</ele>
        <time>2022-12-27T09:40:46Z</time>
      </trkpt>
      <trkpt lat="48.43262" lon="7.09194">
        <ele>760</ele>
        <time>2022-12-27T09:40:49Z</time>
      </trkpt>
      <trkpt lat="48.43271" lon="7.092">
        <ele>761</ele>
        <time>2022-12-27T09:40:55Z</time>
      </trkpt>
      <trkpt lat="48.43279" lon="7.09208">
        <ele>761.4</ele>
        <time>2022-12-27T09:41:00Z</time>
      </trkpt>
      <trkpt lat="48.43293" lon="7.09219">
        <ele>761.8</ele>
        <time>2022-12-27T09:41:08Z</time>
      </trkpt>
      <trkpt lat="48.43303" lon="7.09228">
        <ele>762</ele>
        <time>2022-12-27T09:41:14Z</time>
      </trkpt>
      <trkpt lat="48.43306" lon="7.09231">
        <ele>762</ele>
        <time>2022-12-27T09:41:16Z</time>
      </trkpt>
      <trkpt lat="48.43317" lon="7.09242">
        <ele>762.2</ele>
        <time>2022-12-27T09:41:23Z</time>
      </trkpt>
      <trkpt lat="48.43331" lon="7.09255">
        <ele>763</ele>
        <time>2022-12-27T09:41:31Z</time>
      </trkpt>
      <trkpt lat="48.43334" lon="7.09258">
        <ele>763</ele>
        <time>2022-12-27T09:41:32Z</time>
      </trkpt>
      <trkpt lat="48.43346" lon="7.09275">
        <ele>764</ele>
        <time>2022-12-27T09:41:41Z</time>
      </trkpt>
      <trkpt lat="48.43349" lon="7.09279">
        <ele>764.4</ele>
        <time>2022-12-27T09:41:43Z</time>
      </trkpt>
      <trkpt lat="48.43352" lon="7.09285">
        <ele>764.8</ele>
        <time>2022-12-27T09:41:46Z</time>
      </trkpt>
      <trkpt lat="48.43354" lon="7.09288">
        <ele>765</ele>
        <time>2022-12-27T09:41:48Z</time>
      </trkpt>
      <trkpt lat="48.43358" lon="7.09293">
        <ele>765.6</ele>
        <time>2022-12-27T09:41:51Z</time>
      </trkpt>
      <trkpt lat="48.43362" lon="7.09301">
        <ele>766.6</ele>
        <time>2022-12-27T09:41:55Z</time>
      </trkpt>
      <trkpt lat="48.43369" lon="7.09312">
        <ele>767.2</ele>
        <time>2022-12-27T09:42:01Z</time>
      </trkpt>
      <trkpt lat="48.43371" lon="7.09315">
        <ele>767.6</ele>
        <time>2022-12-27T09:42:03Z</time>
      </trkpt>
      <trkpt lat="48.43372" lon="7.09318">
        <ele>767.6</ele>
        <time>2022-12-27T09:42:04Z</time>
      </trkpt>
      <trkpt lat="48.43375" lon="7.09324">
        <ele>768.2</ele>
        <time>2022-12-27T09:42:07Z</time>
      </trkpt>
      <trkpt lat="48.43379" lon="7.09331">
        <ele>768.8</ele>
        <time>2022-12-27T09:42:11Z</time>
      </trkpt>
      <trkpt lat="48.43383" lon="7.09337">
        <ele>769.6</ele>
        <time>2022-12-27T09:42:15Z</time>
      </trkpt>
      <trkpt lat="48.43384" lon="7.0934">
        <ele>769.8</ele>
        <time>2022-12-27T09:42:16Z</time>
      </trkpt>
      <trkpt lat="48.43386" lon="7.09343">
        <ele>770</ele>
        <time>2022-12-27T09:42:18Z</time>
      </trkpt>
      <trkpt lat="48.43389" lon="7.09349">
        <ele>770.6</ele>
        <time>2022-12-27T09:42:22Z</time>
      </trkpt>
      <trkpt lat="48.43392" lon="7.09355">
        <ele>771.2</ele>
        <time>2022-12-27T09:42:26Z</time>
      </trkpt>
      <trkpt lat="48.43392" lon="7.09355">
        <ele>771.4</ele>
        <time>2022-12-27T09:42:27Z</time>
      </trkpt>
      <trkpt lat="48.43392" lon="7.09355">
        <ele>772</ele>
        <time>2022-12-27T09:42:48Z</time>
      </trkpt>
      <trkpt lat="48.43392" lon="7.09355">
        <ele>772.2</ele>
        <time>2022-12-27T09:42:49Z</time>
      </trkpt>
      <trkpt lat="48.43392" lon="7.09355">
        <ele>772.2</ele>
        <time>2022-12-27T09:42:50Z</time>
      </trkpt>
      <trkpt lat="48.43396" lon="7.0936">
        <ele>772.6</ele>
        <time>2022-12-27T09:42:56Z</time>
      </trkpt>
      <trkpt lat="48.43399" lon="7.09365">
        <ele>772.8</ele>
        <time>2022-12-27T09:42:59Z</time>
      </trkpt>
      <trkpt lat="48.434" lon="7.09369">
        <ele>773</ele>
        <time>2022-12-27T09:43:01Z</time>
      </trkpt>
      <trkpt lat="48.43402" lon="7.09372">
        <ele>773</ele>
        <time>2022-12-27T09:43:03Z</time>
      </trkpt>
      <trkpt lat="48.43405" lon="7.09377">
        <ele>773.2</ele>
        <time>2022-12-27T09:43:06Z</time>
      </trkpt>
      <trkpt lat="48.43406" lon="7.09379">
        <ele>773.4</ele>
        <time>2022-12-27T09:43:07Z</time>
      </trkpt>
      <trkpt lat="48.43408" lon="7.09384">
        <ele>773.8</ele>
        <time>2022-12-27T09:43:10Z</time>
      </trkpt>
      <trkpt lat="48.4341" lon="7.09387">
        <ele>774.4</ele>
        <time>2022-12-27T09:43:14Z</time>
      </trkpt>
      <trkpt lat="48.4341" lon="7.09387">
        <ele>775</ele>
        <time>2022-12-27T09:43:18Z</time>
      </trkpt>
      <trkpt lat="48.43411" lon="7.09392">
        <ele>775</ele>
        <time>2022-12-27T09:43:40Z</time>
      </trkpt>
      <trkpt lat="48.43411" lon="7.09394">
        <ele>775</ele>
        <time>2022-12-27T09:43:41Z</time>
      </trkpt>
      <trkpt lat="48.43413" lon="7.09396">
        <ele>775</ele>
        <time>2022-12-27T09:43:43Z</time>
      </trkpt>
      <trkpt lat="48.43415" lon="7.09399">
        <ele>775.2</ele>
        <time>2022-12-27T09:43:45Z</time>
      </trkpt>
      <trkpt lat="48.43417" lon="7.09402">
        <ele>775.2</ele>
        <time>2022-12-27T09:43:47Z</time>
      </trkpt>
      <trkpt lat="48.43418" lon="7.09407">
        <ele>775.6</ele>
        <time>2022-12-27T09:43:50Z</time>
      </trkpt>
      <trkpt lat="48.4342" lon="7.0941">
        <ele>775.8</ele>
        <time>2022-12-27T09:43:52Z</time>
      </trkpt>
      <trkpt lat="48.43421" lon="7.09414">
        <ele>776</ele>
        <time>2022-12-27T09:43:55Z</time>
      </trkpt>
      <trkpt lat="48.43423" lon="7.09417">
        <ele>776.8</ele>
        <time>2022-12-27T09:43:58Z</time>
      </trkpt>
      <trkpt lat="48.43423" lon="7.09417">
        <ele>777</ele>
        <time>2022-12-27T09:44:00Z</time>
      </trkpt>
      <trkpt lat="48.43425" lon="7.09424">
        <ele>777.4</ele>
        <time>2022-12-27T09:44:09Z</time>
      </trkpt>
      <trkpt lat="48.43426" lon="7.09428">
        <ele>777.4</ele>
        <time>2022-12-27T09:44:11Z</time>
      </trkpt>
      <trkpt lat="48.43431" lon="7.0944">
        <ele>778</ele>
        <time>2022-12-27T09:44:18Z</time>
      </trkpt>
      <trkpt lat="48.43431" lon="7.09441">
        <ele>778</ele>
        <time>2022-12-27T09:44:19Z</time>
      </trkpt>
      <trkpt lat="48.43432" lon="7.09443">
        <ele>778.2</ele>
        <time>2022-12-27T09:44:20Z</time>
      </trkpt>
      <trkpt lat="48.43434" lon="7.09447">
        <ele>778.8</ele>
        <time>2022-12-27T09:44:23Z</time>
      </trkpt>
      <trkpt lat="48.43437" lon="7.09453">
        <ele>779.4</ele>
        <time>2022-12-27T09:44:27Z</time>
      </trkpt>
      <trkpt lat="48.4344" lon="7.09459">
        <ele>780</ele>
        <time>2022-12-27T09:44:31Z</time>
      </trkpt>
      <trkpt lat="48.43443" lon="7.09465">
        <ele>780.6</ele>
        <time>2022-12-27T09:44:35Z</time>
      </trkpt>
      <trkpt lat="48.43446" lon="7.09472">
        <ele>781.2</ele>
        <time>2022-12-27T09:44:39Z</time>
      </trkpt>
      <trkpt lat="48.43448" lon="7.09476">
        <ele>781.8</ele>
        <time>2022-12-27T09:44:42Z</time>
      </trkpt>
      <trkpt lat="48.4345" lon="7.09481">
        <ele>782.2</ele>
        <time>2022-12-27T09:44:45Z</time>
      </trkpt>
      <trkpt lat="48.43453" lon="7.09485">
        <ele>782.4</ele>
        <time>2022-12-27T09:44:48Z</time>
      </trkpt>
      <trkpt lat="48.43454" lon="7.09489">
        <ele>782.8</ele>
        <time>2022-12-27T09:44:50Z</time>
      </trkpt>
      <trkpt lat="48.43458" lon="7.09497">
        <ele>783.2</ele>
        <time>2022-12-27T09:44:55Z</time>
      </trkpt>
      <trkpt lat="48.43462" lon="7.09503">
        <ele>784</ele>
        <time>2022-12-27T09:44:59Z</time>
      </trkpt>
      <trkpt lat="48.43465" lon="7.09509">
        <ele>784.4</ele>
        <time>2022-12-27T09:45:03Z</time>
      </trkpt>
      <trkpt lat="48.43468" lon="7.09515">
        <ele>785.2</ele>
        <time>2022-12-27T09:45:07Z</time>
      </trkpt>
      <trkpt lat="48.4347" lon="7.09518">
        <ele>785.6</ele>
        <time>2022-12-27T09:45:10Z</time>
      </trkpt>
      <trkpt lat="48.43474" lon="7.09527">
        <ele>786.2</ele>
        <time>2022-12-27T09:45:16Z</time>
      </trkpt>
      <trkpt lat="48.43476" lon="7.09532">
        <ele>786.6</ele>
        <time>2022-12-27T09:45:19Z</time>
      </trkpt>
      <trkpt lat="48.4348" lon="7.0954">
        <ele>787.6</ele>
        <time>2022-12-27T09:45:25Z</time>
      </trkpt>
      <trkpt lat="48.43481" lon="7.09543">
        <ele>788.2</ele>
        <time>2022-12-27T09:45:27Z</time>
      </trkpt>
      <trkpt lat="48.43485" lon="7.09551">
        <ele>788.6</ele>
        <time>2022-12-27T09:45:32Z</time>
      </trkpt>
      <trkpt lat="48.43488" lon="7.09558">
        <ele>789.2</ele>
        <time>2022-12-27T09:45:37Z</time>
      </trkpt>
      <trkpt lat="48.43491" lon="7.09562">
        <ele>789.2</ele>
        <time>2022-12-27T09:45:40Z</time>
      </trkpt>
      <trkpt lat="48.43492" lon="7.09566">
        <ele>789.4</ele>
        <time>2022-12-27T09:45:43Z</time>
      </trkpt>
      <trkpt lat="48.43494" lon="7.09568">
        <ele>789.6</ele>
        <time>2022-12-27T09:45:45Z</time>
      </trkpt>
      <trkpt lat="48.43496" lon="7.09571">
        <ele>789.8</ele>
        <time>2022-12-27T09:45:47Z</time>
      </trkpt>
      <trkpt lat="48.43499" lon="7.09577">
        <ele>790</ele>
        <time>2022-12-27T09:45:51Z</time>
      </trkpt>
      <trkpt lat="48.43503" lon="7.09585">
        <ele>790.8</ele>
        <time>2022-12-27T09:45:57Z</time>
      </trkpt>
      <trkpt lat="48.43504" lon="7.09586">
        <ele>790.8</ele>
        <time>2022-12-27T09:45:58Z</time>
      </trkpt>
      <trkpt lat="48.43504" lon="7.09588">
        <ele>791</ele>
        <time>2022-12-27T09:45:59Z</time>
      </trkpt>
      <trkpt lat="48.43508" lon="7.09597">
        <ele>791.6</ele>
        <time>2022-12-27T09:46:04Z</time>
      </trkpt>
      <trkpt lat="48.4351" lon="7.096">
        <ele>791.6</ele>
        <time>2022-12-27T09:46:06Z</time>
      </trkpt>
      <trkpt lat="48.4351" lon="7.09601">
        <ele>792</ele>
        <time>2022-12-27T09:46:07Z</time>
      </trkpt>
      <trkpt lat="48.43515" lon="7.09611">
        <ele>792.6</ele>
        <time>2022-12-27T09:46:14Z</time>
      </trkpt>
      <trkpt lat="48.43516" lon="7.09613">
        <ele>792.8</ele>
        <time>2022-12-27T09:46:15Z</time>
      </trkpt>
      <trkpt lat="48.43518" lon="7.09618">
        <ele>793.2</ele>
        <time>2022-12-27T09:46:19Z</time>
      </trkpt>
      <trkpt lat="48.4352" lon="7.09623">
        <ele>793.4</ele>
        <time>2022-12-27T09:46:22Z</time>
      </trkpt>
      <trkpt lat="48.43523" lon="7.0963">
        <ele>794</ele>
        <time>2022-12-27T09:46:27Z</time>
      </trkpt>
      <trkpt lat="48.43524" lon="7.09631">
        <ele>794.2</ele>
        <time>2022-12-27T09:46:28Z</time>
      </trkpt>
      <trkpt lat="48.43525" lon="7.09633">
        <ele>794.2</ele>
        <time>2022-12-27T09:46:29Z</time>
      </trkpt>
      <trkpt lat="48.4353" lon="7.09645">
        <ele>795.4</ele>
        <time>2022-12-27T09:46:36Z</time>
      </trkpt>
      <trkpt lat="48.4353" lon="7.09646">
        <ele>795.6</ele>
        <time>2022-12-27T09:46:37Z</time>
      </trkpt>
      <trkpt lat="48.43531" lon="7.0965">
        <ele>796</ele>
        <time>2022-12-27T09:46:39Z</time>
      </trkpt>
      <trkpt lat="48.43535" lon="7.09657">
        <ele>796.4</ele>
        <time>2022-12-27T09:46:44Z</time>
      </trkpt>
      <trkpt lat="48.43538" lon="7.09661">
        <ele>796.6</ele>
        <time>2022-12-27T09:46:47Z</time>
      </trkpt>
      <trkpt lat="48.43538" lon="7.09665">
        <ele>797</ele>
        <time>2022-12-27T09:46:49Z</time>
      </trkpt>
      <trkpt lat="48.43542" lon="7.09671">
        <ele>797.4</ele>
        <time>2022-12-27T09:46:53Z</time>
      </trkpt>
      <trkpt lat="48.43542" lon="7.09672">
        <ele>797.6</ele>
        <time>2022-12-27T09:46:54Z</time>
      </trkpt>
      <trkpt lat="48.43548" lon="7.09681">
        <ele>798.4</ele>
        <time>2022-12-27T09:47:00Z</time>
      </trkpt>
      <trkpt lat="48.43549" lon="7.09682">
        <ele>798.6</ele>
        <time>2022-12-27T09:47:01Z</time>
      </trkpt>
      <trkpt lat="48.4355" lon="7.09684">
        <ele>798.6</ele>
        <time>2022-12-27T09:47:02Z</time>
      </trkpt>
      <trkpt lat="48.43553" lon="7.09693">
        <ele>799</ele>
        <time>2022-12-27T09:47:08Z</time>
      </trkpt>
      <trkpt lat="48.43554" lon="7.09695">
        <ele>799.4</ele>
        <time>2022-12-27T09:47:09Z</time>
      </trkpt>
      <trkpt lat="48.43557" lon="7.097">
        <ele>799.6</ele>
        <time>2022-12-27T09:47:13Z</time>
      </trkpt>
      <trkpt lat="48.43558" lon="7.09702">
        <ele>799.8</ele>
        <time>2022-12-27T09:47:14Z</time>
      </trkpt>
      <trkpt lat="48.43559" lon="7.09705">
        <ele>800</ele>
        <time>2022-12-27T09:47:16Z</time>
      </trkpt>
      <trkpt lat="48.43567" lon="7.09719">
        <ele>800.8</ele>
        <time>2022-12-27T09:47:25Z</time>
      </trkpt>
      <trkpt lat="48.43568" lon="7.0972">
        <ele>801</ele>
        <time>2022-12-27T09:47:26Z</time>
      </trkpt>
      <trkpt lat="48.43571" lon="7.09727">
        <ele>801.4</ele>
        <time>2022-12-27T09:47:30Z</time>
      </trkpt>
      <trkpt lat="48.43572" lon="7.0973">
        <ele>802</ele>
        <time>2022-12-27T09:47:32Z</time>
      </trkpt>
      <trkpt lat="48.43573" lon="7.09732">
        <ele>802.2</ele>
        <time>2022-12-27T09:47:33Z</time>
      </trkpt>
      <trkpt lat="48.43579" lon="7.09746">
        <ele>803.2</ele>
        <time>2022-12-27T09:47:42Z</time>
      </trkpt>
      <trkpt lat="48.43585" lon="7.09761">
        <ele>804.4</ele>
        <time>2022-12-27T09:47:51Z</time>
      </trkpt>
      <trkpt lat="48.43591" lon="7.09772">
        <ele>805.4</ele>
        <time>2022-12-27T09:47:58Z</time>
      </trkpt>
      <trkpt lat="48.43592" lon="7.09774">
        <ele>805.4</ele>
        <time>2022-12-27T09:47:59Z</time>
      </trkpt>
      <trkpt lat="48.43597" lon="7.09783">
        <ele>806.4</ele>
        <time>2022-12-27T09:48:06Z</time>
      </trkpt>
      <trkpt lat="48.43599" lon="7.09788">
        <ele>806.8</ele>
        <time>2022-12-27T09:48:09Z</time>
      </trkpt>
      <trkpt lat="48.43602" lon="7.09793">
        <ele>807.4</ele>
        <time>2022-12-27T09:48:13Z</time>
      </trkpt>
      <trkpt lat="48.43604" lon="7.09798">
        <ele>807.8</ele>
        <time>2022-12-27T09:48:16Z</time>
      </trkpt>
      <trkpt lat="48.43604" lon="7.098">
        <ele>808</ele>
        <time>2022-12-27T09:48:17Z</time>
      </trkpt>
      <trkpt lat="48.43606" lon="7.09805">
        <ele>808.2</ele>
        <time>2022-12-27T09:48:20Z</time>
      </trkpt>
      <trkpt lat="48.43607" lon="7.09807">
        <ele>808.2</ele>
        <time>2022-12-27T09:48:22Z</time>
      </trkpt>
      <trkpt lat="48.43611" lon="7.09813">
        <ele>808.4</ele>
        <time>2022-12-27T09:48:26Z</time>
      </trkpt>
      <trkpt lat="48.43612" lon="7.09816">
        <ele>808.8</ele>
        <time>2022-12-27T09:48:28Z</time>
      </trkpt>
      <trkpt lat="48.43615" lon="7.09821">
        <ele>809.2</ele>
        <time>2022-12-27T09:48:31Z</time>
      </trkpt>
      <trkpt lat="48.43615" lon="7.09824">
        <ele>809.2</ele>
        <time>2022-12-27T09:48:32Z</time>
      </trkpt>
      <trkpt lat="48.4362" lon="7.09835">
        <ele>810.4</ele>
        <time>2022-12-27T09:48:39Z</time>
      </trkpt>
      <trkpt lat="48.43626" lon="7.09847">
        <ele>811.4</ele>
        <time>2022-12-27T09:48:46Z</time>
      </trkpt>
      <trkpt lat="48.43627" lon="7.0985">
        <ele>811.6</ele>
        <time>2022-12-27T09:48:48Z</time>
      </trkpt>
      <trkpt lat="48.43633" lon="7.09859">
        <ele>812.6</ele>
        <time>2022-12-27T09:48:55Z</time>
      </trkpt>
      <trkpt lat="48.43633" lon="7.0986">
        <ele>812.8</ele>
        <time>2022-12-27T09:48:56Z</time>
      </trkpt>
      <trkpt lat="48.43639" lon="7.0987">
        <ele>813.6</ele>
        <time>2022-12-27T09:49:03Z</time>
      </trkpt>
      <trkpt lat="48.4364" lon="7.09871">
        <ele>814</ele>
        <time>2022-12-27T09:49:04Z</time>
      </trkpt>
      <trkpt lat="48.43647" lon="7.09886">
        <ele>815</ele>
        <time>2022-12-27T09:49:14Z</time>
      </trkpt>
      <trkpt lat="48.43652" lon="7.09896">
        <ele>816</ele>
        <time>2022-12-27T09:49:20Z</time>
      </trkpt>
      <trkpt lat="48.43654" lon="7.09899">
        <ele>816</ele>
        <time>2022-12-27T09:49:22Z</time>
      </trkpt>
      <trkpt lat="48.43657" lon="7.09904">
        <ele>816.4</ele>
        <time>2022-12-27T09:49:26Z</time>
      </trkpt>
      <trkpt lat="48.43658" lon="7.09906">
        <ele>816.6</ele>
        <time>2022-12-27T09:49:27Z</time>
      </trkpt>
      <trkpt lat="48.4366" lon="7.09912">
        <ele>817.4</ele>
        <time>2022-12-27T09:49:31Z</time>
      </trkpt>
      <trkpt lat="48.43662" lon="7.09915">
        <ele>817.6</ele>
        <time>2022-12-27T09:49:33Z</time>
      </trkpt>
      <trkpt lat="48.43664" lon="7.09919">
        <ele>818</ele>
        <time>2022-12-27T09:49:36Z</time>
      </trkpt>
      <trkpt lat="48.43665" lon="7.09921">
        <ele>818.2</ele>
        <time>2022-12-27T09:49:38Z</time>
      </trkpt>
      <trkpt lat="48.43666" lon="7.09923">
        <ele>818.4</ele>
        <time>2022-12-27T09:49:39Z</time>
      </trkpt>
      <trkpt lat="48.43671" lon="7.09935">
        <ele>819.4</ele>
        <time>2022-12-27T09:49:47Z</time>
      </trkpt>
      <trkpt lat="48.43672" lon="7.09937">
        <ele>819.4</ele>
        <time>2022-12-27T09:49:48Z</time>
      </trkpt>
      <trkpt lat="48.43672" lon="7.09938">
        <ele>819.6</ele>
        <time>2022-12-27T09:49:49Z</time>
      </trkpt>
      <trkpt lat="48.43676" lon="7.09949">
        <ele>820.6</ele>
        <time>2022-12-27T09:49:56Z</time>
      </trkpt>
      <trkpt lat="48.43676" lon="7.09951">
        <ele>820.8</ele>
        <time>2022-12-27T09:49:57Z</time>
      </trkpt>
      <trkpt lat="48.4368" lon="7.09963">
        <ele>821.6</ele>
        <time>2022-12-27T09:50:05Z</time>
      </trkpt>
      <trkpt lat="48.43681" lon="7.09965">
        <ele>821.8</ele>
        <time>2022-12-27T09:50:06Z</time>
      </trkpt>
      <trkpt lat="48.43684" lon="7.09975">
        <ele>822.6</ele>
        <time>2022-12-27T09:50:12Z</time>
      </trkpt>
      <trkpt lat="48.43685" lon="7.09978">
        <ele>823</ele>
        <time>2022-12-27T09:50:14Z</time>
      </trkpt>
      <trkpt lat="48.4369" lon="7.09991">
        <ele>824</ele>
        <time>2022-12-27T09:50:22Z</time>
      </trkpt>
      <trkpt lat="48.4369" lon="7.09992">
        <ele>824.2</ele>
        <time>2022-12-27T09:50:23Z</time>
      </trkpt>
      <trkpt lat="48.43694" lon="7.10006">
        <ele>824.8</ele>
        <time>2022-12-27T09:50:31Z</time>
      </trkpt>
      <trkpt lat="48.43695" lon="7.1001">
        <ele>825.2</ele>
        <time>2022-12-27T09:50:33Z</time>
      </trkpt>
      <trkpt lat="48.43696" lon="7.10017">
        <ele>825.6</ele>
        <time>2022-12-27T09:50:37Z</time>
      </trkpt>
      <trkpt lat="48.43701" lon="7.10027">
        <ele>826.2</ele>
        <time>2022-12-27T09:50:43Z</time>
      </trkpt>
      <trkpt lat="48.43702" lon="7.10029">
        <ele>826.4</ele>
        <time>2022-12-27T09:50:44Z</time>
      </trkpt>
      <trkpt lat="48.43703" lon="7.10033">
        <ele>826.6</ele>
        <time>2022-12-27T09:50:47Z</time>
      </trkpt>
      <trkpt lat="48.43705" lon="7.1004">
        <ele>827.2</ele>
        <time>2022-12-27T09:50:51Z</time>
      </trkpt>
      <trkpt lat="48.43706" lon="7.10042">
        <ele>827.4</ele>
        <time>2022-12-27T09:50:52Z</time>
      </trkpt>
      <trkpt lat="48.43709" lon="7.10055">
        <ele>828.2</ele>
        <time>2022-12-27T09:50:59Z</time>
      </trkpt>
      <trkpt lat="48.4371" lon="7.10058">
        <ele>828.4</ele>
        <time>2022-12-27T09:51:01Z</time>
      </trkpt>
      <trkpt lat="48.43713" lon="7.10071">
        <ele>829.8</ele>
        <time>2022-12-27T09:51:09Z</time>
      </trkpt>
      <trkpt lat="48.43713" lon="7.10075">
        <ele>830</ele>
        <time>2022-12-27T09:51:11Z</time>
      </trkpt>
      <trkpt lat="48.43714" lon="7.10078">
        <ele>830</ele>
        <time>2022-12-27T09:51:13Z</time>
      </trkpt>
      <trkpt lat="48.43714" lon="7.1008">
        <ele>830.2</ele>
        <time>2022-12-27T09:51:14Z</time>
      </trkpt>
      <trkpt lat="48.43716" lon="7.10085">
        <ele>830.4</ele>
        <time>2022-12-27T09:51:17Z</time>
      </trkpt>
      <trkpt lat="48.43717" lon="7.1009">
        <ele>830.6</ele>
        <time>2022-12-27T09:51:20Z</time>
      </trkpt>
      <trkpt lat="48.43717" lon="7.10092">
        <ele>830.8</ele>
        <time>2022-12-27T09:51:21Z</time>
      </trkpt>
      <trkpt lat="48.43718" lon="7.10094">
        <ele>831</ele>
        <time>2022-12-27T09:51:22Z</time>
      </trkpt>
      <trkpt lat="48.43722" lon="7.10102">
        <ele>831.8</ele>
        <time>2022-12-27T09:51:28Z</time>
      </trkpt>
      <trkpt lat="48.43723" lon="7.10106">
        <ele>832.2</ele>
        <time>2022-12-27T09:51:30Z</time>
      </trkpt>
      <trkpt lat="48.43724" lon="7.10113">
        <ele>832.8</ele>
        <time>2022-12-27T09:51:34Z</time>
      </trkpt>
      <trkpt lat="48.43725" lon="7.10114">
        <ele>833</ele>
        <time>2022-12-27T09:51:35Z</time>
      </trkpt>
      <trkpt lat="48.43726" lon="7.10117">
        <ele>833.2</ele>
        <time>2022-12-27T09:51:37Z</time>
      </trkpt>
      <trkpt lat="48.43727" lon="7.10122">
        <ele>833.4</ele>
        <time>2022-12-27T09:51:40Z</time>
      </trkpt>
      <trkpt lat="48.43728" lon="7.10126">
        <ele>833.8</ele>
        <time>2022-12-27T09:51:43Z</time>
      </trkpt>
      <trkpt lat="48.43729" lon="7.1013">
        <ele>834</ele>
        <time>2022-12-27T09:51:45Z</time>
      </trkpt>
      <trkpt lat="48.43732" lon="7.10138">
        <ele>835</ele>
        <time>2022-12-27T09:51:50Z</time>
      </trkpt>
      <trkpt lat="48.43734" lon="7.10142">
        <ele>835.2</ele>
        <time>2022-12-27T09:51:52Z</time>
      </trkpt>
      <trkpt lat="48.43736" lon="7.10151">
        <ele>835.8</ele>
        <time>2022-12-27T09:51:57Z</time>
      </trkpt>
      <trkpt lat="48.43736" lon="7.10153">
        <ele>835.8</ele>
        <time>2022-12-27T09:51:58Z</time>
      </trkpt>
      <trkpt lat="48.43737" lon="7.10157">
        <ele>836.2</ele>
        <time>2022-12-27T09:52:00Z</time>
      </trkpt>
      <trkpt lat="48.43736" lon="7.10159">
        <ele>836.2</ele>
        <time>2022-12-27T09:52:01Z</time>
      </trkpt>
      <trkpt lat="48.43737" lon="7.10161">
        <ele>836.4</ele>
        <time>2022-12-27T09:52:02Z</time>
      </trkpt>
      <trkpt lat="48.43738" lon="7.10162">
        <ele>836.6</ele>
        <time>2022-12-27T09:52:03Z</time>
      </trkpt>
      <trkpt lat="48.4374" lon="7.10174">
        <ele>837.4</ele>
        <time>2022-12-27T09:52:11Z</time>
      </trkpt>
      <trkpt lat="48.43741" lon="7.10177">
        <ele>837.4</ele>
        <time>2022-12-27T09:52:13Z</time>
      </trkpt>
      <trkpt lat="48.43743" lon="7.10185">
        <ele>837.8</ele>
        <time>2022-12-27T09:52:18Z</time>
      </trkpt>
      <trkpt lat="48.43743" lon="7.10187">
        <ele>838</ele>
        <time>2022-12-27T09:52:19Z</time>
      </trkpt>
      <trkpt lat="48.43743" lon="7.1019">
        <ele>838.4</ele>
        <time>2022-12-27T09:52:21Z</time>
      </trkpt>
      <trkpt lat="48.43745" lon="7.10199">
        <ele>839.4</ele>
        <time>2022-12-27T09:52:26Z</time>
      </trkpt>
      <trkpt lat="48.43746" lon="7.10203">
        <ele>839.6</ele>
        <time>2022-12-27T09:52:28Z</time>
      </trkpt>
      <trkpt lat="48.43751" lon="7.10212">
        <ele>840.4</ele>
        <time>2022-12-27T09:52:33Z</time>
      </trkpt>
      <trkpt lat="48.43752" lon="7.10214">
        <ele>840.6</ele>
        <time>2022-12-27T09:52:34Z</time>
      </trkpt>
      <trkpt lat="48.43757" lon="7.10228">
        <ele>841.2</ele>
        <time>2022-12-27T09:52:42Z</time>
      </trkpt>
      <trkpt lat="48.4376" lon="7.10235">
        <ele>841.6</ele>
        <time>2022-12-27T09:52:46Z</time>
      </trkpt>
      <trkpt lat="48.43763" lon="7.10242">
        <ele>842.4</ele>
        <time>2022-12-27T09:52:50Z</time>
      </trkpt>
      <trkpt lat="48.43766" lon="7.10246">
        <ele>843</ele>
        <time>2022-12-27T09:52:53Z</time>
      </trkpt>
      <trkpt lat="48.43769" lon="7.10253">
        <ele>843.6</ele>
        <time>2022-12-27T09:52:58Z</time>
      </trkpt>
      <trkpt lat="48.4377" lon="7.10256">
        <ele>843.8</ele>
        <time>2022-12-27T09:53:00Z</time>
      </trkpt>
      <trkpt lat="48.43771" lon="7.10258">
        <ele>844</ele>
        <time>2022-12-27T09:53:01Z</time>
      </trkpt>
      <trkpt lat="48.43774" lon="7.10264">
        <ele>844.6</ele>
        <time>2022-12-27T09:53:05Z</time>
      </trkpt>
      <trkpt lat="48.4378" lon="7.10275">
        <ele>845</ele>
        <time>2022-12-27T09:53:12Z</time>
      </trkpt>
      <trkpt lat="48.43781" lon="7.10277">
        <ele>845.2</ele>
        <time>2022-12-27T09:53:14Z</time>
      </trkpt>
      <trkpt lat="48.43784" lon="7.10283">
        <ele>845.8</ele>
        <time>2022-12-27T09:53:18Z</time>
      </trkpt>
      <trkpt lat="48.43786" lon="7.10287">
        <ele>846.2</ele>
        <time>2022-12-27T09:53:21Z</time>
      </trkpt>
      <trkpt lat="48.43788" lon="7.10293">
        <ele>846.8</ele>
        <time>2022-12-27T09:53:25Z</time>
      </trkpt>
      <trkpt lat="48.4379" lon="7.10297">
        <ele>847</ele>
        <time>2022-12-27T09:53:27Z</time>
      </trkpt>
      <trkpt lat="48.43791" lon="7.10298">
        <ele>847</ele>
        <time>2022-12-27T09:53:28Z</time>
      </trkpt>
      <trkpt lat="48.43794" lon="7.10302">
        <ele>847.6</ele>
        <time>2022-12-27T09:53:31Z</time>
      </trkpt>
      <trkpt lat="48.43797" lon="7.10309">
        <ele>848.2</ele>
        <time>2022-12-27T09:53:35Z</time>
      </trkpt>
      <trkpt lat="48.43799" lon="7.10313">
        <ele>848.4</ele>
        <time>2022-12-27T09:53:37Z</time>
      </trkpt>
      <trkpt lat="48.43799" lon="7.10316">
        <ele>848.8</ele>
        <time>2022-12-27T09:53:39Z</time>
      </trkpt>
      <trkpt lat="48.438" lon="7.10319">
        <ele>849.2</ele>
        <time>2022-12-27T09:53:41Z</time>
      </trkpt>
      <trkpt lat="48.43805" lon="7.10327">
        <ele>850.2</ele>
        <time>2022-12-27T09:53:47Z</time>
      </trkpt>
      <trkpt lat="48.43807" lon="7.10332">
        <ele>850.6</ele>
        <time>2022-12-27T09:53:50Z</time>
      </trkpt>
      <trkpt lat="48.4381" lon="7.10338">
        <ele>851.2</ele>
        <time>2022-12-27T09:53:55Z</time>
      </trkpt>
      <trkpt lat="48.43813" lon="7.10342">
        <ele>851.6</ele>
        <time>2022-12-27T09:53:58Z</time>
      </trkpt>
      <trkpt lat="48.43813" lon="7.10343">
        <ele>851.8</ele>
        <time>2022-12-27T09:53:59Z</time>
      </trkpt>
      <trkpt lat="48.43817" lon="7.10347">
        <ele>852.2</ele>
        <time>2022-12-27T09:54:03Z</time>
      </trkpt>
      <trkpt lat="48.43819" lon="7.1035">
        <ele>852.4</ele>
        <time>2022-12-27T09:54:05Z</time>
      </trkpt>
      <trkpt lat="48.4382" lon="7.10351">
        <ele>852.4</ele>
        <time>2022-12-27T09:54:06Z</time>
      </trkpt>
      <trkpt lat="48.43833" lon="7.10357">
        <ele>852.8</ele>
        <time>2022-12-27T09:54:13Z</time>
      </trkpt>
      <trkpt lat="48.43849" lon="7.10362">
        <ele>853.4</ele>
        <time>2022-12-27T09:54:22Z</time>
      </trkpt>
      <trkpt lat="48.43853" lon="7.10364">
        <ele>853.6</ele>
        <time>2022-12-27T09:54:24Z</time>
      </trkpt>
      <trkpt lat="48.43865" lon="7.10367">
        <ele>854</ele>
        <time>2022-12-27T09:54:31Z</time>
      </trkpt>
      <trkpt lat="48.43881" lon="7.10369">
        <ele>854.6</ele>
        <time>2022-12-27T09:54:40Z</time>
      </trkpt>
      <trkpt lat="48.43887" lon="7.1037">
        <ele>855</ele>
        <time>2022-12-27T09:54:43Z</time>
      </trkpt>
      <trkpt lat="48.43897" lon="7.1037">
        <ele>855.4</ele>
        <time>2022-12-27T09:54:48Z</time>
      </trkpt>
      <trkpt lat="48.43909" lon="7.1037">
        <ele>856</ele>
        <time>2022-12-27T09:54:55Z</time>
      </trkpt>
      <trkpt lat="48.43918" lon="7.1037">
        <ele>856.4</ele>
        <time>2022-12-27T09:55:00Z</time>
      </trkpt>
      <trkpt lat="48.43931" lon="7.1037">
        <ele>857</ele>
        <time>2022-12-27T09:55:08Z</time>
      </trkpt>
      <trkpt lat="48.43944" lon="7.10367">
        <ele>858</ele>
        <time>2022-12-27T09:55:16Z</time>
      </trkpt>
      <trkpt lat="48.43947" lon="7.10365">
        <ele>858.2</ele>
        <time>2022-12-27T09:55:18Z</time>
      </trkpt>
      <trkpt lat="48.43953" lon="7.10361">
        <ele>858.6</ele>
        <time>2022-12-27T09:55:23Z</time>
      </trkpt>
      <trkpt lat="48.43963" lon="7.10355">
        <ele>859.4</ele>
        <time>2022-12-27T09:55:29Z</time>
      </trkpt>
      <trkpt lat="48.43967" lon="7.10352">
        <ele>859.6</ele>
        <time>2022-12-27T09:55:31Z</time>
      </trkpt>
      <trkpt lat="48.43975" lon="7.10347">
        <ele>860.6</ele>
        <time>2022-12-27T09:55:36Z</time>
      </trkpt>
      <trkpt lat="48.43977" lon="7.10345">
        <ele>861.2</ele>
        <time>2022-12-27T09:55:38Z</time>
      </trkpt>
      <trkpt lat="48.43985" lon="7.10338">
        <ele>861.8</ele>
        <time>2022-12-27T09:55:44Z</time>
      </trkpt>
      <trkpt lat="48.43988" lon="7.10335">
        <ele>862</ele>
        <time>2022-12-27T09:55:46Z</time>
      </trkpt>
      <trkpt lat="48.43995" lon="7.10321">
        <ele>862.6</ele>
        <time>2022-12-27T09:55:54Z</time>
      </trkpt>
      <trkpt lat="48.43997" lon="7.10316">
        <ele>862.8</ele>
        <time>2022-12-27T09:55:56Z</time>
      </trkpt>
      <trkpt lat="48.43998" lon="7.10305">
        <ele>863.4</ele>
        <time>2022-12-27T09:56:01Z</time>
      </trkpt>
      <trkpt lat="48.43999" lon="7.10299">
        <ele>863.6</ele>
        <time>2022-12-27T09:56:04Z</time>
      </trkpt>
      <trkpt lat="48.43999" lon="7.10294">
        <ele>863.8</ele>
        <time>2022-12-27T09:56:06Z</time>
      </trkpt>
      <trkpt lat="48.43999" lon="7.1029">
        <ele>864.2</ele>
        <time>2022-12-27T09:56:08Z</time>
      </trkpt>
      <trkpt lat="48.43999" lon="7.10286">
        <ele>864.6</ele>
        <time>2022-12-27T09:56:10Z</time>
      </trkpt>
      <trkpt lat="48.43999" lon="7.10275">
        <ele>865</ele>
        <time>2022-12-27T09:56:14Z</time>
      </trkpt>
      <trkpt lat="48.43999" lon="7.10273">
        <ele>865</ele>
        <time>2022-12-27T09:56:15Z</time>
      </trkpt>
      <trkpt lat="48.43998" lon="7.10256">
        <ele>866</ele>
        <time>2022-12-27T09:56:22Z</time>
      </trkpt>
      <trkpt lat="48.43997" lon="7.10253">
        <ele>866.2</ele>
        <time>2022-12-27T09:56:23Z</time>
      </trkpt>
      <trkpt lat="48.43997" lon="7.10249">
        <ele>866.4</ele>
        <time>2022-12-27T09:56:25Z</time>
      </trkpt>
      <trkpt lat="48.43996" lon="7.10241">
        <ele>866.8</ele>
        <time>2022-12-27T09:56:29Z</time>
      </trkpt>
      <trkpt lat="48.43996" lon="7.10234">
        <ele>867</ele>
        <time>2022-12-27T09:56:31Z</time>
      </trkpt>
      <trkpt lat="48.43995" lon="7.10227">
        <ele>867.4</ele>
        <time>2022-12-27T09:56:34Z</time>
      </trkpt>
      <trkpt lat="48.43993" lon="7.10208">
        <ele>868.2</ele>
        <time>2022-12-27T09:56:42Z</time>
      </trkpt>
      <trkpt lat="48.43993" lon="7.10197">
        <ele>868.6</ele>
        <time>2022-12-27T09:56:47Z</time>
      </trkpt>
      <trkpt lat="48.43993" lon="7.10193">
        <ele>868.8</ele>
        <time>2022-12-27T09:56:49Z</time>
      </trkpt>
      <trkpt lat="48.43993" lon="7.1019">
        <ele>868.8</ele>
        <time>2022-12-27T09:56:50Z</time>
      </trkpt>
      <trkpt lat="48.43992" lon="7.10183">
        <ele>869</ele>
        <time>2022-12-27T09:56:53Z</time>
      </trkpt>
      <trkpt lat="48.43992" lon="7.10177">
        <ele>869.4</ele>
        <time>2022-12-27T09:56:56Z</time>
      </trkpt>
      <trkpt lat="48.4399" lon="7.10164">
        <ele>869.8</ele>
        <time>2022-12-27T09:57:01Z</time>
      </trkpt>
      <trkpt lat="48.4399" lon="7.10144">
        <ele>870.4</ele>
        <time>2022-12-27T09:57:09Z</time>
      </trkpt>
      <trkpt lat="48.4399" lon="7.10137">
        <ele>870.8</ele>
        <time>2022-12-27T09:57:12Z</time>
      </trkpt>
      <trkpt lat="48.43992" lon="7.10131">
        <ele>871.2</ele>
        <time>2022-12-27T09:57:15Z</time>
      </trkpt>
      <trkpt lat="48.43993" lon="7.10129">
        <ele>871.4</ele>
        <time>2022-12-27T09:57:16Z</time>
      </trkpt>
      <trkpt lat="48.43996" lon="7.10126">
        <ele>871.6</ele>
        <time>2022-12-27T09:57:19Z</time>
      </trkpt>
      <trkpt lat="48.43998" lon="7.10126">
        <ele>871.8</ele>
        <time>2022-12-27T09:57:20Z</time>
      </trkpt>
      <trkpt lat="48.43999" lon="7.10127">
        <ele>871.8</ele>
        <time>2022-12-27T09:57:21Z</time>
      </trkpt>
      <trkpt lat="48.44" lon="7.10129">
        <ele>872.2</ele>
        <time>2022-12-27T09:57:24Z</time>
      </trkpt>
      <trkpt lat="48.44001" lon="7.10131">
        <ele>873</ele>
        <time>2022-12-27T09:57:34Z</time>
      </trkpt>
      <trkpt lat="48.44003" lon="7.10131">
        <ele>873</ele>
        <time>2022-12-27T09:57:37Z</time>
      </trkpt>
      <trkpt lat="48.44004" lon="7.10129">
        <ele>873</ele>
        <time>2022-12-27T09:57:40Z</time>
      </trkpt>
      <trkpt lat="48.44004" lon="7.10129">
        <ele>873.2</ele>
        <time>2022-12-27T09:57:45Z</time>
      </trkpt>
      <trkpt lat="48.44004" lon="7.10129">
        <ele>873.4</ele>
        <time>2022-12-27T09:57:48Z</time>
      </trkpt>
      <trkpt lat="48.44004" lon="7.10129">
        <ele>873.4</ele>
        <time>2022-12-27T09:57:53Z</time>
      </trkpt>
      <trkpt lat="48.44004" lon="7.10129">
        <ele>873.4</ele>
        <time>2022-12-27T09:58:15Z</time>
      </trkpt>
      <trkpt lat="48.44004" lon="7.10129">
        <ele>873.2</ele>
        <time>2022-12-27T09:58:25Z</time>
      </trkpt>
      <trkpt lat="48.44004" lon="7.10129">
        <ele>873.2</ele>
        <time>2022-12-27T09:58:31Z</time>
      </trkpt>
      <trkpt lat="48.44004" lon="7.10129">
        <ele>873</ele>
        <time>2022-12-27T09:58:36Z</time>
      </trkpt>
      <trkpt lat="48.44004" lon="7.10129">
        <ele>873</ele>
        <time>2022-12-27T09:59:04Z</time>
      </trkpt>
      <trkpt lat="48.44003" lon="7.10129">
        <ele>873</ele>
        <time>2022-12-27T09:59:11Z</time>
      </trkpt>
      <trkpt lat="48.44003" lon="7.10129">
        <ele>873</ele>
        <time>2022-12-27T09:59:16Z</time>
      </trkpt>
      <trkpt lat="48.44003" lon="7.10132">
        <ele>873</ele>
        <time>2022-12-27T09:59:17Z</time>
      </trkpt>
      <trkpt lat="48.44002" lon="7.10137">
        <ele>872.8</ele>
        <time>2022-12-27T09:59:19Z</time>
      </trkpt>
      <trkpt lat="48.44002" lon="7.10151">
        <ele>872.8</ele>
        <time>2022-12-27T09:59:24Z</time>
      </trkpt>
      <trkpt lat="48.44004" lon="7.10168">
        <ele>873.4</ele>
        <time>2022-12-27T09:59:31Z</time>
      </trkpt>
      <trkpt lat="48.44006" lon="7.10182">
        <ele>874</ele>
        <time>2022-12-27T09:59:37Z</time>
      </trkpt>
      <trkpt lat="48.44005" lon="7.10196">
        <ele>874.6</ele>
        <time>2022-12-27T09:59:42Z</time>
      </trkpt>
      <trkpt lat="48.44006" lon="7.10198">
        <ele>874.6</ele>
        <time>2022-12-27T09:59:43Z</time>
      </trkpt>
      <trkpt lat="48.44009" lon="7.10207">
        <ele>875</ele>
        <time>2022-12-27T09:59:46Z</time>
      </trkpt>
      <trkpt lat="48.4401" lon="7.10214">
        <ele>875.2</ele>
        <time>2022-12-27T09:59:49Z</time>
      </trkpt>
      <trkpt lat="48.44011" lon="7.1022">
        <ele>875.4</ele>
        <time>2022-12-27T09:59:51Z</time>
      </trkpt>
      <trkpt lat="48.44011" lon="7.10223">
        <ele>875.4</ele>
        <time>2022-12-27T09:59:52Z</time>
      </trkpt>
      <trkpt lat="48.44015" lon="7.10232">
        <ele>875.8</ele>
        <time>2022-12-27T09:59:57Z</time>
      </trkpt>
      <trkpt lat="48.44018" lon="7.10238">
        <ele>876.2</ele>
        <time>2022-12-27T10:00:00Z</time>
      </trkpt>
      <trkpt lat="48.44022" lon="7.1025">
        <ele>876.6</ele>
        <time>2022-12-27T10:00:05Z</time>
      </trkpt>
      <trkpt lat="48.44024" lon="7.10253">
        <ele>876.8</ele>
        <time>2022-12-27T10:00:07Z</time>
      </trkpt>
      <trkpt lat="48.44026" lon="7.10258">
        <ele>877</ele>
        <time>2022-12-27T10:00:10Z</time>
      </trkpt>
      <trkpt lat="48.44027" lon="7.10261">
        <ele>877.2</ele>
        <time>2022-12-27T10:00:12Z</time>
      </trkpt>
      <trkpt lat="48.44032" lon="7.10271">
        <ele>877.8</ele>
        <time>2022-12-27T10:00:17Z</time>
      </trkpt>
      <trkpt lat="48.44035" lon="7.1028">
        <ele>878.2</ele>
        <time>2022-12-27T10:00:21Z</time>
      </trkpt>
      <trkpt lat="48.4404" lon="7.10291">
        <ele>878.6</ele>
        <time>2022-12-27T10:00:26Z</time>
      </trkpt>
      <trkpt lat="48.44041" lon="7.10295">
        <ele>878.8</ele>
        <time>2022-12-27T10:00:28Z</time>
      </trkpt>
      <trkpt lat="48.44043" lon="7.10302">
        <ele>879.2</ele>
        <time>2022-12-27T10:00:31Z</time>
      </trkpt>
      <trkpt lat="48.44044" lon="7.10304">
        <ele>879.2</ele>
        <time>2022-12-27T10:00:32Z</time>
      </trkpt>
      <trkpt lat="48.4405" lon="7.10315">
        <ele>879.6</ele>
        <time>2022-12-27T10:00:38Z</time>
      </trkpt>
      <trkpt lat="48.44054" lon="7.10325">
        <ele>880.2</ele>
        <time>2022-12-27T10:00:43Z</time>
      </trkpt>
      <trkpt lat="48.44054" lon="7.10326">
        <ele>880.2</ele>
        <time>2022-12-27T10:00:44Z</time>
      </trkpt>
      <trkpt lat="48.44057" lon="7.10334">
        <ele>881.2</ele>
        <time>2022-12-27T10:00:49Z</time>
      </trkpt>
      <trkpt lat="48.44061" lon="7.10341">
        <ele>881.6</ele>
        <time>2022-12-27T10:00:53Z</time>
      </trkpt>
      <trkpt lat="48.44063" lon="7.10346">
        <ele>881.8</ele>
        <time>2022-12-27T10:00:56Z</time>
      </trkpt>
      <trkpt lat="48.44065" lon="7.10356">
        <ele>882.6</ele>
        <time>2022-12-27T10:01:01Z</time>
      </trkpt>
      <trkpt lat="48.44066" lon="7.10358">
        <ele>882.6</ele>
        <time>2022-12-27T10:01:02Z</time>
      </trkpt>
      <trkpt lat="48.44068" lon="7.10364">
        <ele>883</ele>
        <time>2022-12-27T10:01:05Z</time>
      </trkpt>
      <trkpt lat="48.44071" lon="7.10377">
        <ele>883.4</ele>
        <time>2022-12-27T10:01:11Z</time>
      </trkpt>
      <trkpt lat="48.44071" lon="7.10381">
        <ele>883.6</ele>
        <time>2022-12-27T10:01:13Z</time>
      </trkpt>
      <trkpt lat="48.44073" lon="7.10393">
        <ele>884.2</ele>
        <time>2022-12-27T10:01:18Z</time>
      </trkpt>
      <trkpt lat="48.44075" lon="7.10408">
        <ele>884.8</ele>
        <time>2022-12-27T10:01:25Z</time>
      </trkpt>
      <trkpt lat="48.44077" lon="7.10414">
        <ele>885.4</ele>
        <time>2022-12-27T10:01:28Z</time>
      </trkpt>
      <trkpt lat="48.44079" lon="7.10425">
        <ele>885.8</ele>
        <time>2022-12-27T10:01:34Z</time>
      </trkpt>
      <trkpt lat="48.4408" lon="7.10427">
        <ele>886</ele>
        <time>2022-12-27T10:01:35Z</time>
      </trkpt>
      <trkpt lat="48.44082" lon="7.10434">
        <ele>886.2</ele>
        <time>2022-12-27T10:01:39Z</time>
      </trkpt>
      <trkpt lat="48.44083" lon="7.10438">
        <ele>886.6</ele>
        <time>2022-12-27T10:01:41Z</time>
      </trkpt>
      <trkpt lat="48.44087" lon="7.10448">
        <ele>887.2</ele>
        <time>2022-12-27T10:01:47Z</time>
      </trkpt>
      <trkpt lat="48.44087" lon="7.1045">
        <ele>887.4</ele>
        <time>2022-12-27T10:01:48Z</time>
      </trkpt>
      <trkpt lat="48.44095" lon="7.10465">
        <ele>888.4</ele>
        <time>2022-12-27T10:01:57Z</time>
      </trkpt>
      <trkpt lat="48.44102" lon="7.10478">
        <ele>889.2</ele>
        <time>2022-12-27T10:02:04Z</time>
      </trkpt>
      <trkpt lat="48.44105" lon="7.10483">
        <ele>889.6</ele>
        <time>2022-12-27T10:02:07Z</time>
      </trkpt>
      <trkpt lat="48.44113" lon="7.10498">
        <ele>890.8</ele>
        <time>2022-12-27T10:02:15Z</time>
      </trkpt>
      <trkpt lat="48.4412" lon="7.10514">
        <ele>891.8</ele>
        <time>2022-12-27T10:02:23Z</time>
      </trkpt>
      <trkpt lat="48.44122" lon="7.10517">
        <ele>892</ele>
        <time>2022-12-27T10:02:25Z</time>
      </trkpt>
      <trkpt lat="48.44126" lon="7.10529">
        <ele>893</ele>
        <time>2022-12-27T10:02:31Z</time>
      </trkpt>
      <trkpt lat="48.4413" lon="7.10535">
        <ele>893.4</ele>
        <time>2022-12-27T10:02:34Z</time>
      </trkpt>
      <trkpt lat="48.44132" lon="7.10538">
        <ele>893.8</ele>
        <time>2022-12-27T10:02:36Z</time>
      </trkpt>
      <trkpt lat="48.44135" lon="7.10542">
        <ele>894</ele>
        <time>2022-12-27T10:02:38Z</time>
      </trkpt>
      <trkpt lat="48.44137" lon="7.10545">
        <ele>894.4</ele>
        <time>2022-12-27T10:02:40Z</time>
      </trkpt>
      <trkpt lat="48.44139" lon="7.10546">
        <ele>894.6</ele>
        <time>2022-12-27T10:02:41Z</time>
      </trkpt>
      <trkpt lat="48.44143" lon="7.10551">
        <ele>894.8</ele>
        <time>2022-12-27T10:02:44Z</time>
      </trkpt>
      <trkpt lat="48.44146" lon="7.10556">
        <ele>895</ele>
        <time>2022-12-27T10:02:47Z</time>
      </trkpt>
      <trkpt lat="48.4415" lon="7.1056">
        <ele>895.4</ele>
        <time>2022-12-27T10:02:50Z</time>
      </trkpt>
      <trkpt lat="48.44155" lon="7.10565">
        <ele>896.2</ele>
        <time>2022-12-27T10:02:54Z</time>
      </trkpt>
      <trkpt lat="48.44157" lon="7.10568">
        <ele>896.4</ele>
        <time>2022-12-27T10:02:56Z</time>
      </trkpt>
      <trkpt lat="48.44157" lon="7.10568">
        <ele>897</ele>
        <time>2022-12-27T10:03:01Z</time>
      </trkpt>
      <trkpt lat="48.44172" lon="7.10584">
        <ele>898.8</ele>
        <time>2022-12-27T10:05:51Z</time>
      </trkpt>
      <trkpt lat="48.44173" lon="7.10585">
        <ele>898.8</ele>
        <time>2022-12-27T10:05:52Z</time>
      </trkpt>
      <trkpt lat="48.44175" lon="7.10587">
        <ele>899</ele>
        <time>2022-12-27T10:05:54Z</time>
      </trkpt>
      <trkpt lat="48.44181" lon="7.10592">
        <ele>900</ele>
        <time>2022-12-27T10:05:59Z</time>
      </trkpt>
      <trkpt lat="48.44185" lon="7.10596">
        <ele>900.4</ele>
        <time>2022-12-27T10:06:02Z</time>
      </trkpt>
      <trkpt lat="48.4419" lon="7.10601">
        <ele>901</ele>
        <time>2022-12-27T10:06:07Z</time>
      </trkpt>
      <trkpt lat="48.44196" lon="7.10605">
        <ele>901.6</ele>
        <time>2022-12-27T10:06:12Z</time>
      </trkpt>
      <trkpt lat="48.44201" lon="7.10609">
        <ele>902</ele>
        <time>2022-12-27T10:06:16Z</time>
      </trkpt>
      <trkpt lat="48.44203" lon="7.10612">
        <ele>902.4</ele>
        <time>2022-12-27T10:06:18Z</time>
      </trkpt>
      <trkpt lat="48.44212" lon="7.10617">
        <ele>903.2</ele>
        <time>2022-12-27T10:06:25Z</time>
      </trkpt>
      <trkpt lat="48.4422" lon="7.10622">
        <ele>904</ele>
        <time>2022-12-27T10:06:32Z</time>
      </trkpt>
      <trkpt lat="48.44221" lon="7.10622">
        <ele>904.2</ele>
        <time>2022-12-27T10:06:33Z</time>
      </trkpt>
      <trkpt lat="48.44227" lon="7.10624">
        <ele>905</ele>
        <time>2022-12-27T10:06:38Z</time>
      </trkpt>
      <trkpt lat="48.44231" lon="7.10626">
        <ele>905.6</ele>
        <time>2022-12-27T10:06:41Z</time>
      </trkpt>
      <trkpt lat="48.44234" lon="7.10627">
        <ele>905.8</ele>
        <time>2022-12-27T10:06:44Z</time>
      </trkpt>
      <trkpt lat="48.44236" lon="7.10628">
        <ele>905.8</ele>
        <time>2022-12-27T10:06:45Z</time>
      </trkpt>
      <trkpt lat="48.44237" lon="7.10627">
        <ele>905.8</ele>
        <time>2022-12-27T10:06:46Z</time>
      </trkpt>
      <trkpt lat="48.44241" lon="7.10627">
        <ele>906.6</ele>
        <time>2022-12-27T10:06:50Z</time>
      </trkpt>
      <trkpt lat="48.44243" lon="7.10627">
        <ele>906.8</ele>
        <time>2022-12-27T10:06:51Z</time>
      </trkpt>
      <trkpt lat="48.44249" lon="7.10629">
        <ele>907.4</ele>
        <time>2022-12-27T10:06:56Z</time>
      </trkpt>
      <trkpt lat="48.4425" lon="7.10629">
        <ele>907.6</ele>
        <time>2022-12-27T10:06:57Z</time>
      </trkpt>
      <trkpt lat="48.44253" lon="7.1063">
        <ele>907.8</ele>
        <time>2022-12-27T10:06:59Z</time>
      </trkpt>
      <trkpt lat="48.44262" lon="7.10633">
        <ele>908.6</ele>
        <time>2022-12-27T10:07:06Z</time>
      </trkpt>
      <trkpt lat="48.44264" lon="7.10634">
        <ele>908.8</ele>
        <time>2022-12-27T10:07:08Z</time>
      </trkpt>
      <trkpt lat="48.4427" lon="7.10635">
        <ele>910</ele>
        <time>2022-12-27T10:07:13Z</time>
      </trkpt>
      <trkpt lat="48.44279" lon="7.1064">
        <ele>910.8</ele>
        <time>2022-12-27T10:07:19Z</time>
      </trkpt>
      <trkpt lat="48.44281" lon="7.10641">
        <ele>911</ele>
        <time>2022-12-27T10:07:21Z</time>
      </trkpt>
      <trkpt lat="48.44287" lon="7.10646">
        <ele>912</ele>
        <time>2022-12-27T10:07:26Z</time>
      </trkpt>
      <trkpt lat="48.44289" lon="7.10646">
        <ele>912.2</ele>
        <time>2022-12-27T10:07:27Z</time>
      </trkpt>
      <trkpt lat="48.44292" lon="7.10648">
        <ele>912.4</ele>
        <time>2022-12-27T10:07:29Z</time>
      </trkpt>
      <trkpt lat="48.44301" lon="7.10653">
        <ele>913.2</ele>
        <time>2022-12-27T10:07:36Z</time>
      </trkpt>
      <trkpt lat="48.44303" lon="7.10653">
        <ele>913.6</ele>
        <time>2022-12-27T10:07:37Z</time>
      </trkpt>
      <trkpt lat="48.44312" lon="7.10661">
        <ele>914.6</ele>
        <time>2022-12-27T10:07:45Z</time>
      </trkpt>
      <trkpt lat="48.44313" lon="7.10661">
        <ele>914.6</ele>
        <time>2022-12-27T10:07:46Z</time>
      </trkpt>
      <trkpt lat="48.44322" lon="7.10666">
        <ele>915.8</ele>
        <time>2022-12-27T10:07:53Z</time>
      </trkpt>
      <trkpt lat="48.44323" lon="7.10666">
        <ele>916</ele>
        <time>2022-12-27T10:07:54Z</time>
      </trkpt>
      <trkpt lat="48.44325" lon="7.10667">
        <ele>916.2</ele>
        <time>2022-12-27T10:07:55Z</time>
      </trkpt>
      <trkpt lat="48.44336" lon="7.10668">
        <ele>917</ele>
        <time>2022-12-27T10:08:02Z</time>
      </trkpt>
      <trkpt lat="48.44337" lon="7.10668">
        <ele>917.2</ele>
        <time>2022-12-27T10:08:03Z</time>
      </trkpt>
      <trkpt lat="48.4434" lon="7.10668">
        <ele>917.4</ele>
        <time>2022-12-27T10:08:05Z</time>
      </trkpt>
      <trkpt lat="48.44349" lon="7.10667">
        <ele>918.2</ele>
        <time>2022-12-27T10:08:10Z</time>
      </trkpt>
      <trkpt lat="48.44354" lon="7.10667">
        <ele>918.8</ele>
        <time>2022-12-27T10:08:13Z</time>
      </trkpt>
      <trkpt lat="48.44358" lon="7.10666">
        <ele>919.2</ele>
        <time>2022-12-27T10:08:16Z</time>
      </trkpt>
      <trkpt lat="48.44361" lon="7.10666">
        <ele>919.4</ele>
        <time>2022-12-27T10:08:18Z</time>
      </trkpt>
      <trkpt lat="48.44365" lon="7.10667">
        <ele>920</ele>
        <time>2022-12-27T10:08:20Z</time>
      </trkpt>
      <trkpt lat="48.44367" lon="7.10668">
        <ele>920.2</ele>
        <time>2022-12-27T10:08:21Z</time>
      </trkpt>
      <trkpt lat="48.4437" lon="7.10667">
        <ele>920.8</ele>
        <time>2022-12-27T10:08:23Z</time>
      </trkpt>
      <trkpt lat="48.44376" lon="7.10664">
        <ele>921.2</ele>
        <time>2022-12-27T10:08:26Z</time>
      </trkpt>
      <trkpt lat="48.44383" lon="7.10661">
        <ele>922</ele>
        <time>2022-12-27T10:08:30Z</time>
      </trkpt>
      <trkpt lat="48.44389" lon="7.10657">
        <ele>922.2</ele>
        <time>2022-12-27T10:08:33Z</time>
      </trkpt>
      <trkpt lat="48.44393" lon="7.10652">
        <ele>922.4</ele>
        <time>2022-12-27T10:08:35Z</time>
      </trkpt>
      <trkpt lat="48.44398" lon="7.10645">
        <ele>922.4</ele>
        <time>2022-12-27T10:08:38Z</time>
      </trkpt>
      <trkpt lat="48.44404" lon="7.10636">
        <ele>923</ele>
        <time>2022-12-27T10:08:43Z</time>
      </trkpt>
      <trkpt lat="48.44411" lon="7.10622">
        <ele>923.2</ele>
        <time>2022-12-27T10:08:50Z</time>
      </trkpt>
      <trkpt lat="48.44415" lon="7.10614">
        <ele>923.8</ele>
        <time>2022-12-27T10:08:54Z</time>
      </trkpt>
      <trkpt lat="48.44419" lon="7.10608">
        <ele>924</ele>
        <time>2022-12-27T10:08:57Z</time>
      </trkpt>
      <trkpt lat="48.44426" lon="7.10594">
        <ele>924.4</ele>
        <time>2022-12-27T10:09:04Z</time>
      </trkpt>
      <trkpt lat="48.44431" lon="7.10583">
        <ele>925</ele>
        <time>2022-12-27T10:09:08Z</time>
      </trkpt>
      <trkpt lat="48.44432" lon="7.1058">
        <ele>925</ele>
        <time>2022-12-27T10:09:09Z</time>
      </trkpt>
      <trkpt lat="48.44433" lon="7.10578">
        <ele>925.2</ele>
        <time>2022-12-27T10:09:10Z</time>
      </trkpt>
      <trkpt lat="48.44437" lon="7.10556">
        <ele>925.8</ele>
        <time>2022-12-27T10:09:17Z</time>
      </trkpt>
      <trkpt lat="48.44439" lon="7.10549">
        <ele>926</ele>
        <time>2022-12-27T10:09:20Z</time>
      </trkpt>
      <trkpt lat="48.44441" lon="7.10541">
        <ele>926.2</ele>
        <time>2022-12-27T10:09:23Z</time>
      </trkpt>
      <trkpt lat="48.44445" lon="7.10528">
        <ele>926.6</ele>
        <time>2022-12-27T10:09:28Z</time>
      </trkpt>
      <trkpt lat="48.44446" lon="7.10522">
        <ele>926.6</ele>
        <time>2022-12-27T10:09:29Z</time>
      </trkpt>
      <trkpt lat="48.4445" lon="7.10513">
        <ele>927.2</ele>
        <time>2022-12-27T10:09:33Z</time>
      </trkpt>
      <trkpt lat="48.44453" lon="7.10504">
        <ele>927.4</ele>
        <time>2022-12-27T10:09:37Z</time>
      </trkpt>
      <trkpt lat="48.4446" lon="7.10487">
        <ele>928.2</ele>
        <time>2022-12-27T10:09:44Z</time>
      </trkpt>
      <trkpt lat="48.4447" lon="7.10459">
        <ele>928.6</ele>
        <time>2022-12-27T10:09:52Z</time>
      </trkpt>
      <trkpt lat="48.44478" lon="7.10433">
        <ele>929.2</ele>
        <time>2022-12-27T10:10:00Z</time>
      </trkpt>
      <trkpt lat="48.44479" lon="7.1043">
        <ele>929.4</ele>
        <time>2022-12-27T10:10:01Z</time>
      </trkpt>
      <trkpt lat="48.4448" lon="7.10428">
        <ele>929.4</ele>
        <time>2022-12-27T10:10:02Z</time>
      </trkpt>
      <trkpt lat="48.44488" lon="7.10415">
        <ele>930</ele>
        <time>2022-12-27T10:10:07Z</time>
      </trkpt>
      <trkpt lat="48.44496" lon="7.104">
        <ele>930.6</ele>
        <time>2022-12-27T10:10:12Z</time>
      </trkpt>
      <trkpt lat="48.44502" lon="7.10392">
        <ele>930.8</ele>
        <time>2022-12-27T10:10:15Z</time>
      </trkpt>
      <trkpt lat="48.44515" lon="7.10372">
        <ele>930.8</ele>
        <time>2022-12-27T10:10:22Z</time>
      </trkpt>
      <trkpt lat="48.44524" lon="7.10351">
        <ele>930.8</ele>
        <time>2022-12-27T10:10:28Z</time>
      </trkpt>
      <trkpt lat="48.4453" lon="7.10339">
        <ele>930.4</ele>
        <time>2022-12-27T10:10:32Z</time>
      </trkpt>
      <trkpt lat="48.44534" lon="7.10333">
        <ele>930.4</ele>
        <time>2022-12-27T10:10:34Z</time>
      </trkpt>
      <trkpt lat="48.44538" lon="7.10326">
        <ele>930.4</ele>
        <time>2022-12-27T10:10:37Z</time>
      </trkpt>
      <trkpt lat="48.44552" lon="7.10312">
        <ele>930.4</ele>
        <time>2022-12-27T10:10:42Z</time>
      </trkpt>
      <trkpt lat="48.44559" lon="7.10306">
        <ele>930.4</ele>
        <time>2022-12-27T10:10:43Z</time>
      </trkpt>
      <trkpt lat="48.44569" lon="7.10297">
        <ele>930</ele>
        <time>2022-12-27T10:10:46Z</time>
      </trkpt>
      <trkpt lat="48.44575" lon="7.10292">
        <ele>929.8</ele>
        <time>2022-12-27T10:10:48Z</time>
      </trkpt>
      <trkpt lat="48.44582" lon="7.10288">
        <ele>929.4</ele>
        <time>2022-12-27T10:10:50Z</time>
      </trkpt>
      <trkpt lat="48.44588" lon="7.10284">
        <ele>929.2</ele>
        <time>2022-12-27T10:10:53Z</time>
      </trkpt>
      <trkpt lat="48.44594" lon="7.10283">
        <ele>928.6</ele>
        <time>2022-12-27T10:10:56Z</time>
      </trkpt>
      <trkpt lat="48.44594" lon="7.10283">
        <ele>928.2</ele>
        <time>2022-12-27T10:10:58Z</time>
      </trkpt>
      <trkpt lat="48.44594" lon="7.10283">
        <ele>928.2</ele>
        <time>2022-12-27T10:10:59Z</time>
      </trkpt>
      <trkpt lat="48.44599" lon="7.10279">
        <ele>927.6</ele>
        <time>2022-12-27T10:12:14Z</time>
      </trkpt>
      <trkpt lat="48.44604" lon="7.10274">
        <ele>927.6</ele>
        <time>2022-12-27T10:12:16Z</time>
      </trkpt>
      <trkpt lat="48.44617" lon="7.1026">
        <ele>927.6</ele>
        <time>2022-12-27T10:12:20Z</time>
      </trkpt>
      <trkpt lat="48.44635" lon="7.10237">
        <ele>927.6</ele>
        <time>2022-12-27T10:12:25Z</time>
      </trkpt>
      <trkpt lat="48.44641" lon="7.1023">
        <ele>927.6</ele>
        <time>2022-12-27T10:12:28Z</time>
      </trkpt>
      <trkpt lat="48.44653" lon="7.10215">
        <ele>927.6</ele>
        <time>2022-12-27T10:12:31Z</time>
      </trkpt>
      <trkpt lat="48.44679" lon="7.10178">
        <ele>927.4</ele>
        <time>2022-12-27T10:12:39Z</time>
      </trkpt>
      <trkpt lat="48.44702" lon="7.10137">
        <ele>926.4</ele>
        <time>2022-12-27T10:12:46Z</time>
      </trkpt>
      <trkpt lat="48.44705" lon="7.10132">
        <ele>926.4</ele>
        <time>2022-12-27T10:12:47Z</time>
      </trkpt>
      <trkpt lat="48.44712" lon="7.10121">
        <ele>926.4</ele>
        <time>2022-12-27T10:12:49Z</time>
      </trkpt>
      <trkpt lat="48.44726" lon="7.101">
        <ele>925.8</ele>
        <time>2022-12-27T10:12:53Z</time>
      </trkpt>
      <trkpt lat="48.44732" lon="7.1009">
        <ele>925.2</ele>
        <time>2022-12-27T10:12:55Z</time>
      </trkpt>
      <trkpt lat="48.44746" lon="7.10074">
        <ele>925</ele>
        <time>2022-12-27T10:12:59Z</time>
      </trkpt>
      <trkpt lat="48.44754" lon="7.10066">
        <ele>924.8</ele>
        <time>2022-12-27T10:13:01Z</time>
      </trkpt>
      <trkpt lat="48.44771" lon="7.10057">
        <ele>924.6</ele>
        <time>2022-12-27T10:13:05Z</time>
      </trkpt>
      <trkpt lat="48.4478" lon="7.10054">
        <ele>924.4</ele>
        <time>2022-12-27T10:13:07Z</time>
      </trkpt>
      <trkpt lat="48.44794" lon="7.10049">
        <ele>924.2</ele>
        <time>2022-12-27T10:13:10Z</time>
      </trkpt>
      <trkpt lat="48.44794" lon="7.10049">
        <ele>924.2</ele>
        <time>2022-12-27T10:13:11Z</time>
      </trkpt>
      <trkpt lat="48.44811" lon="7.10038">
        <ele>924</ele>
        <time>2022-12-27T10:13:14Z</time>
      </trkpt>
      <trkpt lat="48.44819" lon="7.10038">
        <ele>923.8</ele>
        <time>2022-12-27T10:13:16Z</time>
      </trkpt>
      <trkpt lat="48.44836" lon="7.10035">
        <ele>923.4</ele>
        <time>2022-12-27T10:13:20Z</time>
      </trkpt>
      <trkpt lat="48.44846" lon="7.10031">
        <ele>923.4</ele>
        <time>2022-12-27T10:13:22Z</time>
      </trkpt>
      <trkpt lat="48.4485" lon="7.10029">
        <ele>923.2</ele>
        <time>2022-12-27T10:13:23Z</time>
      </trkpt>
      <trkpt lat="48.44855" lon="7.10027">
        <ele>923.2</ele>
        <time>2022-12-27T10:13:24Z</time>
      </trkpt>
      <trkpt lat="48.44868" lon="7.10018">
        <ele>923.2</ele>
        <time>2022-12-27T10:13:27Z</time>
      </trkpt>
      <trkpt lat="48.44876" lon="7.10014">
        <ele>923.2</ele>
        <time>2022-12-27T10:13:29Z</time>
      </trkpt>
      <trkpt lat="48.44894" lon="7.10001">
        <ele>923</ele>
        <time>2022-12-27T10:13:34Z</time>
      </trkpt>
      <trkpt lat="48.44902" lon="7.09998">
        <ele>923</ele>
        <time>2022-12-27T10:13:36Z</time>
      </trkpt>
      <trkpt lat="48.44918" lon="7.09993">
        <ele>923.2</ele>
        <time>2022-12-27T10:13:40Z</time>
      </trkpt>
      <trkpt lat="48.44933" lon="7.09988">
        <ele>923.4</ele>
        <time>2022-12-27T10:13:44Z</time>
      </trkpt>
      <trkpt lat="48.44951" lon="7.09983">
        <ele>923.6</ele>
        <time>2022-12-27T10:13:49Z</time>
      </trkpt>
      <trkpt lat="48.44954" lon="7.09983">
        <ele>923.6</ele>
        <time>2022-12-27T10:13:50Z</time>
      </trkpt>
      <trkpt lat="48.4497" lon="7.09984">
        <ele>924.2</ele>
        <time>2022-12-27T10:13:55Z</time>
      </trkpt>
      <trkpt lat="48.44973" lon="7.09985">
        <ele>924.4</ele>
        <time>2022-12-27T10:13:56Z</time>
      </trkpt>
      <trkpt lat="48.44978" lon="7.09987">
        <ele>924.6</ele>
        <time>2022-12-27T10:13:58Z</time>
      </trkpt>
      <trkpt lat="48.44993" lon="7.0999">
        <ele>925.2</ele>
        <time>2022-12-27T10:14:03Z</time>
      </trkpt>
      <trkpt lat="48.45007" lon="7.09996">
        <ele>925.6</ele>
        <time>2022-12-27T10:14:08Z</time>
      </trkpt>
      <trkpt lat="48.45013" lon="7.09997">
        <ele>925.8</ele>
        <time>2022-12-27T10:14:10Z</time>
      </trkpt>
      <trkpt lat="48.45015" lon="7.09998">
        <ele>925.8</ele>
        <time>2022-12-27T10:14:11Z</time>
      </trkpt>
      <trkpt lat="48.45037" lon="7.10004">
        <ele>926.6</ele>
        <time>2022-12-27T10:14:19Z</time>
      </trkpt>
      <trkpt lat="48.45045" lon="7.10006">
        <ele>927</ele>
        <time>2022-12-27T10:14:22Z</time>
      </trkpt>
      <trkpt lat="48.45057" lon="7.10007">
        <ele>927.4</ele>
        <time>2022-12-27T10:14:26Z</time>
      </trkpt>
      <trkpt lat="48.45073" lon="7.10012">
        <ele>928</ele>
        <time>2022-12-27T10:14:32Z</time>
      </trkpt>
      <trkpt lat="48.45082" lon="7.10014">
        <ele>928.2</ele>
        <time>2022-12-27T10:14:35Z</time>
      </trkpt>
      <trkpt lat="48.45113" lon="7.10021">
        <ele>929</ele>
        <time>2022-12-27T10:14:46Z</time>
      </trkpt>
      <trkpt lat="48.45122" lon="7.10023">
        <ele>929.2</ele>
        <time>2022-12-27T10:14:49Z</time>
      </trkpt>
      <trkpt lat="48.45141" lon="7.10028">
        <ele>929.6</ele>
        <time>2022-12-27T10:14:55Z</time>
      </trkpt>
      <trkpt lat="48.45161" lon="7.10033">
        <ele>929.6</ele>
        <time>2022-12-27T10:15:01Z</time>
      </trkpt>
      <trkpt lat="48.45186" lon="7.10033">
        <ele>929.6</ele>
        <time>2022-12-27T10:15:08Z</time>
      </trkpt>
      <trkpt lat="48.45214" lon="7.10027">
        <ele>929.4</ele>
        <time>2022-12-27T10:15:15Z</time>
      </trkpt>
      <trkpt lat="48.45247" lon="7.10015">
        <ele>929</ele>
        <time>2022-12-27T10:15:23Z</time>
      </trkpt>
      <trkpt lat="48.45268" lon="7.10004">
        <ele>928.6</ele>
        <time>2022-12-27T10:15:27Z</time>
      </trkpt>
      <trkpt lat="48.45273" lon="7.1">
        <ele>928.6</ele>
        <time>2022-12-27T10:15:28Z</time>
      </trkpt>
      <trkpt lat="48.45279" lon="7.09997">
        <ele>928.2</ele>
        <time>2022-12-27T10:15:29Z</time>
      </trkpt>
      <trkpt lat="48.4529" lon="7.0999">
        <ele>927.8</ele>
        <time>2022-12-27T10:15:31Z</time>
      </trkpt>
      <trkpt lat="48.45296" lon="7.09986">
        <ele>926.8</ele>
        <time>2022-12-27T10:15:33Z</time>
      </trkpt>
      <trkpt lat="48.45314" lon="7.09977">
        <ele>925.6</ele>
        <time>2022-12-27T10:15:35Z</time>
      </trkpt>
      <trkpt lat="48.45321" lon="7.09975">
        <ele>925.4</ele>
        <time>2022-12-27T10:15:36Z</time>
      </trkpt>
      <trkpt lat="48.45339" lon="7.09973">
        <ele>924.4</ele>
        <time>2022-12-27T10:15:39Z</time>
      </trkpt>
      <trkpt lat="48.45363" lon="7.09967">
        <ele>923.4</ele>
        <time>2022-12-27T10:15:43Z</time>
      </trkpt>
      <trkpt lat="48.45388" lon="7.09957">
        <ele>922.8</ele>
        <time>2022-12-27T10:15:47Z</time>
      </trkpt>
      <trkpt lat="48.45399" lon="7.09954">
        <ele>922.2</ele>
        <time>2022-12-27T10:15:49Z</time>
      </trkpt>
      <trkpt lat="48.45428" lon="7.09943">
        <ele>921.2</ele>
        <time>2022-12-27T10:15:54Z</time>
      </trkpt>
      <trkpt lat="48.45439" lon="7.0994">
        <ele>921</ele>
        <time>2022-12-27T10:15:56Z</time>
      </trkpt>
      <trkpt lat="48.45444" lon="7.09938">
        <ele>921</ele>
        <time>2022-12-27T10:15:57Z</time>
      </trkpt>
      <trkpt lat="48.4546" lon="7.09931">
        <ele>921</ele>
        <time>2022-12-27T10:16:00Z</time>
      </trkpt>
      <trkpt lat="48.45475" lon="7.09924">
        <ele>920.8</ele>
        <time>2022-12-27T10:16:03Z</time>
      </trkpt>
      <trkpt lat="48.45484" lon="7.09919">
        <ele>920.8</ele>
        <time>2022-12-27T10:16:05Z</time>
      </trkpt>
      <trkpt lat="48.45516" lon="7.09903">
        <ele>920.4</ele>
        <time>2022-12-27T10:16:12Z</time>
      </trkpt>
      <trkpt lat="48.45547" lon="7.09891">
        <ele>920.6</ele>
        <time>2022-12-27T10:16:19Z</time>
      </trkpt>
      <trkpt lat="48.45559" lon="7.09888">
        <ele>920.4</ele>
        <time>2022-12-27T10:16:22Z</time>
      </trkpt>
      <trkpt lat="48.45589" lon="7.09883">
        <ele>921.2</ele>
        <time>2022-12-27T10:16:30Z</time>
      </trkpt>
      <trkpt lat="48.45593" lon="7.09883">
        <ele>921.2</ele>
        <time>2022-12-27T10:16:31Z</time>
      </trkpt>
      <trkpt lat="48.45616" lon="7.09888">
        <ele>921.8</ele>
        <time>2022-12-27T10:16:38Z</time>
      </trkpt>
      <trkpt lat="48.45627" lon="7.09899">
        <ele>922.4</ele>
        <time>2022-12-27T10:16:42Z</time>
      </trkpt>
      <trkpt lat="48.45632" lon="7.09907">
        <ele>922.4</ele>
        <time>2022-12-27T10:16:44Z</time>
      </trkpt>
      <trkpt lat="48.4564" lon="7.09927">
        <ele>922.4</ele>
        <time>2022-12-27T10:16:49Z</time>
      </trkpt>
      <trkpt lat="48.45647" lon="7.09953">
        <ele>922.6</ele>
        <time>2022-12-27T10:16:54Z</time>
      </trkpt>
      <trkpt lat="48.45651" lon="7.09995">
        <ele>922.2</ele>
        <time>2022-12-27T10:17:02Z</time>
      </trkpt>
      <trkpt lat="48.45651" lon="7.10008">
        <ele>921.8</ele>
        <time>2022-12-27T10:17:04Z</time>
      </trkpt>
      <trkpt lat="48.45651" lon="7.10031">
        <ele>921.4</ele>
        <time>2022-12-27T10:17:07Z</time>
      </trkpt>
      <trkpt lat="48.45651" lon="7.1004">
        <ele>921.4</ele>
        <time>2022-12-27T10:17:08Z</time>
      </trkpt>
      <trkpt lat="48.45652" lon="7.1007">
        <ele>920</ele>
        <time>2022-12-27T10:17:11Z</time>
      </trkpt>
      <trkpt lat="48.45652" lon="7.10101">
        <ele>919.2</ele>
        <time>2022-12-27T10:17:14Z</time>
      </trkpt>
      <trkpt lat="48.45653" lon="7.10111">
        <ele>918.2</ele>
        <time>2022-12-27T10:17:15Z</time>
      </trkpt>
      <trkpt lat="48.45655" lon="7.10131">
        <ele>916.2</ele>
        <time>2022-12-27T10:17:17Z</time>
      </trkpt>
      <trkpt lat="48.45658" lon="7.10141">
        <ele>915.8</ele>
        <time>2022-12-27T10:17:18Z</time>
      </trkpt>
      <trkpt lat="48.45662" lon="7.10149">
        <ele>914.8</ele>
        <time>2022-12-27T10:17:19Z</time>
      </trkpt>
      <trkpt lat="48.45673" lon="7.10161">
        <ele>913.6</ele>
        <time>2022-12-27T10:17:21Z</time>
      </trkpt>
      <trkpt lat="48.45687" lon="7.10172">
        <ele>913</ele>
        <time>2022-12-27T10:17:23Z</time>
      </trkpt>
      <trkpt lat="48.45694" lon="7.10178">
        <ele>912.6</ele>
        <time>2022-12-27T10:17:24Z</time>
      </trkpt>
      <trkpt lat="48.45709" lon="7.10189">
        <ele>911.6</ele>
        <time>2022-12-27T10:17:26Z</time>
      </trkpt>
      <trkpt lat="48.45716" lon="7.10195">
        <ele>911.6</ele>
        <time>2022-12-27T10:17:27Z</time>
      </trkpt>
      <trkpt lat="48.4573" lon="7.10205">
        <ele>910.2</ele>
        <time>2022-12-27T10:17:29Z</time>
      </trkpt>
      <trkpt lat="48.45742" lon="7.10216">
        <ele>908.8</ele>
        <time>2022-12-27T10:17:31Z</time>
      </trkpt>
      <trkpt lat="48.45749" lon="7.10222">
        <ele>907.8</ele>
        <time>2022-12-27T10:17:32Z</time>
      </trkpt>
      <trkpt lat="48.45755" lon="7.10227">
        <ele>907.4</ele>
        <time>2022-12-27T10:17:33Z</time>
      </trkpt>
      <trkpt lat="48.45768" lon="7.10238">
        <ele>906.4</ele>
        <time>2022-12-27T10:17:35Z</time>
      </trkpt>
      <trkpt lat="48.45774" lon="7.10244">
        <ele>905.6</ele>
        <time>2022-12-27T10:17:36Z</time>
      </trkpt>
      <trkpt lat="48.4578" lon="7.1025">
        <ele>904.8</ele>
        <time>2022-12-27T10:17:37Z</time>
      </trkpt>
      <trkpt lat="48.45785" lon="7.10257">
        <ele>903.6</ele>
        <time>2022-12-27T10:17:38Z</time>
      </trkpt>
      <trkpt lat="48.45797" lon="7.10269">
        <ele>902.4</ele>
        <time>2022-12-27T10:17:40Z</time>
      </trkpt>
      <trkpt lat="48.45811" lon="7.1028">
        <ele>901.2</ele>
        <time>2022-12-27T10:17:42Z</time>
      </trkpt>
      <trkpt lat="48.45833" lon="7.10293">
        <ele>900</ele>
        <time>2022-12-27T10:17:45Z</time>
      </trkpt>
      <trkpt lat="48.4584" lon="7.10297">
        <ele>898.8</ele>
        <time>2022-12-27T10:17:46Z</time>
      </trkpt>
      <trkpt lat="48.45853" lon="7.10305">
        <ele>897.4</ele>
        <time>2022-12-27T10:17:48Z</time>
      </trkpt>
      <trkpt lat="48.45867" lon="7.10312">
        <ele>896.2</ele>
        <time>2022-12-27T10:17:50Z</time>
      </trkpt>
      <trkpt lat="48.45887" lon="7.10317">
        <ele>894.8</ele>
        <time>2022-12-27T10:17:53Z</time>
      </trkpt>
      <trkpt lat="48.45894" lon="7.10318">
        <ele>893.4</ele>
        <time>2022-12-27T10:17:54Z</time>
      </trkpt>
      <trkpt lat="48.45901" lon="7.10319">
        <ele>892.6</ele>
        <time>2022-12-27T10:17:55Z</time>
      </trkpt>
      <trkpt lat="48.45908" lon="7.10318">
        <ele>891.6</ele>
        <time>2022-12-27T10:17:56Z</time>
      </trkpt>
      <trkpt lat="48.45924" lon="7.10317">
        <ele>890.8</ele>
        <time>2022-12-27T10:17:58Z</time>
      </trkpt>
      <trkpt lat="48.45931" lon="7.10317">
        <ele>890.4</ele>
        <time>2022-12-27T10:17:59Z</time>
      </trkpt>
      <trkpt lat="48.45947" lon="7.10318">
        <ele>889.2</ele>
        <time>2022-12-27T10:18:01Z</time>
      </trkpt>
      <trkpt lat="48.45962" lon="7.10321">
        <ele>888.2</ele>
        <time>2022-12-27T10:18:03Z</time>
      </trkpt>
      <trkpt lat="48.4597" lon="7.10321">
        <ele>887.4</ele>
        <time>2022-12-27T10:18:04Z</time>
      </trkpt>
      <trkpt lat="48.45978" lon="7.10321">
        <ele>887</ele>
        <time>2022-12-27T10:18:05Z</time>
      </trkpt>
      <trkpt lat="48.45985" lon="7.10321">
        <ele>886.4</ele>
        <time>2022-12-27T10:18:06Z</time>
      </trkpt>
      <trkpt lat="48.45999" lon="7.1032">
        <ele>885.8</ele>
        <time>2022-12-27T10:18:08Z</time>
      </trkpt>
      <trkpt lat="48.46006" lon="7.1032">
        <ele>885.4</ele>
        <time>2022-12-27T10:18:09Z</time>
      </trkpt>
      <trkpt lat="48.46023" lon="7.1032">
        <ele>884.6</ele>
        <time>2022-12-27T10:18:11Z</time>
      </trkpt>
      <trkpt lat="48.46031" lon="7.1032">
        <ele>883.4</ele>
        <time>2022-12-27T10:18:12Z</time>
      </trkpt>
      <trkpt lat="48.46039" lon="7.1032">
        <ele>882.8</ele>
        <time>2022-12-27T10:18:13Z</time>
      </trkpt>
      <trkpt lat="48.46047" lon="7.1032">
        <ele>882.2</ele>
        <time>2022-12-27T10:18:14Z</time>
      </trkpt>
      <trkpt lat="48.46055" lon="7.1032">
        <ele>881.6</ele>
        <time>2022-12-27T10:18:15Z</time>
      </trkpt>
      <trkpt lat="48.46063" lon="7.10319">
        <ele>880.6</ele>
        <time>2022-12-27T10:18:16Z</time>
      </trkpt>
      <trkpt lat="48.46079" lon="7.10318">
        <ele>879.4</ele>
        <time>2022-12-27T10:18:18Z</time>
      </trkpt>
      <trkpt lat="48.46094" lon="7.10317">
        <ele>878.6</ele>
        <time>2022-12-27T10:18:20Z</time>
      </trkpt>
      <trkpt lat="48.46109" lon="7.10317">
        <ele>877.2</ele>
        <time>2022-12-27T10:18:22Z</time>
      </trkpt>
      <trkpt lat="48.46125" lon="7.10318">
        <ele>875.8</ele>
        <time>2022-12-27T10:18:24Z</time>
      </trkpt>
      <trkpt lat="48.4614" lon="7.1032">
        <ele>874.8</ele>
        <time>2022-12-27T10:18:26Z</time>
      </trkpt>
      <trkpt lat="48.46162" lon="7.10329">
        <ele>873.4</ele>
        <time>2022-12-27T10:18:29Z</time>
      </trkpt>
      <trkpt lat="48.46169" lon="7.10334">
        <ele>872.6</ele>
        <time>2022-12-27T10:18:30Z</time>
      </trkpt>
      <trkpt lat="48.46175" lon="7.10339">
        <ele>872.4</ele>
        <time>2022-12-27T10:18:31Z</time>
      </trkpt>
      <trkpt lat="48.46188" lon="7.10351">
        <ele>871.2</ele>
        <time>2022-12-27T10:18:33Z</time>
      </trkpt>
      <trkpt lat="48.46193" lon="7.10358">
        <ele>870.2</ele>
        <time>2022-12-27T10:18:35Z</time>
      </trkpt>
      <trkpt lat="48.46203" lon="7.10372">
        <ele>869.6</ele>
        <time>2022-12-27T10:18:36Z</time>
      </trkpt>
      <trkpt lat="48.46215" lon="7.10392">
        <ele>868.8</ele>
        <time>2022-12-27T10:18:39Z</time>
      </trkpt>
      <trkpt lat="48.46219" lon="7.10398">
        <ele>868.2</ele>
        <time>2022-12-27T10:18:40Z</time>
      </trkpt>
      <trkpt lat="48.46225" lon="7.10411">
        <ele>868</ele>
        <time>2022-12-27T10:18:43Z</time>
      </trkpt>
      <trkpt lat="48.46232" lon="7.10428">
        <ele>868</ele>
        <time>2022-12-27T10:18:48Z</time>
      </trkpt>
      <trkpt lat="48.46237" lon="7.10439">
        <ele>868.8</ele>
        <time>2022-12-27T10:18:52Z</time>
      </trkpt>
      <trkpt lat="48.46239" lon="7.10448">
        <ele>869</ele>
        <time>2022-12-27T10:18:55Z</time>
      </trkpt>
      <trkpt lat="48.46241" lon="7.1045">
        <ele>869.2</ele>
        <time>2022-12-27T10:18:56Z</time>
      </trkpt>
      <trkpt lat="48.46242" lon="7.10453">
        <ele>869.4</ele>
        <time>2022-12-27T10:18:57Z</time>
      </trkpt>
      <trkpt lat="48.46247" lon="7.10464">
        <ele>870</ele>
        <time>2022-12-27T10:19:01Z</time>
      </trkpt>
      <trkpt lat="48.46251" lon="7.10468">
        <ele>870.2</ele>
        <time>2022-12-27T10:19:03Z</time>
      </trkpt>
      <trkpt lat="48.46253" lon="7.1047">
        <ele>870.4</ele>
        <time>2022-12-27T10:19:04Z</time>
      </trkpt>
      <trkpt lat="48.46263" lon="7.10484">
        <ele>871.2</ele>
        <time>2022-12-27T10:19:10Z</time>
      </trkpt>
      <trkpt lat="48.46266" lon="7.10489">
        <ele>871.6</ele>
        <time>2022-12-27T10:19:12Z</time>
      </trkpt>
      <trkpt lat="48.46271" lon="7.10496">
        <ele>872.2</ele>
        <time>2022-12-27T10:19:15Z</time>
      </trkpt>
      <trkpt lat="48.46275" lon="7.105">
        <ele>872.6</ele>
        <time>2022-12-27T10:19:17Z</time>
      </trkpt>
      <trkpt lat="48.46277" lon="7.10502">
        <ele>872.6</ele>
        <time>2022-12-27T10:19:18Z</time>
      </trkpt>
      <trkpt lat="48.46282" lon="7.10511">
        <ele>873</ele>
        <time>2022-12-27T10:19:21Z</time>
      </trkpt>
      <trkpt lat="48.46284" lon="7.10513">
        <ele>873.2</ele>
        <time>2022-12-27T10:19:22Z</time>
      </trkpt>
      <trkpt lat="48.46286" lon="7.10514">
        <ele>873.4</ele>
        <time>2022-12-27T10:19:23Z</time>
      </trkpt>
      <trkpt lat="48.46291" lon="7.10518">
        <ele>873.6</ele>
        <time>2022-12-27T10:19:25Z</time>
      </trkpt>
      <trkpt lat="48.463" lon="7.10528">
        <ele>874.4</ele>
        <time>2022-12-27T10:19:29Z</time>
      </trkpt>
      <trkpt lat="48.46304" lon="7.10532">
        <ele>874.8</ele>
        <time>2022-12-27T10:19:31Z</time>
      </trkpt>
      <trkpt lat="48.46306" lon="7.10536">
        <ele>875</ele>
        <time>2022-12-27T10:19:33Z</time>
      </trkpt>
      <trkpt lat="48.4631" lon="7.1054">
        <ele>875.2</ele>
        <time>2022-12-27T10:19:35Z</time>
      </trkpt>
      <trkpt lat="48.46317" lon="7.10544">
        <ele>876</ele>
        <time>2022-12-27T10:19:38Z</time>
      </trkpt>
      <trkpt lat="48.46332" lon="7.10557">
        <ele>877</ele>
        <time>2022-12-27T10:19:45Z</time>
      </trkpt>
      <trkpt lat="48.46345" lon="7.1057">
        <ele>878.2</ele>
        <time>2022-12-27T10:19:51Z</time>
      </trkpt>
      <trkpt lat="48.46349" lon="7.10573">
        <ele>878.6</ele>
        <time>2022-12-27T10:19:53Z</time>
      </trkpt>
      <trkpt lat="48.46361" lon="7.10586">
        <ele>879.6</ele>
        <time>2022-12-27T10:19:59Z</time>
      </trkpt>
      <trkpt lat="48.46375" lon="7.10595">
        <ele>880.6</ele>
        <time>2022-12-27T10:20:06Z</time>
      </trkpt>
      <trkpt lat="48.46394" lon="7.10602">
        <ele>881.6</ele>
        <time>2022-12-27T10:20:14Z</time>
      </trkpt>
      <trkpt lat="48.46397" lon="7.10603">
        <ele>881.8</ele>
        <time>2022-12-27T10:20:15Z</time>
      </trkpt>
      <trkpt lat="48.46411" lon="7.10604">
        <ele>882.6</ele>
        <time>2022-12-27T10:20:22Z</time>
      </trkpt>
      <trkpt lat="48.46425" lon="7.10603">
        <ele>883.4</ele>
        <time>2022-12-27T10:20:29Z</time>
      </trkpt>
      <trkpt lat="48.46433" lon="7.10602">
        <ele>883.6</ele>
        <time>2022-12-27T10:20:32Z</time>
      </trkpt>
      <trkpt lat="48.46448" lon="7.10597">
        <ele>885</ele>
        <time>2022-12-27T10:20:39Z</time>
      </trkpt>
      <trkpt lat="48.46466" lon="7.1059">
        <ele>885.8</ele>
        <time>2022-12-27T10:20:47Z</time>
      </trkpt>
      <trkpt lat="48.46468" lon="7.10589">
        <ele>885.8</ele>
        <time>2022-12-27T10:20:48Z</time>
      </trkpt>
      <trkpt lat="48.46481" lon="7.10583">
        <ele>886.2</ele>
        <time>2022-12-27T10:20:55Z</time>
      </trkpt>
      <trkpt lat="48.46486" lon="7.1058">
        <ele>886.8</ele>
        <time>2022-12-27T10:20:59Z</time>
      </trkpt>
      <trkpt lat="48.46486" lon="7.1058">
        <ele>887.2</ele>
        <time>2022-12-27T10:21:01Z</time>
      </trkpt>
      <trkpt lat="48.46486" lon="7.1058">
        <ele>887.4</ele>
        <time>2022-12-27T10:21:02Z</time>
      </trkpt>
      <trkpt lat="48.46487" lon="7.10579">
        <ele>887.2</ele>
        <time>2022-12-27T10:21:43Z</time>
      </trkpt>
      <trkpt lat="48.46491" lon="7.10576">
        <ele>887.2</ele>
        <time>2022-12-27T10:21:45Z</time>
      </trkpt>
      <trkpt lat="48.46499" lon="7.10567">
        <ele>887.6</ele>
        <time>2022-12-27T10:21:49Z</time>
      </trkpt>
      <trkpt lat="48.46502" lon="7.10561">
        <ele>887.8</ele>
        <time>2022-12-27T10:21:51Z</time>
      </trkpt>
      <trkpt lat="48.46503" lon="7.10558">
        <ele>888</ele>
        <time>2022-12-27T10:21:52Z</time>
      </trkpt>
      <trkpt lat="48.46506" lon="7.10551">
        <ele>888.2</ele>
        <time>2022-12-27T10:21:54Z</time>
      </trkpt>
      <trkpt lat="48.4651" lon="7.10539">
        <ele>888.6</ele>
        <time>2022-12-27T10:21:58Z</time>
      </trkpt>
      <trkpt lat="48.4652" lon="7.10514">
        <ele>889.4</ele>
        <time>2022-12-27T10:22:06Z</time>
      </trkpt>
      <trkpt lat="48.46523" lon="7.10507">
        <ele>889.8</ele>
        <time>2022-12-27T10:22:08Z</time>
      </trkpt>
      <trkpt lat="48.46532" lon="7.10488">
        <ele>890.6</ele>
        <time>2022-12-27T10:22:14Z</time>
      </trkpt>
      <trkpt lat="48.46537" lon="7.10479">
        <ele>891</ele>
        <time>2022-12-27T10:22:17Z</time>
      </trkpt>
      <trkpt lat="48.46546" lon="7.10457">
        <ele>891.6</ele>
        <time>2022-12-27T10:22:24Z</time>
      </trkpt>
      <trkpt lat="48.46549" lon="7.10452">
        <ele>891.8</ele>
        <time>2022-12-27T10:22:26Z</time>
      </trkpt>
      <trkpt lat="48.46555" lon="7.10439">
        <ele>892.2</ele>
        <time>2022-12-27T10:22:31Z</time>
      </trkpt>
      <trkpt lat="48.46561" lon="7.10424">
        <ele>892.8</ele>
        <time>2022-12-27T10:22:36Z</time>
      </trkpt>
      <trkpt lat="48.46566" lon="7.10413">
        <ele>893.4</ele>
        <time>2022-12-27T10:22:40Z</time>
      </trkpt>
      <trkpt lat="48.46571" lon="7.10404">
        <ele>893.8</ele>
        <time>2022-12-27T10:22:43Z</time>
      </trkpt>
      <trkpt lat="48.46579" lon="7.10392">
        <ele>894.4</ele>
        <time>2022-12-27T10:22:48Z</time>
      </trkpt>
      <trkpt lat="48.46584" lon="7.10388">
        <ele>895</ele>
        <time>2022-12-27T10:22:51Z</time>
      </trkpt>
      <trkpt lat="48.46595" lon="7.10382">
        <ele>895.8</ele>
        <time>2022-12-27T10:22:56Z</time>
      </trkpt>
      <trkpt lat="48.46601" lon="7.10382">
        <ele>896.4</ele>
        <time>2022-12-27T10:22:59Z</time>
      </trkpt>
      <trkpt lat="48.46612" lon="7.10379">
        <ele>896.6</ele>
        <time>2022-12-27T10:23:03Z</time>
      </trkpt>
      <trkpt lat="48.46633" lon="7.1038">
        <ele>896.4</ele>
        <time>2022-12-27T10:23:10Z</time>
      </trkpt>
      <trkpt lat="48.46649" lon="7.1039">
        <ele>896.2</ele>
        <time>2022-12-27T10:23:15Z</time>
      </trkpt>
      <trkpt lat="48.46668" lon="7.10409">
        <ele>895.6</ele>
        <time>2022-12-27T10:23:22Z</time>
      </trkpt>
      <trkpt lat="48.46671" lon="7.10413">
        <ele>895.6</ele>
        <time>2022-12-27T10:23:23Z</time>
      </trkpt>
      <trkpt lat="48.46678" lon="7.10424">
        <ele>895.2</ele>
        <time>2022-12-27T10:23:26Z</time>
      </trkpt>
      <trkpt lat="48.46685" lon="7.10438">
        <ele>894.6</ele>
        <time>2022-12-27T10:23:29Z</time>
      </trkpt>
      <trkpt lat="48.46689" lon="7.10447">
        <ele>894.6</ele>
        <time>2022-12-27T10:23:31Z</time>
      </trkpt>
      <trkpt lat="48.46694" lon="7.10458">
        <ele>894.4</ele>
        <time>2022-12-27T10:23:33Z</time>
      </trkpt>
      <trkpt lat="48.46697" lon="7.10463">
        <ele>894.2</ele>
        <time>2022-12-27T10:23:34Z</time>
      </trkpt>
      <trkpt lat="48.46705" lon="7.10476">
        <ele>894</ele>
        <time>2022-12-27T10:23:37Z</time>
      </trkpt>
      <trkpt lat="48.46708" lon="7.10483">
        <ele>893.8</ele>
        <time>2022-12-27T10:23:38Z</time>
      </trkpt>
      <trkpt lat="48.46716" lon="7.10498">
        <ele>893</ele>
        <time>2022-12-27T10:23:41Z</time>
      </trkpt>
      <trkpt lat="48.46728" lon="7.1052">
        <ele>892.6</ele>
        <time>2022-12-27T10:23:45Z</time>
      </trkpt>
      <trkpt lat="48.46731" lon="7.10526">
        <ele>892.6</ele>
        <time>2022-12-27T10:23:46Z</time>
      </trkpt>
      <trkpt lat="48.46737" lon="7.10538">
        <ele>892.2</ele>
        <time>2022-12-27T10:23:48Z</time>
      </trkpt>
      <trkpt lat="48.4674" lon="7.10544">
        <ele>892</ele>
        <time>2022-12-27T10:23:49Z</time>
      </trkpt>
      <trkpt lat="48.46756" lon="7.10579">
        <ele>890.8</ele>
        <time>2022-12-27T10:23:54Z</time>
      </trkpt>
      <trkpt lat="48.4677" lon="7.10611">
        <ele>889.8</ele>
        <time>2022-12-27T10:23:58Z</time>
      </trkpt>
      <trkpt lat="48.46773" lon="7.10619">
        <ele>889.4</ele>
        <time>2022-12-27T10:23:59Z</time>
      </trkpt>
      <trkpt lat="48.46779" lon="7.10633">
        <ele>889.2</ele>
        <time>2022-12-27T10:24:01Z</time>
      </trkpt>
      <trkpt lat="48.46784" lon="7.10652">
        <ele>888.6</ele>
        <time>2022-12-27T10:24:03Z</time>
      </trkpt>
      <trkpt lat="48.46796" lon="7.10685">
        <ele>887.4</ele>
        <time>2022-12-27T10:24:07Z</time>
      </trkpt>
      <trkpt lat="48.468" lon="7.10695">
        <ele>887.4</ele>
        <time>2022-12-27T10:24:08Z</time>
      </trkpt>
      <trkpt lat="48.46803" lon="7.10703">
        <ele>887</ele>
        <time>2022-12-27T10:24:09Z</time>
      </trkpt>
      <trkpt lat="48.46806" lon="7.10721">
        <ele>886.2</ele>
        <time>2022-12-27T10:24:11Z</time>
      </trkpt>
      <trkpt lat="48.46807" lon="7.10731">
        <ele>885.8</ele>
        <time>2022-12-27T10:24:12Z</time>
      </trkpt>
      <trkpt lat="48.46809" lon="7.10748">
        <ele>885</ele>
        <time>2022-12-27T10:24:14Z</time>
      </trkpt>
      <trkpt lat="48.46812" lon="7.10766">
        <ele>884.4</ele>
        <time>2022-12-27T10:24:16Z</time>
      </trkpt>
      <trkpt lat="48.46818" lon="7.10783">
        <ele>884</ele>
        <time>2022-12-27T10:24:18Z</time>
      </trkpt>
      <trkpt lat="48.46823" lon="7.10791">
        <ele>883.8</ele>
        <time>2022-12-27T10:24:19Z</time>
      </trkpt>
      <trkpt lat="48.46827" lon="7.10799">
        <ele>883.6</ele>
        <time>2022-12-27T10:24:20Z</time>
      </trkpt>
      <trkpt lat="48.4684" lon="7.10817">
        <ele>882.6</ele>
        <time>2022-12-27T10:24:23Z</time>
      </trkpt>
      <trkpt lat="48.46844" lon="7.10823">
        <ele>882.2</ele>
        <time>2022-12-27T10:24:24Z</time>
      </trkpt>
      <trkpt lat="48.46862" lon="7.10848">
        <ele>881.4</ele>
        <time>2022-12-27T10:24:29Z</time>
      </trkpt>
      <trkpt lat="48.46866" lon="7.10851">
        <ele>881</ele>
        <time>2022-12-27T10:24:30Z</time>
      </trkpt>
      <trkpt lat="48.46874" lon="7.10857">
        <ele>880.8</ele>
        <time>2022-12-27T10:24:32Z</time>
      </trkpt>
      <trkpt lat="48.46885" lon="7.10863">
        <ele>880.4</ele>
        <time>2022-12-27T10:24:35Z</time>
      </trkpt>
      <trkpt lat="48.4689" lon="7.10865">
        <ele>880.4</ele>
        <time>2022-12-27T10:24:36Z</time>
      </trkpt>
      <trkpt lat="48.46899" lon="7.10867">
        <ele>880</ele>
        <time>2022-12-27T10:24:38Z</time>
      </trkpt>
      <trkpt lat="48.46911" lon="7.10873">
        <ele>879.8</ele>
        <time>2022-12-27T10:24:41Z</time>
      </trkpt>
      <trkpt lat="48.46925" lon="7.10881">
        <ele>879.8</ele>
        <time>2022-12-27T10:24:44Z</time>
      </trkpt>
      <trkpt lat="48.46938" lon="7.1089">
        <ele>879.6</ele>
        <time>2022-12-27T10:24:47Z</time>
      </trkpt>
      <trkpt lat="48.46958" lon="7.109">
        <ele>879.8</ele>
        <time>2022-12-27T10:24:53Z</time>
      </trkpt>
      <trkpt lat="48.46973" lon="7.10905">
        <ele>880.4</ele>
        <time>2022-12-27T10:24:59Z</time>
      </trkpt>
      <trkpt lat="48.4698" lon="7.10908">
        <ele>881</ele>
        <time>2022-12-27T10:25:02Z</time>
      </trkpt>
      <trkpt lat="48.46985" lon="7.1091">
        <ele>881.4</ele>
        <time>2022-12-27T10:25:04Z</time>
      </trkpt>
      <trkpt lat="48.4699" lon="7.10911">
        <ele>881.8</ele>
        <time>2022-12-27T10:25:06Z</time>
      </trkpt>
      <trkpt lat="48.46998" lon="7.10914">
        <ele>882.2</ele>
        <time>2022-12-27T10:25:09Z</time>
      </trkpt>
      <trkpt lat="48.47005" lon="7.10916">
        <ele>882.8</ele>
        <time>2022-12-27T10:25:12Z</time>
      </trkpt>
      <trkpt lat="48.47014" lon="7.1092">
        <ele>883.6</ele>
        <time>2022-12-27T10:25:16Z</time>
      </trkpt>
      <trkpt lat="48.47016" lon="7.1092">
        <ele>883.6</ele>
        <time>2022-12-27T10:25:17Z</time>
      </trkpt>
      <trkpt lat="48.47021" lon="7.10921">
        <ele>883.8</ele>
        <time>2022-12-27T10:25:19Z</time>
      </trkpt>
      <trkpt lat="48.47035" lon="7.10924">
        <ele>885.2</ele>
        <time>2022-12-27T10:25:26Z</time>
      </trkpt>
      <trkpt lat="48.47049" lon="7.10922">
        <ele>886.4</ele>
        <time>2022-12-27T10:25:33Z</time>
      </trkpt>
      <trkpt lat="48.47053" lon="7.10921">
        <ele>886.6</ele>
        <time>2022-12-27T10:25:35Z</time>
      </trkpt>
      <trkpt lat="48.47064" lon="7.10918">
        <ele>887.4</ele>
        <time>2022-12-27T10:25:40Z</time>
      </trkpt>
      <trkpt lat="48.47072" lon="7.10917">
        <ele>888.2</ele>
        <time>2022-12-27T10:25:44Z</time>
      </trkpt>
      <trkpt lat="48.47076" lon="7.10916">
        <ele>888.6</ele>
        <time>2022-12-27T10:25:46Z</time>
      </trkpt>
      <trkpt lat="48.47083" lon="7.10914">
        <ele>889.2</ele>
        <time>2022-12-27T10:25:50Z</time>
      </trkpt>
      <trkpt lat="48.4709" lon="7.10913">
        <ele>889.6</ele>
        <time>2022-12-27T10:25:54Z</time>
      </trkpt>
      <trkpt lat="48.47095" lon="7.10911">
        <ele>889.8</ele>
        <time>2022-12-27T10:25:57Z</time>
      </trkpt>
      <trkpt lat="48.47104" lon="7.1091">
        <ele>890.6</ele>
        <time>2022-12-27T10:26:02Z</time>
      </trkpt>
      <trkpt lat="48.47108" lon="7.10909">
        <ele>891.2</ele>
        <time>2022-12-27T10:26:05Z</time>
      </trkpt>
      <trkpt lat="48.47113" lon="7.10908">
        <ele>891.8</ele>
        <time>2022-12-27T10:26:08Z</time>
      </trkpt>
      <trkpt lat="48.47126" lon="7.10903">
        <ele>892.6</ele>
        <time>2022-12-27T10:26:15Z</time>
      </trkpt>
      <trkpt lat="48.4713" lon="7.10902">
        <ele>893</ele>
        <time>2022-12-27T10:26:17Z</time>
      </trkpt>
      <trkpt lat="48.47141" lon="7.10898">
        <ele>894</ele>
        <time>2022-12-27T10:26:23Z</time>
      </trkpt>
      <trkpt lat="48.47143" lon="7.10898">
        <ele>894</ele>
        <time>2022-12-27T10:26:24Z</time>
      </trkpt>
      <trkpt lat="48.47153" lon="7.10894">
        <ele>894.6</ele>
        <time>2022-12-27T10:26:30Z</time>
      </trkpt>
      <trkpt lat="48.47159" lon="7.10891">
        <ele>895.2</ele>
        <time>2022-12-27T10:26:33Z</time>
      </trkpt>
      <trkpt lat="48.47172" lon="7.10888">
        <ele>896</ele>
        <time>2022-12-27T10:26:39Z</time>
      </trkpt>
      <trkpt lat="48.47176" lon="7.10886">
        <ele>896.2</ele>
        <time>2022-12-27T10:26:41Z</time>
      </trkpt>
      <trkpt lat="48.47187" lon="7.10883">
        <ele>896.6</ele>
        <time>2022-12-27T10:26:46Z</time>
      </trkpt>
      <trkpt lat="48.47199" lon="7.10879">
        <ele>897.2</ele>
        <time>2022-12-27T10:26:51Z</time>
      </trkpt>
      <trkpt lat="48.47206" lon="7.10878">
        <ele>897.8</ele>
        <time>2022-12-27T10:26:54Z</time>
      </trkpt>
      <trkpt lat="48.4721" lon="7.10878">
        <ele>898.4</ele>
        <time>2022-12-27T10:26:56Z</time>
      </trkpt>
      <trkpt lat="48.47222" lon="7.10878">
        <ele>899.4</ele>
        <time>2022-12-27T10:27:01Z</time>
      </trkpt>
      <trkpt lat="48.47227" lon="7.10877">
        <ele>899.6</ele>
        <time>2022-12-27T10:27:03Z</time>
      </trkpt>
      <trkpt lat="48.47241" lon="7.10882">
        <ele>900.4</ele>
        <time>2022-12-27T10:27:09Z</time>
      </trkpt>
      <trkpt lat="48.47245" lon="7.10884">
        <ele>900.8</ele>
        <time>2022-12-27T10:27:11Z</time>
      </trkpt>
      <trkpt lat="48.47255" lon="7.1089">
        <ele>901.4</ele>
        <time>2022-12-27T10:27:16Z</time>
      </trkpt>
      <trkpt lat="48.47261" lon="7.10892">
        <ele>901.8</ele>
        <time>2022-12-27T10:27:18Z</time>
      </trkpt>
      <trkpt lat="48.47271" lon="7.10902">
        <ele>902.8</ele>
        <time>2022-12-27T10:27:23Z</time>
      </trkpt>
      <trkpt lat="48.47273" lon="7.10905">
        <ele>902.8</ele>
        <time>2022-12-27T10:27:24Z</time>
      </trkpt>
      <trkpt lat="48.47288" lon="7.10926">
        <ele>903.6</ele>
        <time>2022-12-27T10:27:32Z</time>
      </trkpt>
      <trkpt lat="48.47296" lon="7.10941">
        <ele>903.8</ele>
        <time>2022-12-27T10:27:37Z</time>
      </trkpt>
      <trkpt lat="48.473" lon="7.10947">
        <ele>904</ele>
        <time>2022-12-27T10:27:39Z</time>
      </trkpt>
      <trkpt lat="48.47312" lon="7.10969">
        <ele>904</ele>
        <time>2022-12-27T10:27:46Z</time>
      </trkpt>
      <trkpt lat="48.47321" lon="7.10994">
        <ele>904</ele>
        <time>2022-12-27T10:27:52Z</time>
      </trkpt>
      <trkpt lat="48.47324" lon="7.10999">
        <ele>904</ele>
        <time>2022-12-27T10:27:53Z</time>
      </trkpt>
      <trkpt lat="48.47332" lon="7.11016">
        <ele>903.4</ele>
        <time>2022-12-27T10:27:56Z</time>
      </trkpt>
      <trkpt lat="48.47339" lon="7.11038">
        <ele>903</ele>
        <time>2022-12-27T10:27:59Z</time>
      </trkpt>
      <trkpt lat="48.47347" lon="7.1106">
        <ele>902.2</ele>
        <time>2022-12-27T10:28:02Z</time>
      </trkpt>
      <trkpt lat="48.4735" lon="7.11068">
        <ele>902</ele>
        <time>2022-12-27T10:28:03Z</time>
      </trkpt>
      <trkpt lat="48.47353" lon="7.11075">
        <ele>901</ele>
        <time>2022-12-27T10:28:04Z</time>
      </trkpt>
      <trkpt lat="48.47363" lon="7.11088">
        <ele>900.2</ele>
        <time>2022-12-27T10:28:06Z</time>
      </trkpt>
      <trkpt lat="48.47368" lon="7.11095">
        <ele>899.8</ele>
        <time>2022-12-27T10:28:07Z</time>
      </trkpt>
      <trkpt lat="48.47379" lon="7.11104">
        <ele>898.8</ele>
        <time>2022-12-27T10:28:09Z</time>
      </trkpt>
      <trkpt lat="48.47386" lon="7.11108">
        <ele>898.4</ele>
        <time>2022-12-27T10:28:10Z</time>
      </trkpt>
      <trkpt lat="48.47392" lon="7.11109">
        <ele>898.2</ele>
        <time>2022-12-27T10:28:11Z</time>
      </trkpt>
      <trkpt lat="48.47399" lon="7.11109">
        <ele>897.2</ele>
        <time>2022-12-27T10:28:12Z</time>
      </trkpt>
      <trkpt lat="48.47406" lon="7.11109">
        <ele>896.2</ele>
        <time>2022-12-27T10:28:13Z</time>
      </trkpt>
      <trkpt lat="48.47413" lon="7.11108">
        <ele>894.8</ele>
        <time>2022-12-27T10:28:14Z</time>
      </trkpt>
      <trkpt lat="48.47427" lon="7.11103">
        <ele>893.4</ele>
        <time>2022-12-27T10:28:16Z</time>
      </trkpt>
      <trkpt lat="48.4744" lon="7.11098">
        <ele>892</ele>
        <time>2022-12-27T10:28:18Z</time>
      </trkpt>
      <trkpt lat="48.47453" lon="7.11095">
        <ele>891</ele>
        <time>2022-12-27T10:28:20Z</time>
      </trkpt>
      <trkpt lat="48.47467" lon="7.1109">
        <ele>889.4</ele>
        <time>2022-12-27T10:28:22Z</time>
      </trkpt>
      <trkpt lat="48.47473" lon="7.11088">
        <ele>888.8</ele>
        <time>2022-12-27T10:28:23Z</time>
      </trkpt>
      <trkpt lat="48.4748" lon="7.11088">
        <ele>887.6</ele>
        <time>2022-12-27T10:28:24Z</time>
      </trkpt>
      <trkpt lat="48.47487" lon="7.11089">
        <ele>887</ele>
        <time>2022-12-27T10:28:25Z</time>
      </trkpt>
      <trkpt lat="48.47493" lon="7.11091">
        <ele>886.4</ele>
        <time>2022-12-27T10:28:26Z</time>
      </trkpt>
      <trkpt lat="48.47507" lon="7.11097">
        <ele>884.8</ele>
        <time>2022-12-27T10:28:28Z</time>
      </trkpt>
      <trkpt lat="48.47513" lon="7.11101">
        <ele>884.2</ele>
        <time>2022-12-27T10:28:29Z</time>
      </trkpt>
      <trkpt lat="48.4752" lon="7.11105">
        <ele>883.6</ele>
        <time>2022-12-27T10:28:30Z</time>
      </trkpt>
      <trkpt lat="48.47532" lon="7.11116">
        <ele>881.6</ele>
        <time>2022-12-27T10:28:32Z</time>
      </trkpt>
      <trkpt lat="48.47616" lon="7.1144">
        <ele>863.8</ele>
        <time>2022-12-27T10:29:11Z</time>
      </trkpt>
      <trkpt lat="48.47615" lon="7.11438">
        <ele>824.8</ele>
        <time>2022-12-27T10:29:12Z</time>
      </trkpt>
      <trkpt lat="48.47623" lon="7.11421">
        <ele>824.8</ele>
        <time>2022-12-27T10:29:19Z</time>
      </trkpt>
      <trkpt lat="48.4763" lon="7.11415">
        <ele>825</ele>
        <time>2022-12-27T10:29:31Z</time>
      </trkpt>
      <trkpt lat="48.47631" lon="7.11419">
        <ele>825</ele>
        <time>2022-12-27T10:29:37Z</time>
      </trkpt>
      <trkpt lat="48.47629" lon="7.11433">
        <ele>825</ele>
        <time>2022-12-27T10:29:41Z</time>
      </trkpt>
      <trkpt lat="48.47623" lon="7.11451">
        <ele>825</ele>
        <time>2022-12-27T10:29:44Z</time>
      </trkpt>
      <trkpt lat="48.47621" lon="7.11458">
        <ele>824.6</ele>
        <time>2022-12-27T10:29:45Z</time>
      </trkpt>
      <trkpt lat="48.47616" lon="7.11479">
        <ele>824</ele>
        <time>2022-12-27T10:29:48Z</time>
      </trkpt>
      <trkpt lat="48.47615" lon="7.11487">
        <ele>823.6</ele>
        <time>2022-12-27T10:29:49Z</time>
      </trkpt>
      <trkpt lat="48.47615" lon="7.11494">
        <ele>822.8</ele>
        <time>2022-12-27T10:29:50Z</time>
      </trkpt>
      <trkpt lat="48.47617" lon="7.11507">
        <ele>822</ele>
        <time>2022-12-27T10:29:52Z</time>
      </trkpt>
      <trkpt lat="48.47622" lon="7.11518">
        <ele>821.2</ele>
        <time>2022-12-27T10:29:54Z</time>
      </trkpt>
      <trkpt lat="48.47626" lon="7.11523">
        <ele>820.8</ele>
        <time>2022-12-27T10:29:55Z</time>
      </trkpt>
      <trkpt lat="48.47629" lon="7.11527">
        <ele>819.8</ele>
        <time>2022-12-27T10:29:56Z</time>
      </trkpt>
      <trkpt lat="48.47632" lon="7.11532">
        <ele>819.6</ele>
        <time>2022-12-27T10:29:57Z</time>
      </trkpt>
      <trkpt lat="48.47639" lon="7.11541">
        <ele>818.4</ele>
        <time>2022-12-27T10:29:59Z</time>
      </trkpt>
      <trkpt lat="48.47648" lon="7.11554">
        <ele>817.2</ele>
        <time>2022-12-27T10:30:01Z</time>
      </trkpt>
      <trkpt lat="48.47657" lon="7.11566">
        <ele>816</ele>
        <time>2022-12-27T10:30:03Z</time>
      </trkpt>
      <trkpt lat="48.4766" lon="7.11571">
        <ele>815.6</ele>
        <time>2022-12-27T10:30:04Z</time>
      </trkpt>
      <trkpt lat="48.47669" lon="7.11584">
        <ele>814.4</ele>
        <time>2022-12-27T10:30:06Z</time>
      </trkpt>
      <trkpt lat="48.47674" lon="7.1159">
        <ele>814.2</ele>
        <time>2022-12-27T10:30:07Z</time>
      </trkpt>
      <trkpt lat="48.47679" lon="7.11595">
        <ele>813</ele>
        <time>2022-12-27T10:30:08Z</time>
      </trkpt>
      <trkpt lat="48.47688" lon="7.11604">
        <ele>811.2</ele>
        <time>2022-12-27T10:30:10Z</time>
      </trkpt>
      <trkpt lat="48.47696" lon="7.11612">
        <ele>810.2</ele>
        <time>2022-12-27T10:30:12Z</time>
      </trkpt>
      <trkpt lat="48.47701" lon="7.11618">
        <ele>808.8</ele>
        <time>2022-12-27T10:30:14Z</time>
      </trkpt>
      <trkpt lat="48.47704" lon="7.11622">
        <ele>807.6</ele>
        <time>2022-12-27T10:30:16Z</time>
      </trkpt>
      <trkpt lat="48.47706" lon="7.11625">
        <ele>807.2</ele>
        <time>2022-12-27T10:30:17Z</time>
      </trkpt>
      <trkpt lat="48.47708" lon="7.11628">
        <ele>806.4</ele>
        <time>2022-12-27T10:30:18Z</time>
      </trkpt>
      <trkpt lat="48.4771" lon="7.11631">
        <ele>805.4</ele>
        <time>2022-12-27T10:30:20Z</time>
      </trkpt>
      <trkpt lat="48.47725" lon="7.11652">
        <ele>802.2</ele>
        <time>2022-12-27T10:30:41Z</time>
      </trkpt>
      <trkpt lat="48.47731" lon="7.1166">
        <ele>801.8</ele>
        <time>2022-12-27T10:30:44Z</time>
      </trkpt>
      <trkpt lat="48.47737" lon="7.11668">
        <ele>801.2</ele>
        <time>2022-12-27T10:30:47Z</time>
      </trkpt>
      <trkpt lat="48.47741" lon="7.11675">
        <ele>801</ele>
        <time>2022-12-27T10:30:48Z</time>
      </trkpt>
      <trkpt lat="48.47743" lon="7.11678">
        <ele>800.8</ele>
        <time>2022-12-27T10:30:50Z</time>
      </trkpt>
      <trkpt lat="48.47751" lon="7.1169">
        <ele>800</ele>
        <time>2022-12-27T10:30:53Z</time>
      </trkpt>
      <trkpt lat="48.47756" lon="7.11698">
        <ele>799</ele>
        <time>2022-12-27T10:30:55Z</time>
      </trkpt>
      <trkpt lat="48.47761" lon="7.11707">
        <ele>797.4</ele>
        <time>2022-12-27T10:30:57Z</time>
      </trkpt>
      <trkpt lat="48.47772" lon="7.1172">
        <ele>796.6</ele>
        <time>2022-12-27T10:31:00Z</time>
      </trkpt>
      <trkpt lat="48.47783" lon="7.11725">
        <ele>795.6</ele>
        <time>2022-12-27T10:31:02Z</time>
      </trkpt>
      <trkpt lat="48.47794" lon="7.11726">
        <ele>794.6</ele>
        <time>2022-12-27T10:31:04Z</time>
      </trkpt>
      <trkpt lat="48.47804" lon="7.11724">
        <ele>793.6</ele>
        <time>2022-12-27T10:31:06Z</time>
      </trkpt>
      <trkpt lat="48.47809" lon="7.11721">
        <ele>793.4</ele>
        <time>2022-12-27T10:31:07Z</time>
      </trkpt>
      <trkpt lat="48.47813" lon="7.1172">
        <ele>792.4</ele>
        <time>2022-12-27T10:31:08Z</time>
      </trkpt>
      <trkpt lat="48.47818" lon="7.11719">
        <ele>792</ele>
        <time>2022-12-27T10:31:09Z</time>
      </trkpt>
      <trkpt lat="48.47829" lon="7.11715">
        <ele>790.8</ele>
        <time>2022-12-27T10:31:11Z</time>
      </trkpt>
      <trkpt lat="48.47833" lon="7.11714">
        <ele>790.2</ele>
        <time>2022-12-27T10:31:12Z</time>
      </trkpt>
      <trkpt lat="48.47842" lon="7.11712">
        <ele>789.8</ele>
        <time>2022-12-27T10:31:14Z</time>
      </trkpt>
      <trkpt lat="48.47845" lon="7.11713">
        <ele>789.6</ele>
        <time>2022-12-27T10:31:15Z</time>
      </trkpt>
      <trkpt lat="48.4785" lon="7.11718">
        <ele>788.4</ele>
        <time>2022-12-27T10:31:17Z</time>
      </trkpt>
      <trkpt lat="48.47857" lon="7.11727">
        <ele>786.6</ele>
        <time>2022-12-27T10:31:20Z</time>
      </trkpt>
      <trkpt lat="48.47862" lon="7.11735">
        <ele>786</ele>
        <time>2022-12-27T10:31:22Z</time>
      </trkpt>
      <trkpt lat="48.47864" lon="7.1174">
        <ele>785.6</ele>
        <time>2022-12-27T10:31:24Z</time>
      </trkpt>
      <trkpt lat="48.47865" lon="7.11741">
        <ele>785</ele>
        <time>2022-12-27T10:31:26Z</time>
      </trkpt>
      <trkpt lat="48.47864" lon="7.11738">
        <ele>784.6</ele>
        <time>2022-12-27T10:31:28Z</time>
      </trkpt>
      <trkpt lat="48.47862" lon="7.11734">
        <ele>784.6</ele>
        <time>2022-12-27T10:31:31Z</time>
      </trkpt>
      <trkpt lat="48.47861" lon="7.11725">
        <ele>784.6</ele>
        <time>2022-12-27T10:31:35Z</time>
      </trkpt>
      <trkpt lat="48.47861" lon="7.11725">
        <ele>784.6</ele>
        <time>2022-12-27T10:31:37Z</time>
      </trkpt>
      <trkpt lat="48.47861" lon="7.11725">
        <ele>784.6</ele>
        <time>2022-12-27T10:32:36Z</time>
      </trkpt>
      <trkpt lat="48.47862" lon="7.11727">
        <ele>784.6</ele>
        <time>2022-12-27T10:32:42Z</time>
      </trkpt>
      <trkpt lat="48.47865" lon="7.11734">
        <ele>784.6</ele>
        <time>2022-12-27T10:32:44Z</time>
      </trkpt>
      <trkpt lat="48.4787" lon="7.11751">
        <ele>784.6</ele>
        <time>2022-12-27T10:32:50Z</time>
      </trkpt>
      <trkpt lat="48.47871" lon="7.11753">
        <ele>783.4</ele>
        <time>2022-12-27T10:33:00Z</time>
      </trkpt>
      <trkpt lat="48.47872" lon="7.11756">
        <ele>783.4</ele>
        <time>2022-12-27T10:33:01Z</time>
      </trkpt>
      <trkpt lat="48.47876" lon="7.11769">
        <ele>783.4</ele>
        <time>2022-12-27T10:33:04Z</time>
      </trkpt>
      <trkpt lat="48.47878" lon="7.11773">
        <ele>783.4</ele>
        <time>2022-12-27T10:33:05Z</time>
      </trkpt>
      <trkpt lat="48.4788" lon="7.11781">
        <ele>783</ele>
        <time>2022-12-27T10:33:06Z</time>
      </trkpt>
      <trkpt lat="48.47891" lon="7.11811">
        <ele>782.6</ele>
        <time>2022-12-27T10:33:10Z</time>
      </trkpt>
      <trkpt lat="48.47897" lon="7.11826">
        <ele>782.2</ele>
        <time>2022-12-27T10:33:12Z</time>
      </trkpt>
      <trkpt lat="48.4791" lon="7.11857">
        <ele>781.6</ele>
        <time>2022-12-27T10:33:15Z</time>
      </trkpt>
      <trkpt lat="48.47919" lon="7.11875">
        <ele>780.8</ele>
        <time>2022-12-27T10:33:17Z</time>
      </trkpt>
      <trkpt lat="48.47924" lon="7.11884">
        <ele>780</ele>
        <time>2022-12-27T10:33:18Z</time>
      </trkpt>
      <trkpt lat="48.4793" lon="7.11893">
        <ele>779.8</ele>
        <time>2022-12-27T10:33:19Z</time>
      </trkpt>
      <trkpt lat="48.47936" lon="7.11903">
        <ele>779.4</ele>
        <time>2022-12-27T10:33:20Z</time>
      </trkpt>
      <trkpt lat="48.47951" lon="7.11923">
        <ele>778.2</ele>
        <time>2022-12-27T10:33:22Z</time>
      </trkpt>
      <trkpt lat="48.47964" lon="7.11939">
        <ele>776.8</ele>
        <time>2022-12-27T10:33:24Z</time>
      </trkpt>
      <trkpt lat="48.47972" lon="7.1195">
        <ele>776.2</ele>
        <time>2022-12-27T10:33:25Z</time>
      </trkpt>
      <trkpt lat="48.4798" lon="7.11964">
        <ele>774.8</ele>
        <time>2022-12-27T10:33:26Z</time>
      </trkpt>
      <trkpt lat="48.47994" lon="7.1199">
        <ele>773.4</ele>
        <time>2022-12-27T10:33:28Z</time>
      </trkpt>
      <trkpt lat="48.48001" lon="7.12006">
        <ele>773.2</ele>
        <time>2022-12-27T10:33:29Z</time>
      </trkpt>
      <trkpt lat="48.48008" lon="7.12021">
        <ele>770.8</ele>
        <time>2022-12-27T10:33:30Z</time>
      </trkpt>
      <trkpt lat="48.48022" lon="7.12055">
        <ele>768.4</ele>
        <time>2022-12-27T10:33:32Z</time>
      </trkpt>
      <trkpt lat="48.48033" lon="7.1208">
        <ele>765.6</ele>
        <time>2022-12-27T10:33:34Z</time>
      </trkpt>
      <trkpt lat="48.48043" lon="7.12109">
        <ele>763.8</ele>
        <time>2022-12-27T10:33:36Z</time>
      </trkpt>
      <trkpt lat="48.48048" lon="7.1212">
        <ele>763.2</ele>
        <time>2022-12-27T10:33:37Z</time>
      </trkpt>
      <trkpt lat="48.48053" lon="7.12129">
        <ele>761.8</ele>
        <time>2022-12-27T10:33:38Z</time>
      </trkpt>
      <trkpt lat="48.48059" lon="7.12135">
        <ele>761</ele>
        <time>2022-12-27T10:33:39Z</time>
      </trkpt>
      <trkpt lat="48.48069" lon="7.12144">
        <ele>759.6</ele>
        <time>2022-12-27T10:33:40Z</time>
      </trkpt>
      <trkpt lat="48.48077" lon="7.12151">
        <ele>759</ele>
        <time>2022-12-27T10:33:41Z</time>
      </trkpt>
      <trkpt lat="48.48084" lon="7.12155">
        <ele>757.4</ele>
        <time>2022-12-27T10:33:42Z</time>
      </trkpt>
      <trkpt lat="48.48091" lon="7.12161">
        <ele>757</ele>
        <time>2022-12-27T10:33:43Z</time>
      </trkpt>
      <trkpt lat="48.48097" lon="7.12168">
        <ele>756</ele>
        <time>2022-12-27T10:33:44Z</time>
      </trkpt>
      <trkpt lat="48.48105" lon="7.12174">
        <ele>755.6</ele>
        <time>2022-12-27T10:33:45Z</time>
      </trkpt>
      <trkpt lat="48.48111" lon="7.12183">
        <ele>754.6</ele>
        <time>2022-12-27T10:33:46Z</time>
      </trkpt>
      <trkpt lat="48.48118" lon="7.12197">
        <ele>753.2</ele>
        <time>2022-12-27T10:33:48Z</time>
      </trkpt>
      <trkpt lat="48.48115" lon="7.12202">
        <ele>751.4</ele>
        <time>2022-12-27T10:33:50Z</time>
      </trkpt>
      <trkpt lat="48.48108" lon="7.12196">
        <ele>749.6</ele>
        <time>2022-12-27T10:33:52Z</time>
      </trkpt>
      <trkpt lat="48.48106" lon="7.12191">
        <ele>749.2</ele>
        <time>2022-12-27T10:33:53Z</time>
      </trkpt>
      <trkpt lat="48.48101" lon="7.12184">
        <ele>748.2</ele>
        <time>2022-12-27T10:33:55Z</time>
      </trkpt>
      <trkpt lat="48.48099" lon="7.12182">
        <ele>747.8</ele>
        <time>2022-12-27T10:33:56Z</time>
      </trkpt>
      <trkpt lat="48.48097" lon="7.1218">
        <ele>747.6</ele>
        <time>2022-12-27T10:33:57Z</time>
      </trkpt>
      <trkpt lat="48.48094" lon="7.12178">
        <ele>747.4</ele>
        <time>2022-12-27T10:33:58Z</time>
      </trkpt>
      <trkpt lat="48.48083" lon="7.12172">
        <ele>747</ele>
        <time>2022-12-27T10:34:01Z</time>
      </trkpt>
      <trkpt lat="48.48078" lon="7.12169">
        <ele>746.6</ele>
        <time>2022-12-27T10:34:02Z</time>
      </trkpt>
      <trkpt lat="48.48072" lon="7.12167">
        <ele>746.6</ele>
        <time>2022-12-27T10:34:03Z</time>
      </trkpt>
      <trkpt lat="48.48063" lon="7.12161">
        <ele>746.4</ele>
        <time>2022-12-27T10:34:05Z</time>
      </trkpt>
      <trkpt lat="48.48059" lon="7.12159">
        <ele>746.2</ele>
        <time>2022-12-27T10:34:06Z</time>
      </trkpt>
      <trkpt lat="48.48049" lon="7.12152">
        <ele>746</ele>
        <time>2022-12-27T10:34:08Z</time>
      </trkpt>
      <trkpt lat="48.48045" lon="7.12147">
        <ele>745.8</ele>
        <time>2022-12-27T10:34:09Z</time>
      </trkpt>
      <trkpt lat="48.4803" lon="7.12132">
        <ele>745.2</ele>
        <time>2022-12-27T10:34:12Z</time>
      </trkpt>
      <trkpt lat="48.4802" lon="7.12124">
        <ele>744.8</ele>
        <time>2022-12-27T10:34:14Z</time>
      </trkpt>
      <trkpt lat="48.48015" lon="7.12123">
        <ele>744.8</ele>
        <time>2022-12-27T10:34:15Z</time>
      </trkpt>
      <trkpt lat="48.4801" lon="7.12124">
        <ele>744.6</ele>
        <time>2022-12-27T10:34:16Z</time>
      </trkpt>
      <trkpt lat="48.48005" lon="7.12125">
        <ele>744.2</ele>
        <time>2022-12-27T10:34:17Z</time>
      </trkpt>
      <trkpt lat="48.48" lon="7.1213">
        <ele>744</ele>
        <time>2022-12-27T10:34:18Z</time>
      </trkpt>
      <trkpt lat="48.47996" lon="7.12138">
        <ele>744</ele>
        <time>2022-12-27T10:34:19Z</time>
      </trkpt>
      <trkpt lat="48.47993" lon="7.12145">
        <ele>743.8</ele>
        <time>2022-12-27T10:34:20Z</time>
      </trkpt>
      <trkpt lat="48.47992" lon="7.12161">
        <ele>743.6</ele>
        <time>2022-12-27T10:34:22Z</time>
      </trkpt>
      <trkpt lat="48.47993" lon="7.12168">
        <ele>743.4</ele>
        <time>2022-12-27T10:34:23Z</time>
      </trkpt>
      <trkpt lat="48.47996" lon="7.12181">
        <ele>742.8</ele>
        <time>2022-12-27T10:34:25Z</time>
      </trkpt>
      <trkpt lat="48.48" lon="7.12196">
        <ele>742.6</ele>
        <time>2022-12-27T10:34:27Z</time>
      </trkpt>
      <trkpt lat="48.48" lon="7.12204">
        <ele>742.4</ele>
        <time>2022-12-27T10:34:28Z</time>
      </trkpt>
      <trkpt lat="48.48001" lon="7.12221">
        <ele>742</ele>
        <time>2022-12-27T10:34:30Z</time>
      </trkpt>
      <trkpt lat="48.48004" lon="7.12259">
        <ele>741.4</ele>
        <time>2022-12-27T10:34:34Z</time>
      </trkpt>
      <trkpt lat="48.48005" lon="7.12279">
        <ele>741</ele>
        <time>2022-12-27T10:34:36Z</time>
      </trkpt>
      <trkpt lat="48.47994" lon="7.12314">
        <ele>740</ele>
        <time>2022-12-27T10:34:40Z</time>
      </trkpt>
      <trkpt lat="48.47985" lon="7.1233">
        <ele>739.8</ele>
        <time>2022-12-27T10:34:42Z</time>
      </trkpt>
      <trkpt lat="48.47975" lon="7.12355">
        <ele>739.2</ele>
        <time>2022-12-27T10:34:45Z</time>
      </trkpt>
      <trkpt lat="48.47973" lon="7.12363">
        <ele>739.2</ele>
        <time>2022-12-27T10:34:46Z</time>
      </trkpt>
      <trkpt lat="48.47969" lon="7.1237">
        <ele>739</ele>
        <time>2022-12-27T10:34:47Z</time>
      </trkpt>
      <trkpt lat="48.47961" lon="7.1238">
        <ele>738.8</ele>
        <time>2022-12-27T10:34:49Z</time>
      </trkpt>
      <trkpt lat="48.47937" lon="7.12404">
        <ele>738.4</ele>
        <time>2022-12-27T10:34:54Z</time>
      </trkpt>
      <trkpt lat="48.47923" lon="7.12419">
        <ele>738.4</ele>
        <time>2022-12-27T10:34:57Z</time>
      </trkpt>
      <trkpt lat="48.47919" lon="7.12424">
        <ele>738.2</ele>
        <time>2022-12-27T10:34:58Z</time>
      </trkpt>
      <trkpt lat="48.47903" lon="7.12451">
        <ele>738.2</ele>
        <time>2022-12-27T10:35:02Z</time>
      </trkpt>
      <trkpt lat="48.47899" lon="7.12461">
        <ele>738</ele>
        <time>2022-12-27T10:35:03Z</time>
      </trkpt>
      <trkpt lat="48.4789" lon="7.12485">
        <ele>738</ele>
        <time>2022-12-27T10:35:06Z</time>
      </trkpt>
      <trkpt lat="48.47887" lon="7.12505">
        <ele>738</ele>
        <time>2022-12-27T10:35:08Z</time>
      </trkpt>
      <trkpt lat="48.47885" lon="7.12524">
        <ele>738</ele>
        <time>2022-12-27T10:35:10Z</time>
      </trkpt>
      <trkpt lat="48.47883" lon="7.12554">
        <ele>737.6</ele>
        <time>2022-12-27T10:35:13Z</time>
      </trkpt>
      <trkpt lat="48.47882" lon="7.12571">
        <ele>737.4</ele>
        <time>2022-12-27T10:35:15Z</time>
      </trkpt>
      <trkpt lat="48.47884" lon="7.1259">
        <ele>737</ele>
        <time>2022-12-27T10:35:17Z</time>
      </trkpt>
      <trkpt lat="48.47885" lon="7.12607">
        <ele>736.6</ele>
        <time>2022-12-27T10:35:19Z</time>
      </trkpt>
      <trkpt lat="48.47884" lon="7.12616">
        <ele>736.2</ele>
        <time>2022-12-27T10:35:20Z</time>
      </trkpt>
      <trkpt lat="48.47884" lon="7.12625">
        <ele>735.8</ele>
        <time>2022-12-27T10:35:21Z</time>
      </trkpt>
      <trkpt lat="48.47882" lon="7.12643">
        <ele>735.2</ele>
        <time>2022-12-27T10:35:23Z</time>
      </trkpt>
      <trkpt lat="48.4788" lon="7.12652">
        <ele>734.8</ele>
        <time>2022-12-27T10:35:24Z</time>
      </trkpt>
      <trkpt lat="48.47878" lon="7.12661">
        <ele>734.8</ele>
        <time>2022-12-27T10:35:25Z</time>
      </trkpt>
      <trkpt lat="48.47877" lon="7.1267">
        <ele>734.6</ele>
        <time>2022-12-27T10:35:26Z</time>
      </trkpt>
      <trkpt lat="48.47874" lon="7.12687">
        <ele>734</ele>
        <time>2022-12-27T10:35:28Z</time>
      </trkpt>
      <trkpt lat="48.47873" lon="7.12696">
        <ele>734</ele>
        <time>2022-12-27T10:35:29Z</time>
      </trkpt>
      <trkpt lat="48.47873" lon="7.12704">
        <ele>733.6</ele>
        <time>2022-12-27T10:35:30Z</time>
      </trkpt>
      <trkpt lat="48.4787" lon="7.12737">
        <ele>732.4</ele>
        <time>2022-12-27T10:35:34Z</time>
      </trkpt>
      <trkpt lat="48.47866" lon="7.12755">
        <ele>732</ele>
        <time>2022-12-27T10:35:36Z</time>
      </trkpt>
      <trkpt lat="48.47861" lon="7.1277">
        <ele>731.2</ele>
        <time>2022-12-27T10:35:38Z</time>
      </trkpt>
      <trkpt lat="48.47858" lon="7.12776">
        <ele>731</ele>
        <time>2022-12-27T10:35:39Z</time>
      </trkpt>
      <trkpt lat="48.47857" lon="7.12782">
        <ele>730.4</ele>
        <time>2022-12-27T10:35:40Z</time>
      </trkpt>
      <trkpt lat="48.47855" lon="7.12795">
        <ele>729.8</ele>
        <time>2022-12-27T10:35:42Z</time>
      </trkpt>
      <trkpt lat="48.47847" lon="7.12829">
        <ele>729</ele>
        <time>2022-12-27T10:35:46Z</time>
      </trkpt>
      <trkpt lat="48.47848" lon="7.12837">
        <ele>728.6</ele>
        <time>2022-12-27T10:35:47Z</time>
      </trkpt>
      <trkpt lat="48.4785" lon="7.12845">
        <ele>728.4</ele>
        <time>2022-12-27T10:35:48Z</time>
      </trkpt>
      <trkpt lat="48.47856" lon="7.12863">
        <ele>728.2</ele>
        <time>2022-12-27T10:35:50Z</time>
      </trkpt>
      <trkpt lat="48.47855" lon="7.12885">
        <ele>727.2</ele>
        <time>2022-12-27T10:35:52Z</time>
      </trkpt>
      <trkpt lat="48.47853" lon="7.12895">
        <ele>727</ele>
        <time>2022-12-27T10:35:53Z</time>
      </trkpt>
      <trkpt lat="48.47849" lon="7.12906">
        <ele>726.8</ele>
        <time>2022-12-27T10:35:54Z</time>
      </trkpt>
      <trkpt lat="48.47841" lon="7.12921">
        <ele>726.2</ele>
        <time>2022-12-27T10:35:56Z</time>
      </trkpt>
      <trkpt lat="48.47837" lon="7.12928">
        <ele>726</ele>
        <time>2022-12-27T10:35:57Z</time>
      </trkpt>
      <trkpt lat="48.47825" lon="7.12953">
        <ele>724.8</ele>
        <time>2022-12-27T10:36:00Z</time>
      </trkpt>
      <trkpt lat="48.47822" lon="7.12961">
        <ele>724.8</ele>
        <time>2022-12-27T10:36:01Z</time>
      </trkpt>
      <trkpt lat="48.47821" lon="7.12974">
        <ele>724.4</ele>
        <time>2022-12-27T10:36:02Z</time>
      </trkpt>
      <trkpt lat="48.47811" lon="7.1299">
        <ele>724</ele>
        <time>2022-12-27T10:36:04Z</time>
      </trkpt>
      <trkpt lat="48.47807" lon="7.12995">
        <ele>723.8</ele>
        <time>2022-12-27T10:36:05Z</time>
      </trkpt>
      <trkpt lat="48.47803" lon="7.12998">
        <ele>723.8</ele>
        <time>2022-12-27T10:36:06Z</time>
      </trkpt>
      <trkpt lat="48.47799" lon="7.13">
        <ele>723.6</ele>
        <time>2022-12-27T10:36:07Z</time>
      </trkpt>
      <trkpt lat="48.47789" lon="7.13005">
        <ele>722.6</ele>
        <time>2022-12-27T10:36:09Z</time>
      </trkpt>
      <trkpt lat="48.47777" lon="7.13015">
        <ele>721.6</ele>
        <time>2022-12-27T10:36:11Z</time>
      </trkpt>
      <trkpt lat="48.47771" lon="7.13021">
        <ele>721</ele>
        <time>2022-12-27T10:36:12Z</time>
      </trkpt>
      <trkpt lat="48.47761" lon="7.13031">
        <ele>720.6</ele>
        <time>2022-12-27T10:36:14Z</time>
      </trkpt>
      <trkpt lat="48.47754" lon="7.13036">
        <ele>720.2</ele>
        <time>2022-12-27T10:36:16Z</time>
      </trkpt>
      <trkpt lat="48.47748" lon="7.1304">
        <ele>720</ele>
        <time>2022-12-27T10:36:17Z</time>
      </trkpt>
      <trkpt lat="48.4773" lon="7.13057">
        <ele>718.6</ele>
        <time>2022-12-27T10:36:20Z</time>
      </trkpt>
      <trkpt lat="48.4772" lon="7.13066">
        <ele>718.2</ele>
        <time>2022-12-27T10:36:22Z</time>
      </trkpt>
      <trkpt lat="48.47706" lon="7.13082">
        <ele>717</ele>
        <time>2022-12-27T10:36:24Z</time>
      </trkpt>
      <trkpt lat="48.477" lon="7.1309">
        <ele>716.8</ele>
        <time>2022-12-27T10:36:25Z</time>
      </trkpt>
      <trkpt lat="48.47691" lon="7.13105">
        <ele>715.6</ele>
        <time>2022-12-27T10:36:27Z</time>
      </trkpt>
      <trkpt lat="48.4769" lon="7.13116">
        <ele>715.2</ele>
        <time>2022-12-27T10:36:28Z</time>
      </trkpt>
      <trkpt lat="48.47688" lon="7.13124">
        <ele>715</ele>
        <time>2022-12-27T10:36:29Z</time>
      </trkpt>
      <trkpt lat="48.47683" lon="7.13135">
        <ele>714.4</ele>
        <time>2022-12-27T10:36:30Z</time>
      </trkpt>
      <trkpt lat="48.47661" lon="7.13164">
        <ele>713.6</ele>
        <time>2022-12-27T10:36:34Z</time>
      </trkpt>
      <trkpt lat="48.4765" lon="7.13177">
        <ele>713.4</ele>
        <time>2022-12-27T10:36:36Z</time>
      </trkpt>
      <trkpt lat="48.4764" lon="7.13193">
        <ele>712</ele>
        <time>2022-12-27T10:36:38Z</time>
      </trkpt>
      <trkpt lat="48.47635" lon="7.13202">
        <ele>711.4</ele>
        <time>2022-12-27T10:36:39Z</time>
      </trkpt>
      <trkpt lat="48.47631" lon="7.13207">
        <ele>711</ele>
        <time>2022-12-27T10:36:40Z</time>
      </trkpt>
      <trkpt lat="48.47627" lon="7.13212">
        <ele>710.8</ele>
        <time>2022-12-27T10:36:41Z</time>
      </trkpt>
      <trkpt lat="48.47614" lon="7.13229">
        <ele>710.6</ele>
        <time>2022-12-27T10:36:44Z</time>
      </trkpt>
      <trkpt lat="48.47602" lon="7.1324">
        <ele>710.4</ele>
        <time>2022-12-27T10:36:46Z</time>
      </trkpt>
      <trkpt lat="48.47588" lon="7.13248">
        <ele>710.4</ele>
        <time>2022-12-27T10:36:49Z</time>
      </trkpt>
      <trkpt lat="48.47582" lon="7.13249">
        <ele>709.8</ele>
        <time>2022-12-27T10:36:50Z</time>
      </trkpt>
      <trkpt lat="48.47565" lon="7.13252">
        <ele>708.4</ele>
        <time>2022-12-27T10:36:53Z</time>
      </trkpt>
      <trkpt lat="48.47553" lon="7.13255">
        <ele>708.2</ele>
        <time>2022-12-27T10:36:55Z</time>
      </trkpt>
      <trkpt lat="48.47548" lon="7.13256">
        <ele>708</ele>
        <time>2022-12-27T10:36:56Z</time>
      </trkpt>
      <trkpt lat="48.47537" lon="7.13264">
        <ele>707.8</ele>
        <time>2022-12-27T10:36:58Z</time>
      </trkpt>
      <trkpt lat="48.47532" lon="7.13271">
        <ele>707.6</ele>
        <time>2022-12-27T10:36:59Z</time>
      </trkpt>
      <trkpt lat="48.4753" lon="7.13277">
        <ele>707.6</ele>
        <time>2022-12-27T10:37:00Z</time>
      </trkpt>
      <trkpt lat="48.47527" lon="7.13297">
        <ele>707.2</ele>
        <time>2022-12-27T10:37:02Z</time>
      </trkpt>
      <trkpt lat="48.47531" lon="7.13333">
        <ele>706.8</ele>
        <time>2022-12-27T10:37:06Z</time>
      </trkpt>
      <trkpt lat="48.47534" lon="7.13346">
        <ele>706.6</ele>
        <time>2022-12-27T10:37:08Z</time>
      </trkpt>
      <trkpt lat="48.47538" lon="7.13362">
        <ele>706.6</ele>
        <time>2022-12-27T10:37:10Z</time>
      </trkpt>
      <trkpt lat="48.47541" lon="7.1338">
        <ele>706.6</ele>
        <time>2022-12-27T10:37:12Z</time>
      </trkpt>
      <trkpt lat="48.47547" lon="7.13405">
        <ele>706.2</ele>
        <time>2022-12-27T10:37:15Z</time>
      </trkpt>
      <trkpt lat="48.47549" lon="7.13422">
        <ele>706.2</ele>
        <time>2022-12-27T10:37:17Z</time>
      </trkpt>
      <trkpt lat="48.47548" lon="7.13438">
        <ele>705.8</ele>
        <time>2022-12-27T10:37:19Z</time>
      </trkpt>
      <trkpt lat="48.47546" lon="7.13457">
        <ele>706</ele>
        <time>2022-12-27T10:37:21Z</time>
      </trkpt>
      <trkpt lat="48.47543" lon="7.13482">
        <ele>705.6</ele>
        <time>2022-12-27T10:37:24Z</time>
      </trkpt>
      <trkpt lat="48.47539" lon="7.13498">
        <ele>705.6</ele>
        <time>2022-12-27T10:37:26Z</time>
      </trkpt>
      <trkpt lat="48.47538" lon="7.13505">
        <ele>705.8</ele>
        <time>2022-12-27T10:37:27Z</time>
      </trkpt>
      <trkpt lat="48.47537" lon="7.13521">
        <ele>705.6</ele>
        <time>2022-12-27T10:37:29Z</time>
      </trkpt>
      <trkpt lat="48.47534" lon="7.13527">
        <ele>705.2</ele>
        <time>2022-12-27T10:37:30Z</time>
      </trkpt>
      <trkpt lat="48.47527" lon="7.13536">
        <ele>705</ele>
        <time>2022-12-27T10:37:32Z</time>
      </trkpt>
      <trkpt lat="48.47523" lon="7.13538">
        <ele>705</ele>
        <time>2022-12-27T10:37:33Z</time>
      </trkpt>
      <trkpt lat="48.47518" lon="7.13539">
        <ele>704.8</ele>
        <time>2022-12-27T10:37:34Z</time>
      </trkpt>
      <trkpt lat="48.47515" lon="7.1354">
        <ele>704.8</ele>
        <time>2022-12-27T10:37:35Z</time>
      </trkpt>
      <trkpt lat="48.47503" lon="7.13539">
        <ele>704.4</ele>
        <time>2022-12-27T10:37:38Z</time>
      </trkpt>
      <trkpt lat="48.47488" lon="7.13532">
        <ele>704.2</ele>
        <time>2022-12-27T10:37:42Z</time>
      </trkpt>
      <trkpt lat="48.47479" lon="7.13527">
        <ele>704.2</ele>
        <time>2022-12-27T10:37:44Z</time>
      </trkpt>
      <trkpt lat="48.47469" lon="7.13522">
        <ele>704</ele>
        <time>2022-12-27T10:37:46Z</time>
      </trkpt>
      <trkpt lat="48.47452" lon="7.13512">
        <ele>703.8</ele>
        <time>2022-12-27T10:37:50Z</time>
      </trkpt>
      <trkpt lat="48.47442" lon="7.13511">
        <ele>703.8</ele>
        <time>2022-12-27T10:37:52Z</time>
      </trkpt>
      <trkpt lat="48.47431" lon="7.13512">
        <ele>703.6</ele>
        <time>2022-12-27T10:37:54Z</time>
      </trkpt>
      <trkpt lat="48.47425" lon="7.13514">
        <ele>703.6</ele>
        <time>2022-12-27T10:37:55Z</time>
      </trkpt>
      <trkpt lat="48.47407" lon="7.13517">
        <ele>703.4</ele>
        <time>2022-12-27T10:37:58Z</time>
      </trkpt>
      <trkpt lat="48.47396" lon="7.13517">
        <ele>703.4</ele>
        <time>2022-12-27T10:38:00Z</time>
      </trkpt>
      <trkpt lat="48.47386" lon="7.13514">
        <ele>703.4</ele>
        <time>2022-12-27T10:38:02Z</time>
      </trkpt>
      <trkpt lat="48.47371" lon="7.13506">
        <ele>703</ele>
        <time>2022-12-27T10:38:05Z</time>
      </trkpt>
      <trkpt lat="48.47362" lon="7.13497">
        <ele>702.8</ele>
        <time>2022-12-27T10:38:07Z</time>
      </trkpt>
      <trkpt lat="48.47353" lon="7.13487">
        <ele>702.8</ele>
        <time>2022-12-27T10:38:09Z</time>
      </trkpt>
      <trkpt lat="48.4735" lon="7.13482">
        <ele>702.4</ele>
        <time>2022-12-27T10:38:10Z</time>
      </trkpt>
      <trkpt lat="48.47346" lon="7.13477">
        <ele>702.4</ele>
        <time>2022-12-27T10:38:11Z</time>
      </trkpt>
      <trkpt lat="48.47343" lon="7.13472">
        <ele>702.2</ele>
        <time>2022-12-27T10:38:12Z</time>
      </trkpt>
      <trkpt lat="48.47331" lon="7.13455">
        <ele>701.6</ele>
        <time>2022-12-27T10:38:15Z</time>
      </trkpt>
      <trkpt lat="48.47326" lon="7.13446">
        <ele>701.2</ele>
        <time>2022-12-27T10:38:16Z</time>
      </trkpt>
      <trkpt lat="48.47319" lon="7.13434">
        <ele>701.2</ele>
        <time>2022-12-27T10:38:18Z</time>
      </trkpt>
      <trkpt lat="48.47308" lon="7.13415">
        <ele>700.6</ele>
        <time>2022-12-27T10:38:21Z</time>
      </trkpt>
      <trkpt lat="48.47304" lon="7.13406">
        <ele>700.2</ele>
        <time>2022-12-27T10:38:22Z</time>
      </trkpt>
      <trkpt lat="48.47285" lon="7.13369">
        <ele>699</ele>
        <time>2022-12-27T10:38:27Z</time>
      </trkpt>
      <trkpt lat="48.47281" lon="7.13362">
        <ele>698.8</ele>
        <time>2022-12-27T10:38:28Z</time>
      </trkpt>
      <trkpt lat="48.47253" lon="7.13308">
        <ele>698</ele>
        <time>2022-12-27T10:38:35Z</time>
      </trkpt>
      <trkpt lat="48.47248" lon="7.13302">
        <ele>697.6</ele>
        <time>2022-12-27T10:38:36Z</time>
      </trkpt>
      <trkpt lat="48.47229" lon="7.13278">
        <ele>696.4</ele>
        <time>2022-12-27T10:38:40Z</time>
      </trkpt>
      <trkpt lat="48.47212" lon="7.13255">
        <ele>696</ele>
        <time>2022-12-27T10:38:44Z</time>
      </trkpt>
      <trkpt lat="48.47198" lon="7.13239">
        <ele>695.2</ele>
        <time>2022-12-27T10:38:47Z</time>
      </trkpt>
      <trkpt lat="48.47171" lon="7.13214">
        <ele>694.4</ele>
        <time>2022-12-27T10:38:52Z</time>
      </trkpt>
      <trkpt lat="48.47165" lon="7.13211">
        <ele>694.2</ele>
        <time>2022-12-27T10:38:53Z</time>
      </trkpt>
      <trkpt lat="48.47125" lon="7.13186">
        <ele>693</ele>
        <time>2022-12-27T10:39:00Z</time>
      </trkpt>
      <trkpt lat="48.4712" lon="7.13181">
        <ele>693</ele>
        <time>2022-12-27T10:39:01Z</time>
      </trkpt>
      <trkpt lat="48.47099" lon="7.13158">
        <ele>692.2</ele>
        <time>2022-12-27T10:39:05Z</time>
      </trkpt>
      <trkpt lat="48.47094" lon="7.13152">
        <ele>692</ele>
        <time>2022-12-27T10:39:06Z</time>
      </trkpt>
      <trkpt lat="48.47068" lon="7.1311">
        <ele>690.4</ele>
        <time>2022-12-27T10:39:12Z</time>
      </trkpt>
      <trkpt lat="48.47057" lon="7.13086">
        <ele>689.4</ele>
        <time>2022-12-27T10:39:15Z</time>
      </trkpt>
      <trkpt lat="48.47046" lon="7.13054">
        <ele>688.4</ele>
        <time>2022-12-27T10:39:19Z</time>
      </trkpt>
      <trkpt lat="48.47043" lon="7.13045">
        <ele>688.4</ele>
        <time>2022-12-27T10:39:20Z</time>
      </trkpt>
      <trkpt lat="48.47036" lon="7.13017">
        <ele>688.2</ele>
        <time>2022-12-27T10:39:23Z</time>
      </trkpt>
      <trkpt lat="48.47033" lon="7.13001">
        <ele>687.8</ele>
        <time>2022-12-27T10:39:25Z</time>
      </trkpt>
      <trkpt lat="48.47029" lon="7.12973">
        <ele>687.2</ele>
        <time>2022-12-27T10:39:28Z</time>
      </trkpt>
      <trkpt lat="48.47027" lon="7.1295">
        <ele>686.2</ele>
        <time>2022-12-27T10:39:31Z</time>
      </trkpt>
      <trkpt lat="48.47027" lon="7.12942">
        <ele>685.8</ele>
        <time>2022-12-27T10:39:32Z</time>
      </trkpt>
      <trkpt lat="48.47028" lon="7.12911">
        <ele>684.6</ele>
        <time>2022-12-27T10:39:36Z</time>
      </trkpt>
      <trkpt lat="48.47029" lon="7.12901">
        <ele>684.4</ele>
        <time>2022-12-27T10:39:37Z</time>
      </trkpt>
      <trkpt lat="48.47031" lon="7.12893">
        <ele>684.2</ele>
        <time>2022-12-27T10:39:38Z</time>
      </trkpt>
      <trkpt lat="48.47039" lon="7.1287">
        <ele>683.4</ele>
        <time>2022-12-27T10:39:41Z</time>
      </trkpt>
      <trkpt lat="48.47045" lon="7.12845">
        <ele>682.8</ele>
        <time>2022-12-27T10:39:44Z</time>
      </trkpt>
      <trkpt lat="48.47047" lon="7.12838">
        <ele>682.8</ele>
        <time>2022-12-27T10:39:45Z</time>
      </trkpt>
      <trkpt lat="48.4705" lon="7.12831">
        <ele>682.2</ele>
        <time>2022-12-27T10:39:46Z</time>
      </trkpt>
      <trkpt lat="48.47052" lon="7.12822">
        <ele>682</ele>
        <time>2022-12-27T10:39:47Z</time>
      </trkpt>
      <trkpt lat="48.47058" lon="7.12807">
        <ele>681.8</ele>
        <time>2022-12-27T10:39:49Z</time>
      </trkpt>
      <trkpt lat="48.47061" lon="7.128">
        <ele>681.8</ele>
        <time>2022-12-27T10:39:50Z</time>
      </trkpt>
      <trkpt lat="48.47064" lon="7.12794">
        <ele>681.8</ele>
        <time>2022-12-27T10:39:51Z</time>
      </trkpt>
      <trkpt lat="48.47072" lon="7.12782">
        <ele>681.4</ele>
        <time>2022-12-27T10:39:53Z</time>
      </trkpt>
      <trkpt lat="48.47076" lon="7.12778">
        <ele>681</ele>
        <time>2022-12-27T10:39:54Z</time>
      </trkpt>
      <trkpt lat="48.47096" lon="7.12754">
        <ele>679.8</ele>
        <time>2022-12-27T10:39:58Z</time>
      </trkpt>
      <trkpt lat="48.4711" lon="7.12739">
        <ele>679.6</ele>
        <time>2022-12-27T10:40:00Z</time>
      </trkpt>
      <trkpt lat="48.47139" lon="7.12711">
        <ele>678.8</ele>
        <time>2022-12-27T10:40:06Z</time>
      </trkpt>
      <trkpt lat="48.47147" lon="7.12704">
        <ele>678.4</ele>
        <time>2022-12-27T10:40:08Z</time>
      </trkpt>
      <trkpt lat="48.47154" lon="7.12693">
        <ele>678</ele>
        <time>2022-12-27T10:40:10Z</time>
      </trkpt>
      <trkpt lat="48.47158" lon="7.12687">
        <ele>677.8</ele>
        <time>2022-12-27T10:40:11Z</time>
      </trkpt>
      <trkpt lat="48.47174" lon="7.12661">
        <ele>677.8</ele>
        <time>2022-12-27T10:40:15Z</time>
      </trkpt>
      <trkpt lat="48.47182" lon="7.12646">
        <ele>677.2</ele>
        <time>2022-12-27T10:40:17Z</time>
      </trkpt>
      <trkpt lat="48.47188" lon="7.12633">
        <ele>677</ele>
        <time>2022-12-27T10:40:19Z</time>
      </trkpt>
      <trkpt lat="48.47189" lon="7.12623">
        <ele>677</ele>
        <time>2022-12-27T10:40:20Z</time>
      </trkpt>
      <trkpt lat="48.47189" lon="7.12612">
        <ele>677</ele>
        <time>2022-12-27T10:40:21Z</time>
      </trkpt>
      <trkpt lat="48.47187" lon="7.12579">
        <ele>675.8</ele>
        <time>2022-12-27T10:40:24Z</time>
      </trkpt>
      <trkpt lat="48.4719" lon="7.12559">
        <ele>675</ele>
        <time>2022-12-27T10:40:26Z</time>
      </trkpt>
      <trkpt lat="48.47193" lon="7.12547">
        <ele>674.8</ele>
        <time>2022-12-27T10:40:27Z</time>
      </trkpt>
      <trkpt lat="48.47197" lon="7.12541">
        <ele>674.8</ele>
        <time>2022-12-27T10:40:28Z</time>
      </trkpt>
      <trkpt lat="48.47206" lon="7.12526">
        <ele>674.2</ele>
        <time>2022-12-27T10:40:30Z</time>
      </trkpt>
      <trkpt lat="48.47212" lon="7.12518">
        <ele>674.2</ele>
        <time>2022-12-27T10:40:31Z</time>
      </trkpt>
      <trkpt lat="48.47219" lon="7.12499">
        <ele>673.4</ele>
        <time>2022-12-27T10:40:33Z</time>
      </trkpt>
      <trkpt lat="48.47222" lon="7.12491">
        <ele>672.8</ele>
        <time>2022-12-27T10:40:34Z</time>
      </trkpt>
      <trkpt lat="48.47225" lon="7.12481">
        <ele>672.4</ele>
        <time>2022-12-27T10:40:35Z</time>
      </trkpt>
      <trkpt lat="48.4722" lon="7.12455">
        <ele>671.4</ele>
        <time>2022-12-27T10:40:37Z</time>
      </trkpt>
      <trkpt lat="48.47215" lon="7.12445">
        <ele>671</ele>
        <time>2022-12-27T10:40:38Z</time>
      </trkpt>
      <trkpt lat="48.4721" lon="7.12435">
        <ele>670.8</ele>
        <time>2022-12-27T10:40:39Z</time>
      </trkpt>
      <trkpt lat="48.47193" lon="7.12427">
        <ele>670.2</ele>
        <time>2022-12-27T10:40:41Z</time>
      </trkpt>
      <trkpt lat="48.4718" lon="7.12424">
        <ele>669</ele>
        <time>2022-12-27T10:40:43Z</time>
      </trkpt>
      <trkpt lat="48.47167" lon="7.12421">
        <ele>667.8</ele>
        <time>2022-12-27T10:40:45Z</time>
      </trkpt>
      <trkpt lat="48.47142" lon="7.12416">
        <ele>666.8</ele>
        <time>2022-12-27T10:40:48Z</time>
      </trkpt>
      <trkpt lat="48.47135" lon="7.12414">
        <ele>666.6</ele>
        <time>2022-12-27T10:40:49Z</time>
      </trkpt>
      <trkpt lat="48.47119" lon="7.1241">
        <ele>665.6</ele>
        <time>2022-12-27T10:40:51Z</time>
      </trkpt>
      <trkpt lat="48.47104" lon="7.12405">
        <ele>664.6</ele>
        <time>2022-12-27T10:40:53Z</time>
      </trkpt>
      <trkpt lat="48.47097" lon="7.12406">
        <ele>663.6</ele>
        <time>2022-12-27T10:40:54Z</time>
      </trkpt>
      <trkpt lat="48.47083" lon="7.1241">
        <ele>663</ele>
        <time>2022-12-27T10:40:56Z</time>
      </trkpt>
      <trkpt lat="48.47069" lon="7.12418">
        <ele>662.4</ele>
        <time>2022-12-27T10:40:58Z</time>
      </trkpt>
      <trkpt lat="48.47056" lon="7.12426">
        <ele>660.4</ele>
        <time>2022-12-27T10:41:00Z</time>
      </trkpt>
      <trkpt lat="48.4705" lon="7.12427">
        <ele>660.2</ele>
        <time>2022-12-27T10:41:01Z</time>
      </trkpt>
      <trkpt lat="48.47034" lon="7.12431">
        <ele>659.6</ele>
        <time>2022-12-27T10:41:03Z</time>
      </trkpt>
      <trkpt lat="48.4702" lon="7.12437">
        <ele>659.2</ele>
        <time>2022-12-27T10:41:05Z</time>
      </trkpt>
      <trkpt lat="48.47007" lon="7.12448">
        <ele>658.2</ele>
        <time>2022-12-27T10:41:07Z</time>
      </trkpt>
      <trkpt lat="48.46995" lon="7.12463">
        <ele>656.8</ele>
        <time>2022-12-27T10:41:09Z</time>
      </trkpt>
      <trkpt lat="48.46988" lon="7.12473">
        <ele>655.8</ele>
        <time>2022-12-27T10:41:10Z</time>
      </trkpt>
      <trkpt lat="48.46983" lon="7.12481">
        <ele>655.2</ele>
        <time>2022-12-27T10:41:11Z</time>
      </trkpt>
      <trkpt lat="48.46979" lon="7.12489">
        <ele>654.4</ele>
        <time>2022-12-27T10:41:12Z</time>
      </trkpt>
      <trkpt lat="48.46965" lon="7.12521">
        <ele>653.6</ele>
        <time>2022-12-27T10:41:15Z</time>
      </trkpt>
      <trkpt lat="48.4696" lon="7.1253">
        <ele>653.4</ele>
        <time>2022-12-27T10:41:16Z</time>
      </trkpt>
      <trkpt lat="48.46944" lon="7.12549">
        <ele>652.2</ele>
        <time>2022-12-27T10:41:19Z</time>
      </trkpt>
      <trkpt lat="48.46938" lon="7.12554">
        <ele>651.2</ele>
        <time>2022-12-27T10:41:20Z</time>
      </trkpt>
      <trkpt lat="48.46933" lon="7.12558">
        <ele>651</ele>
        <time>2022-12-27T10:41:21Z</time>
      </trkpt>
      <trkpt lat="48.46924" lon="7.12562">
        <ele>650.2</ele>
        <time>2022-12-27T10:41:23Z</time>
      </trkpt>
      <trkpt lat="48.4692" lon="7.12563">
        <ele>649.4</ele>
        <time>2022-12-27T10:41:24Z</time>
      </trkpt>
      <trkpt lat="48.46912" lon="7.12564">
        <ele>649</ele>
        <time>2022-12-27T10:41:26Z</time>
      </trkpt>
      <trkpt lat="48.4691" lon="7.12563">
        <ele>648.6</ele>
        <time>2022-12-27T10:41:27Z</time>
      </trkpt>
      <trkpt lat="48.46906" lon="7.12559">
        <ele>648</ele>
        <time>2022-12-27T10:41:28Z</time>
      </trkpt>
      <trkpt lat="48.469" lon="7.12551">
        <ele>647.4</ele>
        <time>2022-12-27T10:41:30Z</time>
      </trkpt>
      <trkpt lat="48.46898" lon="7.12545">
        <ele>647.2</ele>
        <time>2022-12-27T10:41:31Z</time>
      </trkpt>
      <trkpt lat="48.46896" lon="7.12538">
        <ele>647</ele>
        <time>2022-12-27T10:41:32Z</time>
      </trkpt>
      <trkpt lat="48.46893" lon="7.12523">
        <ele>646.4</ele>
        <time>2022-12-27T10:41:34Z</time>
      </trkpt>
      <trkpt lat="48.46889" lon="7.12506">
        <ele>646</ele>
        <time>2022-12-27T10:41:36Z</time>
      </trkpt>
      <trkpt lat="48.4688" lon="7.12461">
        <ele>644.8</ele>
        <time>2022-12-27T10:41:41Z</time>
      </trkpt>
      <trkpt lat="48.46875" lon="7.12442">
        <ele>644.4</ele>
        <time>2022-12-27T10:41:43Z</time>
      </trkpt>
      <trkpt lat="48.4687" lon="7.12425">
        <ele>643.8</ele>
        <time>2022-12-27T10:41:45Z</time>
      </trkpt>
      <trkpt lat="48.46862" lon="7.12396">
        <ele>642.6</ele>
        <time>2022-12-27T10:41:48Z</time>
      </trkpt>
      <trkpt lat="48.46859" lon="7.12385">
        <ele>642.2</ele>
        <time>2022-12-27T10:41:49Z</time>
      </trkpt>
      <trkpt lat="48.46848" lon="7.12338">
        <ele>641.2</ele>
        <time>2022-12-27T10:41:53Z</time>
      </trkpt>
      <trkpt lat="48.46845" lon="7.1233">
        <ele>640.8</ele>
        <time>2022-12-27T10:41:54Z</time>
      </trkpt>
      <trkpt lat="48.46835" lon="7.1231">
        <ele>640</ele>
        <time>2022-12-27T10:41:56Z</time>
      </trkpt>
      <trkpt lat="48.46825" lon="7.12289">
        <ele>639.4</ele>
        <time>2022-12-27T10:41:58Z</time>
      </trkpt>
      <trkpt lat="48.46821" lon="7.12279">
        <ele>639</ele>
        <time>2022-12-27T10:41:59Z</time>
      </trkpt>
      <trkpt lat="48.46811" lon="7.12254">
        <ele>637.8</ele>
        <time>2022-12-27T10:42:02Z</time>
      </trkpt>
      <trkpt lat="48.46806" lon="7.12243">
        <ele>636.8</ele>
        <time>2022-12-27T10:42:03Z</time>
      </trkpt>
      <trkpt lat="48.46801" lon="7.12235">
        <ele>635.6</ele>
        <time>2022-12-27T10:42:04Z</time>
      </trkpt>
      <trkpt lat="48.46791" lon="7.12221">
        <ele>634.4</ele>
        <time>2022-12-27T10:42:06Z</time>
      </trkpt>
      <trkpt lat="48.46785" lon="7.12213">
        <ele>633.8</ele>
        <time>2022-12-27T10:42:07Z</time>
      </trkpt>
      <trkpt lat="48.46777" lon="7.12205">
        <ele>633</ele>
        <time>2022-12-27T10:42:08Z</time>
      </trkpt>
      <trkpt lat="48.46769" lon="7.12199">
        <ele>632.6</ele>
        <time>2022-12-27T10:42:09Z</time>
      </trkpt>
      <trkpt lat="48.46756" lon="7.12189">
        <ele>631.4</ele>
        <time>2022-12-27T10:42:11Z</time>
      </trkpt>
      <trkpt lat="48.46739" lon="7.1218">
        <ele>630.8</ele>
        <time>2022-12-27T10:42:13Z</time>
      </trkpt>
      <trkpt lat="48.46732" lon="7.12177">
        <ele>630.6</ele>
        <time>2022-12-27T10:42:14Z</time>
      </trkpt>
      <trkpt lat="48.46725" lon="7.12176">
        <ele>630.4</ele>
        <time>2022-12-27T10:42:15Z</time>
      </trkpt>
      <trkpt lat="48.4671" lon="7.12173">
        <ele>629.8</ele>
        <time>2022-12-27T10:42:17Z</time>
      </trkpt>
      <trkpt lat="48.46702" lon="7.12172">
        <ele>628.8</ele>
        <time>2022-12-27T10:42:18Z</time>
      </trkpt>
      <trkpt lat="48.46693" lon="7.1217">
        <ele>628.4</ele>
        <time>2022-12-27T10:42:19Z</time>
      </trkpt>
      <trkpt lat="48.46677" lon="7.12167">
        <ele>627.6</ele>
        <time>2022-12-27T10:42:21Z</time>
      </trkpt>
      <trkpt lat="48.46663" lon="7.12166">
        <ele>626</ele>
        <time>2022-12-27T10:42:23Z</time>
      </trkpt>
      <trkpt lat="48.4664" lon="7.12164">
        <ele>624.6</ele>
        <time>2022-12-27T10:42:26Z</time>
      </trkpt>
      <trkpt lat="48.46629" lon="7.12164">
        <ele>623</ele>
        <time>2022-12-27T10:42:28Z</time>
      </trkpt>
      <trkpt lat="48.46616" lon="7.12174">
        <ele>622</ele>
        <time>2022-12-27T10:42:31Z</time>
      </trkpt>
      <trkpt lat="48.46614" lon="7.12177">
        <ele>621.6</ele>
        <time>2022-12-27T10:42:32Z</time>
      </trkpt>
      <trkpt lat="48.46613" lon="7.12181">
        <ele>621.2</ele>
        <time>2022-12-27T10:42:34Z</time>
      </trkpt>
      <trkpt lat="48.46613" lon="7.12181">
        <ele>620.8</ele>
        <time>2022-12-27T10:42:35Z</time>
      </trkpt>
      <trkpt lat="48.46613" lon="7.12181">
        <ele>619.6</ele>
        <time>2022-12-27T10:42:39Z</time>
      </trkpt>
      <trkpt lat="48.46613" lon="7.12181">
        <ele>619.4</ele>
        <time>2022-12-27T10:42:40Z</time>
      </trkpt>
      <trkpt lat="48.46613" lon="7.12181">
        <ele>619.2</ele>
        <time>2022-12-27T10:42:44Z</time>
      </trkpt>
      <trkpt lat="48.46613" lon="7.12181">
        <ele>619.2</ele>
        <time>2022-12-27T10:42:55Z</time>
      </trkpt>
      <trkpt lat="48.46611" lon="7.12192">
        <ele>619.2</ele>
        <time>2022-12-27T10:42:59Z</time>
      </trkpt>
      <trkpt lat="48.46609" lon="7.12211">
        <ele>618.8</ele>
        <time>2022-12-27T10:43:02Z</time>
      </trkpt>
      <trkpt lat="48.4661" lon="7.12218">
        <ele>618.8</ele>
        <time>2022-12-27T10:43:03Z</time>
      </trkpt>
      <trkpt lat="48.46612" lon="7.12249">
        <ele>618.2</ele>
        <time>2022-12-27T10:43:07Z</time>
      </trkpt>
      <trkpt lat="48.46613" lon="7.12268">
        <ele>618</ele>
        <time>2022-12-27T10:43:09Z</time>
      </trkpt>
      <trkpt lat="48.46613" lon="7.12276">
        <ele>617.8</ele>
        <time>2022-12-27T10:43:10Z</time>
      </trkpt>
      <trkpt lat="48.46615" lon="7.12316">
        <ele>617.2</ele>
        <time>2022-12-27T10:43:14Z</time>
      </trkpt>
      <trkpt lat="48.46618" lon="7.12338">
        <ele>616.2</ele>
        <time>2022-12-27T10:43:16Z</time>
      </trkpt>
      <trkpt lat="48.46624" lon="7.1236">
        <ele>615</ele>
        <time>2022-12-27T10:43:18Z</time>
      </trkpt>
      <trkpt lat="48.46629" lon="7.12382">
        <ele>614.4</ele>
        <time>2022-12-27T10:43:20Z</time>
      </trkpt>
      <trkpt lat="48.46631" lon="7.12406">
        <ele>613.8</ele>
        <time>2022-12-27T10:43:22Z</time>
      </trkpt>
      <trkpt lat="48.46634" lon="7.12427">
        <ele>613.4</ele>
        <time>2022-12-27T10:43:24Z</time>
      </trkpt>
      <trkpt lat="48.46638" lon="7.12447">
        <ele>612.4</ele>
        <time>2022-12-27T10:43:26Z</time>
      </trkpt>
      <trkpt lat="48.46641" lon="7.12458">
        <ele>612.2</ele>
        <time>2022-12-27T10:43:27Z</time>
      </trkpt>
      <trkpt lat="48.46648" lon="7.12478">
        <ele>611.2</ele>
        <time>2022-12-27T10:43:29Z</time>
      </trkpt>
      <trkpt lat="48.46656" lon="7.12509">
        <ele>609.2</ele>
        <time>2022-12-27T10:43:32Z</time>
      </trkpt>
      <trkpt lat="48.46659" lon="7.1252">
        <ele>608.6</ele>
        <time>2022-12-27T10:43:33Z</time>
      </trkpt>
      <trkpt lat="48.46662" lon="7.1253">
        <ele>608</ele>
        <time>2022-12-27T10:43:34Z</time>
      </trkpt>
      <trkpt lat="48.46672" lon="7.12573">
        <ele>606.8</ele>
        <time>2022-12-27T10:43:38Z</time>
      </trkpt>
      <trkpt lat="48.46675" lon="7.1262">
        <ele>606</ele>
        <time>2022-12-27T10:43:42Z</time>
      </trkpt>
      <trkpt lat="48.46677" lon="7.12631">
        <ele>605.8</ele>
        <time>2022-12-27T10:43:43Z</time>
      </trkpt>
      <trkpt lat="48.46683" lon="7.12651">
        <ele>605.4</ele>
        <time>2022-12-27T10:43:45Z</time>
      </trkpt>
      <trkpt lat="48.46692" lon="7.1267">
        <ele>604.2</ele>
        <time>2022-12-27T10:43:47Z</time>
      </trkpt>
      <trkpt lat="48.46699" lon="7.1269">
        <ele>602.8</ele>
        <time>2022-12-27T10:43:49Z</time>
      </trkpt>
      <trkpt lat="48.46702" lon="7.12701">
        <ele>601.4</ele>
        <time>2022-12-27T10:43:50Z</time>
      </trkpt>
      <trkpt lat="48.46707" lon="7.12722">
        <ele>599.6</ele>
        <time>2022-12-27T10:43:52Z</time>
      </trkpt>
      <trkpt lat="48.4671" lon="7.12733">
        <ele>599.4</ele>
        <time>2022-12-27T10:43:53Z</time>
      </trkpt>
      <trkpt lat="48.46715" lon="7.12757">
        <ele>599</ele>
        <time>2022-12-27T10:43:55Z</time>
      </trkpt>
      <trkpt lat="48.46719" lon="7.12782">
        <ele>598.4</ele>
        <time>2022-12-27T10:43:57Z</time>
      </trkpt>
      <trkpt lat="48.46721" lon="7.12795">
        <ele>598.4</ele>
        <time>2022-12-27T10:43:58Z</time>
      </trkpt>
      <trkpt lat="48.46723" lon="7.12821">
        <ele>598.2</ele>
        <time>2022-12-27T10:44:00Z</time>
      </trkpt>
      <trkpt lat="48.46722" lon="7.12846">
        <ele>596.6</ele>
        <time>2022-12-27T10:44:02Z</time>
      </trkpt>
      <trkpt lat="48.4672" lon="7.1287">
        <ele>595.6</ele>
        <time>2022-12-27T10:44:04Z</time>
      </trkpt>
      <trkpt lat="48.46717" lon="7.12896">
        <ele>594.2</ele>
        <time>2022-12-27T10:44:06Z</time>
      </trkpt>
      <trkpt lat="48.46715" lon="7.12921">
        <ele>593</ele>
        <time>2022-12-27T10:44:08Z</time>
      </trkpt>
      <trkpt lat="48.46713" lon="7.12948">
        <ele>592</ele>
        <time>2022-12-27T10:44:10Z</time>
      </trkpt>
      <trkpt lat="48.46709" lon="7.12986">
        <ele>591</ele>
        <time>2022-12-27T10:44:13Z</time>
      </trkpt>
      <trkpt lat="48.46707" lon="7.12998">
        <ele>590.2</ele>
        <time>2022-12-27T10:44:14Z</time>
      </trkpt>
      <trkpt lat="48.46705" lon="7.13008">
        <ele>589.8</ele>
        <time>2022-12-27T10:44:15Z</time>
      </trkpt>
      <trkpt lat="48.46701" lon="7.13031">
        <ele>588.2</ele>
        <time>2022-12-27T10:44:17Z</time>
      </trkpt>
      <trkpt lat="48.46696" lon="7.13066">
        <ele>587</ele>
        <time>2022-12-27T10:44:20Z</time>
      </trkpt>
      <trkpt lat="48.46694" lon="7.1309">
        <ele>585.8</ele>
        <time>2022-12-27T10:44:22Z</time>
      </trkpt>
      <trkpt lat="48.46692" lon="7.13114">
        <ele>584.4</ele>
        <time>2022-12-27T10:44:24Z</time>
      </trkpt>
      <trkpt lat="48.46688" lon="7.13138">
        <ele>583.6</ele>
        <time>2022-12-27T10:44:26Z</time>
      </trkpt>
      <trkpt lat="48.46686" lon="7.13151">
        <ele>583.4</ele>
        <time>2022-12-27T10:44:27Z</time>
      </trkpt>
      <trkpt lat="48.46683" lon="7.13164">
        <ele>582.8</ele>
        <time>2022-12-27T10:44:28Z</time>
      </trkpt>
      <trkpt lat="48.4668" lon="7.13176">
        <ele>582</ele>
        <time>2022-12-27T10:44:29Z</time>
      </trkpt>
      <trkpt lat="48.46677" lon="7.13187">
        <ele>581.6</ele>
        <time>2022-12-27T10:44:30Z</time>
      </trkpt>
      <trkpt lat="48.46667" lon="7.1322">
        <ele>580.6</ele>
        <time>2022-12-27T10:44:33Z</time>
      </trkpt>
      <trkpt lat="48.46659" lon="7.13237">
        <ele>579.6</ele>
        <time>2022-12-27T10:44:35Z</time>
      </trkpt>
      <trkpt lat="48.46655" lon="7.13247">
        <ele>579.2</ele>
        <time>2022-12-27T10:44:36Z</time>
      </trkpt>
      <trkpt lat="48.46645" lon="7.13283">
        <ele>578.2</ele>
        <time>2022-12-27T10:44:39Z</time>
      </trkpt>
      <trkpt lat="48.46632" lon="7.13315">
        <ele>576.8</ele>
        <time>2022-12-27T10:44:42Z</time>
      </trkpt>
      <trkpt lat="48.46625" lon="7.13339">
        <ele>575.6</ele>
        <time>2022-12-27T10:44:44Z</time>
      </trkpt>
      <trkpt lat="48.46624" lon="7.13362">
        <ele>574.8</ele>
        <time>2022-12-27T10:44:46Z</time>
      </trkpt>
      <trkpt lat="48.46625" lon="7.13374">
        <ele>574.4</ele>
        <time>2022-12-27T10:44:47Z</time>
      </trkpt>
      <trkpt lat="48.46627" lon="7.13385">
        <ele>574.4</ele>
        <time>2022-12-27T10:44:48Z</time>
      </trkpt>
      <trkpt lat="48.46629" lon="7.1341">
        <ele>573.6</ele>
        <time>2022-12-27T10:44:50Z</time>
      </trkpt>
      <trkpt lat="48.46629" lon="7.13426">
        <ele>572</ele>
        <time>2022-12-27T10:44:51Z</time>
      </trkpt>
      <trkpt lat="48.4663" lon="7.13464">
        <ele>570.8</ele>
        <time>2022-12-27T10:44:54Z</time>
      </trkpt>
      <trkpt lat="48.4663" lon="7.13478">
        <ele>570.2</ele>
        <time>2022-12-27T10:44:55Z</time>
      </trkpt>
      <trkpt lat="48.4663" lon="7.13507">
        <ele>568.8</ele>
        <time>2022-12-27T10:44:57Z</time>
      </trkpt>
      <trkpt lat="48.46629" lon="7.13551">
        <ele>567.4</ele>
        <time>2022-12-27T10:45:00Z</time>
      </trkpt>
      <trkpt lat="48.46627" lon="7.13573">
        <ele>566.8</ele>
        <time>2022-12-27T10:45:02Z</time>
      </trkpt>
      <trkpt lat="48.46621" lon="7.136">
        <ele>566.4</ele>
        <time>2022-12-27T10:45:04Z</time>
      </trkpt>
      <trkpt lat="48.46613" lon="7.13623">
        <ele>565.8</ele>
        <time>2022-12-27T10:45:06Z</time>
      </trkpt>
      <trkpt lat="48.46604" lon="7.13645">
        <ele>565.2</ele>
        <time>2022-12-27T10:45:07Z</time>
      </trkpt>
      <trkpt lat="48.46601" lon="7.13656">
        <ele>563.8</ele>
        <time>2022-12-27T10:45:09Z</time>
      </trkpt>
      <trkpt lat="48.46598" lon="7.13672">
        <ele>563</ele>
        <time>2022-12-27T10:45:11Z</time>
      </trkpt>
      <trkpt lat="48.46598" lon="7.13677">
        <ele>562.6</ele>
        <time>2022-12-27T10:45:12Z</time>
      </trkpt>
      <trkpt lat="48.46596" lon="7.13685">
        <ele>561.2</ele>
        <time>2022-12-27T10:45:14Z</time>
      </trkpt>
      <trkpt lat="48.46596" lon="7.13688">
        <ele>560</ele>
        <time>2022-12-27T10:45:15Z</time>
      </trkpt>
      <trkpt lat="48.46596" lon="7.13698">
        <ele>558.6</ele>
        <time>2022-12-27T10:45:19Z</time>
      </trkpt>
      <trkpt lat="48.46593" lon="7.13722">
        <ele>557.8</ele>
        <time>2022-12-27T10:45:25Z</time>
      </trkpt>
      <trkpt lat="48.46589" lon="7.13752">
        <ele>557.4</ele>
        <time>2022-12-27T10:45:30Z</time>
      </trkpt>
      <trkpt lat="48.46588" lon="7.13759">
        <ele>557.2</ele>
        <time>2022-12-27T10:45:31Z</time>
      </trkpt>
      <trkpt lat="48.46586" lon="7.13773">
        <ele>557</ele>
        <time>2022-12-27T10:45:33Z</time>
      </trkpt>
      <trkpt lat="48.46581" lon="7.13798">
        <ele>556.6</ele>
        <time>2022-12-27T10:45:36Z</time>
      </trkpt>
      <trkpt lat="48.46577" lon="7.13816">
        <ele>556</ele>
        <time>2022-12-27T10:45:38Z</time>
      </trkpt>
      <trkpt lat="48.46575" lon="7.13825">
        <ele>555.8</ele>
        <time>2022-12-27T10:45:39Z</time>
      </trkpt>
      <trkpt lat="48.46571" lon="7.13854">
        <ele>555.2</ele>
        <time>2022-12-27T10:45:41Z</time>
      </trkpt>
      <trkpt lat="48.46571" lon="7.13854">
        <ele>554.8</ele>
        <time>2022-12-27T10:45:42Z</time>
      </trkpt>
      <trkpt lat="48.46573" lon="7.13875">
        <ele>554.4</ele>
        <time>2022-12-27T10:45:43Z</time>
      </trkpt>
      <trkpt lat="48.46576" lon="7.13885">
        <ele>553.6</ele>
        <time>2022-12-27T10:45:45Z</time>
      </trkpt>
      <trkpt lat="48.46583" lon="7.13904">
        <ele>552.6</ele>
        <time>2022-12-27T10:45:47Z</time>
      </trkpt>
      <trkpt lat="48.46593" lon="7.13923">
        <ele>552.2</ele>
        <time>2022-12-27T10:45:49Z</time>
      </trkpt>
      <trkpt lat="48.46606" lon="7.13944">
        <ele>551.4</ele>
        <time>2022-12-27T10:45:52Z</time>
      </trkpt>
      <trkpt lat="48.4661" lon="7.1395">
        <ele>550.8</ele>
        <time>2022-12-27T10:45:53Z</time>
      </trkpt>
      <trkpt lat="48.4662" lon="7.1396">
        <ele>550.6</ele>
        <time>2022-12-27T10:45:54Z</time>
      </trkpt>
      <trkpt lat="48.46629" lon="7.13971">
        <ele>550</ele>
        <time>2022-12-27T10:45:57Z</time>
      </trkpt>
      <trkpt lat="48.46641" lon="7.13991">
        <ele>549.2</ele>
        <time>2022-12-27T10:45:59Z</time>
      </trkpt>
      <trkpt lat="48.46641" lon="7.13991">
        <ele>549</ele>
        <time>2022-12-27T10:46:00Z</time>
      </trkpt>
      <trkpt lat="48.46647" lon="7.14008">
        <ele>548.8</ele>
        <time>2022-12-27T10:46:01Z</time>
      </trkpt>
      <trkpt lat="48.46648" lon="7.14018">
        <ele>548.4</ele>
        <time>2022-12-27T10:46:03Z</time>
      </trkpt>
      <trkpt lat="48.46643" lon="7.14041">
        <ele>548.4</ele>
        <time>2022-12-27T10:46:05Z</time>
      </trkpt>
      <trkpt lat="48.46643" lon="7.14041">
        <ele>548</ele>
        <time>2022-12-27T10:46:06Z</time>
      </trkpt>
      <trkpt lat="48.46635" lon="7.14055">
        <ele>547.8</ele>
        <time>2022-12-27T10:46:08Z</time>
      </trkpt>
      <trkpt lat="48.46625" lon="7.14065">
        <ele>547.4</ele>
        <time>2022-12-27T10:46:10Z</time>
      </trkpt>
      <trkpt lat="48.46612" lon="7.14069">
        <ele>547.2</ele>
        <time>2022-12-27T10:46:11Z</time>
      </trkpt>
      <trkpt lat="48.46607" lon="7.14069">
        <ele>547</ele>
        <time>2022-12-27T10:46:12Z</time>
      </trkpt>
      <trkpt lat="48.46584" lon="7.1407">
        <ele>545.8</ele>
        <time>2022-12-27T10:46:15Z</time>
      </trkpt>
      <trkpt lat="48.46584" lon="7.1407">
        <ele>545.8</ele>
        <time>2022-12-27T10:46:16Z</time>
      </trkpt>
      <trkpt lat="48.46556" lon="7.14067">
        <ele>544.8</ele>
        <time>2022-12-27T10:46:19Z</time>
      </trkpt>
      <trkpt lat="48.46535" lon="7.14062">
        <ele>543.6</ele>
        <time>2022-12-27T10:46:22Z</time>
      </trkpt>
      <trkpt lat="48.46528" lon="7.1406">
        <ele>542.8</ele>
        <time>2022-12-27T10:46:23Z</time>
      </trkpt>
      <trkpt lat="48.46521" lon="7.14057">
        <ele>542.2</ele>
        <time>2022-12-27T10:46:24Z</time>
      </trkpt>
      <trkpt lat="48.46506" lon="7.14052">
        <ele>541.2</ele>
        <time>2022-12-27T10:46:27Z</time>
      </trkpt>
      <trkpt lat="48.4649" lon="7.14043">
        <ele>541.2</ele>
        <time>2022-12-27T10:46:28Z</time>
      </trkpt>
      <trkpt lat="48.46483" lon="7.14038">
        <ele>540.8</ele>
        <time>2022-12-27T10:46:30Z</time>
      </trkpt>
      <trkpt lat="48.46476" lon="7.14031">
        <ele>540.2</ele>
        <time>2022-12-27T10:46:31Z</time>
      </trkpt>
      <trkpt lat="48.46463" lon="7.14016">
        <ele>539</ele>
        <time>2022-12-27T10:46:33Z</time>
      </trkpt>
      <trkpt lat="48.46446" lon="7.13989">
        <ele>538.2</ele>
        <time>2022-12-27T10:46:35Z</time>
      </trkpt>
      <trkpt lat="48.46439" lon="7.1398">
        <ele>537.8</ele>
        <time>2022-12-27T10:46:36Z</time>
      </trkpt>
      <trkpt lat="48.46423" lon="7.1397">
        <ele>537</ele>
        <time>2022-12-27T10:46:38Z</time>
      </trkpt>
      <trkpt lat="48.46415" lon="7.13967">
        <ele>536.4</ele>
        <time>2022-12-27T10:46:39Z</time>
      </trkpt>
      <trkpt lat="48.46393" lon="7.13961">
        <ele>535.2</ele>
        <time>2022-12-27T10:46:42Z</time>
      </trkpt>
      <trkpt lat="48.46379" lon="7.13953">
        <ele>534.4</ele>
        <time>2022-12-27T10:46:44Z</time>
      </trkpt>
      <trkpt lat="48.46373" lon="7.13948">
        <ele>533.6</ele>
        <time>2022-12-27T10:46:45Z</time>
      </trkpt>
      <trkpt lat="48.46354" lon="7.13927">
        <ele>532.8</ele>
        <time>2022-12-27T10:46:48Z</time>
      </trkpt>
      <trkpt lat="48.46354" lon="7.13927">
        <ele>532.4</ele>
        <time>2022-12-27T10:46:49Z</time>
      </trkpt>
      <trkpt lat="48.46336" lon="7.13904">
        <ele>531.8</ele>
        <time>2022-12-27T10:46:51Z</time>
      </trkpt>
      <trkpt lat="48.46336" lon="7.13904">
        <ele>531</ele>
        <time>2022-12-27T10:46:52Z</time>
      </trkpt>
      <trkpt lat="48.4633" lon="7.13895">
        <ele>529.8</ele>
        <time>2022-12-27T10:46:53Z</time>
      </trkpt>
      <trkpt lat="48.4632" lon="7.13876">
        <ele>529.4</ele>
        <time>2022-12-27T10:46:54Z</time>
      </trkpt>
      <trkpt lat="48.46316" lon="7.13867">
        <ele>528.8</ele>
        <time>2022-12-27T10:46:56Z</time>
      </trkpt>
      <trkpt lat="48.46313" lon="7.13856">
        <ele>528.6</ele>
        <time>2022-12-27T10:46:57Z</time>
      </trkpt>
      <trkpt lat="48.46306" lon="7.13825">
        <ele>527.6</ele>
        <time>2022-12-27T10:47:00Z</time>
      </trkpt>
      <trkpt lat="48.463" lon="7.13805">
        <ele>527</ele>
        <time>2022-12-27T10:47:01Z</time>
      </trkpt>
      <trkpt lat="48.4629" lon="7.13792">
        <ele>526</ele>
        <time>2022-12-27T10:47:03Z</time>
      </trkpt>
      <trkpt lat="48.4628" lon="7.1379">
        <ele>525.4</ele>
        <time>2022-12-27T10:47:05Z</time>
      </trkpt>
      <trkpt lat="48.46275" lon="7.13792">
        <ele>525</ele>
        <time>2022-12-27T10:47:06Z</time>
      </trkpt>
      <trkpt lat="48.46271" lon="7.13794">
        <ele>524.6</ele>
        <time>2022-12-27T10:47:07Z</time>
      </trkpt>
      <trkpt lat="48.46261" lon="7.13801">
        <ele>523.8</ele>
        <time>2022-12-27T10:47:11Z</time>
      </trkpt>
      <trkpt lat="48.46259" lon="7.13802">
        <ele>523.2</ele>
        <time>2022-12-27T10:47:13Z</time>
      </trkpt>
      <trkpt lat="48.46249" lon="7.13805">
        <ele>522.8</ele>
        <time>2022-12-27T10:47:16Z</time>
      </trkpt>
      <trkpt lat="48.46247" lon="7.13804">
        <ele>522.6</ele>
        <time>2022-12-27T10:47:17Z</time>
      </trkpt>
      <trkpt lat="48.46243" lon="7.13801">
        <ele>522.6</ele>
        <time>2022-12-27T10:47:18Z</time>
      </trkpt>
      <trkpt lat="48.46226" lon="7.13785">
        <ele>522.6</ele>
        <time>2022-12-27T10:47:26Z</time>
      </trkpt>
      <trkpt lat="48.46208" lon="7.13766">
        <ele>522.8</ele>
        <time>2022-12-27T10:47:33Z</time>
      </trkpt>
      <trkpt lat="48.46184" lon="7.13749">
        <ele>523.8</ele>
        <time>2022-12-27T10:47:41Z</time>
      </trkpt>
      <trkpt lat="48.46164" lon="7.13735">
        <ele>524.6</ele>
        <time>2022-12-27T10:47:49Z</time>
      </trkpt>
      <trkpt lat="48.46158" lon="7.13731">
        <ele>524.8</ele>
        <time>2022-12-27T10:47:51Z</time>
      </trkpt>
      <trkpt lat="48.46142" lon="7.13722">
        <ele>525.2</ele>
        <time>2022-12-27T10:47:56Z</time>
      </trkpt>
      <trkpt lat="48.46127" lon="7.13713">
        <ele>525.6</ele>
        <time>2022-12-27T10:48:00Z</time>
      </trkpt>
      <trkpt lat="48.46125" lon="7.13711">
        <ele>525.8</ele>
        <time>2022-12-27T10:48:01Z</time>
      </trkpt>
      <trkpt lat="48.46119" lon="7.13707">
        <ele>526.2</ele>
        <time>2022-12-27T10:48:04Z</time>
      </trkpt>
      <trkpt lat="48.46099" lon="7.13698">
        <ele>526.8</ele>
        <time>2022-12-27T10:48:09Z</time>
      </trkpt>
      <trkpt lat="48.46096" lon="7.13696">
        <ele>527</ele>
        <time>2022-12-27T10:48:11Z</time>
      </trkpt>
      <trkpt lat="48.46069" lon="7.13683">
        <ele>527.8</ele>
        <time>2022-12-27T10:48:19Z</time>
      </trkpt>
      <trkpt lat="48.46061" lon="7.13677">
        <ele>528.2</ele>
        <time>2022-12-27T10:48:23Z</time>
      </trkpt>
      <trkpt lat="48.46049" lon="7.13669">
        <ele>528.6</ele>
        <time>2022-12-27T10:48:26Z</time>
      </trkpt>
      <trkpt lat="48.46047" lon="7.13667">
        <ele>528.6</ele>
        <time>2022-12-27T10:48:27Z</time>
      </trkpt>
      <trkpt lat="48.46042" lon="7.13661">
        <ele>528.8</ele>
        <time>2022-12-27T10:48:30Z</time>
      </trkpt>
      <trkpt lat="48.46033" lon="7.1365">
        <ele>529.2</ele>
        <time>2022-12-27T10:48:34Z</time>
      </trkpt>
      <trkpt lat="48.46022" lon="7.13641">
        <ele>529.6</ele>
        <time>2022-12-27T10:48:38Z</time>
      </trkpt>
      <trkpt lat="48.46014" lon="7.13634">
        <ele>529.8</ele>
        <time>2022-12-27T10:48:40Z</time>
      </trkpt>
      <trkpt lat="48.46007" lon="7.13627">
        <ele>530.2</ele>
        <time>2022-12-27T10:48:43Z</time>
      </trkpt>
      <trkpt lat="48.45991" lon="7.13611">
        <ele>530.8</ele>
        <time>2022-12-27T10:48:49Z</time>
      </trkpt>
      <trkpt lat="48.45986" lon="7.13606">
        <ele>531</ele>
        <time>2022-12-27T10:48:51Z</time>
      </trkpt>
      <trkpt lat="48.45972" lon="7.13592">
        <ele>531.8</ele>
        <time>2022-12-27T10:48:56Z</time>
      </trkpt>
      <trkpt lat="48.45969" lon="7.13589">
        <ele>532.4</ele>
        <time>2022-12-27T10:48:58Z</time>
      </trkpt>
      <trkpt lat="48.45958" lon="7.13578">
        <ele>532.8</ele>
        <time>2022-12-27T10:49:02Z</time>
      </trkpt>
      <trkpt lat="48.45941" lon="7.13565">
        <ele>533.2</ele>
        <time>2022-12-27T10:49:07Z</time>
      </trkpt>
      <trkpt lat="48.45926" lon="7.13555">
        <ele>533.6</ele>
        <time>2022-12-27T10:49:11Z</time>
      </trkpt>
      <trkpt lat="48.45915" lon="7.13545">
        <ele>534.2</ele>
        <time>2022-12-27T10:49:15Z</time>
      </trkpt>
      <trkpt lat="48.45902" lon="7.13535">
        <ele>534.6</ele>
        <time>2022-12-27T10:49:19Z</time>
      </trkpt>
      <trkpt lat="48.45899" lon="7.13533">
        <ele>534.6</ele>
        <time>2022-12-27T10:49:20Z</time>
      </trkpt>
      <trkpt lat="48.45897" lon="7.13529">
        <ele>534.6</ele>
        <time>2022-12-27T10:49:21Z</time>
      </trkpt>
      <trkpt lat="48.4588" lon="7.135">
        <ele>535.4</ele>
        <time>2022-12-27T10:49:29Z</time>
      </trkpt>
      <trkpt lat="48.45879" lon="7.13496">
        <ele>535.6</ele>
        <time>2022-12-27T10:49:30Z</time>
      </trkpt>
      <trkpt lat="48.45866" lon="7.13469">
        <ele>536.6</ele>
        <time>2022-12-27T10:49:37Z</time>
      </trkpt>
      <trkpt lat="48.45865" lon="7.13465">
        <ele>537</ele>
        <time>2022-12-27T10:49:38Z</time>
      </trkpt>
      <trkpt lat="48.45857" lon="7.1345">
        <ele>537.6</ele>
        <time>2022-12-27T10:49:43Z</time>
      </trkpt>
      <trkpt lat="48.45844" lon="7.13433">
        <ele>538</ele>
        <time>2022-12-27T10:49:47Z</time>
      </trkpt>
      <trkpt lat="48.45836" lon="7.13421">
        <ele>538.4</ele>
        <time>2022-12-27T10:49:50Z</time>
      </trkpt>
      <trkpt lat="48.4582" lon="7.13397">
        <ele>539.2</ele>
        <time>2022-12-27T10:49:56Z</time>
      </trkpt>
      <trkpt lat="48.45816" lon="7.13388">
        <ele>539.6</ele>
        <time>2022-12-27T10:49:58Z</time>
      </trkpt>
      <trkpt lat="48.45799" lon="7.13357">
        <ele>540.4</ele>
        <time>2022-12-27T10:50:06Z</time>
      </trkpt>
      <trkpt lat="48.45799" lon="7.13357">
        <ele>540.4</ele>
        <time>2022-12-27T10:50:07Z</time>
      </trkpt>
      <trkpt lat="48.45782" lon="7.13327">
        <ele>541.4</ele>
        <time>2022-12-27T10:50:15Z</time>
      </trkpt>
      <trkpt lat="48.45777" lon="7.13321">
        <ele>541.4</ele>
        <time>2022-12-27T10:50:17Z</time>
      </trkpt>
      <trkpt lat="48.45756" lon="7.13296">
        <ele>542.2</ele>
        <time>2022-12-27T10:50:24Z</time>
      </trkpt>
      <trkpt lat="48.45751" lon="7.13289">
        <ele>542.4</ele>
        <time>2022-12-27T10:50:26Z</time>
      </trkpt>
      <trkpt lat="48.45739" lon="7.13274">
        <ele>543</ele>
        <time>2022-12-27T10:50:31Z</time>
      </trkpt>
      <trkpt lat="48.45721" lon="7.13256">
        <ele>543.8</ele>
        <time>2022-12-27T10:50:37Z</time>
      </trkpt>
      <trkpt lat="48.45715" lon="7.13251">
        <ele>544</ele>
        <time>2022-12-27T10:50:39Z</time>
      </trkpt>
      <trkpt lat="48.45686" lon="7.1323">
        <ele>544.8</ele>
        <time>2022-12-27T10:50:48Z</time>
      </trkpt>
      <trkpt lat="48.45686" lon="7.1323">
        <ele>545</ele>
        <time>2022-12-27T10:50:49Z</time>
      </trkpt>
      <trkpt lat="48.45673" lon="7.13215">
        <ele>545.4</ele>
        <time>2022-12-27T10:50:54Z</time>
      </trkpt>
      <trkpt lat="48.45662" lon="7.13194">
        <ele>546</ele>
        <time>2022-12-27T10:50:58Z</time>
      </trkpt>
      <trkpt lat="48.45652" lon="7.13169">
        <ele>546.6</ele>
        <time>2022-12-27T10:51:03Z</time>
      </trkpt>
      <trkpt lat="48.45649" lon="7.13164">
        <ele>546.6</ele>
        <time>2022-12-27T10:51:04Z</time>
      </trkpt>
      <trkpt lat="48.45642" lon="7.13154">
        <ele>546.8</ele>
        <time>2022-12-27T10:51:06Z</time>
      </trkpt>
      <trkpt lat="48.45639" lon="7.1315">
        <ele>546.8</ele>
        <time>2022-12-27T10:51:07Z</time>
      </trkpt>
      <trkpt lat="48.45635" lon="7.13146">
        <ele>546.8</ele>
        <time>2022-12-27T10:51:08Z</time>
      </trkpt>
      <trkpt lat="48.45619" lon="7.13138">
        <ele>546.8</ele>
        <time>2022-12-27T10:51:12Z</time>
      </trkpt>
      <trkpt lat="48.45607" lon="7.13135">
        <ele>546.8</ele>
        <time>2022-12-27T10:51:16Z</time>
      </trkpt>
      <trkpt lat="48.45602" lon="7.13134">
        <ele>547</ele>
        <time>2022-12-27T10:51:18Z</time>
      </trkpt>
      <trkpt lat="48.45589" lon="7.13127">
        <ele>547.8</ele>
        <time>2022-12-27T10:51:22Z</time>
      </trkpt>
      <trkpt lat="48.4558" lon="7.13122">
        <ele>548</ele>
        <time>2022-12-27T10:51:24Z</time>
      </trkpt>
      <trkpt lat="48.45564" lon="7.13107">
        <ele>548</ele>
        <time>2022-12-27T10:51:28Z</time>
      </trkpt>
      <trkpt lat="48.45556" lon="7.13101">
        <ele>547.8</ele>
        <time>2022-12-27T10:51:31Z</time>
      </trkpt>
      <trkpt lat="48.45536" lon="7.13086">
        <ele>547.6</ele>
        <time>2022-12-27T10:51:34Z</time>
      </trkpt>
      <trkpt lat="48.45521" lon="7.13074">
        <ele>547.4</ele>
        <time>2022-12-27T10:51:37Z</time>
      </trkpt>
      <trkpt lat="48.45511" lon="7.13067">
        <ele>547.4</ele>
        <time>2022-12-27T10:51:39Z</time>
      </trkpt>
      <trkpt lat="48.45493" lon="7.13056">
        <ele>546.8</ele>
        <time>2022-12-27T10:51:43Z</time>
      </trkpt>
      <trkpt lat="48.45461" lon="7.13036">
        <ele>547</ele>
        <time>2022-12-27T10:51:51Z</time>
      </trkpt>
      <trkpt lat="48.45425" lon="7.1302">
        <ele>547.6</ele>
        <time>2022-12-27T10:52:01Z</time>
      </trkpt>
      <trkpt lat="48.45411" lon="7.13025">
        <ele>548.2</ele>
        <time>2022-12-27T10:52:05Z</time>
      </trkpt>
      <trkpt lat="48.45411" lon="7.13025">
        <ele>548.2</ele>
        <time>2022-12-27T10:52:06Z</time>
      </trkpt>
      <trkpt lat="48.454" lon="7.13038">
        <ele>548.4</ele>
        <time>2022-12-27T10:52:09Z</time>
      </trkpt>
      <trkpt lat="48.45391" lon="7.13052">
        <ele>548.6</ele>
        <time>2022-12-27T10:52:13Z</time>
      </trkpt>
      <trkpt lat="48.45389" lon="7.13055">
        <ele>548.6</ele>
        <time>2022-12-27T10:52:15Z</time>
      </trkpt>
      <trkpt lat="48.45381" lon="7.13068">
        <ele>548.8</ele>
        <time>2022-12-27T10:53:05Z</time>
      </trkpt>
      <trkpt lat="48.45381" lon="7.13072">
        <ele>548.8</ele>
        <time>2022-12-27T10:53:06Z</time>
      </trkpt>
      <trkpt lat="48.4538" lon="7.13079">
        <ele>548.8</ele>
        <time>2022-12-27T10:53:08Z</time>
      </trkpt>
      <trkpt lat="48.45379" lon="7.13099">
        <ele>549.2</ele>
        <time>2022-12-27T10:53:12Z</time>
      </trkpt>
      <trkpt lat="48.45385" lon="7.13126">
        <ele>549.6</ele>
        <time>2022-12-27T10:53:18Z</time>
      </trkpt>
      <trkpt lat="48.45389" lon="7.13134">
        <ele>550</ele>
        <time>2022-12-27T10:53:20Z</time>
      </trkpt>
      <trkpt lat="48.45401" lon="7.13156">
        <ele>550.4</ele>
        <time>2022-12-27T10:53:26Z</time>
      </trkpt>
      <trkpt lat="48.45406" lon="7.13163">
        <ele>550.8</ele>
        <time>2022-12-27T10:53:28Z</time>
      </trkpt>
      <trkpt lat="48.45414" lon="7.13178">
        <ele>551.6</ele>
        <time>2022-12-27T10:53:33Z</time>
      </trkpt>
      <trkpt lat="48.45423" lon="7.13192">
        <ele>552</ele>
        <time>2022-12-27T10:53:36Z</time>
      </trkpt>
      <trkpt lat="48.45434" lon="7.13212">
        <ele>552.8</ele>
        <time>2022-12-27T10:53:41Z</time>
      </trkpt>
      <trkpt lat="48.45441" lon="7.13223">
        <ele>553</ele>
        <time>2022-12-27T10:53:44Z</time>
      </trkpt>
      <trkpt lat="48.45455" lon="7.13245">
        <ele>554</ele>
        <time>2022-12-27T10:53:51Z</time>
      </trkpt>
      <trkpt lat="48.45461" lon="7.13251">
        <ele>554</ele>
        <time>2022-12-27T10:53:52Z</time>
      </trkpt>
      <trkpt lat="48.45471" lon="7.13265">
        <ele>554.6</ele>
        <time>2022-12-27T10:53:56Z</time>
      </trkpt>
      <trkpt lat="48.45483" lon="7.13278">
        <ele>555.2</ele>
        <time>2022-12-27T10:54:00Z</time>
      </trkpt>
      <trkpt lat="48.4549" lon="7.13289">
        <ele>555.8</ele>
        <time>2022-12-27T10:54:03Z</time>
      </trkpt>
      <trkpt lat="48.45499" lon="7.13301">
        <ele>556.4</ele>
        <time>2022-12-27T10:54:07Z</time>
      </trkpt>
      <trkpt lat="48.45499" lon="7.13301">
        <ele>556.6</ele>
        <time>2022-12-27T10:54:08Z</time>
      </trkpt>
      <trkpt lat="48.45512" lon="7.13321">
        <ele>557.4</ele>
        <time>2022-12-27T10:54:13Z</time>
      </trkpt>
      <trkpt lat="48.45518" lon="7.13331">
        <ele>557.6</ele>
        <time>2022-12-27T10:54:16Z</time>
      </trkpt>
      <trkpt lat="48.45523" lon="7.1334">
        <ele>558.2</ele>
        <time>2022-12-27T10:54:19Z</time>
      </trkpt>
      <trkpt lat="48.45534" lon="7.13356">
        <ele>559.2</ele>
        <time>2022-12-27T10:54:24Z</time>
      </trkpt>
      <trkpt lat="48.45536" lon="7.13359">
        <ele>559.4</ele>
        <time>2022-12-27T10:54:25Z</time>
      </trkpt>
      <trkpt lat="48.45552" lon="7.13385">
        <ele>560.4</ele>
        <time>2022-12-27T10:54:33Z</time>
      </trkpt>
      <trkpt lat="48.45556" lon="7.13392">
        <ele>560.8</ele>
        <time>2022-12-27T10:54:35Z</time>
      </trkpt>
      <trkpt lat="48.45569" lon="7.13413">
        <ele>561.6</ele>
        <time>2022-12-27T10:54:41Z</time>
      </trkpt>
      <trkpt lat="48.45574" lon="7.13423">
        <ele>562</ele>
        <time>2022-12-27T10:54:44Z</time>
      </trkpt>
      <trkpt lat="48.45578" lon="7.1343">
        <ele>562.4</ele>
        <time>2022-12-27T10:54:46Z</time>
      </trkpt>
      <trkpt lat="48.45582" lon="7.13437">
        <ele>562.6</ele>
        <time>2022-12-27T10:54:48Z</time>
      </trkpt>
      <trkpt lat="48.45588" lon="7.13448">
        <ele>563</ele>
        <time>2022-12-27T10:54:51Z</time>
      </trkpt>
      <trkpt lat="48.45596" lon="7.13462">
        <ele>563.6</ele>
        <time>2022-12-27T10:54:55Z</time>
      </trkpt>
      <trkpt lat="48.45601" lon="7.13472">
        <ele>564</ele>
        <time>2022-12-27T10:54:58Z</time>
      </trkpt>
      <trkpt lat="48.45603" lon="7.13475">
        <ele>564.2</ele>
        <time>2022-12-27T10:54:59Z</time>
      </trkpt>
      <trkpt lat="48.45611" lon="7.1349">
        <ele>565</ele>
        <time>2022-12-27T10:55:03Z</time>
      </trkpt>
      <trkpt lat="48.45618" lon="7.13503">
        <ele>565.6</ele>
        <time>2022-12-27T10:55:07Z</time>
      </trkpt>
      <trkpt lat="48.45622" lon="7.13511">
        <ele>566</ele>
        <time>2022-12-27T10:55:09Z</time>
      </trkpt>
      <trkpt lat="48.45629" lon="7.13526">
        <ele>566.6</ele>
        <time>2022-12-27T10:55:13Z</time>
      </trkpt>
      <trkpt lat="48.45631" lon="7.13535">
        <ele>567</ele>
        <time>2022-12-27T10:55:15Z</time>
      </trkpt>
      <trkpt lat="48.4564" lon="7.13558">
        <ele>568</ele>
        <time>2022-12-27T10:55:21Z</time>
      </trkpt>
      <trkpt lat="48.45641" lon="7.13562">
        <ele>568</ele>
        <time>2022-12-27T10:55:22Z</time>
      </trkpt>
      <trkpt lat="48.45651" lon="7.1359">
        <ele>569.2</ele>
        <time>2022-12-27T10:55:29Z</time>
      </trkpt>
      <trkpt lat="48.4566" lon="7.13618">
        <ele>570</ele>
        <time>2022-12-27T10:55:36Z</time>
      </trkpt>
      <trkpt lat="48.45662" lon="7.13623">
        <ele>570</ele>
        <time>2022-12-27T10:55:37Z</time>
      </trkpt>
      <trkpt lat="48.45671" lon="7.13651">
        <ele>570.6</ele>
        <time>2022-12-27T10:55:44Z</time>
      </trkpt>
      <trkpt lat="48.45673" lon="7.13658">
        <ele>571.2</ele>
        <time>2022-12-27T10:55:46Z</time>
      </trkpt>
      <trkpt lat="48.45678" lon="7.13677">
        <ele>572.2</ele>
        <time>2022-12-27T10:55:51Z</time>
      </trkpt>
      <trkpt lat="48.45679" lon="7.13681">
        <ele>572.2</ele>
        <time>2022-12-27T10:55:52Z</time>
      </trkpt>
      <trkpt lat="48.45685" lon="7.13703">
        <ele>573.2</ele>
        <time>2022-12-27T10:55:58Z</time>
      </trkpt>
      <trkpt lat="48.45688" lon="7.13714">
        <ele>573.8</ele>
        <time>2022-12-27T10:56:01Z</time>
      </trkpt>
      <trkpt lat="48.45692" lon="7.13725">
        <ele>574.4</ele>
        <time>2022-12-27T10:56:04Z</time>
      </trkpt>
      <trkpt lat="48.45696" lon="7.13749">
        <ele>575.2</ele>
        <time>2022-12-27T10:56:10Z</time>
      </trkpt>
      <trkpt lat="48.45695" lon="7.13753">
        <ele>575.4</ele>
        <time>2022-12-27T10:56:11Z</time>
      </trkpt>
      <trkpt lat="48.457" lon="7.13777">
        <ele>576.2</ele>
        <time>2022-12-27T10:56:17Z</time>
      </trkpt>
      <trkpt lat="48.45708" lon="7.13807">
        <ele>577.6</ele>
        <time>2022-12-27T10:56:25Z</time>
      </trkpt>
      <trkpt lat="48.45709" lon="7.13815">
        <ele>578</ele>
        <time>2022-12-27T10:56:27Z</time>
      </trkpt>
      <trkpt lat="48.45713" lon="7.13829">
        <ele>578.6</ele>
        <time>2022-12-27T10:56:31Z</time>
      </trkpt>
      <trkpt lat="48.45716" lon="7.13843">
        <ele>580</ele>
        <time>2022-12-27T10:56:35Z</time>
      </trkpt>
      <trkpt lat="48.4572" lon="7.13864">
        <ele>580.8</ele>
        <time>2022-12-27T10:56:41Z</time>
      </trkpt>
      <trkpt lat="48.45722" lon="7.13871">
        <ele>581</ele>
        <time>2022-12-27T10:56:43Z</time>
      </trkpt>
      <trkpt lat="48.45727" lon="7.1389">
        <ele>581.8</ele>
        <time>2022-12-27T10:56:48Z</time>
      </trkpt>
      <trkpt lat="48.45728" lon="7.13897">
        <ele>582.2</ele>
        <time>2022-12-27T10:56:50Z</time>
      </trkpt>
      <trkpt lat="48.4573" lon="7.13912">
        <ele>583</ele>
        <time>2022-12-27T10:56:54Z</time>
      </trkpt>
      <trkpt lat="48.45731" lon="7.13919">
        <ele>583.4</ele>
        <time>2022-12-27T10:56:56Z</time>
      </trkpt>
      <trkpt lat="48.45736" lon="7.13943">
        <ele>584.6</ele>
        <time>2022-12-27T10:57:02Z</time>
      </trkpt>
      <trkpt lat="48.45739" lon="7.13967">
        <ele>585.6</ele>
        <time>2022-12-27T10:57:08Z</time>
      </trkpt>
      <trkpt lat="48.45741" lon="7.13979">
        <ele>586.2</ele>
        <time>2022-12-27T10:57:11Z</time>
      </trkpt>
      <trkpt lat="48.45742" lon="7.13986">
        <ele>587</ele>
        <time>2022-12-27T10:57:14Z</time>
      </trkpt>
      <trkpt lat="48.45743" lon="7.14001">
        <ele>587.4</ele>
        <time>2022-12-27T10:57:17Z</time>
      </trkpt>
      <trkpt lat="48.45744" lon="7.14016">
        <ele>588</ele>
        <time>2022-12-27T10:57:21Z</time>
      </trkpt>
      <trkpt lat="48.45745" lon="7.14024">
        <ele>588.4</ele>
        <time>2022-12-27T10:57:23Z</time>
      </trkpt>
      <trkpt lat="48.45749" lon="7.14034">
        <ele>588.8</ele>
        <time>2022-12-27T10:57:26Z</time>
      </trkpt>
      <trkpt lat="48.45748" lon="7.14039">
        <ele>588.8</ele>
        <time>2022-12-27T10:57:27Z</time>
      </trkpt>
      <trkpt lat="48.4575" lon="7.14048">
        <ele>589.2</ele>
        <time>2022-12-27T10:57:29Z</time>
      </trkpt>
      <trkpt lat="48.45753" lon="7.14066">
        <ele>589.8</ele>
        <time>2022-12-27T10:57:35Z</time>
      </trkpt>
      <trkpt lat="48.45754" lon="7.14075">
        <ele>590</ele>
        <time>2022-12-27T10:57:36Z</time>
      </trkpt>
      <trkpt lat="48.4576" lon="7.14096">
        <ele>591</ele>
        <time>2022-12-27T10:57:42Z</time>
      </trkpt>
      <trkpt lat="48.4576" lon="7.14101">
        <ele>591</ele>
        <time>2022-12-27T10:57:43Z</time>
      </trkpt>
      <trkpt lat="48.4576" lon="7.14126">
        <ele>592</ele>
        <time>2022-12-27T10:57:49Z</time>
      </trkpt>
      <trkpt lat="48.45759" lon="7.1413">
        <ele>592</ele>
        <time>2022-12-27T10:57:50Z</time>
      </trkpt>
      <trkpt lat="48.45759" lon="7.14154">
        <ele>593.2</ele>
        <time>2022-12-27T10:57:56Z</time>
      </trkpt>
      <trkpt lat="48.45759" lon="7.14176">
        <ele>594</ele>
        <time>2022-12-27T10:58:02Z</time>
      </trkpt>
      <trkpt lat="48.45758" lon="7.1418">
        <ele>594.2</ele>
        <time>2022-12-27T10:58:03Z</time>
      </trkpt>
      <trkpt lat="48.45757" lon="7.14201">
        <ele>595.2</ele>
        <time>2022-12-27T10:58:08Z</time>
      </trkpt>
      <trkpt lat="48.45756" lon="7.14205">
        <ele>595.4</ele>
        <time>2022-12-27T10:58:09Z</time>
      </trkpt>
      <trkpt lat="48.45756" lon="7.14229">
        <ele>596.2</ele>
        <time>2022-12-27T10:58:15Z</time>
      </trkpt>
      <trkpt lat="48.45754" lon="7.14251">
        <ele>597.2</ele>
        <time>2022-12-27T10:58:21Z</time>
      </trkpt>
      <trkpt lat="48.45753" lon="7.14255">
        <ele>597.4</ele>
        <time>2022-12-27T10:58:22Z</time>
      </trkpt>
      <trkpt lat="48.4575" lon="7.1427">
        <ele>598.4</ele>
        <time>2022-12-27T10:58:26Z</time>
      </trkpt>
      <trkpt lat="48.45749" lon="7.14278">
        <ele>598.6</ele>
        <time>2022-12-27T10:58:28Z</time>
      </trkpt>
      <trkpt lat="48.45748" lon="7.14293">
        <ele>599</ele>
        <time>2022-12-27T10:58:32Z</time>
      </trkpt>
      <trkpt lat="48.45745" lon="7.14309">
        <ele>599.6</ele>
        <time>2022-12-27T10:58:36Z</time>
      </trkpt>
      <trkpt lat="48.45743" lon="7.14317">
        <ele>600.2</ele>
        <time>2022-12-27T10:58:38Z</time>
      </trkpt>
      <trkpt lat="48.45739" lon="7.14327">
        <ele>600.8</ele>
        <time>2022-12-27T10:58:42Z</time>
      </trkpt>
      <trkpt lat="48.45737" lon="7.14332">
        <ele>601</ele>
        <time>2022-12-27T10:58:44Z</time>
      </trkpt>
      <trkpt lat="48.45734" lon="7.1434">
        <ele>601.8</ele>
        <time>2022-12-27T10:58:47Z</time>
      </trkpt>
      <trkpt lat="48.45729" lon="7.14356">
        <ele>602.8</ele>
        <time>2022-12-27T10:58:51Z</time>
      </trkpt>
      <trkpt lat="48.45728" lon="7.1436">
        <ele>603.2</ele>
        <time>2022-12-27T10:58:52Z</time>
      </trkpt>
      <trkpt lat="48.45722" lon="7.14375">
        <ele>604.2</ele>
        <time>2022-12-27T10:58:57Z</time>
      </trkpt>
      <trkpt lat="48.45721" lon="7.14379">
        <ele>604.4</ele>
        <time>2022-12-27T10:58:58Z</time>
      </trkpt>
      <trkpt lat="48.45716" lon="7.14395">
        <ele>605.4</ele>
        <time>2022-12-27T10:59:03Z</time>
      </trkpt>
      <trkpt lat="48.45715" lon="7.14398">
        <ele>605.8</ele>
        <time>2022-12-27T10:59:04Z</time>
      </trkpt>
      <trkpt lat="48.45708" lon="7.14412">
        <ele>607</ele>
        <time>2022-12-27T10:59:09Z</time>
      </trkpt>
      <trkpt lat="48.45706" lon="7.14419">
        <ele>607.6</ele>
        <time>2022-12-27T10:59:11Z</time>
      </trkpt>
      <trkpt lat="48.45705" lon="7.14426">
        <ele>608</ele>
        <time>2022-12-27T10:59:13Z</time>
      </trkpt>
      <trkpt lat="48.45699" lon="7.14443">
        <ele>609</ele>
        <time>2022-12-27T10:59:18Z</time>
      </trkpt>
      <trkpt lat="48.45691" lon="7.1446">
        <ele>610.2</ele>
        <time>2022-12-27T10:59:25Z</time>
      </trkpt>
      <trkpt lat="48.45687" lon="7.1447">
        <ele>611.2</ele>
        <time>2022-12-27T10:59:29Z</time>
      </trkpt>
      <trkpt lat="48.45684" lon="7.14479">
        <ele>612</ele>
        <time>2022-12-27T10:59:33Z</time>
      </trkpt>
      <trkpt lat="48.45683" lon="7.14481">
        <ele>612.4</ele>
        <time>2022-12-27T10:59:35Z</time>
      </trkpt>
      <trkpt lat="48.45678" lon="7.14494">
        <ele>613.4</ele>
        <time>2022-12-27T10:59:40Z</time>
      </trkpt>
      <trkpt lat="48.45675" lon="7.14502">
        <ele>613.6</ele>
        <time>2022-12-27T10:59:43Z</time>
      </trkpt>
      <trkpt lat="48.45671" lon="7.14512">
        <ele>614.4</ele>
        <time>2022-12-27T10:59:47Z</time>
      </trkpt>
      <trkpt lat="48.4567" lon="7.14517">
        <ele>614.6</ele>
        <time>2022-12-27T10:59:49Z</time>
      </trkpt>
      <trkpt lat="48.45666" lon="7.14529">
        <ele>615.6</ele>
        <time>2022-12-27T10:59:53Z</time>
      </trkpt>
      <trkpt lat="48.45666" lon="7.14533">
        <ele>615.8</ele>
        <time>2022-12-27T10:59:55Z</time>
      </trkpt>
      <trkpt lat="48.45665" lon="7.14534">
        <ele>616</ele>
        <time>2022-12-27T10:59:56Z</time>
      </trkpt>
      <trkpt lat="48.45664" lon="7.14537">
        <ele>616.2</ele>
        <time>2022-12-27T10:59:58Z</time>
      </trkpt>
      <trkpt lat="48.45665" lon="7.1454">
        <ele>616.4</ele>
        <time>2022-12-27T10:59:59Z</time>
      </trkpt>
      <trkpt lat="48.45665" lon="7.14543">
        <ele>616.6</ele>
        <time>2022-12-27T11:00:00Z</time>
      </trkpt>
      <trkpt lat="48.45664" lon="7.14557">
        <ele>617.2</ele>
        <time>2022-12-27T11:00:05Z</time>
      </trkpt>
      <trkpt lat="48.45663" lon="7.14558">
        <ele>617.4</ele>
        <time>2022-12-27T11:00:06Z</time>
      </trkpt>
      <trkpt lat="48.45661" lon="7.14564">
        <ele>617.4</ele>
        <time>2022-12-27T11:00:08Z</time>
      </trkpt>
      <trkpt lat="48.45657" lon="7.14574">
        <ele>617.8</ele>
        <time>2022-12-27T11:00:12Z</time>
      </trkpt>
      <trkpt lat="48.45656" lon="7.14577">
        <ele>618</ele>
        <time>2022-12-27T11:00:13Z</time>
      </trkpt>
      <trkpt lat="48.45654" lon="7.14584">
        <ele>618.6</ele>
        <time>2022-12-27T11:00:16Z</time>
      </trkpt>
      <trkpt lat="48.4565" lon="7.14595">
        <ele>619</ele>
        <time>2022-12-27T11:00:20Z</time>
      </trkpt>
      <trkpt lat="48.45645" lon="7.14606">
        <ele>619.6</ele>
        <time>2022-12-27T11:00:24Z</time>
      </trkpt>
      <trkpt lat="48.45641" lon="7.14616">
        <ele>620</ele>
        <time>2022-12-27T11:00:27Z</time>
      </trkpt>
      <trkpt lat="48.4564" lon="7.14628">
        <ele>620.4</ele>
        <time>2022-12-27T11:00:31Z</time>
      </trkpt>
      <trkpt lat="48.45637" lon="7.14638">
        <ele>620.8</ele>
        <time>2022-12-27T11:00:34Z</time>
      </trkpt>
      <trkpt lat="48.45631" lon="7.14653">
        <ele>621.6</ele>
        <time>2022-12-27T11:00:39Z</time>
      </trkpt>
      <trkpt lat="48.45629" lon="7.14659">
        <ele>621.8</ele>
        <time>2022-12-27T11:00:41Z</time>
      </trkpt>
      <trkpt lat="48.45625" lon="7.1468">
        <ele>622.6</ele>
        <time>2022-12-27T11:00:46Z</time>
      </trkpt>
      <trkpt lat="48.45624" lon="7.14683">
        <ele>623</ele>
        <time>2022-12-27T11:00:48Z</time>
      </trkpt>
      <trkpt lat="48.45619" lon="7.14695">
        <ele>623.8</ele>
        <time>2022-12-27T11:00:53Z</time>
      </trkpt>
      <trkpt lat="48.45617" lon="7.14699">
        <ele>624.2</ele>
        <time>2022-12-27T11:00:55Z</time>
      </trkpt>
      <trkpt lat="48.45612" lon="7.14709">
        <ele>625</ele>
        <time>2022-12-27T11:00:59Z</time>
      </trkpt>
      <trkpt lat="48.45611" lon="7.14712">
        <ele>625.2</ele>
        <time>2022-12-27T11:01:00Z</time>
      </trkpt>
      <trkpt lat="48.45605" lon="7.14721">
        <ele>625.8</ele>
        <time>2022-12-27T11:01:04Z</time>
      </trkpt>
      <trkpt lat="48.45602" lon="7.14726">
        <ele>626.2</ele>
        <time>2022-12-27T11:01:06Z</time>
      </trkpt>
      <trkpt lat="48.45597" lon="7.14734">
        <ele>626.8</ele>
        <time>2022-12-27T11:01:09Z</time>
      </trkpt>
      <trkpt lat="48.45591" lon="7.14742">
        <ele>628</ele>
        <time>2022-12-27T11:01:13Z</time>
      </trkpt>
      <trkpt lat="48.45582" lon="7.14758">
        <ele>629.4</ele>
        <time>2022-12-27T11:01:19Z</time>
      </trkpt>
      <trkpt lat="48.45579" lon="7.14762">
        <ele>630.4</ele>
        <time>2022-12-27T11:01:22Z</time>
      </trkpt>
      <trkpt lat="48.45573" lon="7.1477">
        <ele>631.6</ele>
        <time>2022-12-27T11:01:25Z</time>
      </trkpt>
      <trkpt lat="48.45567" lon="7.14777">
        <ele>632.4</ele>
        <time>2022-12-27T11:01:28Z</time>
      </trkpt>
      <trkpt lat="48.45565" lon="7.14779">
        <ele>632.8</ele>
        <time>2022-12-27T11:01:29Z</time>
      </trkpt>
      <trkpt lat="48.45558" lon="7.14793">
        <ele>633.2</ele>
        <time>2022-12-27T11:01:33Z</time>
      </trkpt>
      <trkpt lat="48.45546" lon="7.14807">
        <ele>633.6</ele>
        <time>2022-12-27T11:01:38Z</time>
      </trkpt>
      <trkpt lat="48.45543" lon="7.1481">
        <ele>633.8</ele>
        <time>2022-12-27T11:01:39Z</time>
      </trkpt>
      <trkpt lat="48.45528" lon="7.14825">
        <ele>634.2</ele>
        <time>2022-12-27T11:01:44Z</time>
      </trkpt>
      <trkpt lat="48.45515" lon="7.14836">
        <ele>634.2</ele>
        <time>2022-12-27T11:01:47Z</time>
      </trkpt>
      <trkpt lat="48.45505" lon="7.14844">
        <ele>634</ele>
        <time>2022-12-27T11:01:49Z</time>
      </trkpt>
      <trkpt lat="48.45499" lon="7.14848">
        <ele>634</ele>
        <time>2022-12-27T11:01:50Z</time>
      </trkpt>
      <trkpt lat="48.45488" lon="7.14858">
        <ele>633.4</ele>
        <time>2022-12-27T11:01:52Z</time>
      </trkpt>
      <trkpt lat="48.45475" lon="7.14865">
        <ele>632.6</ele>
        <time>2022-12-27T11:01:54Z</time>
      </trkpt>
      <trkpt lat="48.45469" lon="7.14867">
        <ele>632.4</ele>
        <time>2022-12-27T11:01:55Z</time>
      </trkpt>
      <trkpt lat="48.45449" lon="7.14873">
        <ele>631.4</ele>
        <time>2022-12-27T11:01:58Z</time>
      </trkpt>
      <trkpt lat="48.4544" lon="7.14875">
        <ele>631</ele>
        <time>2022-12-27T11:01:59Z</time>
      </trkpt>
      <trkpt lat="48.45418" lon="7.14875">
        <ele>630.2</ele>
        <time>2022-12-27T11:02:02Z</time>
      </trkpt>
      <trkpt lat="48.45409" lon="7.14873">
        <ele>630</ele>
        <time>2022-12-27T11:02:03Z</time>
      </trkpt>
      <trkpt lat="48.454" lon="7.14868">
        <ele>629.8</ele>
        <time>2022-12-27T11:02:04Z</time>
      </trkpt>
      <trkpt lat="48.45393" lon="7.14862">
        <ele>629.4</ele>
        <time>2022-12-27T11:02:05Z</time>
      </trkpt>
      <trkpt lat="48.45388" lon="7.14856">
        <ele>629.2</ele>
        <time>2022-12-27T11:02:06Z</time>
      </trkpt>
      <trkpt lat="48.45382" lon="7.14847">
        <ele>628.8</ele>
        <time>2022-12-27T11:02:07Z</time>
      </trkpt>
      <trkpt lat="48.45372" lon="7.14827">
        <ele>628</ele>
        <time>2022-12-27T11:02:09Z</time>
      </trkpt>
      <trkpt lat="48.45363" lon="7.14806">
        <ele>627.4</ele>
        <time>2022-12-27T11:02:11Z</time>
      </trkpt>
      <trkpt lat="48.45348" lon="7.1477">
        <ele>626.6</ele>
        <time>2022-12-27T11:02:14Z</time>
      </trkpt>
      <trkpt lat="48.45344" lon="7.14759">
        <ele>626</ele>
        <time>2022-12-27T11:02:15Z</time>
      </trkpt>
      <trkpt lat="48.45325" lon="7.14717">
        <ele>624.8</ele>
        <time>2022-12-27T11:02:19Z</time>
      </trkpt>
      <trkpt lat="48.45311" lon="7.14687">
        <ele>623.8</ele>
        <time>2022-12-27T11:02:22Z</time>
      </trkpt>
      <trkpt lat="48.45305" lon="7.14675">
        <ele>623.6</ele>
        <time>2022-12-27T11:02:23Z</time>
      </trkpt>
      <trkpt lat="48.453" lon="7.14667">
        <ele>623.4</ele>
        <time>2022-12-27T11:02:24Z</time>
      </trkpt>
      <trkpt lat="48.45293" lon="7.14659">
        <ele>623.2</ele>
        <time>2022-12-27T11:02:25Z</time>
      </trkpt>
      <trkpt lat="48.45287" lon="7.14655">
        <ele>623</ele>
        <time>2022-12-27T11:02:26Z</time>
      </trkpt>
      <trkpt lat="48.45262" lon="7.14641">
        <ele>622.4</ele>
        <time>2022-12-27T11:02:29Z</time>
      </trkpt>
      <trkpt lat="48.4523" lon="7.14625">
        <ele>621.8</ele>
        <time>2022-12-27T11:02:33Z</time>
      </trkpt>
      <trkpt lat="48.45223" lon="7.14619">
        <ele>621.6</ele>
        <time>2022-12-27T11:02:34Z</time>
      </trkpt>
      <trkpt lat="48.45211" lon="7.14604">
        <ele>621.4</ele>
        <time>2022-12-27T11:02:36Z</time>
      </trkpt>
      <trkpt lat="48.45206" lon="7.14595">
        <ele>621.2</ele>
        <time>2022-12-27T11:02:37Z</time>
      </trkpt>
      <trkpt lat="48.45201" lon="7.14585">
        <ele>620.8</ele>
        <time>2022-12-27T11:02:38Z</time>
      </trkpt>
      <trkpt lat="48.45191" lon="7.14566">
        <ele>620</ele>
        <time>2022-12-27T11:02:40Z</time>
      </trkpt>
      <trkpt lat="48.45173" lon="7.14527">
        <ele>619</ele>
        <time>2022-12-27T11:02:44Z</time>
      </trkpt>
      <trkpt lat="48.45149" lon="7.14485">
        <ele>618.4</ele>
        <time>2022-12-27T11:02:49Z</time>
      </trkpt>
      <trkpt lat="48.45133" lon="7.14448">
        <ele>618.4</ele>
        <time>2022-12-27T11:02:53Z</time>
      </trkpt>
      <trkpt lat="48.45127" lon="7.14439">
        <ele>618.4</ele>
        <time>2022-12-27T11:02:54Z</time>
      </trkpt>
      <trkpt lat="48.4512" lon="7.14432">
        <ele>618.4</ele>
        <time>2022-12-27T11:02:55Z</time>
      </trkpt>
      <trkpt lat="48.45105" lon="7.14425">
        <ele>618.2</ele>
        <time>2022-12-27T11:02:57Z</time>
      </trkpt>
      <trkpt lat="48.45089" lon="7.14424">
        <ele>618</ele>
        <time>2022-12-27T11:02:59Z</time>
      </trkpt>
      <trkpt lat="48.45081" lon="7.14426">
        <ele>617.6</ele>
        <time>2022-12-27T11:03:00Z</time>
      </trkpt>
      <trkpt lat="48.45074" lon="7.14429">
        <ele>617.4</ele>
        <time>2022-12-27T11:03:01Z</time>
      </trkpt>
      <trkpt lat="48.45061" lon="7.14444">
        <ele>616.8</ele>
        <time>2022-12-27T11:03:03Z</time>
      </trkpt>
      <trkpt lat="48.45053" lon="7.14464">
        <ele>616.4</ele>
        <time>2022-12-27T11:03:05Z</time>
      </trkpt>
      <trkpt lat="48.45036" lon="7.14526">
        <ele>615.6</ele>
        <time>2022-12-27T11:03:10Z</time>
      </trkpt>
      <trkpt lat="48.45032" lon="7.1454">
        <ele>615.4</ele>
        <time>2022-12-27T11:03:11Z</time>
      </trkpt>
      <trkpt lat="48.45028" lon="7.14554">
        <ele>615</ele>
        <time>2022-12-27T11:03:12Z</time>
      </trkpt>
      <trkpt lat="48.45009" lon="7.14605">
        <ele>613.8</ele>
        <time>2022-12-27T11:03:16Z</time>
      </trkpt>
      <trkpt lat="48.44992" lon="7.14638">
        <ele>612.4</ele>
        <time>2022-12-27T11:03:19Z</time>
      </trkpt>
      <trkpt lat="48.44989" lon="7.14652">
        <ele>612.2</ele>
        <time>2022-12-27T11:03:20Z</time>
      </trkpt>
      <trkpt lat="48.44983" lon="7.14709">
        <ele>611.4</ele>
        <time>2022-12-27T11:03:24Z</time>
      </trkpt>
      <trkpt lat="48.44981" lon="7.14722">
        <ele>610.6</ele>
        <time>2022-12-27T11:03:25Z</time>
      </trkpt>
      <trkpt lat="48.44979" lon="7.14737">
        <ele>610.4</ele>
        <time>2022-12-27T11:03:26Z</time>
      </trkpt>
      <trkpt lat="48.44975" lon="7.14752">
        <ele>610</ele>
        <time>2022-12-27T11:03:27Z</time>
      </trkpt>
      <trkpt lat="48.44961" lon="7.14806">
        <ele>608.6</ele>
        <time>2022-12-27T11:03:31Z</time>
      </trkpt>
      <trkpt lat="48.44949" lon="7.14841">
        <ele>607.6</ele>
        <time>2022-12-27T11:03:34Z</time>
      </trkpt>
      <trkpt lat="48.44936" lon="7.14883">
        <ele>606.4</ele>
        <time>2022-12-27T11:03:37Z</time>
      </trkpt>
      <trkpt lat="48.44932" lon="7.14896">
        <ele>606.2</ele>
        <time>2022-12-27T11:03:38Z</time>
      </trkpt>
      <trkpt lat="48.44918" lon="7.14931">
        <ele>605.2</ele>
        <time>2022-12-27T11:03:41Z</time>
      </trkpt>
      <trkpt lat="48.44908" lon="7.14952">
        <ele>604</ele>
        <time>2022-12-27T11:03:43Z</time>
      </trkpt>
      <trkpt lat="48.44903" lon="7.14959">
        <ele>603.8</ele>
        <time>2022-12-27T11:03:44Z</time>
      </trkpt>
      <trkpt lat="48.44891" lon="7.14974">
        <ele>603.2</ele>
        <time>2022-12-27T11:03:46Z</time>
      </trkpt>
      <trkpt lat="48.44882" lon="7.1498">
        <ele>602.6</ele>
        <time>2022-12-27T11:03:47Z</time>
      </trkpt>
      <trkpt lat="48.44877" lon="7.14982">
        <ele>602.4</ele>
        <time>2022-12-27T11:03:48Z</time>
      </trkpt>
      <trkpt lat="48.44863" lon="7.14984">
        <ele>601.8</ele>
        <time>2022-12-27T11:03:50Z</time>
      </trkpt>
      <trkpt lat="48.44854" lon="7.14981">
        <ele>600.8</ele>
        <time>2022-12-27T11:03:51Z</time>
      </trkpt>
      <trkpt lat="48.4484" lon="7.14978">
        <ele>600</ele>
        <time>2022-12-27T11:03:53Z</time>
      </trkpt>
      <trkpt lat="48.44832" lon="7.14977">
        <ele>599.6</ele>
        <time>2022-12-27T11:03:54Z</time>
      </trkpt>
      <trkpt lat="48.44825" lon="7.14977">
        <ele>599.2</ele>
        <time>2022-12-27T11:03:55Z</time>
      </trkpt>
      <trkpt lat="48.44812" lon="7.14983">
        <ele>598.4</ele>
        <time>2022-12-27T11:03:57Z</time>
      </trkpt>
      <trkpt lat="48.44807" lon="7.14987">
        <ele>598</ele>
        <time>2022-12-27T11:03:58Z</time>
      </trkpt>
      <trkpt lat="48.44795" lon="7.14993">
        <ele>597</ele>
        <time>2022-12-27T11:04:00Z</time>
      </trkpt>
      <trkpt lat="48.44789" lon="7.14999">
        <ele>596</ele>
        <time>2022-12-27T11:04:01Z</time>
      </trkpt>
      <trkpt lat="48.44782" lon="7.15005">
        <ele>595.8</ele>
        <time>2022-12-27T11:04:02Z</time>
      </trkpt>
      <trkpt lat="48.44776" lon="7.1501">
        <ele>595.4</ele>
        <time>2022-12-27T11:04:03Z</time>
      </trkpt>
      <trkpt lat="48.44766" lon="7.15018">
        <ele>595</ele>
        <time>2022-12-27T11:04:05Z</time>
      </trkpt>
      <trkpt lat="48.44753" lon="7.15027">
        <ele>594.4</ele>
        <time>2022-12-27T11:04:07Z</time>
      </trkpt>
      <trkpt lat="48.44725" lon="7.15049">
        <ele>593.4</ele>
        <time>2022-12-27T11:04:12Z</time>
      </trkpt>
      <trkpt lat="48.4472" lon="7.15056">
        <ele>593</ele>
        <time>2022-12-27T11:04:13Z</time>
      </trkpt>
      <trkpt lat="48.44707" lon="7.15077">
        <ele>592.2</ele>
        <time>2022-12-27T11:04:16Z</time>
      </trkpt>
      <trkpt lat="48.44703" lon="7.15085">
        <ele>591.6</ele>
        <time>2022-12-27T11:04:17Z</time>
      </trkpt>
      <trkpt lat="48.44699" lon="7.15091">
        <ele>591.2</ele>
        <time>2022-12-27T11:04:18Z</time>
      </trkpt>
      <trkpt lat="48.44691" lon="7.15104">
        <ele>590.2</ele>
        <time>2022-12-27T11:04:20Z</time>
      </trkpt>
      <trkpt lat="48.44686" lon="7.1511">
        <ele>589.8</ele>
        <time>2022-12-27T11:04:21Z</time>
      </trkpt>
      <trkpt lat="48.44674" lon="7.15118">
        <ele>588.8</ele>
        <time>2022-12-27T11:04:23Z</time>
      </trkpt>
      <trkpt lat="48.44669" lon="7.1512">
        <ele>588.4</ele>
        <time>2022-12-27T11:04:24Z</time>
      </trkpt>
      <trkpt lat="48.44656" lon="7.15118">
        <ele>587.8</ele>
        <time>2022-12-27T11:04:26Z</time>
      </trkpt>
      <trkpt lat="48.44649" lon="7.15114">
        <ele>587.4</ele>
        <time>2022-12-27T11:04:27Z</time>
      </trkpt>
      <trkpt lat="48.44645" lon="7.15111">
        <ele>587.2</ele>
        <time>2022-12-27T11:04:28Z</time>
      </trkpt>
      <trkpt lat="48.44638" lon="7.15109">
        <ele>587</ele>
        <time>2022-12-27T11:04:29Z</time>
      </trkpt>
      <trkpt lat="48.44619" lon="7.151">
        <ele>586.6</ele>
        <time>2022-12-27T11:04:32Z</time>
      </trkpt>
      <trkpt lat="48.44613" lon="7.15097">
        <ele>586.2</ele>
        <time>2022-12-27T11:04:33Z</time>
      </trkpt>
      <trkpt lat="48.44603" lon="7.15091">
        <ele>585.4</ele>
        <time>2022-12-27T11:04:35Z</time>
      </trkpt>
      <trkpt lat="48.44597" lon="7.15089">
        <ele>585</ele>
        <time>2022-12-27T11:04:36Z</time>
      </trkpt>
      <trkpt lat="48.44589" lon="7.15089">
        <ele>584.4</ele>
        <time>2022-12-27T11:04:37Z</time>
      </trkpt>
      <trkpt lat="48.44581" lon="7.15087">
        <ele>584</ele>
        <time>2022-12-27T11:04:38Z</time>
      </trkpt>
      <trkpt lat="48.4457" lon="7.15082">
        <ele>582.4</ele>
        <time>2022-12-27T11:04:40Z</time>
      </trkpt>
      <trkpt lat="48.4455" lon="7.15076">
        <ele>581.6</ele>
        <time>2022-12-27T11:04:44Z</time>
      </trkpt>
      <trkpt lat="48.44534" lon="7.15073">
        <ele>581.4</ele>
        <time>2022-12-27T11:04:46Z</time>
      </trkpt>
      <trkpt lat="48.4452" lon="7.15073">
        <ele>581.2</ele>
        <time>2022-12-27T11:04:48Z</time>
      </trkpt>
      <trkpt lat="48.44515" lon="7.15069">
        <ele>581</ele>
        <time>2022-12-27T11:04:49Z</time>
      </trkpt>
      <trkpt lat="48.4451" lon="7.15065">
        <ele>580.6</ele>
        <time>2022-12-27T11:04:50Z</time>
      </trkpt>
      <trkpt lat="48.44504" lon="7.15058">
        <ele>580.4</ele>
        <time>2022-12-27T11:04:51Z</time>
      </trkpt>
      <trkpt lat="48.44492" lon="7.1505">
        <ele>579.4</ele>
        <time>2022-12-27T11:04:53Z</time>
      </trkpt>
      <trkpt lat="48.44485" lon="7.15046">
        <ele>578.8</ele>
        <time>2022-12-27T11:04:54Z</time>
      </trkpt>
      <trkpt lat="48.44477" lon="7.15042">
        <ele>578.4</ele>
        <time>2022-12-27T11:04:55Z</time>
      </trkpt>
      <trkpt lat="48.44467" lon="7.15034">
        <ele>577.8</ele>
        <time>2022-12-27T11:04:57Z</time>
      </trkpt>
      <trkpt lat="48.44462" lon="7.1503">
        <ele>577.2</ele>
        <time>2022-12-27T11:04:58Z</time>
      </trkpt>
      <trkpt lat="48.44451" lon="7.15023">
        <ele>575.8</ele>
        <time>2022-12-27T11:05:00Z</time>
      </trkpt>
      <trkpt lat="48.44439" lon="7.15014">
        <ele>575</ele>
        <time>2022-12-27T11:05:03Z</time>
      </trkpt>
      <trkpt lat="48.44435" lon="7.1501">
        <ele>574.8</ele>
        <time>2022-12-27T11:05:04Z</time>
      </trkpt>
      <trkpt lat="48.44433" lon="7.15005">
        <ele>574.6</ele>
        <time>2022-12-27T11:05:05Z</time>
      </trkpt>
      <trkpt lat="48.44413" lon="7.14974">
        <ele>574</ele>
        <time>2022-12-27T11:05:11Z</time>
      </trkpt>
      <trkpt lat="48.44407" lon="7.14967">
        <ele>574.2</ele>
        <time>2022-12-27T11:05:13Z</time>
      </trkpt>
      <trkpt lat="48.44399" lon="7.14957">
        <ele>574.6</ele>
        <time>2022-12-27T11:05:15Z</time>
      </trkpt>
      <trkpt lat="48.44395" lon="7.14954">
        <ele>574.8</ele>
        <time>2022-12-27T11:05:16Z</time>
      </trkpt>
      <trkpt lat="48.44393" lon="7.1495">
        <ele>575</ele>
        <time>2022-12-27T11:05:17Z</time>
      </trkpt>
      <trkpt lat="48.44383" lon="7.1494">
        <ele>575.6</ele>
        <time>2022-12-27T11:05:20Z</time>
      </trkpt>
      <trkpt lat="48.44377" lon="7.14932">
        <ele>575.6</ele>
        <time>2022-12-27T11:05:22Z</time>
      </trkpt>
      <trkpt lat="48.44375" lon="7.14928">
        <ele>575.8</ele>
        <time>2022-12-27T11:05:23Z</time>
      </trkpt>
      <trkpt lat="48.4437" lon="7.1492">
        <ele>576.2</ele>
        <time>2022-12-27T11:05:25Z</time>
      </trkpt>
      <trkpt lat="48.44358" lon="7.14904">
        <ele>576.4</ele>
        <time>2022-12-27T11:05:29Z</time>
      </trkpt>
      <trkpt lat="48.44355" lon="7.14899">
        <ele>576.6</ele>
        <time>2022-12-27T11:05:30Z</time>
      </trkpt>
      <trkpt lat="48.44338" lon="7.14879">
        <ele>577.6</ele>
        <time>2022-12-27T11:05:36Z</time>
      </trkpt>
      <trkpt lat="48.44336" lon="7.14876">
        <ele>577.8</ele>
        <time>2022-12-27T11:05:37Z</time>
      </trkpt>
      <trkpt lat="48.4432" lon="7.14852">
        <ele>578.6</ele>
        <time>2022-12-27T11:05:42Z</time>
      </trkpt>
      <trkpt lat="48.44317" lon="7.14849">
        <ele>578.8</ele>
        <time>2022-12-27T11:05:43Z</time>
      </trkpt>
      <trkpt lat="48.44302" lon="7.14829">
        <ele>579.8</ele>
        <time>2022-12-27T11:05:48Z</time>
      </trkpt>
      <trkpt lat="48.44292" lon="7.14818">
        <ele>580.6</ele>
        <time>2022-12-27T11:05:52Z</time>
      </trkpt>
      <trkpt lat="48.44288" lon="7.14809">
        <ele>580.8</ele>
        <time>2022-12-27T11:05:54Z</time>
      </trkpt>
      <trkpt lat="48.44286" lon="7.14805">
        <ele>581</ele>
        <time>2022-12-27T11:05:55Z</time>
      </trkpt>
      <trkpt lat="48.44276" lon="7.14784">
        <ele>581.8</ele>
        <time>2022-12-27T11:06:00Z</time>
      </trkpt>
      <trkpt lat="48.44276" lon="7.14779">
        <ele>582</ele>
        <time>2022-12-27T11:06:01Z</time>
      </trkpt>
      <trkpt lat="48.44271" lon="7.14757">
        <ele>582.8</ele>
        <time>2022-12-27T11:06:05Z</time>
      </trkpt>
      <trkpt lat="48.44271" lon="7.14752">
        <ele>583</ele>
        <time>2022-12-27T11:06:06Z</time>
      </trkpt>
      <trkpt lat="48.44263" lon="7.14732">
        <ele>583.8</ele>
        <time>2022-12-27T11:06:10Z</time>
      </trkpt>
      <trkpt lat="48.44261" lon="7.14719">
        <ele>584</ele>
        <time>2022-12-27T11:06:12Z</time>
      </trkpt>
      <trkpt lat="48.44256" lon="7.14702">
        <ele>584.6</ele>
        <time>2022-12-27T11:06:16Z</time>
      </trkpt>
      <trkpt lat="48.44255" lon="7.14684">
        <ele>585</ele>
        <time>2022-12-27T11:06:20Z</time>
      </trkpt>
      <trkpt lat="48.44254" lon="7.14669">
        <ele>585.4</ele>
        <time>2022-12-27T11:06:23Z</time>
      </trkpt>
      <trkpt lat="48.44256" lon="7.14641">
        <ele>585.8</ele>
        <time>2022-12-27T11:06:28Z</time>
      </trkpt>
      <trkpt lat="48.44258" lon="7.14632">
        <ele>585.8</ele>
        <time>2022-12-27T11:06:30Z</time>
      </trkpt>
      <trkpt lat="48.44259" lon="7.14623">
        <ele>586</ele>
        <time>2022-12-27T11:06:32Z</time>
      </trkpt>
      <trkpt lat="48.44256" lon="7.14603">
        <ele>586.2</ele>
        <time>2022-12-27T11:06:37Z</time>
      </trkpt>
      <trkpt lat="48.44251" lon="7.14596">
        <ele>586.4</ele>
        <time>2022-12-27T11:06:38Z</time>
      </trkpt>
      <trkpt lat="48.44242" lon="7.14572">
        <ele>587</ele>
        <time>2022-12-27T11:06:42Z</time>
      </trkpt>
      <trkpt lat="48.44241" lon="7.14566">
        <ele>587</ele>
        <time>2022-12-27T11:06:43Z</time>
      </trkpt>
      <trkpt lat="48.44237" lon="7.14544">
        <ele>587.8</ele>
        <time>2022-12-27T11:06:47Z</time>
      </trkpt>
      <trkpt lat="48.44237" lon="7.14538">
        <ele>587.8</ele>
        <time>2022-12-27T11:06:48Z</time>
      </trkpt>
      <trkpt lat="48.44237" lon="7.1453">
        <ele>587.8</ele>
        <time>2022-12-27T11:06:49Z</time>
      </trkpt>
      <trkpt lat="48.44237" lon="7.14504">
        <ele>589</ele>
        <time>2022-12-27T11:06:55Z</time>
      </trkpt>
      <trkpt lat="48.4423" lon="7.14476">
        <ele>590</ele>
        <time>2022-12-27T11:07:00Z</time>
      </trkpt>
      <trkpt lat="48.44214" lon="7.14453">
        <ele>591.2</ele>
        <time>2022-12-27T11:07:06Z</time>
      </trkpt>
      <trkpt lat="48.44214" lon="7.14449">
        <ele>591.4</ele>
        <time>2022-12-27T11:07:07Z</time>
      </trkpt>
      <trkpt lat="48.44209" lon="7.14421">
        <ele>592.2</ele>
        <time>2022-12-27T11:07:13Z</time>
      </trkpt>
      <trkpt lat="48.44208" lon="7.14418">
        <ele>592.4</ele>
        <time>2022-12-27T11:07:14Z</time>
      </trkpt>
      <trkpt lat="48.44198" lon="7.14392">
        <ele>593.2</ele>
        <time>2022-12-27T11:07:19Z</time>
      </trkpt>
      <trkpt lat="48.44192" lon="7.14369">
        <ele>593.6</ele>
        <time>2022-12-27T11:07:24Z</time>
      </trkpt>
      <trkpt lat="48.44193" lon="7.1436">
        <ele>594.2</ele>
        <time>2022-12-27T11:07:26Z</time>
      </trkpt>
      <trkpt lat="48.44188" lon="7.14337">
        <ele>594.8</ele>
        <time>2022-12-27T11:07:30Z</time>
      </trkpt>
      <trkpt lat="48.44187" lon="7.1432">
        <ele>595</ele>
        <time>2022-12-27T11:07:33Z</time>
      </trkpt>
      <trkpt lat="48.44186" lon="7.14289">
        <ele>595.4</ele>
        <time>2022-12-27T11:07:38Z</time>
      </trkpt>
      <trkpt lat="48.44184" lon="7.14265">
        <ele>596</ele>
        <time>2022-12-27T11:07:43Z</time>
      </trkpt>
      <trkpt lat="48.44182" lon="7.14255">
        <ele>596.2</ele>
        <time>2022-12-27T11:07:45Z</time>
      </trkpt>
      <trkpt lat="48.4418" lon="7.14232">
        <ele>596.6</ele>
        <time>2022-12-27T11:07:49Z</time>
      </trkpt>
      <trkpt lat="48.44182" lon="7.14209">
        <ele>597</ele>
        <time>2022-12-27T11:07:54Z</time>
      </trkpt>
      <trkpt lat="48.44182" lon="7.142">
        <ele>597.2</ele>
        <time>2022-12-27T11:07:56Z</time>
      </trkpt>
      <trkpt lat="48.44179" lon="7.14183">
        <ele>597.6</ele>
        <time>2022-12-27T11:08:00Z</time>
      </trkpt>
      <trkpt lat="48.44174" lon="7.14159">
        <ele>598</ele>
        <time>2022-12-27T11:08:04Z</time>
      </trkpt>
      <trkpt lat="48.44173" lon="7.14149">
        <ele>598.2</ele>
        <time>2022-12-27T11:08:06Z</time>
      </trkpt>
      <trkpt lat="48.4417" lon="7.14123">
        <ele>598.6</ele>
        <time>2022-12-27T11:08:10Z</time>
      </trkpt>
      <trkpt lat="48.44168" lon="7.14108">
        <ele>598.6</ele>
        <time>2022-12-27T11:08:12Z</time>
      </trkpt>
      <trkpt lat="48.44168" lon="7.141">
        <ele>598.8</ele>
        <time>2022-12-27T11:08:13Z</time>
      </trkpt>
      <trkpt lat="48.44167" lon="7.14083">
        <ele>599</ele>
        <time>2022-12-27T11:08:16Z</time>
      </trkpt>
      <trkpt lat="48.44166" lon="7.14077">
        <ele>598.8</ele>
        <time>2022-12-27T11:08:17Z</time>
      </trkpt>
      <trkpt lat="48.44167" lon="7.14073">
        <ele>598.8</ele>
        <time>2022-12-27T11:08:18Z</time>
      </trkpt>
      <trkpt lat="48.44166" lon="7.14069">
        <ele>598.8</ele>
        <time>2022-12-27T11:08:19Z</time>
      </trkpt>
      <trkpt lat="48.44165" lon="7.14062">
        <ele>598.8</ele>
        <time>2022-12-27T11:08:20Z</time>
      </trkpt>
      <trkpt lat="48.44161" lon="7.14051">
        <ele>599</ele>
        <time>2022-12-27T11:08:21Z</time>
      </trkpt>
      <trkpt lat="48.4415" lon="7.14026">
        <ele>599</ele>
        <time>2022-12-27T11:08:23Z</time>
      </trkpt>
      <trkpt lat="48.44145" lon="7.14021">
        <ele>599</ele>
        <time>2022-12-27T11:08:24Z</time>
      </trkpt>
      <trkpt lat="48.44135" lon="7.14014">
        <ele>599.2</ele>
        <time>2022-12-27T11:08:26Z</time>
      </trkpt>
      <trkpt lat="48.44115" lon="7.14009">
        <ele>599.2</ele>
        <time>2022-12-27T11:08:30Z</time>
      </trkpt>
      <trkpt lat="48.44106" lon="7.14003">
        <ele>599.4</ele>
        <time>2022-12-27T11:08:32Z</time>
      </trkpt>
      <trkpt lat="48.4409" lon="7.13986">
        <ele>599.4</ele>
        <time>2022-12-27T11:08:36Z</time>
      </trkpt>
      <trkpt lat="48.44082" lon="7.13976">
        <ele>599.4</ele>
        <time>2022-12-27T11:08:38Z</time>
      </trkpt>
      <trkpt lat="48.44073" lon="7.13972">
        <ele>599.4</ele>
        <time>2022-12-27T11:08:40Z</time>
      </trkpt>
      <trkpt lat="48.44067" lon="7.13972">
        <ele>599.4</ele>
        <time>2022-12-27T11:08:41Z</time>
      </trkpt>
      <trkpt lat="48.44055" lon="7.13978">
        <ele>599.4</ele>
        <time>2022-12-27T11:08:43Z</time>
      </trkpt>
      <trkpt lat="48.44027" lon="7.14001">
        <ele>599.2</ele>
        <time>2022-12-27T11:08:49Z</time>
      </trkpt>
      <trkpt lat="48.44022" lon="7.14003">
        <ele>599.2</ele>
        <time>2022-12-27T11:08:50Z</time>
      </trkpt>
      <trkpt lat="48.4398" lon="7.14019">
        <ele>599</ele>
        <time>2022-12-27T11:08:57Z</time>
      </trkpt>
      <trkpt lat="48.43967" lon="7.14019">
        <ele>598.8</ele>
        <time>2022-12-27T11:08:59Z</time>
      </trkpt>
      <trkpt lat="48.43952" lon="7.14014">
        <ele>598.6</ele>
        <time>2022-12-27T11:09:01Z</time>
      </trkpt>
      <trkpt lat="48.43942" lon="7.14012">
        <ele>598.4</ele>
        <time>2022-12-27T11:09:02Z</time>
      </trkpt>
      <trkpt lat="48.43925" lon="7.14018">
        <ele>598</ele>
        <time>2022-12-27T11:09:04Z</time>
      </trkpt>
      <trkpt lat="48.43918" lon="7.14023">
        <ele>597.4</ele>
        <time>2022-12-27T11:09:05Z</time>
      </trkpt>
      <trkpt lat="48.43909" lon="7.14031">
        <ele>597</ele>
        <time>2022-12-27T11:09:06Z</time>
      </trkpt>
      <trkpt lat="48.43895" lon="7.14048">
        <ele>596.4</ele>
        <time>2022-12-27T11:09:08Z</time>
      </trkpt>
      <trkpt lat="48.4389" lon="7.14056">
        <ele>596.2</ele>
        <time>2022-12-27T11:09:09Z</time>
      </trkpt>
      <trkpt lat="48.4386" lon="7.14093">
        <ele>594.8</ele>
        <time>2022-12-27T11:09:13Z</time>
      </trkpt>
      <trkpt lat="48.43844" lon="7.14103">
        <ele>593.6</ele>
        <time>2022-12-27T11:09:15Z</time>
      </trkpt>
      <trkpt lat="48.43836" lon="7.14104">
        <ele>593.2</ele>
        <time>2022-12-27T11:09:16Z</time>
      </trkpt>
      <trkpt lat="48.43807" lon="7.14112">
        <ele>592</ele>
        <time>2022-12-27T11:09:19Z</time>
      </trkpt>
      <trkpt lat="48.43786" lon="7.14122">
        <ele>591.4</ele>
        <time>2022-12-27T11:09:21Z</time>
      </trkpt>
      <trkpt lat="48.43776" lon="7.14129">
        <ele>591</ele>
        <time>2022-12-27T11:09:22Z</time>
      </trkpt>
      <trkpt lat="48.4375" lon="7.14149">
        <ele>589.4</ele>
        <time>2022-12-27T11:09:25Z</time>
      </trkpt>
      <trkpt lat="48.43738" lon="7.14158">
        <ele>589</ele>
        <time>2022-12-27T11:09:26Z</time>
      </trkpt>
      <trkpt lat="48.43729" lon="7.14168">
        <ele>588.2</ele>
        <time>2022-12-27T11:09:27Z</time>
      </trkpt>
      <trkpt lat="48.43712" lon="7.14189">
        <ele>587</ele>
        <time>2022-12-27T11:09:29Z</time>
      </trkpt>
      <trkpt lat="48.43704" lon="7.14201">
        <ele>586.6</ele>
        <time>2022-12-27T11:09:30Z</time>
      </trkpt>
      <trkpt lat="48.43696" lon="7.14214">
        <ele>585.6</ele>
        <time>2022-12-27T11:09:31Z</time>
      </trkpt>
      <trkpt lat="48.43683" lon="7.1424">
        <ele>584.8</ele>
        <time>2022-12-27T11:09:33Z</time>
      </trkpt>
      <trkpt lat="48.43676" lon="7.14252">
        <ele>584.4</ele>
        <time>2022-12-27T11:09:34Z</time>
      </trkpt>
      <trkpt lat="48.43669" lon="7.14263">
        <ele>583.2</ele>
        <time>2022-12-27T11:09:35Z</time>
      </trkpt>
      <trkpt lat="48.43661" lon="7.14274">
        <ele>582.8</ele>
        <time>2022-12-27T11:09:36Z</time>
      </trkpt>
      <trkpt lat="48.43655" lon="7.14287">
        <ele>581.8</ele>
        <time>2022-12-27T11:09:37Z</time>
      </trkpt>
      <trkpt lat="48.4365" lon="7.14301">
        <ele>581.4</ele>
        <time>2022-12-27T11:09:38Z</time>
      </trkpt>
      <trkpt lat="48.43647" lon="7.14316">
        <ele>580.6</ele>
        <time>2022-12-27T11:09:39Z</time>
      </trkpt>
      <trkpt lat="48.43638" lon="7.14344">
        <ele>579.2</ele>
        <time>2022-12-27T11:09:41Z</time>
      </trkpt>
      <trkpt lat="48.43628" lon="7.14371">
        <ele>578.2</ele>
        <time>2022-12-27T11:09:43Z</time>
      </trkpt>
      <trkpt lat="48.43613" lon="7.14398">
        <ele>577.2</ele>
        <time>2022-12-27T11:09:45Z</time>
      </trkpt>
      <trkpt lat="48.43597" lon="7.1442">
        <ele>576</ele>
        <time>2022-12-27T11:09:47Z</time>
      </trkpt>
      <trkpt lat="48.43591" lon="7.14428">
        <ele>574.8</ele>
        <time>2022-12-27T11:09:48Z</time>
      </trkpt>
      <trkpt lat="48.43584" lon="7.14437">
        <ele>574.4</ele>
        <time>2022-12-27T11:09:49Z</time>
      </trkpt>
      <trkpt lat="48.43569" lon="7.14455">
        <ele>573.8</ele>
        <time>2022-12-27T11:09:51Z</time>
      </trkpt>
      <trkpt lat="48.43551" lon="7.14483">
        <ele>572.8</ele>
        <time>2022-12-27T11:09:54Z</time>
      </trkpt>
      <trkpt lat="48.43541" lon="7.14505">
        <ele>572.8</ele>
        <time>2022-12-27T11:09:56Z</time>
      </trkpt>
      <trkpt lat="48.43537" lon="7.14519">
        <ele>572.6</ele>
        <time>2022-12-27T11:09:57Z</time>
      </trkpt>
      <trkpt lat="48.43534" lon="7.14528">
        <ele>572.6</ele>
        <time>2022-12-27T11:09:58Z</time>
      </trkpt>
      <trkpt lat="48.43531" lon="7.14538">
        <ele>572.6</ele>
        <time>2022-12-27T11:09:59Z</time>
      </trkpt>
      <trkpt lat="48.43518" lon="7.14566">
        <ele>572.4</ele>
        <time>2022-12-27T11:10:02Z</time>
      </trkpt>
      <trkpt lat="48.43507" lon="7.14584">
        <ele>572.2</ele>
        <time>2022-12-27T11:10:04Z</time>
      </trkpt>
      <trkpt lat="48.43496" lon="7.14601">
        <ele>572.2</ele>
        <time>2022-12-27T11:10:06Z</time>
      </trkpt>
      <trkpt lat="48.43491" lon="7.14609">
        <ele>572.2</ele>
        <time>2022-12-27T11:10:07Z</time>
      </trkpt>
      <trkpt lat="48.43478" lon="7.14635">
        <ele>572.6</ele>
        <time>2022-12-27T11:10:10Z</time>
      </trkpt>
      <trkpt lat="48.4347" lon="7.1465">
        <ele>573.4</ele>
        <time>2022-12-27T11:10:12Z</time>
      </trkpt>
      <trkpt lat="48.43466" lon="7.14658">
        <ele>573.6</ele>
        <time>2022-12-27T11:10:13Z</time>
      </trkpt>
      <trkpt lat="48.4346" lon="7.14674">
        <ele>574</ele>
        <time>2022-12-27T11:10:15Z</time>
      </trkpt>
      <trkpt lat="48.43453" lon="7.14697">
        <ele>574.6</ele>
        <time>2022-12-27T11:10:18Z</time>
      </trkpt>
      <trkpt lat="48.43451" lon="7.14704">
        <ele>574.6</ele>
        <time>2022-12-27T11:10:19Z</time>
      </trkpt>
      <trkpt lat="48.43448" lon="7.14713">
        <ele>574.8</ele>
        <time>2022-12-27T11:10:20Z</time>
      </trkpt>
      <trkpt lat="48.43442" lon="7.14731">
        <ele>574.8</ele>
        <time>2022-12-27T11:10:22Z</time>
      </trkpt>
      <trkpt lat="48.43435" lon="7.14746">
        <ele>575</ele>
        <time>2022-12-27T11:10:24Z</time>
      </trkpt>
      <trkpt lat="48.43431" lon="7.14753">
        <ele>575</ele>
        <time>2022-12-27T11:10:25Z</time>
      </trkpt>
      <trkpt lat="48.43419" lon="7.14772">
        <ele>575.2</ele>
        <time>2022-12-27T11:10:28Z</time>
      </trkpt>
      <trkpt lat="48.43406" lon="7.14791">
        <ele>575.4</ele>
        <time>2022-12-27T11:10:31Z</time>
      </trkpt>
      <trkpt lat="48.43399" lon="7.14807">
        <ele>575.6</ele>
        <time>2022-12-27T11:10:33Z</time>
      </trkpt>
      <trkpt lat="48.43381" lon="7.14845">
        <ele>576</ele>
        <time>2022-12-27T11:10:38Z</time>
      </trkpt>
      <trkpt lat="48.43373" lon="7.14855">
        <ele>575.8</ele>
        <time>2022-12-27T11:10:40Z</time>
      </trkpt>
      <trkpt lat="48.43365" lon="7.14861">
        <ele>576</ele>
        <time>2022-12-27T11:10:42Z</time>
      </trkpt>
      <trkpt lat="48.43362" lon="7.14862">
        <ele>576</ele>
        <time>2022-12-27T11:10:43Z</time>
      </trkpt>
      <trkpt lat="48.43357" lon="7.14862">
        <ele>576.2</ele>
        <time>2022-12-27T11:10:44Z</time>
      </trkpt>
      <trkpt lat="48.43347" lon="7.14858">
        <ele>576.2</ele>
        <time>2022-12-27T11:10:46Z</time>
      </trkpt>
      <trkpt lat="48.43342" lon="7.14856">
        <ele>576.4</ele>
        <time>2022-12-27T11:10:47Z</time>
      </trkpt>
      <trkpt lat="48.43338" lon="7.14853">
        <ele>576.4</ele>
        <time>2022-12-27T11:10:48Z</time>
      </trkpt>
      <trkpt lat="48.43334" lon="7.1485">
        <ele>576.6</ele>
        <time>2022-12-27T11:10:49Z</time>
      </trkpt>
      <trkpt lat="48.43326" lon="7.14843">
        <ele>576.6</ele>
        <time>2022-12-27T11:10:51Z</time>
      </trkpt>
      <trkpt lat="48.43322" lon="7.14841">
        <ele>576.8</ele>
        <time>2022-12-27T11:10:52Z</time>
      </trkpt>
      <trkpt lat="48.43312" lon="7.14837">
        <ele>576.8</ele>
        <time>2022-12-27T11:10:54Z</time>
      </trkpt>
      <trkpt lat="48.43305" lon="7.14837">
        <ele>577</ele>
        <time>2022-12-27T11:10:55Z</time>
      </trkpt>
      <trkpt lat="48.43299" lon="7.14838">
        <ele>577</ele>
        <time>2022-12-27T11:10:56Z</time>
      </trkpt>
      <trkpt lat="48.43282" lon="7.14847">
        <ele>577</ele>
        <time>2022-12-27T11:10:59Z</time>
      </trkpt>
      <trkpt lat="48.43273" lon="7.14856">
        <ele>577.2</ele>
        <time>2022-12-27T11:11:01Z</time>
      </trkpt>
      <trkpt lat="48.4326" lon="7.14868">
        <ele>577.2</ele>
        <time>2022-12-27T11:11:04Z</time>
      </trkpt>
      <trkpt lat="48.4325" lon="7.14875">
        <ele>577.4</ele>
        <time>2022-12-27T11:11:06Z</time>
      </trkpt>
      <trkpt lat="48.43246" lon="7.14879">
        <ele>577.6</ele>
        <time>2022-12-27T11:11:07Z</time>
      </trkpt>
      <trkpt lat="48.43238" lon="7.14889">
        <ele>577.8</ele>
        <time>2022-12-27T11:11:09Z</time>
      </trkpt>
      <trkpt lat="48.43214" lon="7.14919">
        <ele>578.2</ele>
        <time>2022-12-27T11:11:14Z</time>
      </trkpt>
      <trkpt lat="48.43211" lon="7.14928">
        <ele>578.2</ele>
        <time>2022-12-27T11:11:15Z</time>
      </trkpt>
      <trkpt lat="48.43193" lon="7.14983">
        <ele>577.8</ele>
        <time>2022-12-27T11:11:20Z</time>
      </trkpt>
      <trkpt lat="48.43183" lon="7.15004">
        <ele>576.6</ele>
        <time>2022-12-27T11:11:22Z</time>
      </trkpt>
      <trkpt lat="48.43175" lon="7.15015">
        <ele>576</ele>
        <time>2022-12-27T11:11:24Z</time>
      </trkpt>
      <trkpt lat="48.43163" lon="7.15019">
        <ele>575.6</ele>
        <time>2022-12-27T11:11:26Z</time>
      </trkpt>
      <trkpt lat="48.43157" lon="7.15018">
        <ele>575.6</ele>
        <time>2022-12-27T11:11:27Z</time>
      </trkpt>
      <trkpt lat="48.43139" lon="7.15011">
        <ele>575.2</ele>
        <time>2022-12-27T11:11:30Z</time>
      </trkpt>
      <trkpt lat="48.43126" lon="7.15002">
        <ele>575.2</ele>
        <time>2022-12-27T11:11:32Z</time>
      </trkpt>
      <trkpt lat="48.43114" lon="7.14998">
        <ele>575</ele>
        <time>2022-12-27T11:11:34Z</time>
      </trkpt>
      <trkpt lat="48.431" lon="7.14995">
        <ele>574.8</ele>
        <time>2022-12-27T11:11:36Z</time>
      </trkpt>
      <trkpt lat="48.43082" lon="7.14994">
        <ele>574.8</ele>
        <time>2022-12-27T11:11:39Z</time>
      </trkpt>
      <trkpt lat="48.43076" lon="7.14993">
        <ele>574.8</ele>
        <time>2022-12-27T11:11:40Z</time>
      </trkpt>
      <trkpt lat="48.43072" lon="7.14991">
        <ele>574.8</ele>
        <time>2022-12-27T11:11:41Z</time>
      </trkpt>
      <trkpt lat="48.43061" lon="7.14986">
        <ele>575</ele>
        <time>2022-12-27T11:11:43Z</time>
      </trkpt>
      <trkpt lat="48.4305" lon="7.14985">
        <ele>575.2</ele>
        <time>2022-12-27T11:11:45Z</time>
      </trkpt>
      <trkpt lat="48.4304" lon="7.14981">
        <ele>575.4</ele>
        <time>2022-12-27T11:11:47Z</time>
      </trkpt>
      <trkpt lat="48.43028" lon="7.14974">
        <ele>575.6</ele>
        <time>2022-12-27T11:11:50Z</time>
      </trkpt>
      <trkpt lat="48.43024" lon="7.14972">
        <ele>575.8</ele>
        <time>2022-12-27T11:11:51Z</time>
      </trkpt>
      <trkpt lat="48.4302" lon="7.14971">
        <ele>576</ele>
        <time>2022-12-27T11:11:52Z</time>
      </trkpt>
      <trkpt lat="48.43014" lon="7.14969">
        <ele>576</ele>
        <time>2022-12-27T11:11:53Z</time>
      </trkpt>
      <trkpt lat="48.42994" lon="7.14976">
        <ele>576.4</ele>
        <time>2022-12-27T11:11:56Z</time>
      </trkpt>
      <trkpt lat="48.42974" lon="7.14984">
        <ele>576.4</ele>
        <time>2022-12-27T11:11:59Z</time>
      </trkpt>
      <trkpt lat="48.42958" lon="7.14984">
        <ele>576.6</ele>
        <time>2022-12-27T11:12:02Z</time>
      </trkpt>
      <trkpt lat="48.42941" lon="7.14984">
        <ele>576.6</ele>
        <time>2022-12-27T11:12:05Z</time>
      </trkpt>
      <trkpt lat="48.42927" lon="7.14994">
        <ele>576.8</ele>
        <time>2022-12-27T11:12:08Z</time>
      </trkpt>
      <trkpt lat="48.42922" lon="7.14996">
        <ele>577</ele>
        <time>2022-12-27T11:12:09Z</time>
      </trkpt>
      <trkpt lat="48.42913" lon="7.14997">
        <ele>577</ele>
        <time>2022-12-27T11:12:11Z</time>
      </trkpt>
      <trkpt lat="48.42909" lon="7.14998">
        <ele>577</ele>
        <time>2022-12-27T11:12:12Z</time>
      </trkpt>
      <trkpt lat="48.42899" lon="7.15">
        <ele>577</ele>
        <time>2022-12-27T11:12:14Z</time>
      </trkpt>
      <trkpt lat="48.42883" lon="7.15004">
        <ele>577.2</ele>
        <time>2022-12-27T11:12:17Z</time>
      </trkpt>
      <trkpt lat="48.42873" lon="7.15008">
        <ele>577.2</ele>
        <time>2022-12-27T11:12:19Z</time>
      </trkpt>
      <trkpt lat="48.42865" lon="7.15016">
        <ele>577.4</ele>
        <time>2022-12-27T11:12:21Z</time>
      </trkpt>
      <trkpt lat="48.42862" lon="7.15022">
        <ele>577.4</ele>
        <time>2022-12-27T11:12:22Z</time>
      </trkpt>
      <trkpt lat="48.42858" lon="7.15036">
        <ele>577.4</ele>
        <time>2022-12-27T11:12:24Z</time>
      </trkpt>
      <trkpt lat="48.42846" lon="7.15073">
        <ele>577.8</ele>
        <time>2022-12-27T11:12:30Z</time>
      </trkpt>
      <trkpt lat="48.42843" lon="7.15078">
        <ele>578</ele>
        <time>2022-12-27T11:12:31Z</time>
      </trkpt>
      <trkpt lat="48.42836" lon="7.15087">
        <ele>578</ele>
        <time>2022-12-27T11:12:33Z</time>
      </trkpt>
      <trkpt lat="48.42827" lon="7.15091">
        <ele>578</ele>
        <time>2022-12-27T11:12:35Z</time>
      </trkpt>
      <trkpt lat="48.42816" lon="7.15094">
        <ele>578</ele>
        <time>2022-12-27T11:12:37Z</time>
      </trkpt>
      <trkpt lat="48.42808" lon="7.15091">
        <ele>578</ele>
        <time>2022-12-27T11:12:39Z</time>
      </trkpt>
      <trkpt lat="48.42803" lon="7.15089">
        <ele>578</ele>
        <time>2022-12-27T11:12:40Z</time>
      </trkpt>
      <trkpt lat="48.42798" lon="7.15087">
        <ele>578</ele>
        <time>2022-12-27T11:12:41Z</time>
      </trkpt>
      <trkpt lat="48.42774" lon="7.15071">
        <ele>577.8</ele>
        <time>2022-12-27T11:12:46Z</time>
      </trkpt>
      <trkpt lat="48.42762" lon="7.1506">
        <ele>577.8</ele>
        <time>2022-12-27T11:12:49Z</time>
      </trkpt>
      <trkpt lat="48.42754" lon="7.1505">
        <ele>577.8</ele>
        <time>2022-12-27T11:12:51Z</time>
      </trkpt>
      <trkpt lat="48.4275" lon="7.15045">
        <ele>578</ele>
        <time>2022-12-27T11:12:52Z</time>
      </trkpt>
      <trkpt lat="48.42743" lon="7.15032">
        <ele>577.8</ele>
        <time>2022-12-27T11:12:54Z</time>
      </trkpt>
      <trkpt lat="48.42739" lon="7.15017">
        <ele>577.8</ele>
        <time>2022-12-27T11:12:56Z</time>
      </trkpt>
      <trkpt lat="48.42734" lon="7.15002">
        <ele>577.8</ele>
        <time>2022-12-27T11:12:58Z</time>
      </trkpt>
      <trkpt lat="48.42727" lon="7.14988">
        <ele>577.4</ele>
        <time>2022-12-27T11:13:00Z</time>
      </trkpt>
      <trkpt lat="48.42722" lon="7.14982">
        <ele>577.4</ele>
        <time>2022-12-27T11:13:01Z</time>
      </trkpt>
      <trkpt lat="48.42698" lon="7.14958">
        <ele>577.2</ele>
        <time>2022-12-27T11:13:06Z</time>
      </trkpt>
      <trkpt lat="48.42693" lon="7.14953">
        <ele>577.2</ele>
        <time>2022-12-27T11:13:07Z</time>
      </trkpt>
      <trkpt lat="48.42688" lon="7.14948">
        <ele>577</ele>
        <time>2022-12-27T11:13:08Z</time>
      </trkpt>
      <trkpt lat="48.42681" lon="7.14935">
        <ele>577</ele>
        <time>2022-12-27T11:13:10Z</time>
      </trkpt>
      <trkpt lat="48.42679" lon="7.14928">
        <ele>576.8</ele>
        <time>2022-12-27T11:13:11Z</time>
      </trkpt>
      <trkpt lat="48.42666" lon="7.14895">
        <ele>576.8</ele>
        <time>2022-12-27T11:13:15Z</time>
      </trkpt>
      <trkpt lat="48.42661" lon="7.14889">
        <ele>576.8</ele>
        <time>2022-12-27T11:13:16Z</time>
      </trkpt>
      <trkpt lat="48.42656" lon="7.14884">
        <ele>576.8</ele>
        <time>2022-12-27T11:13:17Z</time>
      </trkpt>
      <trkpt lat="48.4264" lon="7.14874">
        <ele>576.6</ele>
        <time>2022-12-27T11:13:20Z</time>
      </trkpt>
      <trkpt lat="48.42635" lon="7.14871">
        <ele>576.6</ele>
        <time>2022-12-27T11:13:21Z</time>
      </trkpt>
      <trkpt lat="48.4263" lon="7.14867">
        <ele>576.6</ele>
        <time>2022-12-27T11:13:22Z</time>
      </trkpt>
      <trkpt lat="48.42606" lon="7.14855">
        <ele>576.6</ele>
        <time>2022-12-27T11:13:26Z</time>
      </trkpt>
      <trkpt lat="48.42588" lon="7.14852">
        <ele>576.2</ele>
        <time>2022-12-27T11:13:29Z</time>
      </trkpt>
      <trkpt lat="48.42576" lon="7.14846">
        <ele>576.2</ele>
        <time>2022-12-27T11:13:31Z</time>
      </trkpt>
      <trkpt lat="48.4257" lon="7.1484">
        <ele>576.2</ele>
        <time>2022-12-27T11:13:32Z</time>
      </trkpt>
      <trkpt lat="48.4256" lon="7.1483">
        <ele>576</ele>
        <time>2022-12-27T11:13:34Z</time>
      </trkpt>
      <trkpt lat="48.42552" lon="7.14818">
        <ele>575.8</ele>
        <time>2022-12-27T11:13:36Z</time>
      </trkpt>
      <trkpt lat="48.42529" lon="7.14787">
        <ele>575.6</ele>
        <time>2022-12-27T11:13:41Z</time>
      </trkpt>
      <trkpt lat="48.42524" lon="7.14781">
        <ele>575.6</ele>
        <time>2022-12-27T11:13:42Z</time>
      </trkpt>
      <trkpt lat="48.42516" lon="7.14769">
        <ele>575.2</ele>
        <time>2022-12-27T11:13:44Z</time>
      </trkpt>
      <trkpt lat="48.42496" lon="7.14745">
        <ele>574.8</ele>
        <time>2022-12-27T11:13:48Z</time>
      </trkpt>
      <trkpt lat="48.42463" lon="7.14701">
        <ele>574.4</ele>
        <time>2022-12-27T11:13:55Z</time>
      </trkpt>
      <trkpt lat="48.42457" lon="7.14694">
        <ele>574.4</ele>
        <time>2022-12-27T11:13:56Z</time>
      </trkpt>
      <trkpt lat="48.42441" lon="7.14679">
        <ele>574.2</ele>
        <time>2022-12-27T11:13:59Z</time>
      </trkpt>
      <trkpt lat="48.42436" lon="7.14674">
        <ele>574.2</ele>
        <time>2022-12-27T11:14:00Z</time>
      </trkpt>
      <trkpt lat="48.42416" lon="7.14655">
        <ele>574.2</ele>
        <time>2022-12-27T11:14:04Z</time>
      </trkpt>
      <trkpt lat="48.42411" lon="7.1465">
        <ele>574.2</ele>
        <time>2022-12-27T11:14:05Z</time>
      </trkpt>
      <trkpt lat="48.42382" lon="7.14617">
        <ele>574.2</ele>
        <time>2022-12-27T11:14:11Z</time>
      </trkpt>
      <trkpt lat="48.42359" lon="7.1457">
        <ele>574.4</ele>
        <time>2022-12-27T11:14:18Z</time>
      </trkpt>
      <trkpt lat="48.42355" lon="7.14564">
        <ele>574.6</ele>
        <time>2022-12-27T11:14:19Z</time>
      </trkpt>
      <trkpt lat="48.42346" lon="7.14554">
        <ele>574.8</ele>
        <time>2022-12-27T11:14:21Z</time>
      </trkpt>
      <trkpt lat="48.42337" lon="7.14544">
        <ele>574.8</ele>
        <time>2022-12-27T11:14:23Z</time>
      </trkpt>
      <trkpt lat="48.42317" lon="7.1452">
        <ele>574.8</ele>
        <time>2022-12-27T11:14:28Z</time>
      </trkpt>
      <trkpt lat="48.42313" lon="7.14515">
        <ele>574.8</ele>
        <time>2022-12-27T11:14:29Z</time>
      </trkpt>
      <trkpt lat="48.4231" lon="7.14508">
        <ele>575</ele>
        <time>2022-12-27T11:14:30Z</time>
      </trkpt>
      <trkpt lat="48.42308" lon="7.14494">
        <ele>575</ele>
        <time>2022-12-27T11:14:32Z</time>
      </trkpt>
      <trkpt lat="48.42312" lon="7.14477">
        <ele>575.2</ele>
        <time>2022-12-27T11:14:34Z</time>
      </trkpt>
      <trkpt lat="48.42318" lon="7.14463">
        <ele>575.2</ele>
        <time>2022-12-27T11:14:36Z</time>
      </trkpt>
      <trkpt lat="48.42323" lon="7.14447">
        <ele>575.2</ele>
        <time>2022-12-27T11:14:38Z</time>
      </trkpt>
      <trkpt lat="48.42325" lon="7.1443">
        <ele>575.2</ele>
        <time>2022-12-27T11:14:40Z</time>
      </trkpt>
      <trkpt lat="48.42323" lon="7.14412">
        <ele>575.4</ele>
        <time>2022-12-27T11:14:42Z</time>
      </trkpt>
      <trkpt lat="48.42319" lon="7.14405">
        <ele>575.4</ele>
        <time>2022-12-27T11:14:43Z</time>
      </trkpt>
      <trkpt lat="48.42313" lon="7.14399">
        <ele>575.2</ele>
        <time>2022-12-27T11:14:44Z</time>
      </trkpt>
      <trkpt lat="48.42303" lon="7.14386">
        <ele>575.6</ele>
        <time>2022-12-27T11:14:46Z</time>
      </trkpt>
      <trkpt lat="48.42291" lon="7.14369">
        <ele>575.6</ele>
        <time>2022-12-27T11:14:49Z</time>
      </trkpt>
      <trkpt lat="48.42286" lon="7.14355">
        <ele>575.6</ele>
        <time>2022-12-27T11:14:51Z</time>
      </trkpt>
      <trkpt lat="48.42278" lon="7.14339">
        <ele>576</ele>
        <time>2022-12-27T11:14:54Z</time>
      </trkpt>
      <trkpt lat="48.42274" lon="7.14319">
        <ele>576</ele>
        <time>2022-12-27T11:14:56Z</time>
      </trkpt>
      <trkpt lat="48.42267" lon="7.14305">
        <ele>576.4</ele>
        <time>2022-12-27T11:14:58Z</time>
      </trkpt>
      <trkpt lat="48.42263" lon="7.14299">
        <ele>576.4</ele>
        <time>2022-12-27T11:14:59Z</time>
      </trkpt>
      <trkpt lat="48.42256" lon="7.14289">
        <ele>576.6</ele>
        <time>2022-12-27T11:15:01Z</time>
      </trkpt>
      <trkpt lat="48.42255" lon="7.14283">
        <ele>576.6</ele>
        <time>2022-12-27T11:15:02Z</time>
      </trkpt>
      <trkpt lat="48.42241" lon="7.14255">
        <ele>576.6</ele>
        <time>2022-12-27T11:15:06Z</time>
      </trkpt>
      <trkpt lat="48.42238" lon="7.14249">
        <ele>576.8</ele>
        <time>2022-12-27T11:15:07Z</time>
      </trkpt>
      <trkpt lat="48.42231" lon="7.14239">
        <ele>576.8</ele>
        <time>2022-12-27T11:15:09Z</time>
      </trkpt>
      <trkpt lat="48.42225" lon="7.14229">
        <ele>577</ele>
        <time>2022-12-27T11:15:11Z</time>
      </trkpt>
      <trkpt lat="48.42217" lon="7.14218">
        <ele>577</ele>
        <time>2022-12-27T11:15:13Z</time>
      </trkpt>
      <trkpt lat="48.42209" lon="7.14208">
        <ele>577.2</ele>
        <time>2022-12-27T11:15:15Z</time>
      </trkpt>
      <trkpt lat="48.42192" lon="7.1419">
        <ele>577.4</ele>
        <time>2022-12-27T11:15:19Z</time>
      </trkpt>
      <trkpt lat="48.42188" lon="7.14187">
        <ele>577.4</ele>
        <time>2022-12-27T11:15:20Z</time>
      </trkpt>
      <trkpt lat="48.42184" lon="7.14183">
        <ele>577.4</ele>
        <time>2022-12-27T11:15:21Z</time>
      </trkpt>
      <trkpt lat="48.42173" lon="7.14168">
        <ele>577.8</ele>
        <time>2022-12-27T11:15:24Z</time>
      </trkpt>
      <trkpt lat="48.42166" lon="7.14157">
        <ele>577.8</ele>
        <time>2022-12-27T11:15:26Z</time>
      </trkpt>
      <trkpt lat="48.42161" lon="7.14146">
        <ele>578</ele>
        <time>2022-12-27T11:15:28Z</time>
      </trkpt>
      <trkpt lat="48.42151" lon="7.14136">
        <ele>578</ele>
        <time>2022-12-27T11:15:30Z</time>
      </trkpt>
      <trkpt lat="48.42148" lon="7.14131">
        <ele>578.2</ele>
        <time>2022-12-27T11:15:31Z</time>
      </trkpt>
      <trkpt lat="48.42132" lon="7.14107">
        <ele>578.4</ele>
        <time>2022-12-27T11:15:35Z</time>
      </trkpt>
      <trkpt lat="48.42123" lon="7.14094">
        <ele>578.6</ele>
        <time>2022-12-27T11:15:37Z</time>
      </trkpt>
      <trkpt lat="48.42119" lon="7.1409">
        <ele>578.6</ele>
        <time>2022-12-27T11:15:38Z</time>
      </trkpt>
      <trkpt lat="48.42107" lon="7.14074">
        <ele>578.4</ele>
        <time>2022-12-27T11:15:41Z</time>
      </trkpt>
      <trkpt lat="48.42096" lon="7.14056">
        <ele>578.6</ele>
        <time>2022-12-27T11:15:44Z</time>
      </trkpt>
      <trkpt lat="48.42086" lon="7.14036">
        <ele>578.6</ele>
        <time>2022-12-27T11:15:47Z</time>
      </trkpt>
      <trkpt lat="48.42077" lon="7.14022">
        <ele>578.8</ele>
        <time>2022-12-27T11:15:50Z</time>
      </trkpt>
      <trkpt lat="48.42074" lon="7.14016">
        <ele>578.8</ele>
        <time>2022-12-27T11:15:51Z</time>
      </trkpt>
      <trkpt lat="48.4207" lon="7.1401">
        <ele>579</ele>
        <time>2022-12-27T11:15:52Z</time>
      </trkpt>
      <trkpt lat="48.42065" lon="7.13997">
        <ele>579</ele>
        <time>2022-12-27T11:15:54Z</time>
      </trkpt>
      <trkpt lat="48.42058" lon="7.13986">
        <ele>579</ele>
        <time>2022-12-27T11:15:56Z</time>
      </trkpt>
      <trkpt lat="48.42051" lon="7.13977">
        <ele>579</ele>
        <time>2022-12-27T11:15:58Z</time>
      </trkpt>
      <trkpt lat="48.42038" lon="7.13954">
        <ele>579</ele>
        <time>2022-12-27T11:16:02Z</time>
      </trkpt>
      <trkpt lat="48.42032" lon="7.13941">
        <ele>578.8</ele>
        <time>2022-12-27T11:16:04Z</time>
      </trkpt>
      <trkpt lat="48.42028" lon="7.13931">
        <ele>579.2</ele>
        <time>2022-12-27T11:16:06Z</time>
      </trkpt>
      <trkpt lat="48.42027" lon="7.13925">
        <ele>579</ele>
        <time>2022-12-27T11:16:07Z</time>
      </trkpt>
      <trkpt lat="48.42024" lon="7.13912">
        <ele>579.2</ele>
        <time>2022-12-27T11:16:09Z</time>
      </trkpt>
      <trkpt lat="48.42021" lon="7.13905">
        <ele>579.2</ele>
        <time>2022-12-27T11:16:10Z</time>
      </trkpt>
      <trkpt lat="48.42018" lon="7.13898">
        <ele>579.2</ele>
        <time>2022-12-27T11:16:11Z</time>
      </trkpt>
      <trkpt lat="48.41999" lon="7.13848">
        <ele>579.6</ele>
        <time>2022-12-27T11:16:18Z</time>
      </trkpt>
      <trkpt lat="48.41994" lon="7.13836">
        <ele>579.6</ele>
        <time>2022-12-27T11:16:20Z</time>
      </trkpt>
      <trkpt lat="48.41985" lon="7.1381">
        <ele>579.6</ele>
        <time>2022-12-27T11:16:24Z</time>
      </trkpt>
      <trkpt lat="48.41971" lon="7.13762">
        <ele>579.8</ele>
        <time>2022-12-27T11:16:31Z</time>
      </trkpt>
      <trkpt lat="48.41963" lon="7.13727">
        <ele>580</ele>
        <time>2022-12-27T11:16:36Z</time>
      </trkpt>
      <trkpt lat="48.41962" lon="7.13721">
        <ele>580</ele>
        <time>2022-12-27T11:16:37Z</time>
      </trkpt>
      <trkpt lat="48.4196" lon="7.13707">
        <ele>580</ele>
        <time>2022-12-27T11:16:39Z</time>
      </trkpt>
      <trkpt lat="48.41956" lon="7.1368">
        <ele>580.4</ele>
        <time>2022-12-27T11:16:42Z</time>
      </trkpt>
      <trkpt lat="48.41953" lon="7.13666">
        <ele>580.4</ele>
        <time>2022-12-27T11:16:44Z</time>
      </trkpt>
      <trkpt lat="48.41951" lon="7.1365">
        <ele>580.4</ele>
        <time>2022-12-27T11:16:46Z</time>
      </trkpt>
      <trkpt lat="48.4195" lon="7.13626">
        <ele>580.6</ele>
        <time>2022-12-27T11:16:49Z</time>
      </trkpt>
      <trkpt lat="48.4195" lon="7.13611">
        <ele>580.6</ele>
        <time>2022-12-27T11:16:51Z</time>
      </trkpt>
      <trkpt lat="48.41951" lon="7.13569">
        <ele>580.6</ele>
        <time>2022-12-27T11:16:57Z</time>
      </trkpt>
      <trkpt lat="48.41951" lon="7.13561">
        <ele>580.6</ele>
        <time>2022-12-27T11:16:58Z</time>
      </trkpt>
      <trkpt lat="48.41949" lon="7.13536">
        <ele>580.6</ele>
        <time>2022-12-27T11:17:01Z</time>
      </trkpt>
      <trkpt lat="48.4195" lon="7.13518">
        <ele>580.6</ele>
        <time>2022-12-27T11:17:03Z</time>
      </trkpt>
      <trkpt lat="48.4195" lon="7.13472">
        <ele>580.6</ele>
        <time>2022-12-27T11:17:08Z</time>
      </trkpt>
      <trkpt lat="48.41951" lon="7.1346">
        <ele>580.8</ele>
        <time>2022-12-27T11:17:10Z</time>
      </trkpt>
      <trkpt lat="48.41954" lon="7.13443">
        <ele>580.8</ele>
        <time>2022-12-27T11:17:12Z</time>
      </trkpt>
      <trkpt lat="48.41958" lon="7.13423">
        <ele>580.6</ele>
        <time>2022-12-27T11:17:15Z</time>
      </trkpt>
      <trkpt lat="48.41959" lon="7.13416">
        <ele>580.6</ele>
        <time>2022-12-27T11:17:16Z</time>
      </trkpt>
      <trkpt lat="48.41962" lon="7.134">
        <ele>580.4</ele>
        <time>2022-12-27T11:17:18Z</time>
      </trkpt>
      <trkpt lat="48.41964" lon="7.13381">
        <ele>580.4</ele>
        <time>2022-12-27T11:17:21Z</time>
      </trkpt>
      <trkpt lat="48.41967" lon="7.13373">
        <ele>580.4</ele>
        <time>2022-12-27T11:17:22Z</time>
      </trkpt>
      <trkpt lat="48.4197" lon="7.1336">
        <ele>580.2</ele>
        <time>2022-12-27T11:17:24Z</time>
      </trkpt>
      <trkpt lat="48.41973" lon="7.13348">
        <ele>580.2</ele>
        <time>2022-12-27T11:17:26Z</time>
      </trkpt>
      <trkpt lat="48.41975" lon="7.13341">
        <ele>580.2</ele>
        <time>2022-12-27T11:17:27Z</time>
      </trkpt>
      <trkpt lat="48.41976" lon="7.13336">
        <ele>580.2</ele>
        <time>2022-12-27T11:17:28Z</time>
      </trkpt>
      <trkpt lat="48.4198" lon="7.13321">
        <ele>579.8</ele>
        <time>2022-12-27T11:17:30Z</time>
      </trkpt>
      <trkpt lat="48.41982" lon="7.13315">
        <ele>579.8</ele>
        <time>2022-12-27T11:17:31Z</time>
      </trkpt>
      <trkpt lat="48.41993" lon="7.13282">
        <ele>579.6</ele>
        <time>2022-12-27T11:17:35Z</time>
      </trkpt>
      <trkpt lat="48.41995" lon="7.13274">
        <ele>579.6</ele>
        <time>2022-12-27T11:17:36Z</time>
      </trkpt>
      <trkpt lat="48.42002" lon="7.13253">
        <ele>579.4</ele>
        <time>2022-12-27T11:17:39Z</time>
      </trkpt>
      <trkpt lat="48.42007" lon="7.13241">
        <ele>579.4</ele>
        <time>2022-12-27T11:17:41Z</time>
      </trkpt>
      <trkpt lat="48.4201" lon="7.13228">
        <ele>579.2</ele>
        <time>2022-12-27T11:17:43Z</time>
      </trkpt>
      <trkpt lat="48.42014" lon="7.13218">
        <ele>579</ele>
        <time>2022-12-27T11:17:45Z</time>
      </trkpt>
      <trkpt lat="48.42016" lon="7.13214">
        <ele>579</ele>
        <time>2022-12-27T11:17:46Z</time>
      </trkpt>
      <trkpt lat="48.42019" lon="7.13199">
        <ele>578.8</ele>
        <time>2022-12-27T11:17:48Z</time>
      </trkpt>
      <trkpt lat="48.4202" lon="7.13194">
        <ele>578.8</ele>
        <time>2022-12-27T11:17:49Z</time>
      </trkpt>
      <trkpt lat="48.42015" lon="7.13192">
        <ele>578.6</ele>
        <time>2022-12-27T11:17:50Z</time>
      </trkpt>
      <trkpt lat="48.4201" lon="7.13186">
        <ele>578.4</ele>
        <time>2022-12-27T11:17:51Z</time>
      </trkpt>
      <trkpt lat="48.42009" lon="7.13187">
        <ele>578.2</ele>
        <time>2022-12-27T11:17:54Z</time>
      </trkpt>
      <trkpt lat="48.42007" lon="7.1319">
        <ele>578.2</ele>
        <time>2022-12-27T11:17:55Z</time>
      </trkpt>
      <trkpt lat="48.42004" lon="7.13197">
        <ele>577.4</ele>
        <time>2022-12-27T11:17:57Z</time>
      </trkpt>
      <trkpt lat="48.42003" lon="7.132">
        <ele>577</ele>
        <time>2022-12-27T11:17:58Z</time>
      </trkpt>
      <trkpt lat="48.42" lon="7.13204">
        <ele>576</ele>
        <time>2022-12-27T11:17:59Z</time>
      </trkpt>
      <trkpt lat="48.41996" lon="7.1321">
        <ele>574.8</ele>
        <time>2022-12-27T11:18:01Z</time>
      </trkpt>
      <trkpt lat="48.41994" lon="7.13213">
        <ele>574.2</ele>
        <time>2022-12-27T11:18:02Z</time>
      </trkpt>
      <trkpt lat="48.41993" lon="7.13216">
        <ele>572.8</ele>
        <time>2022-12-27T11:18:03Z</time>
      </trkpt>
      <trkpt lat="48.41992" lon="7.13218">
        <ele>572.2</ele>
        <time>2022-12-27T11:18:04Z</time>
      </trkpt>
      <trkpt lat="48.4199" lon="7.1322">
        <ele>571.4</ele>
        <time>2022-12-27T11:18:05Z</time>
      </trkpt>
      <trkpt lat="48.41984" lon="7.13229">
        <ele>569.8</ele>
        <time>2022-12-27T11:18:07Z</time>
      </trkpt>
      <trkpt lat="48.4198" lon="7.13234">
        <ele>568.8</ele>
        <time>2022-12-27T11:18:09Z</time>
      </trkpt>
      <trkpt lat="48.41976" lon="7.13238">
        <ele>567.2</ele>
        <time>2022-12-27T11:18:11Z</time>
      </trkpt>
      <trkpt lat="48.41971" lon="7.13241">
        <ele>566</ele>
        <time>2022-12-27T11:18:13Z</time>
      </trkpt>
      <trkpt lat="48.41966" lon="7.13246">
        <ele>564.4</ele>
        <time>2022-12-27T11:18:15Z</time>
      </trkpt>
      <trkpt lat="48.41964" lon="7.13248">
        <ele>563.2</ele>
        <time>2022-12-27T11:18:16Z</time>
      </trkpt>
      <trkpt lat="48.41959" lon="7.13251">
        <ele>562</ele>
        <time>2022-12-27T11:18:18Z</time>
      </trkpt>
      <trkpt lat="48.41953" lon="7.13258">
        <ele>561.4</ele>
        <time>2022-12-27T11:18:20Z</time>
      </trkpt>
      <trkpt lat="48.41952" lon="7.13264">
        <ele>560.8</ele>
        <time>2022-12-27T11:18:21Z</time>
      </trkpt>
      <trkpt lat="48.41951" lon="7.13271">
        <ele>560</ele>
        <time>2022-12-27T11:18:22Z</time>
      </trkpt>
      <trkpt lat="48.41949" lon="7.13276">
        <ele>559.8</ele>
        <time>2022-12-27T11:18:23Z</time>
      </trkpt>
      <trkpt lat="48.41946" lon="7.13282">
        <ele>559.2</ele>
        <time>2022-12-27T11:18:24Z</time>
      </trkpt>
      <trkpt lat="48.41941" lon="7.13288">
        <ele>558.8</ele>
        <time>2022-12-27T11:18:25Z</time>
      </trkpt>
      <trkpt lat="48.41932" lon="7.133">
        <ele>558</ele>
        <time>2022-12-27T11:18:27Z</time>
      </trkpt>
      <trkpt lat="48.41926" lon="7.13307">
        <ele>556.4</ele>
        <time>2022-12-27T11:18:28Z</time>
      </trkpt>
      <trkpt lat="48.41914" lon="7.13326">
        <ele>554.4</ele>
        <time>2022-12-27T11:18:30Z</time>
      </trkpt>
      <trkpt lat="48.41904" lon="7.13347">
        <ele>553.4</ele>
        <time>2022-12-27T11:18:32Z</time>
      </trkpt>
      <trkpt lat="48.419" lon="7.13358">
        <ele>552.6</ele>
        <time>2022-12-27T11:18:33Z</time>
      </trkpt>
      <trkpt lat="48.41891" lon="7.13379">
        <ele>551.2</ele>
        <time>2022-12-27T11:18:35Z</time>
      </trkpt>
      <trkpt lat="48.41885" lon="7.1339">
        <ele>549.8</ele>
        <time>2022-12-27T11:18:36Z</time>
      </trkpt>
      <trkpt lat="48.41881" lon="7.134">
        <ele>549.2</ele>
        <time>2022-12-27T11:18:37Z</time>
      </trkpt>
      <trkpt lat="48.41877" lon="7.1341">
        <ele>548.4</ele>
        <time>2022-12-27T11:18:38Z</time>
      </trkpt>
      <trkpt lat="48.41873" lon="7.1342">
        <ele>547.6</ele>
        <time>2022-12-27T11:18:39Z</time>
      </trkpt>
      <trkpt lat="48.41868" lon="7.1343">
        <ele>546.6</ele>
        <time>2022-12-27T11:18:40Z</time>
      </trkpt>
      <trkpt lat="48.41863" lon="7.13441">
        <ele>545.2</ele>
        <time>2022-12-27T11:18:41Z</time>
      </trkpt>
      <trkpt lat="48.41859" lon="7.13452">
        <ele>543.2</ele>
        <time>2022-12-27T11:18:42Z</time>
      </trkpt>
      <trkpt lat="48.41851" lon="7.13478">
        <ele>541.2</ele>
        <time>2022-12-27T11:18:44Z</time>
      </trkpt>
      <trkpt lat="48.41846" lon="7.13503">
        <ele>539.4</ele>
        <time>2022-12-27T11:18:46Z</time>
      </trkpt>
      <trkpt lat="48.41843" lon="7.13516">
        <ele>538.6</ele>
        <time>2022-12-27T11:18:47Z</time>
      </trkpt>
      <trkpt lat="48.41841" lon="7.1353">
        <ele>537.6</ele>
        <time>2022-12-27T11:18:48Z</time>
      </trkpt>
      <trkpt lat="48.4184" lon="7.13542">
        <ele>537.4</ele>
        <time>2022-12-27T11:18:49Z</time>
      </trkpt>
      <trkpt lat="48.4184" lon="7.13554">
        <ele>536.2</ele>
        <time>2022-12-27T11:18:50Z</time>
      </trkpt>
      <trkpt lat="48.41838" lon="7.13565">
        <ele>535.8</ele>
        <time>2022-12-27T11:18:51Z</time>
      </trkpt>
      <trkpt lat="48.41836" lon="7.13575">
        <ele>535</ele>
        <time>2022-12-27T11:18:52Z</time>
      </trkpt>
      <trkpt lat="48.41833" lon="7.13584">
        <ele>534.8</ele>
        <time>2022-12-27T11:18:53Z</time>
      </trkpt>
      <trkpt lat="48.4182" lon="7.13603">
        <ele>533.8</ele>
        <time>2022-12-27T11:18:56Z</time>
      </trkpt>
      <trkpt lat="48.41816" lon="7.13609">
        <ele>533.2</ele>
        <time>2022-12-27T11:18:57Z</time>
      </trkpt>
      <trkpt lat="48.41813" lon="7.13615">
        <ele>532.8</ele>
        <time>2022-12-27T11:18:58Z</time>
      </trkpt>
      <trkpt lat="48.41806" lon="7.13632">
        <ele>531.6</ele>
        <time>2022-12-27T11:19:01Z</time>
      </trkpt>
      <trkpt lat="48.41799" lon="7.13658">
        <ele>530.4</ele>
        <time>2022-12-27T11:19:05Z</time>
      </trkpt>
      <trkpt lat="48.41795" lon="7.13678">
        <ele>529.2</ele>
        <time>2022-12-27T11:19:08Z</time>
      </trkpt>
      <trkpt lat="48.41794" lon="7.13691">
        <ele>527</ele>
        <time>2022-12-27T11:19:10Z</time>
      </trkpt>
      <trkpt lat="48.41792" lon="7.13697">
        <ele>526.6</ele>
        <time>2022-12-27T11:19:11Z</time>
      </trkpt>
      <trkpt lat="48.4179" lon="7.13703">
        <ele>525</ele>
        <time>2022-12-27T11:19:12Z</time>
      </trkpt>
      <trkpt lat="48.41786" lon="7.13716">
        <ele>522.8</ele>
        <time>2022-12-27T11:19:14Z</time>
      </trkpt>
      <trkpt lat="48.41784" lon="7.13723">
        <ele>522</ele>
        <time>2022-12-27T11:19:15Z</time>
      </trkpt>
      <trkpt lat="48.41782" lon="7.13729">
        <ele>520.8</ele>
        <time>2022-12-27T11:19:16Z</time>
      </trkpt>
      <trkpt lat="48.41779" lon="7.13741">
        <ele>519.4</ele>
        <time>2022-12-27T11:19:18Z</time>
      </trkpt>
      <trkpt lat="48.41774" lon="7.13753">
        <ele>518</ele>
        <time>2022-12-27T11:19:20Z</time>
      </trkpt>
      <trkpt lat="48.41772" lon="7.13758">
        <ele>517.4</ele>
        <time>2022-12-27T11:19:21Z</time>
      </trkpt>
      <trkpt lat="48.4177" lon="7.13763">
        <ele>516.2</ele>
        <time>2022-12-27T11:19:22Z</time>
      </trkpt>
      <trkpt lat="48.41768" lon="7.13774">
        <ele>515.2</ele>
        <time>2022-12-27T11:19:24Z</time>
      </trkpt>
      <trkpt lat="48.41765" lon="7.1378">
        <ele>514.8</ele>
        <time>2022-12-27T11:19:25Z</time>
      </trkpt>
      <trkpt lat="48.41763" lon="7.13787">
        <ele>514</ele>
        <time>2022-12-27T11:19:26Z</time>
      </trkpt>
      <trkpt lat="48.41759" lon="7.13799">
        <ele>512.4</ele>
        <time>2022-12-27T11:19:28Z</time>
      </trkpt>
      <trkpt lat="48.41757" lon="7.13809">
        <ele>510.8</ele>
        <time>2022-12-27T11:19:30Z</time>
      </trkpt>
      <trkpt lat="48.41757" lon="7.13822">
        <ele>509.6</ele>
        <time>2022-12-27T11:19:32Z</time>
      </trkpt>
      <trkpt lat="48.41759" lon="7.13836">
        <ele>507.8</ele>
        <time>2022-12-27T11:19:34Z</time>
      </trkpt>
      <trkpt lat="48.41757" lon="7.13852">
        <ele>505.8</ele>
        <time>2022-12-27T11:19:36Z</time>
      </trkpt>
      <trkpt lat="48.41754" lon="7.13862">
        <ele>503.8</ele>
        <time>2022-12-27T11:19:38Z</time>
      </trkpt>
      <trkpt lat="48.41744" lon="7.1387">
        <ele>502.8</ele>
        <time>2022-12-27T11:19:40Z</time>
      </trkpt>
      <trkpt lat="48.41734" lon="7.13879">
        <ele>501</ele>
        <time>2022-12-27T11:19:42Z</time>
      </trkpt>
      <trkpt lat="48.41732" lon="7.13883">
        <ele>500.2</ele>
        <time>2022-12-27T11:19:43Z</time>
      </trkpt>
      <trkpt lat="48.41731" lon="7.13887">
        <ele>499.4</ele>
        <time>2022-12-27T11:19:44Z</time>
      </trkpt>
      <trkpt lat="48.4173" lon="7.13891">
        <ele>499.2</ele>
        <time>2022-12-27T11:19:45Z</time>
      </trkpt>
      <trkpt lat="48.41731" lon="7.13897">
        <ele>499</ele>
        <time>2022-12-27T11:19:46Z</time>
      </trkpt>
      <trkpt lat="48.41732" lon="7.13902">
        <ele>498.8</ele>
        <time>2022-12-27T11:19:47Z</time>
      </trkpt>
      <trkpt lat="48.41734" lon="7.13909">
        <ele>497.6</ele>
        <time>2022-12-27T11:19:48Z</time>
      </trkpt>
      <trkpt lat="48.4174" lon="7.13927">
        <ele>496.8</ele>
        <time>2022-12-27T11:19:50Z</time>
      </trkpt>
      <trkpt lat="48.41747" lon="7.13943">
        <ele>496.2</ele>
        <time>2022-12-27T11:19:52Z</time>
      </trkpt>
      <trkpt lat="48.41761" lon="7.13975">
        <ele>495.4</ele>
        <time>2022-12-27T11:19:56Z</time>
      </trkpt>
      <trkpt lat="48.41764" lon="7.13983">
        <ele>495.2</ele>
        <time>2022-12-27T11:19:57Z</time>
      </trkpt>
      <trkpt lat="48.41765" lon="7.13992">
        <ele>495.2</ele>
        <time>2022-12-27T11:19:58Z</time>
      </trkpt>
      <trkpt lat="48.41766" lon="7.14007">
        <ele>495.2</ele>
        <time>2022-12-27T11:20:00Z</time>
      </trkpt>
      <trkpt lat="48.41764" lon="7.14014">
        <ele>495.2</ele>
        <time>2022-12-27T11:20:01Z</time>
      </trkpt>
      <trkpt lat="48.41761" lon="7.14019">
        <ele>495</ele>
        <time>2022-12-27T11:20:02Z</time>
      </trkpt>
      <trkpt lat="48.41754" lon="7.14027">
        <ele>495</ele>
        <time>2022-12-27T11:20:04Z</time>
      </trkpt>
      <trkpt lat="48.4175" lon="7.14031">
        <ele>495.2</ele>
        <time>2022-12-27T11:20:05Z</time>
      </trkpt>
      <trkpt lat="48.41718" lon="7.14053">
        <ele>495.8</ele>
        <time>2022-12-27T11:20:12Z</time>
      </trkpt>
      <trkpt lat="48.41694" lon="7.14067">
        <ele>496.2</ele>
        <time>2022-12-27T11:20:17Z</time>
      </trkpt>
      <trkpt lat="48.41688" lon="7.1407">
        <ele>496.4</ele>
        <time>2022-12-27T11:20:18Z</time>
      </trkpt>
      <trkpt lat="48.41674" lon="7.14078">
        <ele>496.4</ele>
        <time>2022-12-27T11:20:21Z</time>
      </trkpt>
      <trkpt lat="48.41659" lon="7.14086">
        <ele>497</ele>
        <time>2022-12-27T11:20:24Z</time>
      </trkpt>
      <trkpt lat="48.41654" lon="7.1409">
        <ele>497.2</ele>
        <time>2022-12-27T11:20:25Z</time>
      </trkpt>
      <trkpt lat="48.41646" lon="7.14096">
        <ele>497.4</ele>
        <time>2022-12-27T11:20:27Z</time>
      </trkpt>
      <trkpt lat="48.41625" lon="7.14113">
        <ele>498.2</ele>
        <time>2022-12-27T11:20:32Z</time>
      </trkpt>
      <trkpt lat="48.41621" lon="7.14117">
        <ele>498.4</ele>
        <time>2022-12-27T11:20:33Z</time>
      </trkpt>
      <trkpt lat="48.41606" lon="7.14133">
        <ele>499.2</ele>
        <time>2022-12-27T11:20:37Z</time>
      </trkpt>
      <trkpt lat="48.41599" lon="7.1414">
        <ele>499.6</ele>
        <time>2022-12-27T11:20:39Z</time>
      </trkpt>
      <trkpt lat="48.41581" lon="7.14156">
        <ele>499.8</ele>
        <time>2022-12-27T11:20:43Z</time>
      </trkpt>
      <trkpt lat="48.41571" lon="7.14164">
        <ele>499.8</ele>
        <time>2022-12-27T11:20:45Z</time>
      </trkpt>
      <trkpt lat="48.41556" lon="7.14175">
        <ele>499.6</ele>
        <time>2022-12-27T11:20:48Z</time>
      </trkpt>
      <trkpt lat="48.4152" lon="7.14194">
        <ele>498.8</ele>
        <time>2022-12-27T11:20:54Z</time>
      </trkpt>
      <trkpt lat="48.41514" lon="7.14196">
        <ele>498.6</ele>
        <time>2022-12-27T11:20:55Z</time>
      </trkpt>
      <trkpt lat="48.41488" lon="7.14207">
        <ele>498</ele>
        <time>2022-12-27T11:20:59Z</time>
      </trkpt>
      <trkpt lat="48.41477" lon="7.14214">
        <ele>497.8</ele>
        <time>2022-12-27T11:21:01Z</time>
      </trkpt>
      <trkpt lat="48.41461" lon="7.14225">
        <ele>497.4</ele>
        <time>2022-12-27T11:21:04Z</time>
      </trkpt>
      <trkpt lat="48.41457" lon="7.14231">
        <ele>497.2</ele>
        <time>2022-12-27T11:21:05Z</time>
      </trkpt>
      <trkpt lat="48.41452" lon="7.14236">
        <ele>497.2</ele>
        <time>2022-12-27T11:21:06Z</time>
      </trkpt>
      <trkpt lat="48.4143" lon="7.14277">
        <ele>496.4</ele>
        <time>2022-12-27T11:21:11Z</time>
      </trkpt>
      <trkpt lat="48.41427" lon="7.14287">
        <ele>496.4</ele>
        <time>2022-12-27T11:21:12Z</time>
      </trkpt>
      <trkpt lat="48.41414" lon="7.1433">
        <ele>495</ele>
        <time>2022-12-27T11:21:16Z</time>
      </trkpt>
      <trkpt lat="48.41406" lon="7.14363">
        <ele>493.8</ele>
        <time>2022-12-27T11:21:19Z</time>
      </trkpt>
      <trkpt lat="48.41399" lon="7.14397">
        <ele>493</ele>
        <time>2022-12-27T11:21:22Z</time>
      </trkpt>
      <trkpt lat="48.41397" lon="7.14407">
        <ele>492.6</ele>
        <time>2022-12-27T11:21:23Z</time>
      </trkpt>
      <trkpt lat="48.41394" lon="7.14418">
        <ele>492.4</ele>
        <time>2022-12-27T11:21:24Z</time>
      </trkpt>
      <trkpt lat="48.41378" lon="7.14491">
        <ele>491.4</ele>
        <time>2022-12-27T11:21:31Z</time>
      </trkpt>
      <trkpt lat="48.41374" lon="7.14509">
        <ele>491.2</ele>
        <time>2022-12-27T11:21:33Z</time>
      </trkpt>
      <trkpt lat="48.41359" lon="7.14601">
        <ele>490.8</ele>
        <time>2022-12-27T11:21:42Z</time>
      </trkpt>
      <trkpt lat="48.41357" lon="7.14621">
        <ele>490.4</ele>
        <time>2022-12-27T11:21:44Z</time>
      </trkpt>
      <trkpt lat="48.41356" lon="7.14658">
        <ele>490.6</ele>
        <time>2022-12-27T11:21:48Z</time>
      </trkpt>
      <trkpt lat="48.41355" lon="7.14736">
        <ele>491</ele>
        <time>2022-12-27T11:21:57Z</time>
      </trkpt>
      <trkpt lat="48.41354" lon="7.14753">
        <ele>490.8</ele>
        <time>2022-12-27T11:21:59Z</time>
      </trkpt>
      <trkpt lat="48.41353" lon="7.14788">
        <ele>490.6</ele>
        <time>2022-12-27T11:22:03Z</time>
      </trkpt>
      <trkpt lat="48.41346" lon="7.14827">
        <ele>490.2</ele>
        <time>2022-12-27T11:22:07Z</time>
      </trkpt>
      <trkpt lat="48.41342" lon="7.14862">
        <ele>489.4</ele>
        <time>2022-12-27T11:22:10Z</time>
      </trkpt>
      <trkpt lat="48.4134" lon="7.14898">
        <ele>488.4</ele>
        <time>2022-12-27T11:22:13Z</time>
      </trkpt>
      <trkpt lat="48.41342" lon="7.14909">
        <ele>487.8</ele>
        <time>2022-12-27T11:22:14Z</time>
      </trkpt>
      <trkpt lat="48.41346" lon="7.14917">
        <ele>487.4</ele>
        <time>2022-12-27T11:22:15Z</time>
      </trkpt>
      <trkpt lat="48.41353" lon="7.14922">
        <ele>487</ele>
        <time>2022-12-27T11:22:16Z</time>
      </trkpt>
      <trkpt lat="48.41359" lon="7.14923">
        <ele>486.6</ele>
        <time>2022-12-27T11:22:17Z</time>
      </trkpt>
      <trkpt lat="48.41374" lon="7.14923">
        <ele>485.8</ele>
        <time>2022-12-27T11:22:19Z</time>
      </trkpt>
      <trkpt lat="48.41383" lon="7.14922">
        <ele>484.8</ele>
        <time>2022-12-27T11:22:20Z</time>
      </trkpt>
      <trkpt lat="48.4139" lon="7.14921">
        <ele>484.6</ele>
        <time>2022-12-27T11:22:21Z</time>
      </trkpt>
      <trkpt lat="48.41405" lon="7.14917">
        <ele>483.6</ele>
        <time>2022-12-27T11:22:23Z</time>
      </trkpt>
      <trkpt lat="48.41411" lon="7.14917">
        <ele>483.2</ele>
        <time>2022-12-27T11:22:24Z</time>
      </trkpt>
      <trkpt lat="48.41422" lon="7.14922">
        <ele>482.4</ele>
        <time>2022-12-27T11:22:26Z</time>
      </trkpt>
      <trkpt lat="48.41427" lon="7.14938">
        <ele>480.8</ele>
        <time>2022-12-27T11:22:28Z</time>
      </trkpt>
      <trkpt lat="48.41429" lon="7.14957">
        <ele>479</ele>
        <time>2022-12-27T11:22:30Z</time>
      </trkpt>
      <trkpt lat="48.41433" lon="7.14974">
        <ele>477.8</ele>
        <time>2022-12-27T11:22:32Z</time>
      </trkpt>
      <trkpt lat="48.41436" lon="7.14983">
        <ele>477.6</ele>
        <time>2022-12-27T11:22:33Z</time>
      </trkpt>
      <trkpt lat="48.41444" lon="7.1501">
        <ele>476.6</ele>
        <time>2022-12-27T11:22:36Z</time>
      </trkpt>
      <trkpt lat="48.41447" lon="7.15019">
        <ele>476.4</ele>
        <time>2022-12-27T11:22:37Z</time>
      </trkpt>
      <trkpt lat="48.41453" lon="7.15037">
        <ele>476</ele>
        <time>2022-12-27T11:22:39Z</time>
      </trkpt>
      <trkpt lat="48.41458" lon="7.15055">
        <ele>475.8</ele>
        <time>2022-12-27T11:22:41Z</time>
      </trkpt>
      <trkpt lat="48.41459" lon="7.15066">
        <ele>475.6</ele>
        <time>2022-12-27T11:22:42Z</time>
      </trkpt>
      <trkpt lat="48.41463" lon="7.15111">
        <ele>474.8</ele>
        <time>2022-12-27T11:22:46Z</time>
      </trkpt>
      <trkpt lat="48.41464" lon="7.15121">
        <ele>474.2</ele>
        <time>2022-12-27T11:22:47Z</time>
      </trkpt>
      <trkpt lat="48.41465" lon="7.1514">
        <ele>473.2</ele>
        <time>2022-12-27T11:22:49Z</time>
      </trkpt>
      <trkpt lat="48.41466" lon="7.15157">
        <ele>472.4</ele>
        <time>2022-12-27T11:22:51Z</time>
      </trkpt>
      <trkpt lat="48.41466" lon="7.15165">
        <ele>472.2</ele>
        <time>2022-12-27T11:22:52Z</time>
      </trkpt>
      <trkpt lat="48.41465" lon="7.1518">
        <ele>470.8</ele>
        <time>2022-12-27T11:22:54Z</time>
      </trkpt>
      <trkpt lat="48.41466" lon="7.15194">
        <ele>468.6</ele>
        <time>2022-12-27T11:22:56Z</time>
      </trkpt>
      <trkpt lat="48.41467" lon="7.15202">
        <ele>468</ele>
        <time>2022-12-27T11:22:57Z</time>
      </trkpt>
      <trkpt lat="48.41468" lon="7.1521">
        <ele>467</ele>
        <time>2022-12-27T11:22:58Z</time>
      </trkpt>
      <trkpt lat="48.4147" lon="7.15225">
        <ele>465.4</ele>
        <time>2022-12-27T11:23:00Z</time>
      </trkpt>
      <trkpt lat="48.41471" lon="7.15234">
        <ele>465</ele>
        <time>2022-12-27T11:23:01Z</time>
      </trkpt>
      <trkpt lat="48.41472" lon="7.15242">
        <ele>464.4</ele>
        <time>2022-12-27T11:23:02Z</time>
      </trkpt>
      <trkpt lat="48.41474" lon="7.15257">
        <ele>462.4</ele>
        <time>2022-12-27T11:23:04Z</time>
      </trkpt>
      <trkpt lat="48.41477" lon="7.15273">
        <ele>460.8</ele>
        <time>2022-12-27T11:23:06Z</time>
      </trkpt>
      <trkpt lat="48.41479" lon="7.1528">
        <ele>460.4</ele>
        <time>2022-12-27T11:23:07Z</time>
      </trkpt>
      <trkpt lat="48.41481" lon="7.15288">
        <ele>459.8</ele>
        <time>2022-12-27T11:23:08Z</time>
      </trkpt>
      <trkpt lat="48.41485" lon="7.15304">
        <ele>458.6</ele>
        <time>2022-12-27T11:23:10Z</time>
      </trkpt>
      <trkpt lat="48.41487" lon="7.15312">
        <ele>457.2</ele>
        <time>2022-12-27T11:23:11Z</time>
      </trkpt>
      <trkpt lat="48.41491" lon="7.15327">
        <ele>454.8</ele>
        <time>2022-12-27T11:23:13Z</time>
      </trkpt>
      <trkpt lat="48.41497" lon="7.15338">
        <ele>452.8</ele>
        <time>2022-12-27T11:23:15Z</time>
      </trkpt>
      <trkpt lat="48.41503" lon="7.15343">
        <ele>451.6</ele>
        <time>2022-12-27T11:23:17Z</time>
      </trkpt>
      <trkpt lat="48.41509" lon="7.15345">
        <ele>450.2</ele>
        <time>2022-12-27T11:23:19Z</time>
      </trkpt>
      <trkpt lat="48.41514" lon="7.15345">
        <ele>449.2</ele>
        <time>2022-12-27T11:23:21Z</time>
      </trkpt>
      <trkpt lat="48.41517" lon="7.15345">
        <ele>448.8</ele>
        <time>2022-12-27T11:23:22Z</time>
      </trkpt>
      <trkpt lat="48.41521" lon="7.15345">
        <ele>447.8</ele>
        <time>2022-12-27T11:23:23Z</time>
      </trkpt>
      <trkpt lat="48.41526" lon="7.15346">
        <ele>447.4</ele>
        <time>2022-12-27T11:23:24Z</time>
      </trkpt>
      <trkpt lat="48.41532" lon="7.15347">
        <ele>446.8</ele>
        <time>2022-12-27T11:23:25Z</time>
      </trkpt>
      <trkpt lat="48.41537" lon="7.15349">
        <ele>446.2</ele>
        <time>2022-12-27T11:23:26Z</time>
      </trkpt>
      <trkpt lat="48.41543" lon="7.15353">
        <ele>445</ele>
        <time>2022-12-27T11:23:27Z</time>
      </trkpt>
      <trkpt lat="48.41547" lon="7.15357">
        <ele>444.6</ele>
        <time>2022-12-27T11:23:28Z</time>
      </trkpt>
      <trkpt lat="48.41551" lon="7.15363">
        <ele>443.6</ele>
        <time>2022-12-27T11:23:29Z</time>
      </trkpt>
      <trkpt lat="48.41553" lon="7.15368">
        <ele>443</ele>
        <time>2022-12-27T11:23:30Z</time>
      </trkpt>
      <trkpt lat="48.41552" lon="7.15374">
        <ele>442.2</ele>
        <time>2022-12-27T11:23:31Z</time>
      </trkpt>
      <trkpt lat="48.4155" lon="7.15379">
        <ele>441.8</ele>
        <time>2022-12-27T11:23:32Z</time>
      </trkpt>
      <trkpt lat="48.41543" lon="7.15389">
        <ele>441</ele>
        <time>2022-12-27T11:23:34Z</time>
      </trkpt>
      <trkpt lat="48.41523" lon="7.15412">
        <ele>440.4</ele>
        <time>2022-12-27T11:23:38Z</time>
      </trkpt>
      <trkpt lat="48.41506" lon="7.15432">
        <ele>440</ele>
        <time>2022-12-27T11:23:41Z</time>
      </trkpt>
      <trkpt lat="48.41488" lon="7.15454">
        <ele>439.4</ele>
        <time>2022-12-27T11:23:44Z</time>
      </trkpt>
      <trkpt lat="48.41469" lon="7.15473">
        <ele>438.8</ele>
        <time>2022-12-27T11:23:47Z</time>
      </trkpt>
      <trkpt lat="48.41442" lon="7.15496">
        <ele>438.4</ele>
        <time>2022-12-27T11:23:51Z</time>
      </trkpt>
      <trkpt lat="48.41402" lon="7.15515">
        <ele>437.8</ele>
        <time>2022-12-27T11:23:56Z</time>
      </trkpt>
      <trkpt lat="48.41386" lon="7.15521">
        <ele>437.6</ele>
        <time>2022-12-27T11:23:58Z</time>
      </trkpt>
      <trkpt lat="48.4136" lon="7.15533">
        <ele>436.8</ele>
        <time>2022-12-27T11:24:01Z</time>
      </trkpt>
      <trkpt lat="48.41342" lon="7.15544">
        <ele>436.2</ele>
        <time>2022-12-27T11:24:03Z</time>
      </trkpt>
      <trkpt lat="48.41324" lon="7.15554">
        <ele>435.4</ele>
        <time>2022-12-27T11:24:05Z</time>
      </trkpt>
      <trkpt lat="48.41306" lon="7.15565">
        <ele>434.4</ele>
        <time>2022-12-27T11:24:07Z</time>
      </trkpt>
      <trkpt lat="48.41278" lon="7.15584">
        <ele>433</ele>
        <time>2022-12-27T11:24:10Z</time>
      </trkpt>
      <trkpt lat="48.41269" lon="7.15591">
        <ele>432.4</ele>
        <time>2022-12-27T11:24:11Z</time>
      </trkpt>
      <trkpt lat="48.4126" lon="7.15599">
        <ele>431.6</ele>
        <time>2022-12-27T11:24:12Z</time>
      </trkpt>
      <trkpt lat="48.41243" lon="7.15614">
        <ele>430.2</ele>
        <time>2022-12-27T11:24:14Z</time>
      </trkpt>
      <trkpt lat="48.41227" lon="7.15631">
        <ele>429.2</ele>
        <time>2022-12-27T11:24:16Z</time>
      </trkpt>
      <trkpt lat="48.41212" lon="7.15648">
        <ele>428.4</ele>
        <time>2022-12-27T11:24:18Z</time>
      </trkpt>
      <trkpt lat="48.41204" lon="7.15657">
        <ele>427.8</ele>
        <time>2022-12-27T11:24:19Z</time>
      </trkpt>
      <trkpt lat="48.41177" lon="7.15696">
        <ele>426.6</ele>
        <time>2022-12-27T11:24:23Z</time>
      </trkpt>
      <trkpt lat="48.41171" lon="7.15706">
        <ele>426.6</ele>
        <time>2022-12-27T11:24:24Z</time>
      </trkpt>
      <trkpt lat="48.41153" lon="7.15738">
        <ele>425.6</ele>
        <time>2022-12-27T11:24:27Z</time>
      </trkpt>
      <trkpt lat="48.41121" lon="7.15789">
        <ele>424.6</ele>
        <time>2022-12-27T11:24:32Z</time>
      </trkpt>
      <trkpt lat="48.41095" lon="7.15829">
        <ele>423</ele>
        <time>2022-12-27T11:24:36Z</time>
      </trkpt>
      <trkpt lat="48.4109" lon="7.1584">
        <ele>422.6</ele>
        <time>2022-12-27T11:24:37Z</time>
      </trkpt>
      <trkpt lat="48.41085" lon="7.15851">
        <ele>422.4</ele>
        <time>2022-12-27T11:24:38Z</time>
      </trkpt>
      <trkpt lat="48.41077" lon="7.15874">
        <ele>421.8</ele>
        <time>2022-12-27T11:24:40Z</time>
      </trkpt>
      <trkpt lat="48.41075" lon="7.15885">
        <ele>421.6</ele>
        <time>2022-12-27T11:24:41Z</time>
      </trkpt>
      <trkpt lat="48.41074" lon="7.15895">
        <ele>421.2</ele>
        <time>2022-12-27T11:24:42Z</time>
      </trkpt>
      <trkpt lat="48.41074" lon="7.15903">
        <ele>421.2</ele>
        <time>2022-12-27T11:24:43Z</time>
      </trkpt>
      <trkpt lat="48.41076" lon="7.15911">
        <ele>420.8</ele>
        <time>2022-12-27T11:24:44Z</time>
      </trkpt>
      <trkpt lat="48.4108" lon="7.15916">
        <ele>420.4</ele>
        <time>2022-12-27T11:24:45Z</time>
      </trkpt>
      <trkpt lat="48.41085" lon="7.15921">
        <ele>419.8</ele>
        <time>2022-12-27T11:24:46Z</time>
      </trkpt>
      <trkpt lat="48.41098" lon="7.15933">
        <ele>419.4</ele>
        <time>2022-12-27T11:24:49Z</time>
      </trkpt>
      <trkpt lat="48.41111" lon="7.15946">
        <ele>419.2</ele>
        <time>2022-12-27T11:24:52Z</time>
      </trkpt>
      <trkpt lat="48.41119" lon="7.15954">
        <ele>419.2</ele>
        <time>2022-12-27T11:24:54Z</time>
      </trkpt>
      <trkpt lat="48.41122" lon="7.15958">
        <ele>419.2</ele>
        <time>2022-12-27T11:24:55Z</time>
      </trkpt>
      <trkpt lat="48.41128" lon="7.15975">
        <ele>419.4</ele>
        <time>2022-12-27T11:24:58Z</time>
      </trkpt>
      <trkpt lat="48.41133" lon="7.15995">
        <ele>421</ele>
        <time>2022-12-27T11:25:02Z</time>
      </trkpt>
      <trkpt lat="48.41134" lon="7.15999">
        <ele>421.4</ele>
        <time>2022-12-27T11:25:03Z</time>
      </trkpt>
      <trkpt lat="48.41134" lon="7.16002">
        <ele>422.4</ele>
        <time>2022-12-27T11:25:05Z</time>
      </trkpt>
      <trkpt lat="48.41134" lon="7.16002">
        <ele>422.8</ele>
        <time>2022-12-27T11:25:06Z</time>
      </trkpt>
    </trkseg>
  </trk>
</gpx>